<?xml version='1.0' encoding='UTF-8'?><gpx version="1.1" creator="JPX - https://github.com/jenetics/jpx" xmlns="http://www.topografix.com/GPX/1/1"><trk><trkseg><trkpt lat="43.62704" lon="11.5168317"><ele>147.0</ele><time>2026-04-07T14:47:32.289Z</time></trkpt><trkpt lat="43.6269883" lon="11.5169417"><ele>147.0</ele><time>2026-04-07T14:47:34.288Z</time></trkpt><trkpt lat="43.62692" lon="11.5170267"><ele>147.0</ele><time>2026-04-07T14:47:36.288Z</time></trkpt><trkpt lat="43.6268933" lon="11.5171367"><ele>147.0</ele><time>2026-04-07T14:47:39.289Z</time></trkpt><trkpt lat="43.6269767" lon="11.51717"><ele>147.0</ele><time>2026-04-07T14:47:42.286Z</time></trkpt><trkpt lat="43.627065" lon="11.5172033"><ele>147.0</ele><time>2026-04-07T14:47:44.287Z</time></trkpt><trkpt lat="43.6271717" lon="11.5172383"><ele>147.6</ele><time>2026-04-07T14:47:46.286Z</time></trkpt><trkpt lat="43.6272683" lon="11.5172617"><ele>148.2</ele><time>2026-04-07T14:47:48.286Z</time></trkpt><trkpt lat="43.62737" lon="11.5172917"><ele>148.8</ele><time>2026-04-07T14:47:50.287Z</time></trkpt><trkpt lat="43.6274717" lon="11.517325"><ele>149.4</ele><time>2026-04-07T14:47:52.288Z</time></trkpt><trkpt lat="43.627565" lon="11.5173617"><ele>150.0</ele><time>2026-04-07T14:47:54.288Z</time></trkpt><trkpt lat="43.6276433" lon="11.5173833"><ele>150.0</ele><time>2026-04-07T14:47:56.288Z</time></trkpt><trkpt lat="43.6277117" lon="11.51741"><ele>150.0</ele><time>2026-04-07T14:47:58.287Z</time></trkpt><trkpt lat="43.6277817" lon="11.5174133"><ele>150.0</ele><time>2026-04-07T14:48:04.285Z</time></trkpt><trkpt lat="43.6278417" lon="11.5173567"><ele>150.0</ele><time>2026-04-07T14:48:07.288Z</time></trkpt><trkpt lat="43.6278717" lon="11.5172783"><ele>150.0</ele><time>2026-04-07T14:48:09.286Z</time></trkpt><trkpt lat="43.627885" lon="11.5171483"><ele>150.0</ele><time>2026-04-07T14:48:11.286Z</time></trkpt><trkpt lat="43.6278883" lon="11.516975"><ele>150.66666666666666</ele><time>2026-04-07T14:48:13.288Z</time></trkpt><trkpt lat="43.6278883" lon="11.5168767"><ele>151.33333333333334</ele><time>2026-04-07T14:48:14.287Z</time></trkpt><trkpt lat="43.62789" lon="11.5167717"><ele>152.0</ele><time>2026-04-07T14:48:15.288Z</time></trkpt><trkpt lat="43.6278933" lon="11.516665"><ele>152.66666666666669</ele><time>2026-04-07T14:48:16.29Z</time></trkpt><trkpt lat="43.6279" lon="11.516555"><ele>153.33333333333334</ele><time>2026-04-07T14:48:17.287Z</time></trkpt><trkpt lat="43.6279017" lon="11.5164383"><ele>154.0</ele><time>2026-04-07T14:48:18.288Z</time></trkpt><trkpt lat="43.6278983" lon="11.516325"><ele>154.0</ele><time>2026-04-07T14:48:19.288Z</time></trkpt><trkpt lat="43.6278933" lon="11.5162067"><ele>154.0</ele><time>2026-04-07T14:48:20.288Z</time></trkpt><trkpt lat="43.6278883" lon="11.5160867"><ele>154.0</ele><time>2026-04-07T14:48:21.287Z</time></trkpt><trkpt lat="43.6278817" lon="11.5159683"><ele>154.0</ele><time>2026-04-07T14:48:22.285Z</time></trkpt><trkpt lat="43.6278767" lon="11.51585"><ele>154.0</ele><time>2026-04-07T14:48:23.286Z</time></trkpt><trkpt lat="43.62787" lon="11.5157267"><ele>154.0</ele><time>2026-04-07T14:48:24.288Z</time></trkpt><trkpt lat="43.6278667" lon="11.5156083"><ele>154.0</ele><time>2026-04-07T14:48:25.29Z</time></trkpt><trkpt lat="43.6278617" lon="11.51549"><ele>154.0</ele><time>2026-04-07T14:48:26.289Z</time></trkpt><trkpt lat="43.6278567" lon="11.51537"><ele>154.0</ele><time>2026-04-07T14:48:27.289Z</time></trkpt><trkpt lat="43.6278517" lon="11.5152583"><ele>154.0</ele><time>2026-04-07T14:48:28.287Z</time></trkpt><trkpt lat="43.6278467" lon="11.5151467"><ele>154.0</ele><time>2026-04-07T14:48:29.287Z</time></trkpt><trkpt lat="43.6278417" lon="11.5150333"><ele>154.0</ele><time>2026-04-07T14:48:30.287Z</time></trkpt><trkpt lat="43.6278367" lon="11.5149267"><ele>154.0</ele><time>2026-04-07T14:48:31.287Z</time></trkpt><trkpt lat="43.62783" lon="11.5148167"><ele>154.0</ele><time>2026-04-07T14:48:32.288Z</time></trkpt><trkpt lat="43.6278233" lon="11.514705"><ele>154.0</ele><time>2026-04-07T14:48:33.288Z</time></trkpt><trkpt lat="43.6278167" lon="11.51459"><ele>154.0</ele><time>2026-04-07T14:48:34.288Z</time></trkpt><trkpt lat="43.6278067" lon="11.514475"><ele>154.0</ele><time>2026-04-07T14:48:35.287Z</time></trkpt><trkpt lat="43.6277967" lon="11.5143667"><ele>154.0</ele><time>2026-04-07T14:48:36.287Z</time></trkpt><trkpt lat="43.6277867" lon="11.5142567"><ele>152.5</ele><time>2026-04-07T14:48:37.29Z</time></trkpt><trkpt lat="43.627775" lon="11.5141483"><ele>151.0</ele><time>2026-04-07T14:48:38.288Z</time></trkpt><trkpt lat="43.6277617" lon="11.51403"><ele>149.5</ele><time>2026-04-07T14:48:39.287Z</time></trkpt><trkpt lat="43.627745" lon="11.5139117"><ele>148.0</ele><time>2026-04-07T14:48:40.287Z</time></trkpt><trkpt lat="43.62773" lon="11.513795"><ele>146.5</ele><time>2026-04-07T14:48:41.287Z</time></trkpt><trkpt lat="43.6277217" lon="11.5136783"><ele>145.0</ele><time>2026-04-07T14:48:42.288Z</time></trkpt><trkpt lat="43.6277233" lon="11.51357"><ele>145.0</ele><time>2026-04-07T14:48:43.288Z</time></trkpt><trkpt lat="43.6277383" lon="11.5134717"><ele>145.0</ele><time>2026-04-07T14:48:44.289Z</time></trkpt><trkpt lat="43.6277733" lon="11.513385"><ele>145.0</ele><time>2026-04-07T14:48:45.287Z</time></trkpt><trkpt lat="43.6278233" lon="11.51331"><ele>145.0</ele><time>2026-04-07T14:48:46.286Z</time></trkpt><trkpt lat="43.62789" lon="11.5132683"><ele>145.0</ele><time>2026-04-07T14:48:47.29Z</time></trkpt><trkpt lat="43.6279617" lon="11.513255"><ele>145.0</ele><time>2026-04-07T14:48:48.285Z</time></trkpt><trkpt lat="43.628035" lon="11.5132467"><ele>145.0</ele><time>2026-04-07T14:48:49.287Z</time></trkpt><trkpt lat="43.6281117" lon="11.51323"><ele>145.0</ele><time>2026-04-07T14:48:50.288Z</time></trkpt><trkpt lat="43.6281817" lon="11.51321"><ele>145.0</ele><time>2026-04-07T14:48:51.286Z</time></trkpt><trkpt lat="43.62825" lon="11.5131883"><ele>145.0</ele><time>2026-04-07T14:48:52.29Z</time></trkpt><trkpt lat="43.6283167" lon="11.513165"><ele>145.0</ele><time>2026-04-07T14:48:53.289Z</time></trkpt><trkpt lat="43.6283817" lon="11.5131417"><ele>145.0</ele><time>2026-04-07T14:48:54.29Z</time></trkpt><trkpt lat="43.62845" lon="11.5131217"><ele>145.0</ele><time>2026-04-07T14:48:55.289Z</time></trkpt><trkpt lat="43.628515" lon="11.5131"><ele>145.0</ele><time>2026-04-07T14:48:56.288Z</time></trkpt><trkpt lat="43.6286367" lon="11.513055"><ele>145.4</ele><time>2026-04-07T14:48:58.289Z</time></trkpt><trkpt lat="43.628705" lon="11.5130283"><ele>145.8</ele><time>2026-04-07T14:48:59.288Z</time></trkpt><trkpt lat="43.628825" lon="11.5129817"><ele>146.2</ele><time>2026-04-07T14:49:01.288Z</time></trkpt><trkpt lat="43.62889" lon="11.5129633"><ele>146.6</ele><time>2026-04-07T14:49:02.291Z</time></trkpt><trkpt lat="43.629015" lon="11.5129383"><ele>147.0</ele><time>2026-04-07T14:49:04.289Z</time></trkpt><trkpt lat="43.6291333" lon="11.512905"><ele>147.0</ele><time>2026-04-07T14:49:06.289Z</time></trkpt><trkpt lat="43.6292467" lon="11.5128783"><ele>147.0</ele><time>2026-04-07T14:49:08.289Z</time></trkpt><trkpt lat="43.629365" lon="11.512845"><ele>147.0</ele><time>2026-04-07T14:49:10.287Z</time></trkpt><trkpt lat="43.6294867" lon="11.5128117"><ele>147.0</ele><time>2026-04-07T14:49:12.287Z</time></trkpt><trkpt lat="43.6296033" lon="11.5127767"><ele>147.0</ele><time>2026-04-07T14:49:14.287Z</time></trkpt><trkpt lat="43.629665" lon="11.512755"><ele>147.0</ele><time>2026-04-07T14:49:15.288Z</time></trkpt><trkpt lat="43.62978" lon="11.5127117"><ele>147.0</ele><time>2026-04-07T14:49:17.289Z</time></trkpt><trkpt lat="43.6298867" lon="11.5126383"><ele>147.0</ele><time>2026-04-07T14:49:19.289Z</time></trkpt><trkpt lat="43.6299617" lon="11.5125083"><ele>147.0</ele><time>2026-04-07T14:49:21.291Z</time></trkpt><trkpt lat="43.630005" lon="11.5123567"><ele>147.0</ele><time>2026-04-07T14:49:23.288Z</time></trkpt><trkpt lat="43.63004" lon="11.5121933"><ele>147.0</ele><time>2026-04-07T14:49:25.289Z</time></trkpt><trkpt lat="43.6300567" lon="11.5121083"><ele>147.0</ele><time>2026-04-07T14:49:26.289Z</time></trkpt><trkpt lat="43.6300683" lon="11.5120217"><ele>147.0</ele><time>2026-04-07T14:49:27.287Z</time></trkpt><trkpt lat="43.6300933" lon="11.511855"><ele>147.0</ele><time>2026-04-07T14:49:29.288Z</time></trkpt><trkpt lat="43.63013" lon="11.511695"><ele>147.75</ele><time>2026-04-07T14:49:31.289Z</time></trkpt><trkpt lat="43.63018" lon="11.5115433"><ele>148.5</ele><time>2026-04-07T14:49:33.289Z</time></trkpt><trkpt lat="43.6302583" lon="11.511425"><ele>149.25</ele><time>2026-04-07T14:49:35.289Z</time></trkpt><trkpt lat="43.6303567" lon="11.5113517"><ele>150.0</ele><time>2026-04-07T14:49:37.288Z</time></trkpt><trkpt lat="43.6304683" lon="11.51131"><ele>150.75</ele><time>2026-04-07T14:49:39.291Z</time></trkpt><trkpt lat="43.6305817" lon="11.5112667"><ele>151.5</ele><time>2026-04-07T14:49:41.288Z</time></trkpt><trkpt lat="43.63069" lon="11.5112267"><ele>152.25</ele><time>2026-04-07T14:49:43.288Z</time></trkpt><trkpt lat="43.6307967" lon="11.5111833"><ele>153.0</ele><time>2026-04-07T14:49:45.288Z</time></trkpt><trkpt lat="43.6309083" lon="11.5111383"><ele>153.6</ele><time>2026-04-07T14:49:47.29Z</time></trkpt><trkpt lat="43.6310217" lon="11.5111067"><ele>154.20000000000002</ele><time>2026-04-07T14:49:49.286Z</time></trkpt><trkpt lat="43.6311383" lon="11.5110867"><ele>154.8</ele><time>2026-04-07T14:49:51.288Z</time></trkpt><trkpt lat="43.63125" lon="11.5110933"><ele>155.4</ele><time>2026-04-07T14:49:53.287Z</time></trkpt><trkpt lat="43.63135" lon="11.5111117"><ele>156.0</ele><time>2026-04-07T14:49:55.29Z</time></trkpt><trkpt lat="43.631435" lon="11.5111333"><ele>156.14285714285714</ele><time>2026-04-07T14:49:57.289Z</time></trkpt><trkpt lat="43.6315083" lon="11.5111467"><ele>156.28571428571428</ele><time>2026-04-07T14:49:59.289Z</time></trkpt><trkpt lat="43.6315717" lon="11.5111633"><ele>156.42857142857142</ele><time>2026-04-07T14:50:01.289Z</time></trkpt><trkpt lat="43.6316417" lon="11.5111783"><ele>156.57142857142856</ele><time>2026-04-07T14:50:03.288Z</time></trkpt><trkpt lat="43.6317117" lon="11.5111933"><ele>156.71428571428572</ele><time>2026-04-07T14:50:05.288Z</time></trkpt><trkpt lat="43.6317767" lon="11.511205"><ele>156.85714285714283</ele><time>2026-04-07T14:50:07.289Z</time></trkpt><trkpt lat="43.6318567" lon="11.5112"><ele>157.0</ele><time>2026-04-07T14:50:10.289Z</time></trkpt><trkpt lat="43.6319417" lon="11.5112"><ele>158.5</ele><time>2026-04-07T14:50:13.29Z</time></trkpt><trkpt lat="43.6320233" lon="11.5111933"><ele>160.0</ele><time>2026-04-07T14:50:16.288Z</time></trkpt><trkpt lat="43.63211" lon="11.5111883"><ele>161.5</ele><time>2026-04-07T14:50:19.289Z</time></trkpt><trkpt lat="43.63218" lon="11.5111533"><ele>163.0</ele><time>2026-04-07T14:50:22.29Z</time></trkpt><trkpt lat="43.6322567" lon="11.51112"><ele>164.5</ele><time>2026-04-07T14:50:25.288Z</time></trkpt><trkpt lat="43.6323433" lon="11.5110967"><ele>166.0</ele><time>2026-04-07T14:50:28.288Z</time></trkpt><trkpt lat="43.6324267" lon="11.511065"><ele>166.0</ele><time>2026-04-07T14:50:31.288Z</time></trkpt><trkpt lat="43.6325083" lon="11.5110317"><ele>166.0</ele><time>2026-04-07T14:50:34.288Z</time></trkpt><trkpt lat="43.6325883" lon="11.510995"><ele>166.0</ele><time>2026-04-07T14:50:37.287Z</time></trkpt><trkpt lat="43.632675" lon="11.5109583"><ele>166.0</ele><time>2026-04-07T14:50:40.287Z</time></trkpt><trkpt lat="43.6327583" lon="11.510915"><ele>166.0</ele><time>2026-04-07T14:50:43.29Z</time></trkpt><trkpt lat="43.63283" lon="11.5108683"><ele>166.0</ele><time>2026-04-07T14:50:46.286Z</time></trkpt><trkpt lat="43.6329183" lon="11.5108283"><ele>167.5</ele><time>2026-04-07T14:50:49.288Z</time></trkpt><trkpt lat="43.632995" lon="11.5107883"><ele>169.0</ele><time>2026-04-07T14:50:52.288Z</time></trkpt><trkpt lat="43.6330717" lon="11.5107417"><ele>170.5</ele><time>2026-04-07T14:50:55.288Z</time></trkpt><trkpt lat="43.6331433" lon="11.5106867"><ele>172.0</ele><time>2026-04-07T14:50:58.29Z</time></trkpt><trkpt lat="43.6332117" lon="11.510635"><ele>173.5</ele><time>2026-04-07T14:51:01.289Z</time></trkpt><trkpt lat="43.63328" lon="11.5105783"><ele>175.0</ele><time>2026-04-07T14:51:04.286Z</time></trkpt><trkpt lat="43.6333367" lon="11.51054"><ele>175.0</ele><time>2026-04-07T14:51:06.288Z</time></trkpt><trkpt lat="43.633395" lon="11.510505"><ele>175.0</ele><time>2026-04-07T14:51:08.289Z</time></trkpt><trkpt lat="43.6334633" lon="11.5104533"><ele>175.0</ele><time>2026-04-07T14:51:11.289Z</time></trkpt><trkpt lat="43.6335333" lon="11.5103967"><ele>175.0</ele><time>2026-04-07T14:51:14.288Z</time></trkpt><trkpt lat="43.63361" lon="11.5103483"><ele>175.0</ele><time>2026-04-07T14:51:17.288Z</time></trkpt><trkpt lat="43.6336867" lon="11.510285"><ele>175.0</ele><time>2026-04-07T14:51:20.287Z</time></trkpt><trkpt lat="43.6337433" lon="11.510245"><ele>175.71428571428572</ele><time>2026-04-07T14:51:22.288Z</time></trkpt><trkpt lat="43.6338" lon="11.5102017"><ele>176.42857142857144</ele><time>2026-04-07T14:51:24.288Z</time></trkpt><trkpt lat="43.633865" lon="11.5101567"><ele>177.14285714285714</ele><time>2026-04-07T14:51:26.288Z</time></trkpt><trkpt lat="43.6339283" lon="11.5101117"><ele>177.85714285714286</ele><time>2026-04-07T14:51:28.286Z</time></trkpt><trkpt lat="43.6339917" lon="11.5100683"><ele>178.57142857142858</ele><time>2026-04-07T14:51:30.29Z</time></trkpt><trkpt lat="43.634065" lon="11.5100217"><ele>179.28571428571428</ele><time>2026-04-07T14:51:32.287Z</time></trkpt><trkpt lat="43.6341467" lon="11.5099733"><ele>180.0</ele><time>2026-04-07T14:51:34.288Z</time></trkpt><trkpt lat="43.63424" lon="11.5099117"><ele>180.0</ele><time>2026-04-07T14:51:36.289Z</time></trkpt><trkpt lat="43.63434" lon="11.5098483"><ele>180.0</ele><time>2026-04-07T14:51:38.288Z</time></trkpt><trkpt lat="43.634465" lon="11.50979"><ele>180.0</ele><time>2026-04-07T14:51:40.288Z</time></trkpt><trkpt lat="43.6345383" lon="11.509755"><ele>180.0</ele><time>2026-04-07T14:51:41.288Z</time></trkpt><trkpt lat="43.6346183" lon="11.5097183"><ele>180.0</ele><time>2026-04-07T14:51:42.29Z</time></trkpt><trkpt lat="43.6346983" lon="11.50968"><ele>179.0</ele><time>2026-04-07T14:51:43.289Z</time></trkpt><trkpt lat="43.634785" lon="11.50964"><ele>178.0</ele><time>2026-04-07T14:51:44.288Z</time></trkpt><trkpt lat="43.6348717" lon="11.5095983"><ele>177.0</ele><time>2026-04-07T14:51:45.289Z</time></trkpt><trkpt lat="43.63496" lon="11.5095517"><ele>176.0</ele><time>2026-04-07T14:51:46.291Z</time></trkpt><trkpt lat="43.6350517" lon="11.5094933"><ele>175.0</ele><time>2026-04-07T14:51:47.29Z</time></trkpt><trkpt lat="43.6351467" lon="11.5094233"><ele>175.0</ele><time>2026-04-07T14:51:48.289Z</time></trkpt><trkpt lat="43.6352483" lon="11.50934"><ele>175.0</ele><time>2026-04-07T14:51:49.288Z</time></trkpt><trkpt lat="43.6353483" lon="11.5092467"><ele>175.0</ele><time>2026-04-07T14:51:50.289Z</time></trkpt><trkpt lat="43.6354517" lon="11.5091433"><ele>175.0</ele><time>2026-04-07T14:51:51.289Z</time></trkpt><trkpt lat="43.6355517" lon="11.509025"><ele>172.75</ele><time>2026-04-07T14:51:52.289Z</time></trkpt><trkpt lat="43.6356483" lon="11.508895"><ele>170.5</ele><time>2026-04-07T14:51:53.29Z</time></trkpt><trkpt lat="43.6357367" lon="11.50875"><ele>168.25</ele><time>2026-04-07T14:51:54.289Z</time></trkpt><trkpt lat="43.6358117" lon="11.508595"><ele>166.0</ele><time>2026-04-07T14:51:55.288Z</time></trkpt><trkpt lat="43.6358767" lon="11.5084317"><ele>164.5</ele><time>2026-04-07T14:51:56.289Z</time></trkpt><trkpt lat="43.635935" lon="11.5082667"><ele>163.0</ele><time>2026-04-07T14:51:57.289Z</time></trkpt><trkpt lat="43.63599" lon="11.5081033"><ele>161.5</ele><time>2026-04-07T14:51:58.29Z</time></trkpt><trkpt lat="43.636045" lon="11.50794"><ele>160.0</ele><time>2026-04-07T14:51:59.288Z</time></trkpt><trkpt lat="43.6361033" lon="11.5077833"><ele>159.25</ele><time>2026-04-07T14:52:00.291Z</time></trkpt><trkpt lat="43.6361583" lon="11.50763"><ele>158.5</ele><time>2026-04-07T14:52:01.29Z</time></trkpt><trkpt lat="43.6362067" lon="11.5074867"><ele>157.75</ele><time>2026-04-07T14:52:02.29Z</time></trkpt><trkpt lat="43.6362517" lon="11.5073417"><ele>157.0</ele><time>2026-04-07T14:52:03.29Z</time></trkpt><trkpt lat="43.6362967" lon="11.5072"><ele>156.79999999999998</ele><time>2026-04-07T14:52:04.291Z</time></trkpt><trkpt lat="43.6363467" lon="11.5070583"><ele>156.6</ele><time>2026-04-07T14:52:05.289Z</time></trkpt><trkpt lat="43.6363933" lon="11.5069183"><ele>156.39999999999998</ele><time>2026-04-07T14:52:06.287Z</time></trkpt><trkpt lat="43.636435" lon="11.5067917"><ele>156.2</ele><time>2026-04-07T14:52:07.288Z</time></trkpt><trkpt lat="43.6364767" lon="11.5066667"><ele>156.0</ele><time>2026-04-07T14:52:08.288Z</time></trkpt><trkpt lat="43.63652" lon="11.5065417"><ele>156.0</ele><time>2026-04-07T14:52:09.288Z</time></trkpt><trkpt lat="43.6365617" lon="11.5064233"><ele>156.0</ele><time>2026-04-07T14:52:10.288Z</time></trkpt><trkpt lat="43.6366" lon="11.5063067"><ele>156.0</ele><time>2026-04-07T14:52:11.286Z</time></trkpt><trkpt lat="43.63664" lon="11.5061867"><ele>156.0</ele><time>2026-04-07T14:52:12.285Z</time></trkpt><trkpt lat="43.6366833" lon="11.50607"><ele>156.0</ele><time>2026-04-07T14:52:13.287Z</time></trkpt><trkpt lat="43.6367367" lon="11.5059533"><ele>155.4</ele><time>2026-04-07T14:52:14.287Z</time></trkpt><trkpt lat="43.6367883" lon="11.50584"><ele>154.8</ele><time>2026-04-07T14:52:15.29Z</time></trkpt><trkpt lat="43.636845" lon="11.50573"><ele>154.20000000000002</ele><time>2026-04-07T14:52:16.29Z</time></trkpt><trkpt lat="43.6368983" lon="11.505615"><ele>153.6</ele><time>2026-04-07T14:52:17.287Z</time></trkpt><trkpt lat="43.636955" lon="11.5055017"><ele>153.0</ele><time>2026-04-07T14:52:18.287Z</time></trkpt><trkpt lat="43.6370183" lon="11.5053883"><ele>151.4</ele><time>2026-04-07T14:52:19.287Z</time></trkpt><trkpt lat="43.6370817" lon="11.5052783"><ele>149.8</ele><time>2026-04-07T14:52:20.287Z</time></trkpt><trkpt lat="43.637145" lon="11.5051783"><ele>148.2</ele><time>2026-04-07T14:52:21.287Z</time></trkpt><trkpt lat="43.637205" lon="11.50508"><ele>146.6</ele><time>2026-04-07T14:52:22.289Z</time></trkpt><trkpt lat="43.6372633" lon="11.5049867"><ele>145.0</ele><time>2026-04-07T14:52:23.287Z</time></trkpt><trkpt lat="43.6373183" lon="11.504895"><ele>145.0</ele><time>2026-04-07T14:52:24.289Z</time></trkpt><trkpt lat="43.6373667" lon="11.5048017"><ele>145.0</ele><time>2026-04-07T14:52:25.288Z</time></trkpt><trkpt lat="43.6374033" lon="11.5047017"><ele>145.0</ele><time>2026-04-07T14:52:26.289Z</time></trkpt><trkpt lat="43.63742" lon="11.5045883"><ele>145.0</ele><time>2026-04-07T14:52:27.287Z</time></trkpt><trkpt lat="43.637415" lon="11.5044817"><ele>145.0</ele><time>2026-04-07T14:52:28.29Z</time></trkpt><trkpt lat="43.637385" lon="11.5043817"><ele>145.0</ele><time>2026-04-07T14:52:29.289Z</time></trkpt><trkpt lat="43.6373383" lon="11.5042883"><ele>144.5</ele><time>2026-04-07T14:52:30.289Z</time></trkpt><trkpt lat="43.6372883" lon="11.5041933"><ele>144.0</ele><time>2026-04-07T14:52:31.289Z</time></trkpt><trkpt lat="43.6372483" lon="11.5040917"><ele>143.5</ele><time>2026-04-07T14:52:32.287Z</time></trkpt><trkpt lat="43.6372183" lon="11.5039833"><ele>143.0</ele><time>2026-04-07T14:52:33.292Z</time></trkpt><trkpt lat="43.6371983" lon="11.5038683"><ele>142.5</ele><time>2026-04-07T14:52:34.288Z</time></trkpt><trkpt lat="43.6371833" lon="11.5037517"><ele>142.0</ele><time>2026-04-07T14:52:35.288Z</time></trkpt><trkpt lat="43.63717" lon="11.5036333"><ele>142.0</ele><time>2026-04-07T14:52:36.287Z</time></trkpt><trkpt lat="43.6371517" lon="11.5035217"><ele>142.0</ele><time>2026-04-07T14:52:37.287Z</time></trkpt><trkpt lat="43.6371367" lon="11.5034083"><ele>142.0</ele><time>2026-04-07T14:52:38.288Z</time></trkpt><trkpt lat="43.6371233" lon="11.5033017"><ele>142.0</ele><time>2026-04-07T14:52:39.288Z</time></trkpt><trkpt lat="43.6371183" lon="11.5031967"><ele>142.0</ele><time>2026-04-07T14:52:40.288Z</time></trkpt><trkpt lat="43.637125" lon="11.5030983"><ele>142.0</ele><time>2026-04-07T14:52:41.288Z</time></trkpt><trkpt lat="43.6371517" lon="11.5030183"><ele>142.0</ele><time>2026-04-07T14:52:42.286Z</time></trkpt><trkpt lat="43.6371967" lon="11.50295"><ele>142.0</ele><time>2026-04-07T14:52:43.288Z</time></trkpt><trkpt lat="43.63725" lon="11.50289"><ele>142.0</ele><time>2026-04-07T14:52:44.288Z</time></trkpt><trkpt lat="43.637305" lon="11.502835"><ele>142.0</ele><time>2026-04-07T14:52:45.286Z</time></trkpt><trkpt lat="43.6373583" lon="11.5027817"><ele>142.0</ele><time>2026-04-07T14:52:46.287Z</time></trkpt><trkpt lat="43.637455" lon="11.50268"><ele>142.0</ele><time>2026-04-07T14:52:48.288Z</time></trkpt><trkpt lat="43.637505" lon="11.5026217"><ele>141.85714285714286</ele><time>2026-04-07T14:52:49.29Z</time></trkpt><trkpt lat="43.6375567" lon="11.502565"><ele>141.7142857142857</ele><time>2026-04-07T14:52:50.287Z</time></trkpt><trkpt lat="43.6376167" lon="11.5025283"><ele>141.57142857142856</ele><time>2026-04-07T14:52:51.288Z</time></trkpt><trkpt lat="43.63768" lon="11.5025267"><ele>141.42857142857142</ele><time>2026-04-07T14:52:52.289Z</time></trkpt><trkpt lat="43.6377383" lon="11.502565"><ele>141.28571428571428</ele><time>2026-04-07T14:52:53.291Z</time></trkpt><trkpt lat="43.6377883" lon="11.502635"><ele>141.14285714285714</ele><time>2026-04-07T14:52:54.289Z</time></trkpt><trkpt lat="43.6378183" lon="11.5027233"><ele>141.0</ele><time>2026-04-07T14:52:55.288Z</time></trkpt><trkpt lat="43.6378433" lon="11.5028183"><ele>141.71428571428572</ele><time>2026-04-07T14:52:56.29Z</time></trkpt><trkpt lat="43.63787" lon="11.50291"><ele>142.42857142857142</ele><time>2026-04-07T14:52:57.287Z</time></trkpt><trkpt lat="43.637905" lon="11.5030017"><ele>143.14285714285714</ele><time>2026-04-07T14:52:58.286Z</time></trkpt><trkpt lat="43.6379383" lon="11.5030817"><ele>143.85714285714286</ele><time>2026-04-07T14:52:59.288Z</time></trkpt><trkpt lat="43.6379717" lon="11.5031583"><ele>144.57142857142858</ele><time>2026-04-07T14:53:00.287Z</time></trkpt><trkpt lat="43.638005" lon="11.503235"><ele>145.28571428571428</ele><time>2026-04-07T14:53:01.291Z</time></trkpt><trkpt lat="43.63804" lon="11.5033117"><ele>146.0</ele><time>2026-04-07T14:53:02.29Z</time></trkpt><trkpt lat="43.6380817" lon="11.5033867"><ele>146.0</ele><time>2026-04-07T14:53:03.286Z</time></trkpt><trkpt lat="43.6381233" lon="11.50347"><ele>146.0</ele><time>2026-04-07T14:53:04.289Z</time></trkpt><trkpt lat="43.6381633" lon="11.50355"><ele>146.0</ele><time>2026-04-07T14:53:05.291Z</time></trkpt><trkpt lat="43.6382033" lon="11.5036217"><ele>146.0</ele><time>2026-04-07T14:53:06.287Z</time></trkpt><trkpt lat="43.6382417" lon="11.503695"><ele>146.0</ele><time>2026-04-07T14:53:07.286Z</time></trkpt><trkpt lat="43.6383133" lon="11.503835"><ele>146.0</ele><time>2026-04-07T14:53:09.287Z</time></trkpt><trkpt lat="43.63835" lon="11.5039083"><ele>145.75</ele><time>2026-04-07T14:53:10.289Z</time></trkpt><trkpt lat="43.6384233" lon="11.5040483"><ele>145.5</ele><time>2026-04-07T14:53:12.29Z</time></trkpt><trkpt lat="43.6384883" lon="11.5041883"><ele>145.25</ele><time>2026-04-07T14:53:14.29Z</time></trkpt><trkpt lat="43.63856" lon="11.50432"><ele>145.0</ele><time>2026-04-07T14:53:16.291Z</time></trkpt><trkpt lat="43.63863" lon="11.5044483"><ele>145.5</ele><time>2026-04-07T14:53:18.291Z</time></trkpt><trkpt lat="43.6387067" lon="11.5045817"><ele>146.0</ele><time>2026-04-07T14:53:20.289Z</time></trkpt><trkpt lat="43.63878" lon="11.504715"><ele>146.5</ele><time>2026-04-07T14:53:22.285Z</time></trkpt><trkpt lat="43.63885" lon="11.5048483"><ele>147.0</ele><time>2026-04-07T14:53:24.285Z</time></trkpt><trkpt lat="43.638925" lon="11.504985"><ele>147.0</ele><time>2026-04-07T14:53:26.289Z</time></trkpt><trkpt lat="43.639005" lon="11.505125"><ele>147.0</ele><time>2026-04-07T14:53:28.287Z</time></trkpt><trkpt lat="43.63908" lon="11.5052667"><ele>147.0</ele><time>2026-04-07T14:53:30.288Z</time></trkpt><trkpt lat="43.6391183" lon="11.5053383"><ele>147.0</ele><time>2026-04-07T14:53:31.29Z</time></trkpt><trkpt lat="43.63916" lon="11.505415"><ele>147.0</ele><time>2026-04-07T14:53:32.29Z</time></trkpt><trkpt lat="43.6392017" lon="11.50549"><ele>146.85714285714286</ele><time>2026-04-07T14:53:33.288Z</time></trkpt><trkpt lat="43.6392433" lon="11.5055633"><ele>146.71428571428572</ele><time>2026-04-07T14:53:34.288Z</time></trkpt><trkpt lat="43.6392867" lon="11.5056367"><ele>146.57142857142856</ele><time>2026-04-07T14:53:35.289Z</time></trkpt><trkpt lat="43.6393317" lon="11.5057017"><ele>146.42857142857144</ele><time>2026-04-07T14:53:36.289Z</time></trkpt><trkpt lat="43.6393817" lon="11.50577"><ele>146.28571428571428</ele><time>2026-04-07T14:53:37.288Z</time></trkpt><trkpt lat="43.639435" lon="11.50584"><ele>146.14285714285714</ele><time>2026-04-07T14:53:38.29Z</time></trkpt><trkpt lat="43.6394867" lon="11.5059083"><ele>146.0</ele><time>2026-04-07T14:53:39.287Z</time></trkpt><trkpt lat="43.6395367" lon="11.5059767"><ele>146.28571428571428</ele><time>2026-04-07T14:53:40.287Z</time></trkpt><trkpt lat="43.63959" lon="11.5060483"><ele>146.57142857142858</ele><time>2026-04-07T14:53:41.288Z</time></trkpt><trkpt lat="43.6396433" lon="11.506115"><ele>146.85714285714286</ele><time>2026-04-07T14:53:42.287Z</time></trkpt><trkpt lat="43.6396967" lon="11.5061817"><ele>147.14285714285714</ele><time>2026-04-07T14:53:43.289Z</time></trkpt><trkpt lat="43.63975" lon="11.50625"><ele>147.42857142857142</ele><time>2026-04-07T14:53:44.29Z</time></trkpt><trkpt lat="43.6398017" lon="11.5063167"><ele>147.71428571428572</ele><time>2026-04-07T14:53:45.288Z</time></trkpt><trkpt lat="43.639855" lon="11.5063817"><ele>148.0</ele><time>2026-04-07T14:53:46.288Z</time></trkpt><trkpt lat="43.6399017" lon="11.5064467"><ele>148.0</ele><time>2026-04-07T14:53:47.288Z</time></trkpt><trkpt lat="43.639955" lon="11.506515"><ele>148.0</ele><time>2026-04-07T14:53:48.288Z</time></trkpt><trkpt lat="43.640005" lon="11.5065783"><ele>148.0</ele><time>2026-04-07T14:53:49.289Z</time></trkpt><trkpt lat="43.6400567" lon="11.50665"><ele>148.0</ele><time>2026-04-07T14:53:50.289Z</time></trkpt><trkpt lat="43.6401017" lon="11.5067183"><ele>148.0</ele><time>2026-04-07T14:53:51.287Z</time></trkpt><trkpt lat="43.6401517" lon="11.5067817"><ele>148.0</ele><time>2026-04-07T14:53:52.29Z</time></trkpt><trkpt lat="43.6401983" lon="11.506845"><ele>148.0</ele><time>2026-04-07T14:53:53.288Z</time></trkpt><trkpt lat="43.64029" lon="11.506965"><ele>148.6</ele><time>2026-04-07T14:53:55.29Z</time></trkpt><trkpt lat="43.6403883" lon="11.5070817"><ele>149.20000000000002</ele><time>2026-04-07T14:53:57.287Z</time></trkpt><trkpt lat="43.640435" lon="11.50715"><ele>149.8</ele><time>2026-04-07T14:53:58.287Z</time></trkpt><trkpt lat="43.6405217" lon="11.5072733"><ele>150.4</ele><time>2026-04-07T14:54:00.286Z</time></trkpt><trkpt lat="43.6406183" lon="11.507385"><ele>151.0</ele><time>2026-04-07T14:54:02.288Z</time></trkpt><trkpt lat="43.6406683" lon="11.5074417"><ele>151.00000000000003</ele><time>2026-04-07T14:54:03.29Z</time></trkpt><trkpt lat="43.64072" lon="11.5074917"><ele>151.0</ele><time>2026-04-07T14:54:04.288Z</time></trkpt><trkpt lat="43.6407717" lon="11.5075433"><ele>151.0</ele><time>2026-04-07T14:54:05.287Z</time></trkpt><trkpt lat="43.6408267" lon="11.50759"><ele>151.0</ele><time>2026-04-07T14:54:06.288Z</time></trkpt><trkpt lat="43.6408817" lon="11.5076333"><ele>151.0</ele><time>2026-04-07T14:54:07.288Z</time></trkpt><trkpt lat="43.6409383" lon="11.5076767"><ele>151.00000000000003</ele><time>2026-04-07T14:54:08.289Z</time></trkpt><trkpt lat="43.6409983" lon="11.507715"><ele>151.0</ele><time>2026-04-07T14:54:09.285Z</time></trkpt><trkpt lat="43.641115" lon="11.507775"><ele>151.14285714285717</ele><time>2026-04-07T14:54:11.288Z</time></trkpt><trkpt lat="43.64118" lon="11.5078017"><ele>151.28571428571428</ele><time>2026-04-07T14:54:12.287Z</time></trkpt><trkpt lat="43.6412433" lon="11.50783"><ele>151.42857142857144</ele><time>2026-04-07T14:54:13.288Z</time></trkpt><trkpt lat="43.6413083" lon="11.50786"><ele>151.57142857142858</ele><time>2026-04-07T14:54:14.29Z</time></trkpt><trkpt lat="43.6413733" lon="11.5078883"><ele>151.71428571428572</ele><time>2026-04-07T14:54:15.289Z</time></trkpt><trkpt lat="43.64144" lon="11.50792"><ele>151.85714285714286</ele><time>2026-04-07T14:54:16.288Z</time></trkpt><trkpt lat="43.6415083" lon="11.5079533"><ele>152.0</ele><time>2026-04-07T14:54:17.289Z</time></trkpt><trkpt lat="43.6415733" lon="11.5079817"><ele>152.0</ele><time>2026-04-07T14:54:18.289Z</time></trkpt><trkpt lat="43.64164" lon="11.50801"><ele>152.0</ele><time>2026-04-07T14:54:19.288Z</time></trkpt><trkpt lat="43.641705" lon="11.5080417"><ele>152.0</ele><time>2026-04-07T14:54:20.288Z</time></trkpt><trkpt lat="43.64177" lon="11.508075"><ele>152.0</ele><time>2026-04-07T14:54:21.288Z</time></trkpt><trkpt lat="43.6418317" lon="11.50811"><ele>152.0</ele><time>2026-04-07T14:54:22.287Z</time></trkpt><trkpt lat="43.641895" lon="11.5081417"><ele>152.0</ele><time>2026-04-07T14:54:23.288Z</time></trkpt><trkpt lat="43.6419567" lon="11.5081733"><ele>152.0</ele><time>2026-04-07T14:54:24.285Z</time></trkpt><trkpt lat="43.64202" lon="11.50821"><ele>152.83333333333331</ele><time>2026-04-07T14:54:25.288Z</time></trkpt><trkpt lat="43.64208" lon="11.5082467"><ele>153.66666666666666</ele><time>2026-04-07T14:54:26.287Z</time></trkpt><trkpt lat="43.6421417" lon="11.5082833"><ele>154.5</ele><time>2026-04-07T14:54:27.286Z</time></trkpt><trkpt lat="43.642195" lon="11.5083317"><ele>155.33333333333334</ele><time>2026-04-07T14:54:28.287Z</time></trkpt><trkpt lat="43.64224" lon="11.5083933"><ele>156.16666666666669</ele><time>2026-04-07T14:54:29.29Z</time></trkpt><trkpt lat="43.6423" lon="11.50855"><ele>157.0</ele><time>2026-04-07T14:54:31.29Z</time></trkpt><trkpt lat="43.642325" lon="11.50863"><ele>156.79999999999998</ele><time>2026-04-07T14:54:32.29Z</time></trkpt><trkpt lat="43.64237" lon="11.508785"><ele>156.6</ele><time>2026-04-07T14:54:34.286Z</time></trkpt><trkpt lat="43.6424133" lon="11.508935"><ele>156.39999999999998</ele><time>2026-04-07T14:54:36.286Z</time></trkpt><trkpt lat="43.64245" lon="11.509085"><ele>156.2</ele><time>2026-04-07T14:54:38.288Z</time></trkpt><trkpt lat="43.64248" lon="11.5091683"><ele>156.0</ele><time>2026-04-07T14:54:39.291Z</time></trkpt><trkpt lat="43.642515" lon="11.5093033"><ele>156.0</ele><time>2026-04-07T14:54:41.291Z</time></trkpt><trkpt lat="43.64255" lon="11.509445"><ele>156.0</ele><time>2026-04-07T14:54:43.288Z</time></trkpt><trkpt lat="43.6425833" lon="11.5095867"><ele>156.0</ele><time>2026-04-07T14:54:45.289Z</time></trkpt><trkpt lat="43.6426183" lon="11.5097317"><ele>156.0</ele><time>2026-04-07T14:54:47.288Z</time></trkpt><trkpt lat="43.6426667" lon="11.5098817"><ele>156.0</ele><time>2026-04-07T14:54:49.29Z</time></trkpt><trkpt lat="43.6427167" lon="11.5100333"><ele>156.25</ele><time>2026-04-07T14:54:51.287Z</time></trkpt><trkpt lat="43.6427733" lon="11.5101733"><ele>156.5</ele><time>2026-04-07T14:54:53.288Z</time></trkpt><trkpt lat="43.6428483" lon="11.5103083"><ele>156.75</ele><time>2026-04-07T14:54:55.289Z</time></trkpt><trkpt lat="43.6429117" lon="11.5104267"><ele>157.0</ele><time>2026-04-07T14:54:57.287Z</time></trkpt><trkpt lat="43.6429717" lon="11.51055"><ele>157.6</ele><time>2026-04-07T14:54:59.29Z</time></trkpt><trkpt lat="43.64305" lon="11.5106567"><ele>158.2</ele><time>2026-04-07T14:55:01.29Z</time></trkpt><trkpt lat="43.64312" lon="11.5107683"><ele>158.8</ele><time>2026-04-07T14:55:03.291Z</time></trkpt><trkpt lat="43.64318" lon="11.5108817"><ele>159.4</ele><time>2026-04-07T14:55:05.288Z</time></trkpt><trkpt lat="43.6432517" lon="11.5110033"><ele>160.0</ele><time>2026-04-07T14:55:07.289Z</time></trkpt><trkpt lat="43.6433067" lon="11.511125"><ele>160.0</ele><time>2026-04-07T14:55:09.288Z</time></trkpt><trkpt lat="43.643395" lon="11.51121"><ele>160.0</ele><time>2026-04-07T14:55:11.29Z</time></trkpt><trkpt lat="43.6434833" lon="11.51126"><ele>160.0</ele><time>2026-04-07T14:55:13.289Z</time></trkpt><trkpt lat="43.6435867" lon="11.5113183"><ele>160.0</ele><time>2026-04-07T14:55:15.289Z</time></trkpt><trkpt lat="43.643695" lon="11.5113767"><ele>160.0</ele><time>2026-04-07T14:55:17.289Z</time></trkpt><trkpt lat="43.6437967" lon="11.5114367"><ele>160.5</ele><time>2026-04-07T14:55:19.288Z</time></trkpt><trkpt lat="43.6439" lon="11.5115"><ele>161.0</ele><time>2026-04-07T14:55:21.286Z</time></trkpt><trkpt lat="43.6440033" lon="11.5115683"><ele>161.5</ele><time>2026-04-07T14:55:23.288Z</time></trkpt><trkpt lat="43.6441083" lon="11.5116567"><ele>162.0</ele><time>2026-04-07T14:55:25.29Z</time></trkpt><trkpt lat="43.6441967" lon="11.511765"><ele>162.0</ele><time>2026-04-07T14:55:27.286Z</time></trkpt><trkpt lat="43.644275" lon="11.5118783"><ele>162.0</ele><time>2026-04-07T14:55:29.288Z</time></trkpt><trkpt lat="43.6443533" lon="11.511995"><ele>162.0</ele><time>2026-04-07T14:55:31.288Z</time></trkpt><trkpt lat="43.6444283" lon="11.5121133"><ele>162.0</ele><time>2026-04-07T14:55:33.288Z</time></trkpt><trkpt lat="43.644505" lon="11.5122433"><ele>162.5</ele><time>2026-04-07T14:55:35.289Z</time></trkpt><trkpt lat="43.6445733" lon="11.5123767"><ele>163.0</ele><time>2026-04-07T14:55:37.291Z</time></trkpt><trkpt lat="43.64464" lon="11.512505"><ele>163.5</ele><time>2026-04-07T14:55:39.289Z</time></trkpt><trkpt lat="43.64471" lon="11.5126333"><ele>164.0</ele><time>2026-04-07T14:55:41.289Z</time></trkpt><trkpt lat="43.64477" lon="11.5127483"><ele>164.0</ele><time>2026-04-07T14:55:43.289Z</time></trkpt><trkpt lat="43.6448333" lon="11.5128717"><ele>164.0</ele><time>2026-04-07T14:55:45.286Z</time></trkpt><trkpt lat="43.6448967" lon="11.5130017"><ele>164.0</ele><time>2026-04-07T14:55:47.291Z</time></trkpt><trkpt lat="43.64495" lon="11.5131267"><ele>164.0</ele><time>2026-04-07T14:55:49.291Z</time></trkpt><trkpt lat="43.645005" lon="11.5132583"><ele>164.0</ele><time>2026-04-07T14:55:51.289Z</time></trkpt><trkpt lat="43.6450467" lon="11.513375"><ele>163.79999999999998</ele><time>2026-04-07T14:55:53.289Z</time></trkpt><trkpt lat="43.64509" lon="11.51349"><ele>163.6</ele><time>2026-04-07T14:55:55.291Z</time></trkpt><trkpt lat="43.6451317" lon="11.51361"><ele>163.4</ele><time>2026-04-07T14:55:57.287Z</time></trkpt><trkpt lat="43.6451717" lon="11.5137217"><ele>163.2</ele><time>2026-04-07T14:55:59.288Z</time></trkpt><trkpt lat="43.6452367" lon="11.51381"><ele>163.0</ele><time>2026-04-07T14:56:01.289Z</time></trkpt><trkpt lat="43.64531" lon="11.5138817"><ele>164.0</ele><time>2026-04-07T14:56:03.29Z</time></trkpt><trkpt lat="43.645385" lon="11.5139483"><ele>165.0</ele><time>2026-04-07T14:56:05.29Z</time></trkpt><trkpt lat="43.6454517" lon="11.5139983"><ele>166.0</ele><time>2026-04-07T14:56:07.288Z</time></trkpt><trkpt lat="43.645515" lon="11.51403"><ele>167.0</ele><time>2026-04-07T14:56:09.289Z</time></trkpt><trkpt lat="43.6455783" lon="11.51404"><ele>168.0</ele><time>2026-04-07T14:56:11.285Z</time></trkpt><trkpt lat="43.6456417" lon="11.5140467"><ele>169.0</ele><time>2026-04-07T14:56:13.287Z</time></trkpt><trkpt lat="43.6457283" lon="11.5140467"><ele>170.0</ele><time>2026-04-07T14:56:16.287Z</time></trkpt><trkpt lat="43.6458" lon="11.514055"><ele>170.0</ele><time>2026-04-07T14:56:19.289Z</time></trkpt><trkpt lat="43.6458733" lon="11.5140667"><ele>170.0</ele><time>2026-04-07T14:56:22.288Z</time></trkpt><trkpt lat="43.645955" lon="11.5140833"><ele>170.0</ele><time>2026-04-07T14:56:25.288Z</time></trkpt><trkpt lat="43.6460133" lon="11.51412"><ele>170.0</ele><time>2026-04-07T14:56:27.289Z</time></trkpt><trkpt lat="43.6460833" lon="11.514155"><ele>170.0</ele><time>2026-04-07T14:56:30.288Z</time></trkpt><trkpt lat="43.6461517" lon="11.51418"><ele>170.0</ele><time>2026-04-07T14:56:33.288Z</time></trkpt><trkpt lat="43.6462133" lon="11.5142133"><ele>170.0</ele><time>2026-04-07T14:56:36.286Z</time></trkpt><trkpt lat="43.64629" lon="11.5142367"><ele>171.0</ele><time>2026-04-07T14:56:39.291Z</time></trkpt><trkpt lat="43.646355" lon="11.5142883"><ele>172.0</ele><time>2026-04-07T14:56:42.29Z</time></trkpt><trkpt lat="43.646425" lon="11.5143533"><ele>173.0</ele><time>2026-04-07T14:56:45.286Z</time></trkpt><trkpt lat="43.6464983" lon="11.514425"><ele>174.0</ele><time>2026-04-07T14:56:48.288Z</time></trkpt><trkpt lat="43.6465517" lon="11.5144817"><ele>175.0</ele><time>2026-04-07T14:56:50.288Z</time></trkpt><trkpt lat="43.6466033" lon="11.51454"><ele>176.0</ele><time>2026-04-07T14:56:52.287Z</time></trkpt><trkpt lat="43.6466783" lon="11.5146117"><ele>176.57142857142858</ele><time>2026-04-07T14:56:55.287Z</time></trkpt><trkpt lat="43.6467283" lon="11.514665"><ele>177.14285714285714</ele><time>2026-04-07T14:56:57.287Z</time></trkpt><trkpt lat="43.6467817" lon="11.5147233"><ele>177.71428571428572</ele><time>2026-04-07T14:56:59.287Z</time></trkpt><trkpt lat="43.6468333" lon="11.5147783"><ele>178.28571428571428</ele><time>2026-04-07T14:57:01.288Z</time></trkpt><trkpt lat="43.6468833" lon="11.514835"><ele>178.85714285714286</ele><time>2026-04-07T14:57:03.287Z</time></trkpt><trkpt lat="43.64694" lon="11.5148867"><ele>179.42857142857142</ele><time>2026-04-07T14:57:05.289Z</time></trkpt><trkpt lat="43.6470117" lon="11.51495"><ele>180.0</ele><time>2026-04-07T14:57:08.287Z</time></trkpt><trkpt lat="43.64708" lon="11.5150183"><ele>180.33333333333334</ele><time>2026-04-07T14:57:11.287Z</time></trkpt><trkpt lat="43.647155" lon="11.51509"><ele>180.66666666666666</ele><time>2026-04-07T14:57:14.29Z</time></trkpt><trkpt lat="43.6472067" lon="11.51514"><ele>181.0</ele><time>2026-04-07T14:57:16.288Z</time></trkpt><trkpt lat="43.6472633" lon="11.51519"><ele>181.33333333333331</ele><time>2026-04-07T14:57:18.289Z</time></trkpt><trkpt lat="43.64732" lon="11.5152417"><ele>181.66666666666666</ele><time>2026-04-07T14:57:20.29Z</time></trkpt><trkpt lat="43.647385" lon="11.515315"><ele>182.0</ele><time>2026-04-07T14:57:23.287Z</time></trkpt><trkpt lat="43.647465" lon="11.5153817"><ele>182.42857142857142</ele><time>2026-04-07T14:57:26.289Z</time></trkpt><trkpt lat="43.6475233" lon="11.5154467"><ele>182.85714285714286</ele><time>2026-04-07T14:57:28.29Z</time></trkpt><trkpt lat="43.6475817" lon="11.5155067"><ele>183.28571428571428</ele><time>2026-04-07T14:57:30.29Z</time></trkpt><trkpt lat="43.6476333" lon="11.5155633"><ele>183.71428571428572</ele><time>2026-04-07T14:57:32.29Z</time></trkpt><trkpt lat="43.64769" lon="11.51562"><ele>184.14285714285714</ele><time>2026-04-07T14:57:34.287Z</time></trkpt><trkpt lat="43.6477517" lon="11.51568"><ele>184.57142857142856</ele><time>2026-04-07T14:57:36.289Z</time></trkpt><trkpt lat="43.64781" lon="11.5157383"><ele>185.0</ele><time>2026-04-07T14:57:38.29Z</time></trkpt><trkpt lat="43.6478683" lon="11.5157967"><ele>185.66666666666666</ele><time>2026-04-07T14:57:40.288Z</time></trkpt><trkpt lat="43.6479317" lon="11.5158483"><ele>186.33333333333331</ele><time>2026-04-07T14:57:42.288Z</time></trkpt><trkpt lat="43.6479967" lon="11.5158983"><ele>187.0</ele><time>2026-04-07T14:57:44.289Z</time></trkpt><trkpt lat="43.6480583" lon="11.5159467"><ele>187.66666666666666</ele><time>2026-04-07T14:57:46.287Z</time></trkpt><trkpt lat="43.6481233" lon="11.5160033"><ele>188.33333333333334</ele><time>2026-04-07T14:57:48.289Z</time></trkpt><trkpt lat="43.6481867" lon="11.5160633"><ele>189.0</ele><time>2026-04-07T14:57:50.289Z</time></trkpt><trkpt lat="43.6482567" lon="11.516125"><ele>189.0</ele><time>2026-04-07T14:57:52.289Z</time></trkpt><trkpt lat="43.6483267" lon="11.5161667"><ele>189.0</ele><time>2026-04-07T14:57:54.29Z</time></trkpt><trkpt lat="43.6484" lon="11.5162217"><ele>189.0</ele><time>2026-04-07T14:57:56.291Z</time></trkpt><trkpt lat="43.6484717" lon="11.51628"><ele>189.0</ele><time>2026-04-07T14:57:58.29Z</time></trkpt><trkpt lat="43.648545" lon="11.516325"><ele>189.0</ele><time>2026-04-07T14:58:00.287Z</time></trkpt><trkpt lat="43.6486233" lon="11.5163717"><ele>189.0</ele><time>2026-04-07T14:58:02.288Z</time></trkpt><trkpt lat="43.6487017" lon="11.5164133"><ele>189.5</ele><time>2026-04-07T14:58:04.289Z</time></trkpt><trkpt lat="43.6487833" lon="11.5164533"><ele>190.0</ele><time>2026-04-07T14:58:06.288Z</time></trkpt><trkpt lat="43.648865" lon="11.516485"><ele>190.5</ele><time>2026-04-07T14:58:08.288Z</time></trkpt><trkpt lat="43.6489483" lon="11.51651"><ele>191.0</ele><time>2026-04-07T14:58:10.288Z</time></trkpt><trkpt lat="43.6490267" lon="11.51652"><ele>191.5</ele><time>2026-04-07T14:58:12.287Z</time></trkpt><trkpt lat="43.6491383" lon="11.5165233"><ele>192.0</ele><time>2026-04-07T14:58:15.286Z</time></trkpt><trkpt lat="43.64921" lon="11.5165317"><ele>192.0</ele><time>2026-04-07T14:58:17.287Z</time></trkpt><trkpt lat="43.649285" lon="11.51654"><ele>192.0</ele><time>2026-04-07T14:58:19.288Z</time></trkpt><trkpt lat="43.6493617" lon="11.5165533"><ele>192.0</ele><time>2026-04-07T14:58:21.287Z</time></trkpt><trkpt lat="43.6494383" lon="11.516565"><ele>192.0</ele><time>2026-04-07T14:58:23.289Z</time></trkpt><trkpt lat="43.6495167" lon="11.5165733"><ele>192.0</ele><time>2026-04-07T14:58:25.29Z</time></trkpt><trkpt lat="43.6495967" lon="11.5165933"><ele>192.0</ele><time>2026-04-07T14:58:27.288Z</time></trkpt><trkpt lat="43.6496767" lon="11.5166183"><ele>192.0</ele><time>2026-04-07T14:58:29.287Z</time></trkpt><trkpt lat="43.6497583" lon="11.5166433"><ele>192.0</ele><time>2026-04-07T14:58:31.288Z</time></trkpt><trkpt lat="43.649845" lon="11.5166633"><ele>192.0</ele><time>2026-04-07T14:58:33.288Z</time></trkpt><trkpt lat="43.6499383" lon="11.51669"><ele>192.0</ele><time>2026-04-07T14:58:35.287Z</time></trkpt><trkpt lat="43.650035" lon="11.5167083"><ele>192.0</ele><time>2026-04-07T14:58:37.286Z</time></trkpt><trkpt lat="43.6501317" lon="11.5167233"><ele>192.0</ele><time>2026-04-07T14:58:39.288Z</time></trkpt><trkpt lat="43.6502233" lon="11.516745"><ele>192.0</ele><time>2026-04-07T14:58:41.288Z</time></trkpt><trkpt lat="43.6503133" lon="11.5167667"><ele>192.0</ele><time>2026-04-07T14:58:43.288Z</time></trkpt><trkpt lat="43.6504017" lon="11.51679"><ele>192.0</ele><time>2026-04-07T14:58:45.289Z</time></trkpt><trkpt lat="43.65049" lon="11.5168117"><ele>192.0</ele><time>2026-04-07T14:58:47.288Z</time></trkpt><trkpt lat="43.6505817" lon="11.5168333"><ele>192.0</ele><time>2026-04-07T14:58:49.289Z</time></trkpt><trkpt lat="43.6506733" lon="11.5168517"><ele>192.0</ele><time>2026-04-07T14:58:51.288Z</time></trkpt><trkpt lat="43.6507633" lon="11.5168683"><ele>192.0</ele><time>2026-04-07T14:58:53.289Z</time></trkpt><trkpt lat="43.65085" lon="11.5168883"><ele>192.0</ele><time>2026-04-07T14:58:55.287Z</time></trkpt><trkpt lat="43.6509383" lon="11.51691"><ele>192.0</ele><time>2026-04-07T14:58:57.287Z</time></trkpt><trkpt lat="43.6510217" lon="11.5169283"><ele>192.0</ele><time>2026-04-07T14:58:59.287Z</time></trkpt><trkpt lat="43.6510983" lon="11.516965"><ele>192.0</ele><time>2026-04-07T14:59:01.288Z</time></trkpt><trkpt lat="43.65117" lon="11.517015"><ele>192.0</ele><time>2026-04-07T14:59:03.289Z</time></trkpt><trkpt lat="43.6512417" lon="11.5170717"><ele>192.0</ele><time>2026-04-07T14:59:05.288Z</time></trkpt><trkpt lat="43.6513167" lon="11.5171167"><ele>192.0</ele><time>2026-04-07T14:59:07.289Z</time></trkpt><trkpt lat="43.6513833" lon="11.51717"><ele>192.0</ele><time>2026-04-07T14:59:09.288Z</time></trkpt><trkpt lat="43.65147" lon="11.5172083"><ele>192.0</ele><time>2026-04-07T14:59:11.287Z</time></trkpt><trkpt lat="43.6515483" lon="11.5172583"><ele>192.5</ele><time>2026-04-07T14:59:13.288Z</time></trkpt><trkpt lat="43.6516167" lon="11.5173167"><ele>193.0</ele><time>2026-04-07T14:59:15.289Z</time></trkpt><trkpt lat="43.65169" lon="11.5173717"><ele>193.5</ele><time>2026-04-07T14:59:17.288Z</time></trkpt><trkpt lat="43.6517617" lon="11.51743"><ele>194.0</ele><time>2026-04-07T14:59:19.291Z</time></trkpt><trkpt lat="43.6518317" lon="11.5175"><ele>194.5</ele><time>2026-04-07T14:59:21.289Z</time></trkpt><trkpt lat="43.6519017" lon="11.5175617"><ele>195.0</ele><time>2026-04-07T14:59:23.29Z</time></trkpt><trkpt lat="43.6519767" lon="11.5176117"><ele>195.0</ele><time>2026-04-07T14:59:25.289Z</time></trkpt><trkpt lat="43.6520467" lon="11.5176583"><ele>195.0</ele><time>2026-04-07T14:59:27.288Z</time></trkpt><trkpt lat="43.6521167" lon="11.51771"><ele>195.0</ele><time>2026-04-07T14:59:29.289Z</time></trkpt><trkpt lat="43.6521883" lon="11.517765"><ele>195.0</ele><time>2026-04-07T14:59:31.289Z</time></trkpt><trkpt lat="43.6522633" lon="11.51782"><ele>195.0</ele><time>2026-04-07T14:59:33.289Z</time></trkpt><trkpt lat="43.6523383" lon="11.51787"><ele>195.0</ele><time>2026-04-07T14:59:35.288Z</time></trkpt><trkpt lat="43.6524167" lon="11.5179267"><ele>195.66666666666666</ele><time>2026-04-07T14:59:37.29Z</time></trkpt><trkpt lat="43.6524917" lon="11.5179783"><ele>196.33333333333331</ele><time>2026-04-07T14:59:39.29Z</time></trkpt><trkpt lat="43.6525617" lon="11.5180333"><ele>197.0</ele><time>2026-04-07T14:59:41.287Z</time></trkpt><trkpt lat="43.6526283" lon="11.5180917"><ele>197.66666666666666</ele><time>2026-04-07T14:59:43.288Z</time></trkpt><trkpt lat="43.6526917" lon="11.5181483"><ele>198.33333333333331</ele><time>2026-04-07T14:59:45.287Z</time></trkpt><trkpt lat="43.65275" lon="11.5182117"><ele>199.0</ele><time>2026-04-07T14:59:47.289Z</time></trkpt><trkpt lat="43.652815" lon="11.5182767"><ele>198.99999999999997</ele><time>2026-04-07T14:59:49.289Z</time></trkpt><trkpt lat="43.652885" lon="11.5183367"><ele>199.0</ele><time>2026-04-07T14:59:51.287Z</time></trkpt><trkpt lat="43.6529483" lon="11.518405"><ele>199.0</ele><time>2026-04-07T14:59:53.29Z</time></trkpt><trkpt lat="43.6530067" lon="11.518485"><ele>199.0</ele><time>2026-04-07T14:59:55.288Z</time></trkpt><trkpt lat="43.6530633" lon="11.51857"><ele>198.99999999999997</ele><time>2026-04-07T14:59:57.285Z</time></trkpt><trkpt lat="43.6531167" lon="11.5186417"><ele>199.0</ele><time>2026-04-07T14:59:59.287Z</time></trkpt><trkpt lat="43.6531733" lon="11.5187117"><ele>200.49999999999997</ele><time>2026-04-07T15:00:01.289Z</time></trkpt><trkpt lat="43.6532267" lon="11.5187767"><ele>202.0</ele><time>2026-04-07T15:00:03.285Z</time></trkpt><trkpt lat="43.6532767" lon="11.5188533"><ele>203.5</ele><time>2026-04-07T15:00:05.29Z</time></trkpt><trkpt lat="43.653325" lon="11.5189367"><ele>205.0</ele><time>2026-04-07T15:00:07.29Z</time></trkpt><trkpt lat="43.653375" lon="11.519015"><ele>206.49999999999997</ele><time>2026-04-07T15:00:09.288Z</time></trkpt><trkpt lat="43.65343" lon="11.51909"><ele>208.0</ele><time>2026-04-07T15:00:11.29Z</time></trkpt><trkpt lat="43.65349" lon="11.5191667"><ele>207.99999999999997</ele><time>2026-04-07T15:00:13.289Z</time></trkpt><trkpt lat="43.6535483" lon="11.51924"><ele>208.0</ele><time>2026-04-07T15:00:15.286Z</time></trkpt><trkpt lat="43.6536017" lon="11.51931"><ele>208.0</ele><time>2026-04-07T15:00:17.289Z</time></trkpt><trkpt lat="43.6536533" lon="11.5193833"><ele>208.0</ele><time>2026-04-07T15:00:19.289Z</time></trkpt><trkpt lat="43.653705" lon="11.519465"><ele>207.99999999999997</ele><time>2026-04-07T15:00:21.289Z</time></trkpt><trkpt lat="43.6537683" lon="11.519545"><ele>208.0</ele><time>2026-04-07T15:00:23.289Z</time></trkpt><trkpt lat="43.653825" lon="11.5196167"><ele>208.99999999999997</ele><time>2026-04-07T15:00:25.288Z</time></trkpt><trkpt lat="43.6538833" lon="11.519695"><ele>210.0</ele><time>2026-04-07T15:00:27.286Z</time></trkpt><trkpt lat="43.6539433" lon="11.51978"><ele>211.0</ele><time>2026-04-07T15:00:29.287Z</time></trkpt><trkpt lat="43.6540083" lon="11.5198583"><ele>212.0</ele><time>2026-04-07T15:00:31.287Z</time></trkpt><trkpt lat="43.654075" lon="11.5199317"><ele>212.99999999999997</ele><time>2026-04-07T15:00:33.287Z</time></trkpt><trkpt lat="43.65414" lon="11.5199983"><ele>214.0</ele><time>2026-04-07T15:00:35.288Z</time></trkpt><trkpt lat="43.6542067" lon="11.5200533"><ele>213.99999999999997</ele><time>2026-04-07T15:00:37.29Z</time></trkpt><trkpt lat="43.654275" lon="11.5201117"><ele>214.0</ele><time>2026-04-07T15:00:39.287Z</time></trkpt><trkpt lat="43.6543417" lon="11.52017"><ele>214.0</ele><time>2026-04-07T15:00:41.287Z</time></trkpt><trkpt lat="43.6544017" lon="11.5202217"><ele>214.0</ele><time>2026-04-07T15:00:43.287Z</time></trkpt><trkpt lat="43.6544633" lon="11.5202817"><ele>213.99999999999997</ele><time>2026-04-07T15:00:45.286Z</time></trkpt><trkpt lat="43.65453" lon="11.5203433"><ele>214.0</ele><time>2026-04-07T15:00:47.287Z</time></trkpt><trkpt lat="43.6546017" lon="11.5204033"><ele>214.66666666666666</ele><time>2026-04-07T15:00:49.287Z</time></trkpt><trkpt lat="43.65467" lon="11.5204633"><ele>215.33333333333331</ele><time>2026-04-07T15:00:51.287Z</time></trkpt><trkpt lat="43.6547433" lon="11.520525"><ele>216.0</ele><time>2026-04-07T15:00:53.287Z</time></trkpt><trkpt lat="43.6548133" lon="11.5205833"><ele>216.66666666666669</ele><time>2026-04-07T15:00:55.287Z</time></trkpt><trkpt lat="43.6548817" lon="11.5206383"><ele>217.33333333333334</ele><time>2026-04-07T15:00:57.287Z</time></trkpt><trkpt lat="43.65494" lon="11.5206783"><ele>218.0</ele><time>2026-04-07T15:00:59.287Z</time></trkpt><trkpt lat="43.6550017" lon="11.5207233"><ele>218.00000000000003</ele><time>2026-04-07T15:01:01.286Z</time></trkpt><trkpt lat="43.6550783" lon="11.5207917"><ele>218.0</ele><time>2026-04-07T15:01:03.288Z</time></trkpt><trkpt lat="43.6551417" lon="11.52085"><ele>218.0</ele><time>2026-04-07T15:01:05.287Z</time></trkpt><trkpt lat="43.6551933" lon="11.52092"><ele>218.0</ele><time>2026-04-07T15:01:07.288Z</time></trkpt><trkpt lat="43.6552483" lon="11.5210017"><ele>218.00000000000003</ele><time>2026-04-07T15:01:09.287Z</time></trkpt><trkpt lat="43.6552867" lon="11.5210833"><ele>218.0</ele><time>2026-04-07T15:01:11.288Z</time></trkpt><trkpt lat="43.65532" lon="11.5211783"><ele>219.66666666666669</ele><time>2026-04-07T15:01:13.286Z</time></trkpt><trkpt lat="43.6553567" lon="11.5212783"><ele>221.33333333333334</ele><time>2026-04-07T15:01:15.287Z</time></trkpt><trkpt lat="43.6553933" lon="11.52138"><ele>223.0</ele><time>2026-04-07T15:01:17.287Z</time></trkpt><trkpt lat="43.65543" lon="11.5214767"><ele>224.66666666666669</ele><time>2026-04-07T15:01:19.287Z</time></trkpt><trkpt lat="43.65546" lon="11.52157"><ele>226.33333333333334</ele><time>2026-04-07T15:01:21.285Z</time></trkpt><trkpt lat="43.6554883" lon="11.5216717"><ele>228.0</ele><time>2026-04-07T15:01:23.288Z</time></trkpt><trkpt lat="43.655515" lon="11.52176"><ele>228.0</ele><time>2026-04-07T15:01:25.288Z</time></trkpt><trkpt lat="43.6555433" lon="11.5218467"><ele>228.0</ele><time>2026-04-07T15:01:27.286Z</time></trkpt><trkpt lat="43.655585" lon="11.52194"><ele>228.0</ele><time>2026-04-07T15:01:29.287Z</time></trkpt><trkpt lat="43.6556233" lon="11.52204"><ele>228.0</ele><time>2026-04-07T15:01:31.288Z</time></trkpt><trkpt lat="43.6556633" lon="11.52215"><ele>228.0</ele><time>2026-04-07T15:01:33.287Z</time></trkpt><trkpt lat="43.655705" lon="11.5222667"><ele>228.0</ele><time>2026-04-07T15:01:35.288Z</time></trkpt><trkpt lat="43.6557317" lon="11.52235"><ele>227.8</ele><time>2026-04-07T15:01:37.287Z</time></trkpt><trkpt lat="43.6557567" lon="11.52247"><ele>227.60000000000002</ele><time>2026-04-07T15:01:40.288Z</time></trkpt><trkpt lat="43.6557883" lon="11.5225733"><ele>227.39999999999998</ele><time>2026-04-07T15:01:42.286Z</time></trkpt><trkpt lat="43.6558483" lon="11.5227283"><ele>227.2</ele><time>2026-04-07T15:01:45.287Z</time></trkpt><trkpt lat="43.6558833" lon="11.5228267"><ele>227.0</ele><time>2026-04-07T15:01:47.287Z</time></trkpt><trkpt lat="43.6559233" lon="11.522935"><ele>227.00000000000003</ele><time>2026-04-07T15:01:49.287Z</time></trkpt><trkpt lat="43.655965" lon="11.523035"><ele>227.0</ele><time>2026-04-07T15:01:51.286Z</time></trkpt><trkpt lat="43.6559983" lon="11.52314"><ele>227.0</ele><time>2026-04-07T15:01:53.287Z</time></trkpt><trkpt lat="43.6560267" lon="11.5232367"><ele>227.0</ele><time>2026-04-07T15:01:55.288Z</time></trkpt><trkpt lat="43.65606" lon="11.5233517"><ele>227.00000000000003</ele><time>2026-04-07T15:01:57.287Z</time></trkpt><trkpt lat="43.656095" lon="11.5234667"><ele>227.0</ele><time>2026-04-07T15:01:59.286Z</time></trkpt><trkpt lat="43.6561283" lon="11.523565"><ele>227.00000000000003</ele><time>2026-04-07T15:02:01.287Z</time></trkpt><trkpt lat="43.6561617" lon="11.5236567"><ele>227.0</ele><time>2026-04-07T15:02:03.285Z</time></trkpt><trkpt lat="43.6561967" lon="11.5237533"><ele>227.0</ele><time>2026-04-07T15:02:05.286Z</time></trkpt><trkpt lat="43.6562283" lon="11.5238617"><ele>227.0</ele><time>2026-04-07T15:02:07.287Z</time></trkpt><trkpt lat="43.656265" lon="11.5239633"><ele>227.00000000000003</ele><time>2026-04-07T15:02:09.288Z</time></trkpt><trkpt lat="43.6562983" lon="11.52406"><ele>227.0</ele><time>2026-04-07T15:02:11.286Z</time></trkpt><trkpt lat="43.6563233" lon="11.5241617"><ele>227.83333333333334</ele><time>2026-04-07T15:02:13.286Z</time></trkpt><trkpt lat="43.65635" lon="11.524245"><ele>228.66666666666669</ele><time>2026-04-07T15:02:15.286Z</time></trkpt><trkpt lat="43.6563717" lon="11.5243283"><ele>229.5</ele><time>2026-04-07T15:02:17.287Z</time></trkpt><trkpt lat="43.65641" lon="11.5244383"><ele>230.33333333333331</ele><time>2026-04-07T15:02:20.286Z</time></trkpt><trkpt lat="43.6564617" lon="11.5245367"><ele>231.16666666666666</ele><time>2026-04-07T15:02:23.287Z</time></trkpt><trkpt lat="43.6565083" lon="11.5246233"><ele>232.0</ele><time>2026-04-07T15:02:25.287Z</time></trkpt><trkpt lat="43.65656" lon="11.5246867"><ele>232.99999999999997</ele><time>2026-04-07T15:02:27.286Z</time></trkpt><trkpt lat="43.6566217" lon="11.5247367"><ele>234.0</ele><time>2026-04-07T15:02:29.287Z</time></trkpt><trkpt lat="43.6567017" lon="11.5248167"><ele>235.0</ele><time>2026-04-07T15:02:32.286Z</time></trkpt><trkpt lat="43.656765" lon="11.524875"><ele>236.0</ele><time>2026-04-07T15:02:34.288Z</time></trkpt><trkpt lat="43.6568267" lon="11.524935"><ele>236.99999999999997</ele><time>2026-04-07T15:02:36.285Z</time></trkpt><trkpt lat="43.6569033" lon="11.5250433"><ele>238.0</ele><time>2026-04-07T15:02:39.286Z</time></trkpt><trkpt lat="43.656955" lon="11.525105"><ele>238.0</ele><time>2026-04-07T15:02:41.286Z</time></trkpt><trkpt lat="43.6570117" lon="11.52517"><ele>238.0</ele><time>2026-04-07T15:02:43.285Z</time></trkpt><trkpt lat="43.65706" lon="11.525245"><ele>238.0</ele><time>2026-04-07T15:02:45.288Z</time></trkpt><trkpt lat="43.6571117" lon="11.5253"><ele>238.0</ele><time>2026-04-07T15:02:47.29Z</time></trkpt><trkpt lat="43.6571683" lon="11.52536"><ele>238.0</ele><time>2026-04-07T15:02:49.284Z</time></trkpt><trkpt lat="43.65722" lon="11.52542"><ele>238.0</ele><time>2026-04-07T15:02:51.286Z</time></trkpt><trkpt lat="43.6572817" lon="11.525475"><ele>238.0</ele><time>2026-04-07T15:02:53.286Z</time></trkpt><trkpt lat="43.65734" lon="11.5255267"><ele>239.49999999999997</ele><time>2026-04-07T15:02:55.286Z</time></trkpt><trkpt lat="43.6573867" lon="11.5255983"><ele>241.0</ele><time>2026-04-07T15:02:57.286Z</time></trkpt><trkpt lat="43.65745" lon="11.5256783"><ele>242.5</ele><time>2026-04-07T15:03:00.285Z</time></trkpt><trkpt lat="43.6574967" lon="11.5257533"><ele>244.0</ele><time>2026-04-07T15:03:02.285Z</time></trkpt><trkpt lat="43.6575433" lon="11.5258517"><ele>245.49999999999997</ele><time>2026-04-07T15:03:04.286Z</time></trkpt><trkpt lat="43.657595" lon="11.52593"><ele>247.0</ele><time>2026-04-07T15:03:06.286Z</time></trkpt><trkpt lat="43.6576567" lon="11.5259833"><ele>246.99999999999997</ele><time>2026-04-07T15:03:08.288Z</time></trkpt><trkpt lat="43.65771" lon="11.5260567"><ele>247.0</ele><time>2026-04-07T15:03:10.287Z</time></trkpt><trkpt lat="43.6577667" lon="11.5261233"><ele>247.0</ele><time>2026-04-07T15:03:12.288Z</time></trkpt><trkpt lat="43.657825" lon="11.526205"><ele>247.0</ele><time>2026-04-07T15:03:14.287Z</time></trkpt><trkpt lat="43.65787" lon="11.5262817"><ele>246.99999999999997</ele><time>2026-04-07T15:03:16.289Z</time></trkpt><trkpt lat="43.6579183" lon="11.5263867"><ele>247.0</ele><time>2026-04-07T15:03:18.286Z</time></trkpt><trkpt lat="43.65797" lon="11.5264783"><ele>246.99999999999997</ele><time>2026-04-07T15:03:20.287Z</time></trkpt><trkpt lat="43.6580267" lon="11.5265667"><ele>247.0</ele><time>2026-04-07T15:03:22.285Z</time></trkpt><trkpt lat="43.6580717" lon="11.5266433"><ele>247.0</ele><time>2026-04-07T15:03:24.286Z</time></trkpt><trkpt lat="43.658125" lon="11.5267317"><ele>247.0</ele><time>2026-04-07T15:03:26.287Z</time></trkpt><trkpt lat="43.6581783" lon="11.5268417"><ele>246.99999999999997</ele><time>2026-04-07T15:03:28.287Z</time></trkpt><trkpt lat="43.658235" lon="11.52692"><ele>247.0</ele><time>2026-04-07T15:03:30.286Z</time></trkpt><trkpt lat="43.6582933" lon="11.5270183"><ele>248.66666666666666</ele><time>2026-04-07T15:03:32.288Z</time></trkpt><trkpt lat="43.6583467" lon="11.5271183"><ele>250.33333333333331</ele><time>2026-04-07T15:03:34.287Z</time></trkpt><trkpt lat="43.6583817" lon="11.527225"><ele>252.0</ele><time>2026-04-07T15:03:36.285Z</time></trkpt><trkpt lat="43.658445" lon="11.5273033"><ele>253.66666666666669</ele><time>2026-04-07T15:03:39.286Z</time></trkpt><trkpt lat="43.65849" lon="11.527395"><ele>255.33333333333334</ele><time>2026-04-07T15:03:43.286Z</time></trkpt><trkpt lat="43.658545" lon="11.52747"><ele>257.0</ele><time>2026-04-07T15:03:45.288Z</time></trkpt><trkpt lat="43.6586017" lon="11.5275333"><ele>256.4</ele><time>2026-04-07T15:03:47.286Z</time></trkpt><trkpt lat="43.6586733" lon="11.5276417"><ele>255.79999999999998</ele><time>2026-04-07T15:03:49.288Z</time></trkpt><trkpt lat="43.6587267" lon="11.5277467"><ele>255.2</ele><time>2026-04-07T15:03:51.286Z</time></trkpt><trkpt lat="43.6587733" lon="11.5278467"><ele>254.6</ele><time>2026-04-07T15:03:53.288Z</time></trkpt><trkpt lat="43.658815" lon="11.5279467"><ele>254.0</ele><time>2026-04-07T15:03:55.288Z</time></trkpt><trkpt lat="43.6588667" lon="11.52805"><ele>254.00000000000003</ele><time>2026-04-07T15:03:57.286Z</time></trkpt><trkpt lat="43.6589217" lon="11.5281467"><ele>254.0</ele><time>2026-04-07T15:03:59.287Z</time></trkpt><trkpt lat="43.658985" lon="11.5282283"><ele>254.0</ele><time>2026-04-07T15:04:01.288Z</time></trkpt><trkpt lat="43.65906" lon="11.5283033"><ele>254.0</ele><time>2026-04-07T15:04:03.29Z</time></trkpt><trkpt lat="43.6591283" lon="11.5283717"><ele>254.00000000000003</ele><time>2026-04-07T15:04:05.289Z</time></trkpt><trkpt lat="43.659185" lon="11.5284417"><ele>254.0</ele><time>2026-04-07T15:04:07.287Z</time></trkpt><trkpt lat="43.659245" lon="11.5285083"><ele>254.0</ele><time>2026-04-07T15:04:09.288Z</time></trkpt><trkpt lat="43.6593067" lon="11.5285833"><ele>253.99999999999997</ele><time>2026-04-07T15:04:11.288Z</time></trkpt><trkpt lat="43.6593733" lon="11.5286583"><ele>253.99999999999997</ele><time>2026-04-07T15:04:13.29Z</time></trkpt><trkpt lat="43.6594383" lon="11.528745"><ele>254.0</ele><time>2026-04-07T15:04:15.289Z</time></trkpt><trkpt lat="43.6595117" lon="11.5288467"><ele>254.0</ele><time>2026-04-07T15:04:17.292Z</time></trkpt><trkpt lat="43.6595783" lon="11.528945"><ele>254.33333333333334</ele><time>2026-04-07T15:04:19.288Z</time></trkpt><trkpt lat="43.65964" lon="11.529015"><ele>254.66666666666669</ele><time>2026-04-07T15:04:21.286Z</time></trkpt><trkpt lat="43.6597117" lon="11.5291067"><ele>255.0</ele><time>2026-04-07T15:04:23.288Z</time></trkpt><trkpt lat="43.659785" lon="11.5291783"><ele>255.33333333333331</ele><time>2026-04-07T15:04:25.288Z</time></trkpt><trkpt lat="43.6598467" lon="11.529245"><ele>255.66666666666666</ele><time>2026-04-07T15:04:27.287Z</time></trkpt><trkpt lat="43.65991" lon="11.52931"><ele>256.0</ele><time>2026-04-07T15:04:29.289Z</time></trkpt><trkpt lat="43.659965" lon="11.5293583"><ele>255.99999999999997</ele><time>2026-04-07T15:04:31.288Z</time></trkpt><trkpt lat="43.66003" lon="11.5294233"><ele>256.0</ele><time>2026-04-07T15:04:34.286Z</time></trkpt><trkpt lat="43.660085" lon="11.5294767"><ele>256.0</ele><time>2026-04-07T15:04:36.287Z</time></trkpt><trkpt lat="43.660145" lon="11.5295317"><ele>256.0</ele><time>2026-04-07T15:04:38.289Z</time></trkpt><trkpt lat="43.6602117" lon="11.5295833"><ele>255.99999999999997</ele><time>2026-04-07T15:04:40.286Z</time></trkpt><trkpt lat="43.66029" lon="11.529635"><ele>256.0</ele><time>2026-04-07T15:04:42.288Z</time></trkpt><trkpt lat="43.6603683" lon="11.529725"><ele>256.0</ele><time>2026-04-07T15:04:44.288Z</time></trkpt><trkpt lat="43.6604483" lon="11.529815"><ele>256.0</ele><time>2026-04-07T15:04:46.287Z</time></trkpt><trkpt lat="43.6605233" lon="11.529905"><ele>256.0</ele><time>2026-04-07T15:04:48.288Z</time></trkpt><trkpt lat="43.660615" lon="11.530005"><ele>256.0</ele><time>2026-04-07T15:04:50.288Z</time></trkpt><trkpt lat="43.66071" lon="11.5300917"><ele>256.0</ele><time>2026-04-07T15:04:52.286Z</time></trkpt><trkpt lat="43.6608033" lon="11.530165"><ele>255.99999999999997</ele><time>2026-04-07T15:04:54.287Z</time></trkpt><trkpt lat="43.6609017" lon="11.5302483"><ele>256.0</ele><time>2026-04-07T15:04:56.289Z</time></trkpt><trkpt lat="43.66098" lon="11.5303267"><ele>256.0</ele><time>2026-04-07T15:04:58.288Z</time></trkpt><trkpt lat="43.66105" lon="11.5303917"><ele>256.0</ele><time>2026-04-07T15:05:00.288Z</time></trkpt><trkpt lat="43.661125" lon="11.5304483"><ele>255.99999999999997</ele><time>2026-04-07T15:05:02.288Z</time></trkpt><trkpt lat="43.661185" lon="11.5304883"><ele>256.0</ele><time>2026-04-07T15:05:04.286Z</time></trkpt><trkpt lat="43.6612467" lon="11.5305167"><ele>257.8333333333333</ele><time>2026-04-07T15:05:06.287Z</time></trkpt><trkpt lat="43.6613083" lon="11.530545"><ele>259.66666666666663</ele><time>2026-04-07T15:05:08.288Z</time></trkpt><trkpt lat="43.6613833" lon="11.5305917"><ele>261.5</ele><time>2026-04-07T15:05:11.287Z</time></trkpt><trkpt lat="43.6614517" lon="11.5306467"><ele>263.3333333333333</ele><time>2026-04-07T15:05:14.289Z</time></trkpt><trkpt lat="43.6615233" lon="11.530695"><ele>265.1666666666667</ele><time>2026-04-07T15:05:17.288Z</time></trkpt><trkpt lat="43.6615883" lon="11.5307283"><ele>267.0</ele><time>2026-04-07T15:05:20.287Z</time></trkpt><trkpt lat="43.661665" lon="11.5307883"><ele>267.0</ele><time>2026-04-07T15:05:23.289Z</time></trkpt><trkpt lat="43.6617317" lon="11.5308417"><ele>267.0</ele><time>2026-04-07T15:05:26.288Z</time></trkpt><trkpt lat="43.6618033" lon="11.5308783"><ele>267.0</ele><time>2026-04-07T15:05:29.285Z</time></trkpt><trkpt lat="43.6618633" lon="11.5309183"><ele>267.0</ele><time>2026-04-07T15:05:31.285Z</time></trkpt><trkpt lat="43.6619467" lon="11.53098"><ele>267.0</ele><time>2026-04-07T15:05:34.288Z</time></trkpt><trkpt lat="43.6619967" lon="11.5310383"><ele>267.0</ele><time>2026-04-07T15:05:36.287Z</time></trkpt><trkpt lat="43.6620833" lon="11.5311267"><ele>266.8333333333333</ele><time>2026-04-07T15:05:39.288Z</time></trkpt><trkpt lat="43.66214" lon="11.531195"><ele>266.6666666666667</ele><time>2026-04-07T15:05:41.288Z</time></trkpt><trkpt lat="43.66219" lon="11.5312483"><ele>266.5</ele><time>2026-04-07T15:05:43.288Z</time></trkpt><trkpt lat="43.66225" lon="11.5313383"><ele>266.33333333333337</ele><time>2026-04-07T15:05:45.286Z</time></trkpt><trkpt lat="43.6623317" lon="11.53141"><ele>266.1666666666667</ele><time>2026-04-07T15:05:48.289Z</time></trkpt><trkpt lat="43.6623883" lon="11.5314717"><ele>266.0</ele><time>2026-04-07T15:05:50.286Z</time></trkpt><trkpt lat="43.6624617" lon="11.5315217"><ele>265.83333333333337</ele><time>2026-04-07T15:05:53.287Z</time></trkpt><trkpt lat="43.6625467" lon="11.53157"><ele>265.6666666666667</ele><time>2026-04-07T15:05:56.287Z</time></trkpt><trkpt lat="43.6626033" lon="11.5316167"><ele>265.5</ele><time>2026-04-07T15:05:58.288Z</time></trkpt><trkpt lat="43.6626817" lon="11.5316683"><ele>265.3333333333333</ele><time>2026-04-07T15:06:01.289Z</time></trkpt><trkpt lat="43.6627617" lon="11.5317033"><ele>265.16666666666663</ele><time>2026-04-07T15:06:04.287Z</time></trkpt><trkpt lat="43.66284" lon="11.531745"><ele>265.0</ele><time>2026-04-07T15:06:07.288Z</time></trkpt><trkpt lat="43.6629067" lon="11.531785"><ele>266.3333333333333</ele><time>2026-04-07T15:06:10.285Z</time></trkpt><trkpt lat="43.662975" lon="11.5318233"><ele>267.66666666666663</ele><time>2026-04-07T15:06:13.287Z</time></trkpt><trkpt lat="43.66305" lon="11.53187"><ele>269.0</ele><time>2026-04-07T15:06:16.285Z</time></trkpt><trkpt lat="43.66313" lon="11.5319167"><ele>270.3333333333333</ele><time>2026-04-07T15:06:19.289Z</time></trkpt><trkpt lat="43.6632033" lon="11.531955"><ele>271.6666666666667</ele><time>2026-04-07T15:06:22.287Z</time></trkpt><trkpt lat="43.6632783" lon="11.53198"><ele>273.0</ele><time>2026-04-07T15:06:25.288Z</time></trkpt><trkpt lat="43.663345" lon="11.531995"><ele>273.0</ele><time>2026-04-07T15:06:28.289Z</time></trkpt><trkpt lat="43.6634233" lon="11.5320217"><ele>273.0</ele><time>2026-04-07T15:06:31.289Z</time></trkpt><trkpt lat="43.6635" lon="11.5320433"><ele>273.0</ele><time>2026-04-07T15:06:34.288Z</time></trkpt><trkpt lat="43.66358" lon="11.532075"><ele>273.0</ele><time>2026-04-07T15:06:37.289Z</time></trkpt><trkpt lat="43.6636567" lon="11.532085"><ele>273.0</ele><time>2026-04-07T15:06:40.287Z</time></trkpt><trkpt lat="43.6637333" lon="11.532105"><ele>273.0</ele><time>2026-04-07T15:06:43.289Z</time></trkpt><trkpt lat="43.663805" lon="11.5321083"><ele>275.3333333333333</ele><time>2026-04-07T15:06:46.288Z</time></trkpt><trkpt lat="43.66389" lon="11.53212"><ele>277.6666666666667</ele><time>2026-04-07T15:06:49.286Z</time></trkpt><trkpt lat="43.6639733" lon="11.532145"><ele>280.0</ele><time>2026-04-07T15:06:52.287Z</time></trkpt><trkpt lat="43.6640467" lon="11.5321667"><ele>282.33333333333337</ele><time>2026-04-07T15:06:55.286Z</time></trkpt><trkpt lat="43.664125" lon="11.5322317"><ele>284.6666666666667</ele><time>2026-04-07T15:06:58.287Z</time></trkpt><trkpt lat="43.6642" lon="11.53225"><ele>287.0</ele><time>2026-04-07T15:07:00.288Z</time></trkpt><trkpt lat="43.6642633" lon="11.532275"><ele>287.0</ele><time>2026-04-07T15:07:02.286Z</time></trkpt><trkpt lat="43.66433" lon="11.5322817"><ele>287.0</ele><time>2026-04-07T15:07:04.287Z</time></trkpt><trkpt lat="43.6644167" lon="11.5323233"><ele>287.0</ele><time>2026-04-07T15:07:07.287Z</time></trkpt><trkpt lat="43.6645117" lon="11.5323317"><ele>287.0</ele><time>2026-04-07T15:07:10.287Z</time></trkpt><trkpt lat="43.6646533" lon="11.5323433"><ele>287.0</ele><time>2026-04-07T15:07:14.288Z</time></trkpt><trkpt lat="43.66472" lon="11.53237"><ele>287.6666666666667</ele><time>2026-04-07T15:07:16.288Z</time></trkpt><trkpt lat="43.66478" lon="11.5323967"><ele>288.33333333333337</ele><time>2026-04-07T15:07:18.287Z</time></trkpt><trkpt lat="43.6648733" lon="11.5324467"><ele>289.0</ele><time>2026-04-07T15:07:21.289Z</time></trkpt><trkpt lat="43.664935" lon="11.5324817"><ele>289.6666666666667</ele><time>2026-04-07T15:07:23.288Z</time></trkpt><trkpt lat="43.6650167" lon="11.5325317"><ele>290.3333333333333</ele><time>2026-04-07T15:07:26.289Z</time></trkpt><trkpt lat="43.6650783" lon="11.5325583"><ele>291.0</ele><time>2026-04-07T15:07:28.288Z</time></trkpt><trkpt lat="43.6651433" lon="11.5326017"><ele>291.0</ele><time>2026-04-07T15:07:30.288Z</time></trkpt><trkpt lat="43.66521" lon="11.5326483"><ele>291.0</ele><time>2026-04-07T15:07:32.288Z</time></trkpt><trkpt lat="43.6652883" lon="11.5326833"><ele>291.0</ele><time>2026-04-07T15:07:35.29Z</time></trkpt><trkpt lat="43.6653533" lon="11.5327083"><ele>291.0</ele><time>2026-04-07T15:07:38.29Z</time></trkpt><trkpt lat="43.6654983" lon="11.532725"><ele>291.0</ele><time>2026-04-07T15:07:43.287Z</time></trkpt><trkpt lat="43.6655917" lon="11.532735"><ele>293.0</ele><time>2026-04-07T15:07:46.29Z</time></trkpt><trkpt lat="43.6656583" lon="11.5327567"><ele>295.0</ele><time>2026-04-07T15:07:48.288Z</time></trkpt><trkpt lat="43.66572" lon="11.5327817"><ele>297.0</ele><time>2026-04-07T15:07:50.287Z</time></trkpt><trkpt lat="43.665785" lon="11.5328"><ele>299.0</ele><time>2026-04-07T15:07:52.288Z</time></trkpt><trkpt lat="43.66593" lon="11.5328067"><ele>301.0</ele><time>2026-04-07T15:07:56.289Z</time></trkpt><trkpt lat="43.666" lon="11.5328217"><ele>303.0</ele><time>2026-04-07T15:07:58.288Z</time></trkpt><trkpt lat="43.6660767" lon="11.5328867"><ele>303.0</ele><time>2026-04-07T15:08:01.289Z</time></trkpt><trkpt lat="43.6661667" lon="11.5329267"><ele>303.0</ele><time>2026-04-07T15:08:04.286Z</time></trkpt><trkpt lat="43.6662333" lon="11.5329583"><ele>303.0</ele><time>2026-04-07T15:08:06.29Z</time></trkpt><trkpt lat="43.6663067" lon="11.53297"><ele>303.0</ele><time>2026-04-07T15:08:08.289Z</time></trkpt><trkpt lat="43.6663967" lon="11.5329933"><ele>303.0</ele><time>2026-04-07T15:08:11.289Z</time></trkpt><trkpt lat="43.66648" lon="11.5330133"><ele>303.0</ele><time>2026-04-07T15:08:14.289Z</time></trkpt><trkpt lat="43.6665517" lon="11.5330417"><ele>303.0</ele><time>2026-04-07T15:08:16.287Z</time></trkpt><trkpt lat="43.6666267" lon="11.5330717"><ele>303.0</ele><time>2026-04-07T15:08:18.286Z</time></trkpt><trkpt lat="43.6667" lon="11.5330883"><ele>303.0</ele><time>2026-04-07T15:08:20.288Z</time></trkpt><trkpt lat="43.66677" lon="11.5331167"><ele>303.0</ele><time>2026-04-07T15:08:22.287Z</time></trkpt><trkpt lat="43.66683" lon="11.5331517"><ele>303.0</ele><time>2026-04-07T15:08:24.29Z</time></trkpt><trkpt lat="43.6668983" lon="11.533185"><ele>303.0</ele><time>2026-04-07T15:08:26.289Z</time></trkpt><trkpt lat="43.6669617" lon="11.5332217"><ele>303.0</ele><time>2026-04-07T15:08:28.29Z</time></trkpt><trkpt lat="43.6670267" lon="11.5332567"><ele>303.5</ele><time>2026-04-07T15:08:30.289Z</time></trkpt><trkpt lat="43.6670917" lon="11.5333017"><ele>304.0</ele><time>2026-04-07T15:08:32.289Z</time></trkpt><trkpt lat="43.6671617" lon="11.53334"><ele>304.5</ele><time>2026-04-07T15:08:34.288Z</time></trkpt><trkpt lat="43.6672233" lon="11.5333733"><ele>305.0</ele><time>2026-04-07T15:08:36.288Z</time></trkpt><trkpt lat="43.667315" lon="11.5334233"><ele>305.5</ele><time>2026-04-07T15:08:39.289Z</time></trkpt><trkpt lat="43.6673783" lon="11.53345"><ele>306.0</ele><time>2026-04-07T15:08:41.288Z</time></trkpt><trkpt lat="43.6674483" lon="11.5334833"><ele>306.0</ele><time>2026-04-07T15:08:43.29Z</time></trkpt><trkpt lat="43.66754" lon="11.5335233"><ele>306.0</ele><time>2026-04-07T15:08:46.289Z</time></trkpt><trkpt lat="43.6676033" lon="11.5335533"><ele>306.0</ele><time>2026-04-07T15:08:48.288Z</time></trkpt><trkpt lat="43.6676683" lon="11.5335833"><ele>306.0</ele><time>2026-04-07T15:08:50.289Z</time></trkpt><trkpt lat="43.6677317" lon="11.5336167"><ele>306.0</ele><time>2026-04-07T15:08:52.287Z</time></trkpt><trkpt lat="43.6678" lon="11.5336433"><ele>306.0</ele><time>2026-04-07T15:08:54.288Z</time></trkpt><trkpt lat="43.6678683" lon="11.5336617"><ele>306.0</ele><time>2026-04-07T15:08:56.287Z</time></trkpt><trkpt lat="43.66794" lon="11.533675"><ele>306.1666666666667</ele><time>2026-04-07T15:08:58.287Z</time></trkpt><trkpt lat="43.6680133" lon="11.5336867"><ele>306.3333333333333</ele><time>2026-04-07T15:09:00.287Z</time></trkpt><trkpt lat="43.6680867" lon="11.5337"><ele>306.5</ele><time>2026-04-07T15:09:02.288Z</time></trkpt><trkpt lat="43.6681567" lon="11.5337083"><ele>306.66666666666663</ele><time>2026-04-07T15:09:04.288Z</time></trkpt><trkpt lat="43.6682333" lon="11.5337183"><ele>306.8333333333333</ele><time>2026-04-07T15:09:06.288Z</time></trkpt><trkpt lat="43.66831" lon="11.5337383"><ele>307.0</ele><time>2026-04-07T15:09:08.288Z</time></trkpt><trkpt lat="43.6683867" lon="11.5337583"><ele>306.99999999999994</ele><time>2026-04-07T15:09:10.286Z</time></trkpt><trkpt lat="43.6684617" lon="11.533765"><ele>307.0</ele><time>2026-04-07T15:09:12.285Z</time></trkpt><trkpt lat="43.668535" lon="11.5337817"><ele>307.0</ele><time>2026-04-07T15:09:14.286Z</time></trkpt><trkpt lat="43.6686017" lon="11.5337833"><ele>307.0</ele><time>2026-04-07T15:09:16.285Z</time></trkpt><trkpt lat="43.668675" lon="11.53379"><ele>307.0</ele><time>2026-04-07T15:09:18.288Z</time></trkpt><trkpt lat="43.6687417" lon="11.5337967"><ele>306.99999999999994</ele><time>2026-04-07T15:09:20.288Z</time></trkpt><trkpt lat="43.66883" lon="11.533805"><ele>307.0</ele><time>2026-04-07T15:09:23.287Z</time></trkpt><trkpt lat="43.668895" lon="11.5338167"><ele>308.5</ele><time>2026-04-07T15:09:25.286Z</time></trkpt><trkpt lat="43.668985" lon="11.5338283"><ele>310.0</ele><time>2026-04-07T15:09:28.287Z</time></trkpt><trkpt lat="43.66908" lon="11.533845"><ele>311.5</ele><time>2026-04-07T15:09:31.288Z</time></trkpt><trkpt lat="43.6691533" lon="11.533855"><ele>313.0</ele><time>2026-04-07T15:09:33.287Z</time></trkpt><trkpt lat="43.6692433" lon="11.5338733"><ele>314.5</ele><time>2026-04-07T15:09:36.29Z</time></trkpt><trkpt lat="43.6693317" lon="11.5338917"><ele>316.0</ele><time>2026-04-07T15:09:39.287Z</time></trkpt><trkpt lat="43.66941" lon="11.5339017"><ele>317.66666666666663</ele><time>2026-04-07T15:09:42.287Z</time></trkpt><trkpt lat="43.6694917" lon="11.5339083"><ele>319.3333333333333</ele><time>2026-04-07T15:09:45.29Z</time></trkpt><trkpt lat="43.6695733" lon="11.5339167"><ele>321.0</ele><time>2026-04-07T15:09:48.288Z</time></trkpt><trkpt lat="43.6696517" lon="11.53393"><ele>322.6666666666667</ele><time>2026-04-07T15:09:51.288Z</time></trkpt><trkpt lat="43.669725" lon="11.5339383"><ele>324.33333333333337</ele><time>2026-04-07T15:09:54.289Z</time></trkpt><trkpt lat="43.6698117" lon="11.5339483"><ele>326.0</ele><time>2026-04-07T15:09:57.288Z</time></trkpt><trkpt lat="43.6699017" lon="11.5339783"><ele>326.0</ele><time>2026-04-07T15:10:00.288Z</time></trkpt><trkpt lat="43.6699833" lon="11.5339933"><ele>326.0</ele><time>2026-04-07T15:10:03.287Z</time></trkpt><trkpt lat="43.6700633" lon="11.5339883"><ele>326.0</ele><time>2026-04-07T15:10:06.289Z</time></trkpt><trkpt lat="43.6701567" lon="11.5339783"><ele>326.0</ele><time>2026-04-07T15:10:09.288Z</time></trkpt><trkpt lat="43.67022" lon="11.5339683"><ele>326.0</ele><time>2026-04-07T15:10:11.287Z</time></trkpt><trkpt lat="43.670305" lon="11.5339567"><ele>326.0</ele><time>2026-04-07T15:10:14.288Z</time></trkpt><trkpt lat="43.6703867" lon="11.5339467"><ele>327.4</ele><time>2026-04-07T15:10:17.286Z</time></trkpt><trkpt lat="43.6704717" lon="11.533935"><ele>328.8</ele><time>2026-04-07T15:10:20.289Z</time></trkpt><trkpt lat="43.6705467" lon="11.5339233"><ele>330.2</ele><time>2026-04-07T15:10:23.288Z</time></trkpt><trkpt lat="43.670625" lon="11.5339217"><ele>331.59999999999997</ele><time>2026-04-07T15:10:26.289Z</time></trkpt><trkpt lat="43.6707883" lon="11.5339283"><ele>333.0</ele><time>2026-04-07T15:10:32.289Z</time></trkpt><trkpt lat="43.671" lon="11.53394"><ele>333.0</ele><time>2026-04-07T15:10:39.288Z</time></trkpt><trkpt lat="43.671065" lon="11.5339583"><ele>333.0</ele><time>2026-04-07T15:10:41.288Z</time></trkpt><trkpt lat="43.6711317" lon="11.53394"><ele>333.0</ele><time>2026-04-07T15:10:44.288Z</time></trkpt><trkpt lat="43.6712017" lon="11.5339183"><ele>333.0</ele><time>2026-04-07T15:10:47.286Z</time></trkpt><trkpt lat="43.6712633" lon="11.5339"><ele>333.0</ele><time>2026-04-07T15:10:50.288Z</time></trkpt><trkpt lat="43.6714683" lon="11.533865"><ele>333.8333333333333</ele><time>2026-04-07T15:10:59.286Z</time></trkpt><trkpt lat="43.6715133" lon="11.5338"><ele>334.6666666666667</ele><time>2026-04-07T15:11:01.288Z</time></trkpt><trkpt lat="43.6715783" lon="11.5337483"><ele>335.5</ele><time>2026-04-07T15:11:03.286Z</time></trkpt><trkpt lat="43.6716567" lon="11.533705"><ele>336.33333333333337</ele><time>2026-04-07T15:11:05.287Z</time></trkpt><trkpt lat="43.6717367" lon="11.5336567"><ele>337.1666666666667</ele><time>2026-04-07T15:11:07.29Z</time></trkpt><trkpt lat="43.67182" lon="11.533625"><ele>338.0</ele><time>2026-04-07T15:11:09.288Z</time></trkpt><trkpt lat="43.6719017" lon="11.5336"><ele>338.5</ele><time>2026-04-07T15:11:11.286Z</time></trkpt><trkpt lat="43.671985" lon="11.5335717"><ele>339.0</ele><time>2026-04-07T15:11:13.287Z</time></trkpt><trkpt lat="43.67206" lon="11.533535"><ele>339.5</ele><time>2026-04-07T15:11:15.287Z</time></trkpt><trkpt lat="43.6721217" lon="11.5334867"><ele>340.0</ele><time>2026-04-07T15:11:17.29Z</time></trkpt><trkpt lat="43.6722017" lon="11.5334483"><ele>340.5</ele><time>2026-04-07T15:11:19.289Z</time></trkpt><trkpt lat="43.6722833" lon="11.533415"><ele>341.0</ele><time>2026-04-07T15:11:21.287Z</time></trkpt><trkpt lat="43.6723567" lon="11.5333767"><ele>341.0</ele><time>2026-04-07T15:11:23.288Z</time></trkpt><trkpt lat="43.67243" lon="11.5333383"><ele>341.0</ele><time>2026-04-07T15:11:25.287Z</time></trkpt><trkpt lat="43.6725017" lon="11.5332933"><ele>341.0</ele><time>2026-04-07T15:11:27.287Z</time></trkpt><trkpt lat="43.6725783" lon="11.5332633"><ele>341.0</ele><time>2026-04-07T15:11:29.288Z</time></trkpt><trkpt lat="43.6726667" lon="11.533225"><ele>341.0</ele><time>2026-04-07T15:11:31.289Z</time></trkpt><trkpt lat="43.67275" lon="11.53319"><ele>341.0</ele><time>2026-04-07T15:11:33.287Z</time></trkpt><trkpt lat="43.67283" lon="11.5331533"><ele>342.5</ele><time>2026-04-07T15:11:35.29Z</time></trkpt><trkpt lat="43.6729067" lon="11.53312"><ele>344.0</ele><time>2026-04-07T15:11:37.289Z</time></trkpt><trkpt lat="43.6729867" lon="11.533085"><ele>345.5</ele><time>2026-04-07T15:11:39.288Z</time></trkpt><trkpt lat="43.6730583" lon="11.533055"><ele>347.0</ele><time>2026-04-07T15:11:41.289Z</time></trkpt><trkpt lat="43.6731333" lon="11.5330267"><ele>348.5</ele><time>2026-04-07T15:11:43.288Z</time></trkpt><trkpt lat="43.6732083" lon="11.5330033"><ele>350.0</ele><time>2026-04-07T15:11:45.29Z</time></trkpt><trkpt lat="43.6732783" lon="11.5329917"><ele>350.0</ele><time>2026-04-07T15:11:47.288Z</time></trkpt><trkpt lat="43.6733483" lon="11.5329883"><ele>350.0</ele><time>2026-04-07T15:11:49.29Z</time></trkpt><trkpt lat="43.673425" lon="11.5329917"><ele>350.0</ele><time>2026-04-07T15:11:51.288Z</time></trkpt><trkpt lat="43.673505" lon="11.5329967"><ele>350.0</ele><time>2026-04-07T15:11:53.288Z</time></trkpt><trkpt lat="43.6735833" lon="11.5330033"><ele>350.0</ele><time>2026-04-07T15:11:55.289Z</time></trkpt><trkpt lat="43.67368" lon="11.5330283"><ele>350.0</ele><time>2026-04-07T15:11:58.289Z</time></trkpt><trkpt lat="43.6737517" lon="11.5330417"><ele>350.42857142857144</ele><time>2026-04-07T15:12:00.289Z</time></trkpt><trkpt lat="43.67382" lon="11.533055"><ele>350.8571428571429</ele><time>2026-04-07T15:12:02.289Z</time></trkpt><trkpt lat="43.6738933" lon="11.5330717"><ele>351.2857142857143</ele><time>2026-04-07T15:12:04.288Z</time></trkpt><trkpt lat="43.673965" lon="11.53309"><ele>351.7142857142857</ele><time>2026-04-07T15:12:06.29Z</time></trkpt><trkpt lat="43.6740383" lon="11.5331133"><ele>352.14285714285717</ele><time>2026-04-07T15:12:08.29Z</time></trkpt><trkpt lat="43.67411" lon="11.53314"><ele>352.57142857142856</ele><time>2026-04-07T15:12:10.287Z</time></trkpt><trkpt lat="43.6741783" lon="11.5331667"><ele>353.0</ele><time>2026-04-07T15:12:12.29Z</time></trkpt><trkpt lat="43.6742517" lon="11.5331967"><ele>353.0</ele><time>2026-04-07T15:12:14.29Z</time></trkpt><trkpt lat="43.6743283" lon="11.5332267"><ele>353.0</ele><time>2026-04-07T15:12:16.288Z</time></trkpt><trkpt lat="43.6744033" lon="11.5332533"><ele>353.0</ele><time>2026-04-07T15:12:18.287Z</time></trkpt><trkpt lat="43.67448" lon="11.5332883"><ele>353.0</ele><time>2026-04-07T15:12:20.288Z</time></trkpt><trkpt lat="43.674555" lon="11.5333267"><ele>353.0</ele><time>2026-04-07T15:12:22.287Z</time></trkpt><trkpt lat="43.6746317" lon="11.5333717"><ele>353.0</ele><time>2026-04-07T15:12:24.286Z</time></trkpt><trkpt lat="43.6747017" lon="11.5334183"><ele>352.83333333333337</ele><time>2026-04-07T15:12:26.289Z</time></trkpt><trkpt lat="43.6747767" lon="11.5334833"><ele>352.6666666666667</ele><time>2026-04-07T15:12:28.286Z</time></trkpt><trkpt lat="43.6748517" lon="11.5335483"><ele>352.5</ele><time>2026-04-07T15:12:30.289Z</time></trkpt><trkpt lat="43.674925" lon="11.5336067"><ele>352.3333333333333</ele><time>2026-04-07T15:12:32.288Z</time></trkpt><trkpt lat="43.6750017" lon="11.5336633"><ele>352.16666666666663</ele><time>2026-04-07T15:12:34.288Z</time></trkpt><trkpt lat="43.6750817" lon="11.533705"><ele>352.0</ele><time>2026-04-07T15:12:36.284Z</time></trkpt><trkpt lat="43.6751617" lon="11.5337383"><ele>354.20000000000005</ele><time>2026-04-07T15:12:38.286Z</time></trkpt><trkpt lat="43.6752433" lon="11.5337533"><ele>356.4</ele><time>2026-04-07T15:12:40.286Z</time></trkpt><trkpt lat="43.675335" lon="11.533735"><ele>358.6</ele><time>2026-04-07T15:12:42.287Z</time></trkpt><trkpt lat="43.6754233" lon="11.5336767"><ele>360.79999999999995</ele><time>2026-04-07T15:12:44.286Z</time></trkpt><trkpt lat="43.6754883" lon="11.53357"><ele>363.0</ele><time>2026-04-07T15:12:46.286Z</time></trkpt><trkpt lat="43.6755217" lon="11.5334233"><ele>363.0</ele><time>2026-04-07T15:12:48.286Z</time></trkpt><trkpt lat="43.6755083" lon="11.5332717"><ele>363.0</ele><time>2026-04-07T15:12:50.287Z</time></trkpt><trkpt lat="43.6754883" lon="11.5331333"><ele>363.0</ele><time>2026-04-07T15:12:52.288Z</time></trkpt><trkpt lat="43.6754817" lon="11.5329833"><ele>363.0</ele><time>2026-04-07T15:12:54.286Z</time></trkpt><trkpt lat="43.6755017" lon="11.5328367"><ele>363.0</ele><time>2026-04-07T15:12:56.286Z</time></trkpt><trkpt lat="43.6755633" lon="11.532725"><ele>359.79999999999995</ele><time>2026-04-07T15:12:58.288Z</time></trkpt><trkpt lat="43.67565" lon="11.5326617"><ele>356.6</ele><time>2026-04-07T15:13:00.289Z</time></trkpt><trkpt lat="43.67574" lon="11.5326683"><ele>353.4</ele><time>2026-04-07T15:13:02.29Z</time></trkpt><trkpt lat="43.6758017" lon="11.5326883"><ele>350.20000000000005</ele><time>2026-04-07T15:13:03.289Z</time></trkpt><trkpt lat="43.6759117" lon="11.5327367"><ele>347.0</ele><time>2026-04-07T15:13:05.289Z</time></trkpt><trkpt lat="43.67602" lon="11.5328117"><ele>346.40000000000003</ele><time>2026-04-07T15:13:07.288Z</time></trkpt><trkpt lat="43.6761167" lon="11.5328633"><ele>345.8</ele><time>2026-04-07T15:13:09.29Z</time></trkpt><trkpt lat="43.6762117" lon="11.5329117"><ele>345.2</ele><time>2026-04-07T15:13:11.288Z</time></trkpt><trkpt lat="43.6762967" lon="11.5329567"><ele>344.6</ele><time>2026-04-07T15:13:13.289Z</time></trkpt><trkpt lat="43.6763817" lon="11.5330283"><ele>344.0</ele><time>2026-04-07T15:13:15.29Z</time></trkpt><trkpt lat="43.6764667" lon="11.5330917"><ele>348.6</ele><time>2026-04-07T15:13:17.29Z</time></trkpt><trkpt lat="43.6765483" lon="11.5331583"><ele>353.2</ele><time>2026-04-07T15:13:19.291Z</time></trkpt><trkpt lat="43.67663" lon="11.5332267"><ele>357.8</ele><time>2026-04-07T15:13:21.286Z</time></trkpt><trkpt lat="43.6767117" lon="11.5332867"><ele>362.40000000000003</ele><time>2026-04-07T15:13:23.286Z</time></trkpt><trkpt lat="43.6767933" lon="11.533345"><ele>367.0</ele><time>2026-04-07T15:13:25.287Z</time></trkpt><trkpt lat="43.6768717" lon="11.5333983"><ele>365.20000000000005</ele><time>2026-04-07T15:13:27.288Z</time></trkpt><trkpt lat="43.67695" lon="11.533485"><ele>363.4</ele><time>2026-04-07T15:13:29.288Z</time></trkpt><trkpt lat="43.67703" lon="11.5335467"><ele>361.6</ele><time>2026-04-07T15:13:31.287Z</time></trkpt><trkpt lat="43.6771167" lon="11.5336"><ele>359.79999999999995</ele><time>2026-04-07T15:13:33.289Z</time></trkpt><trkpt lat="43.6771933" lon="11.533655"><ele>358.0</ele><time>2026-04-07T15:13:35.286Z</time></trkpt><trkpt lat="43.67727" lon="11.533695"><ele>362.2</ele><time>2026-04-07T15:13:37.288Z</time></trkpt><trkpt lat="43.6773483" lon="11.5337533"><ele>366.4</ele><time>2026-04-07T15:13:39.288Z</time></trkpt><trkpt lat="43.6774333" lon="11.5338383"><ele>370.59999999999997</ele><time>2026-04-07T15:13:41.29Z</time></trkpt><trkpt lat="43.6775117" lon="11.533905"><ele>374.79999999999995</ele><time>2026-04-07T15:13:43.288Z</time></trkpt><trkpt lat="43.6775883" lon="11.5339617"><ele>379.0</ele><time>2026-04-07T15:13:45.287Z</time></trkpt><trkpt lat="43.6776617" lon="11.53401"><ele>379.0</ele><time>2026-04-07T15:13:47.286Z</time></trkpt><trkpt lat="43.677735" lon="11.53406"><ele>379.0</ele><time>2026-04-07T15:13:49.289Z</time></trkpt><trkpt lat="43.6778083" lon="11.5341117"><ele>379.0</ele><time>2026-04-07T15:13:51.287Z</time></trkpt><trkpt lat="43.677875" lon="11.53415"><ele>379.0</ele><time>2026-04-07T15:13:53.289Z</time></trkpt><trkpt lat="43.6779517" lon="11.5342017"><ele>379.0</ele><time>2026-04-07T15:13:55.289Z</time></trkpt><trkpt lat="43.6780333" lon="11.5342567"><ele>379.0</ele><time>2026-04-07T15:13:57.289Z</time></trkpt><trkpt lat="43.6781117" lon="11.5343217"><ele>377.0</ele><time>2026-04-07T15:13:59.288Z</time></trkpt><trkpt lat="43.6781933" lon="11.534375"><ele>375.0</ele><time>2026-04-07T15:14:01.288Z</time></trkpt><trkpt lat="43.678275" lon="11.5344217"><ele>373.0</ele><time>2026-04-07T15:14:03.287Z</time></trkpt><trkpt lat="43.6783533" lon="11.5344783"><ele>371.0</ele><time>2026-04-07T15:14:05.286Z</time></trkpt><trkpt lat="43.678435" lon="11.534525"><ele>369.0</ele><time>2026-04-07T15:14:07.289Z</time></trkpt><trkpt lat="43.6785117" lon="11.5345483"><ele>367.0</ele><time>2026-04-07T15:14:09.29Z</time></trkpt><trkpt lat="43.6785783" lon="11.5345733"><ele>368.3333333333333</ele><time>2026-04-07T15:14:11.288Z</time></trkpt><trkpt lat="43.678645" lon="11.5346183"><ele>369.66666666666663</ele><time>2026-04-07T15:14:13.29Z</time></trkpt><trkpt lat="43.678715" lon="11.5346633"><ele>371.0</ele><time>2026-04-07T15:14:15.289Z</time></trkpt><trkpt lat="43.6787767" lon="11.5347133"><ele>372.3333333333333</ele><time>2026-04-07T15:14:17.289Z</time></trkpt><trkpt lat="43.6788483" lon="11.534775"><ele>373.6666666666667</ele><time>2026-04-07T15:14:19.289Z</time></trkpt><trkpt lat="43.67892" lon="11.534845"><ele>375.0</ele><time>2026-04-07T15:14:21.287Z</time></trkpt><trkpt lat="43.6789917" lon="11.5349183"><ele>375.0</ele><time>2026-04-07T15:14:23.287Z</time></trkpt><trkpt lat="43.67906" lon="11.5349833"><ele>375.0</ele><time>2026-04-07T15:14:25.29Z</time></trkpt><trkpt lat="43.67913" lon="11.535065"><ele>375.0</ele><time>2026-04-07T15:14:27.29Z</time></trkpt><trkpt lat="43.679205" lon="11.5351583"><ele>375.0</ele><time>2026-04-07T15:14:29.289Z</time></trkpt><trkpt lat="43.6792783" lon="11.53524"><ele>375.0</ele><time>2026-04-07T15:14:31.287Z</time></trkpt><trkpt lat="43.6793533" lon="11.53531"><ele>375.0</ele><time>2026-04-07T15:14:33.289Z</time></trkpt><trkpt lat="43.6794283" lon="11.5353817"><ele>375.0</ele><time>2026-04-07T15:14:35.288Z</time></trkpt><trkpt lat="43.679505" lon="11.5354417"><ele>375.0</ele><time>2026-04-07T15:14:37.287Z</time></trkpt><trkpt lat="43.6795883" lon="11.5354783"><ele>375.0</ele><time>2026-04-07T15:14:39.288Z</time></trkpt><trkpt lat="43.6796733" lon="11.5355133"><ele>375.0</ele><time>2026-04-07T15:14:41.289Z</time></trkpt><trkpt lat="43.67976" lon="11.53554"><ele>375.0</ele><time>2026-04-07T15:14:43.288Z</time></trkpt><trkpt lat="43.6798467" lon="11.53557"><ele>376.0</ele><time>2026-04-07T15:14:45.289Z</time></trkpt><trkpt lat="43.6799317" lon="11.5355917"><ele>377.0</ele><time>2026-04-07T15:14:47.288Z</time></trkpt><trkpt lat="43.68001" lon="11.5356033"><ele>378.0</ele><time>2026-04-07T15:14:49.288Z</time></trkpt><trkpt lat="43.6800983" lon="11.5356117"><ele>379.0</ele><time>2026-04-07T15:14:51.288Z</time></trkpt><trkpt lat="43.6801833" lon="11.5356233"><ele>380.0</ele><time>2026-04-07T15:14:53.289Z</time></trkpt><trkpt lat="43.680275" lon="11.53565"><ele>381.0</ele><time>2026-04-07T15:14:55.289Z</time></trkpt><trkpt lat="43.6803583" lon="11.5356833"><ele>381.0</ele><time>2026-04-07T15:14:57.287Z</time></trkpt><trkpt lat="43.68044" lon="11.53571"><ele>381.0</ele><time>2026-04-07T15:14:59.288Z</time></trkpt><trkpt lat="43.6805167" lon="11.5357567"><ele>381.0</ele><time>2026-04-07T15:15:01.289Z</time></trkpt><trkpt lat="43.680595" lon="11.5358217"><ele>381.0</ele><time>2026-04-07T15:15:03.289Z</time></trkpt><trkpt lat="43.6806717" lon="11.535895"><ele>381.0</ele><time>2026-04-07T15:15:05.29Z</time></trkpt><trkpt lat="43.6807467" lon="11.5359767"><ele>381.0</ele><time>2026-04-07T15:15:07.29Z</time></trkpt><trkpt lat="43.6808217" lon="11.5360617"><ele>381.0</ele><time>2026-04-07T15:15:09.288Z</time></trkpt><trkpt lat="43.6808917" lon="11.536135"><ele>381.0</ele><time>2026-04-07T15:15:11.288Z</time></trkpt><trkpt lat="43.6809533" lon="11.5361967"><ele>381.0</ele><time>2026-04-07T15:15:13.288Z</time></trkpt><trkpt lat="43.6810067" lon="11.5362433"><ele>381.0</ele><time>2026-04-07T15:15:15.288Z</time></trkpt><trkpt lat="43.6810633" lon="11.5363033"><ele>381.0</ele><time>2026-04-07T15:15:17.289Z</time></trkpt><trkpt lat="43.6811183" lon="11.5363617"><ele>381.0</ele><time>2026-04-07T15:15:19.288Z</time></trkpt><trkpt lat="43.6811633" lon="11.5364283"><ele>381.0</ele><time>2026-04-07T15:15:21.285Z</time></trkpt><trkpt lat="43.6812033" lon="11.536515"><ele>382.5</ele><time>2026-04-07T15:15:23.288Z</time></trkpt><trkpt lat="43.6812383" lon="11.5366"><ele>384.0</ele><time>2026-04-07T15:15:25.288Z</time></trkpt><trkpt lat="43.6812983" lon="11.5367167"><ele>385.5</ele><time>2026-04-07T15:15:27.29Z</time></trkpt><trkpt lat="43.6813433" lon="11.536825"><ele>387.0</ele><time>2026-04-07T15:15:29.288Z</time></trkpt><trkpt lat="43.6813933" lon="11.5369217"><ele>388.5</ele><time>2026-04-07T15:15:31.288Z</time></trkpt><trkpt lat="43.6814333" lon="11.537"><ele>390.0</ele><time>2026-04-07T15:15:33.286Z</time></trkpt><trkpt lat="43.6814017" lon="11.536885"><ele>390.0</ele><time>2026-04-07T15:16:08.29Z</time></trkpt><trkpt lat="43.6813467" lon="11.536785"><ele>390.0</ele><time>2026-04-07T15:16:10.288Z</time></trkpt><trkpt lat="43.68129" lon="11.5366717"><ele>390.0</ele><time>2026-04-07T15:16:12.29Z</time></trkpt><trkpt lat="43.6812183" lon="11.5365283"><ele>390.0</ele><time>2026-04-07T15:16:14.291Z</time></trkpt><trkpt lat="43.6811717" lon="11.5364567"><ele>390.0</ele><time>2026-04-07T15:16:15.289Z</time></trkpt><trkpt lat="43.68112" lon="11.5363867"><ele>388.5</ele><time>2026-04-07T15:16:16.288Z</time></trkpt><trkpt lat="43.6810667" lon="11.536315"><ele>387.0</ele><time>2026-04-07T15:16:17.289Z</time></trkpt><trkpt lat="43.6810033" lon="11.5362483"><ele>385.5</ele><time>2026-04-07T15:16:18.286Z</time></trkpt><trkpt lat="43.6809333" lon="11.53618"><ele>384.0</ele><time>2026-04-07T15:16:19.288Z</time></trkpt><trkpt lat="43.68086" lon="11.536105"><ele>382.5</ele><time>2026-04-07T15:16:20.287Z</time></trkpt><trkpt lat="43.68079" lon="11.5360317"><ele>381.0</ele><time>2026-04-07T15:16:21.286Z</time></trkpt><trkpt lat="43.68071" lon="11.5359433"><ele>381.0</ele><time>2026-04-07T15:16:22.288Z</time></trkpt><trkpt lat="43.6806333" lon="11.535865"><ele>381.0</ele><time>2026-04-07T15:16:23.288Z</time></trkpt><trkpt lat="43.6805533" lon="11.5357933"><ele>381.0</ele><time>2026-04-07T15:16:24.286Z</time></trkpt><trkpt lat="43.680465" lon="11.5357283"><ele>381.0</ele><time>2026-04-07T15:16:25.287Z</time></trkpt><trkpt lat="43.68037" lon="11.5356717"><ele>381.0</ele><time>2026-04-07T15:16:26.287Z</time></trkpt><trkpt lat="43.680275" lon="11.5356317"><ele>381.8</ele><time>2026-04-07T15:16:27.287Z</time></trkpt><trkpt lat="43.6801767" lon="11.535605"><ele>382.6</ele><time>2026-04-07T15:16:28.288Z</time></trkpt><trkpt lat="43.6800767" lon="11.5355833"><ele>383.4</ele><time>2026-04-07T15:16:29.289Z</time></trkpt><trkpt lat="43.6799767" lon="11.53556"><ele>384.2</ele><time>2026-04-07T15:16:30.29Z</time></trkpt><trkpt lat="43.6798767" lon="11.5355383"><ele>385.0</ele><time>2026-04-07T15:16:31.288Z</time></trkpt><trkpt lat="43.6797733" lon="11.5355217"><ele>385.0</ele><time>2026-04-07T15:16:32.289Z</time></trkpt><trkpt lat="43.67967" lon="11.5355033"><ele>385.0</ele><time>2026-04-07T15:16:33.289Z</time></trkpt><trkpt lat="43.67957" lon="11.535475"><ele>385.0</ele><time>2026-04-07T15:16:34.288Z</time></trkpt><trkpt lat="43.6794733" lon="11.5354333"><ele>385.0</ele><time>2026-04-07T15:16:35.288Z</time></trkpt><trkpt lat="43.67938" lon="11.5353717"><ele>385.0</ele><time>2026-04-07T15:16:36.289Z</time></trkpt><trkpt lat="43.6792933" lon="11.5352933"><ele>383.0</ele><time>2026-04-07T15:16:37.287Z</time></trkpt><trkpt lat="43.67921" lon="11.5352017"><ele>381.0</ele><time>2026-04-07T15:16:38.288Z</time></trkpt><trkpt lat="43.6791267" lon="11.5351083"><ele>379.0</ele><time>2026-04-07T15:16:39.286Z</time></trkpt><trkpt lat="43.6790467" lon="11.5350133"><ele>377.0</ele><time>2026-04-07T15:16:40.286Z</time></trkpt><trkpt lat="43.6789633" lon="11.5349233"><ele>375.0</ele><time>2026-04-07T15:16:41.286Z</time></trkpt><trkpt lat="43.6788767" lon="11.5348383"><ele>375.0</ele><time>2026-04-07T15:16:42.287Z</time></trkpt><trkpt lat="43.6787883" lon="11.5347567"><ele>375.0</ele><time>2026-04-07T15:16:43.286Z</time></trkpt><trkpt lat="43.6786917" lon="11.5346833"><ele>375.0</ele><time>2026-04-07T15:16:44.288Z</time></trkpt><trkpt lat="43.6785817" lon="11.5346133"><ele>375.0</ele><time>2026-04-07T15:16:45.285Z</time></trkpt><trkpt lat="43.6784783" lon="11.53454"><ele>373.4</ele><time>2026-04-07T15:16:46.286Z</time></trkpt><trkpt lat="43.6783783" lon="11.5344617"><ele>371.8</ele><time>2026-04-07T15:16:47.286Z</time></trkpt><trkpt lat="43.6782883" lon="11.5343833"><ele>370.20000000000005</ele><time>2026-04-07T15:16:48.288Z</time></trkpt><trkpt lat="43.6781917" lon="11.5343067"><ele>368.6</ele><time>2026-04-07T15:16:49.287Z</time></trkpt><trkpt lat="43.67809" lon="11.5342333"><ele>367.0</ele><time>2026-04-07T15:16:50.289Z</time></trkpt><trkpt lat="43.6779883" lon="11.5341617"><ele>367.0</ele><time>2026-04-07T15:16:51.286Z</time></trkpt><trkpt lat="43.6778833" lon="11.534085"><ele>367.0</ele><time>2026-04-07T15:16:52.288Z</time></trkpt><trkpt lat="43.6777817" lon="11.53401"><ele>367.0</ele><time>2026-04-07T15:16:53.288Z</time></trkpt><trkpt lat="43.67768" lon="11.533935"><ele>367.0</ele><time>2026-04-07T15:16:54.289Z</time></trkpt><trkpt lat="43.6775733" lon="11.53386"><ele>364.75</ele><time>2026-04-07T15:16:55.288Z</time></trkpt><trkpt lat="43.67747" lon="11.5337867"><ele>362.5</ele><time>2026-04-07T15:16:56.288Z</time></trkpt><trkpt lat="43.6773633" lon="11.5337117"><ele>360.25</ele><time>2026-04-07T15:16:57.286Z</time></trkpt><trkpt lat="43.6772567" lon="11.533635"><ele>358.0</ele><time>2026-04-07T15:16:58.288Z</time></trkpt><trkpt lat="43.677155" lon="11.5335633"><ele>358.0</ele><time>2026-04-07T15:16:59.287Z</time></trkpt><trkpt lat="43.677055" lon="11.53349"><ele>358.0</ele><time>2026-04-07T15:17:00.286Z</time></trkpt><trkpt lat="43.676955" lon="11.5334167"><ele>358.0</ele><time>2026-04-07T15:17:01.29Z</time></trkpt><trkpt lat="43.676855" lon="11.5333383"><ele>358.0</ele><time>2026-04-07T15:17:02.288Z</time></trkpt><trkpt lat="43.676755" lon="11.5332667"><ele>360.25</ele><time>2026-04-07T15:17:03.287Z</time></trkpt><trkpt lat="43.6766583" lon="11.5332"><ele>362.5</ele><time>2026-04-07T15:17:04.288Z</time></trkpt><trkpt lat="43.67655" lon="11.5331317"><ele>364.75</ele><time>2026-04-07T15:17:05.287Z</time></trkpt><trkpt lat="43.6764483" lon="11.5330617"><ele>367.0</ele><time>2026-04-07T15:17:06.287Z</time></trkpt><trkpt lat="43.6763433" lon="11.5329967"><ele>367.0</ele><time>2026-04-07T15:17:07.287Z</time></trkpt><trkpt lat="43.6762383" lon="11.5329383"><ele>367.0</ele><time>2026-04-07T15:17:08.289Z</time></trkpt><trkpt lat="43.6761367" lon="11.532885"><ele>367.0</ele><time>2026-04-07T15:17:09.289Z</time></trkpt><trkpt lat="43.676035" lon="11.53284"><ele>367.0</ele><time>2026-04-07T15:17:10.288Z</time></trkpt><trkpt lat="43.6759333" lon="11.5327983"><ele>367.0</ele><time>2026-04-07T15:17:11.287Z</time></trkpt><trkpt lat="43.67584" lon="11.5327583"><ele>363.66666666666663</ele><time>2026-04-07T15:17:12.288Z</time></trkpt><trkpt lat="43.675755" lon="11.5327183"><ele>360.3333333333333</ele><time>2026-04-07T15:17:13.287Z</time></trkpt><trkpt lat="43.675675" lon="11.5326867"><ele>357.0</ele><time>2026-04-07T15:17:14.287Z</time></trkpt><trkpt lat="43.6755967" lon="11.5326717"><ele>353.6666666666667</ele><time>2026-04-07T15:17:15.289Z</time></trkpt><trkpt lat="43.6755183" lon="11.5326783"><ele>350.33333333333337</ele><time>2026-04-07T15:17:16.289Z</time></trkpt><trkpt lat="43.6754467" lon="11.5327083"><ele>347.0</ele><time>2026-04-07T15:17:17.288Z</time></trkpt><trkpt lat="43.6754017" lon="11.5327817"><ele>349.6666666666667</ele><time>2026-04-07T15:17:18.289Z</time></trkpt><trkpt lat="43.6753933" lon="11.532895"><ele>352.33333333333337</ele><time>2026-04-07T15:17:19.291Z</time></trkpt><trkpt lat="43.675395" lon="11.5330167"><ele>355.0</ele><time>2026-04-07T15:17:20.289Z</time></trkpt><trkpt lat="43.6754083" lon="11.5331317"><ele>357.6666666666667</ele><time>2026-04-07T15:17:21.289Z</time></trkpt><trkpt lat="43.675445" lon="11.5332567"><ele>360.3333333333333</ele><time>2026-04-07T15:17:22.288Z</time></trkpt><trkpt lat="43.6754733" lon="11.5333833"><ele>363.0</ele><time>2026-04-07T15:17:23.289Z</time></trkpt><trkpt lat="43.675475" lon="11.5335017"><ele>363.0</ele><time>2026-04-07T15:17:24.291Z</time></trkpt><trkpt lat="43.6754467" lon="11.5336067"><ele>363.0</ele><time>2026-04-07T15:17:25.289Z</time></trkpt><trkpt lat="43.675395" lon="11.5336833"><ele>363.0</ele><time>2026-04-07T15:17:26.288Z</time></trkpt><trkpt lat="43.67533" lon="11.5337283"><ele>363.0</ele><time>2026-04-07T15:17:27.289Z</time></trkpt><trkpt lat="43.6752567" lon="11.5337367"><ele>363.0</ele><time>2026-04-07T15:17:28.289Z</time></trkpt><trkpt lat="43.6751817" lon="11.53372"><ele>363.0</ele><time>2026-04-07T15:17:29.29Z</time></trkpt><trkpt lat="43.6751017" lon="11.5336933"><ele>361.1666666666667</ele><time>2026-04-07T15:17:30.291Z</time></trkpt><trkpt lat="43.6750233" lon="11.53366"><ele>359.3333333333333</ele><time>2026-04-07T15:17:31.287Z</time></trkpt><trkpt lat="43.6749467" lon="11.5336083"><ele>357.5</ele><time>2026-04-07T15:17:32.288Z</time></trkpt><trkpt lat="43.67487" lon="11.53355"><ele>355.66666666666663</ele><time>2026-04-07T15:17:33.289Z</time></trkpt><trkpt lat="43.6747917" lon="11.5334883"><ele>353.8333333333333</ele><time>2026-04-07T15:17:34.289Z</time></trkpt><trkpt lat="43.67471" lon="11.5334267"><ele>352.0</ele><time>2026-04-07T15:17:35.289Z</time></trkpt><trkpt lat="43.674625" lon="11.5333683"><ele>352.0</ele><time>2026-04-07T15:17:36.286Z</time></trkpt><trkpt lat="43.6745367" lon="11.53331"><ele>352.0</ele><time>2026-04-07T15:17:37.286Z</time></trkpt><trkpt lat="43.6744433" lon="11.533255"><ele>352.0</ele><time>2026-04-07T15:17:38.288Z</time></trkpt><trkpt lat="43.674345" lon="11.5332033"><ele>352.0</ele><time>2026-04-07T15:17:39.285Z</time></trkpt><trkpt lat="43.6742467" lon="11.53316"><ele>352.0</ele><time>2026-04-07T15:17:40.287Z</time></trkpt><trkpt lat="43.6741433" lon="11.5331167"><ele>352.20000000000005</ele><time>2026-04-07T15:17:41.288Z</time></trkpt><trkpt lat="43.67404" lon="11.5330833"><ele>352.4</ele><time>2026-04-07T15:17:42.288Z</time></trkpt><trkpt lat="43.6739333" lon="11.5330567"><ele>352.6</ele><time>2026-04-07T15:17:43.288Z</time></trkpt><trkpt lat="43.6738233" lon="11.5330333"><ele>352.79999999999995</ele><time>2026-04-07T15:17:44.289Z</time></trkpt><trkpt lat="43.673715" lon="11.533015"><ele>353.0</ele><time>2026-04-07T15:17:45.287Z</time></trkpt><trkpt lat="43.6736067" lon="11.5329967"><ele>352.25</ele><time>2026-04-07T15:17:46.287Z</time></trkpt><trkpt lat="43.673495" lon="11.53298"><ele>351.5</ele><time>2026-04-07T15:17:47.288Z</time></trkpt><trkpt lat="43.6733833" lon="11.5329683"><ele>350.75</ele><time>2026-04-07T15:17:48.29Z</time></trkpt><trkpt lat="43.6732667" lon="11.5329667"><ele>350.0</ele><time>2026-04-07T15:17:49.289Z</time></trkpt><trkpt lat="43.6731533" lon="11.5329817"><ele>350.0</ele><time>2026-04-07T15:17:50.289Z</time></trkpt><trkpt lat="43.67304" lon="11.533015"><ele>350.0</ele><time>2026-04-07T15:17:51.289Z</time></trkpt><trkpt lat="43.67293" lon="11.53306"><ele>350.0</ele><time>2026-04-07T15:17:52.288Z</time></trkpt><trkpt lat="43.672815" lon="11.5331117"><ele>350.0</ele><time>2026-04-07T15:17:53.289Z</time></trkpt><trkpt lat="43.6727017" lon="11.533165"><ele>347.75</ele><time>2026-04-07T15:17:54.289Z</time></trkpt><trkpt lat="43.672585" lon="11.53322"><ele>345.5</ele><time>2026-04-07T15:17:55.288Z</time></trkpt><trkpt lat="43.6724717" lon="11.5332783"><ele>343.25</ele><time>2026-04-07T15:17:56.29Z</time></trkpt><trkpt lat="43.6723583" lon="11.533335"><ele>341.0</ele><time>2026-04-07T15:17:57.289Z</time></trkpt><trkpt lat="43.6722483" lon="11.5333917"><ele>341.0</ele><time>2026-04-07T15:17:58.287Z</time></trkpt><trkpt lat="43.6721367" lon="11.5334483"><ele>341.0</ele><time>2026-04-07T15:17:59.288Z</time></trkpt><trkpt lat="43.6720217" lon="11.5335083"><ele>341.0</ele><time>2026-04-07T15:18:00.285Z</time></trkpt><trkpt lat="43.6719083" lon="11.53356"><ele>341.0</ele><time>2026-04-07T15:18:01.288Z</time></trkpt><trkpt lat="43.6717983" lon="11.53361"><ele>340.4</ele><time>2026-04-07T15:18:02.288Z</time></trkpt><trkpt lat="43.6716933" lon="11.53366"><ele>339.8</ele><time>2026-04-07T15:18:03.287Z</time></trkpt><trkpt lat="43.671595" lon="11.5337183"><ele>339.2</ele><time>2026-04-07T15:18:04.288Z</time></trkpt><trkpt lat="43.6715" lon="11.53378"><ele>338.59999999999997</ele><time>2026-04-07T15:18:05.291Z</time></trkpt><trkpt lat="43.6714183" lon="11.5338683"><ele>338.0</ele><time>2026-04-07T15:18:06.289Z</time></trkpt><trkpt lat="43.6713617" lon="11.5339817"><ele>339.0</ele><time>2026-04-07T15:18:07.29Z</time></trkpt><trkpt lat="43.6713183" lon="11.534105"><ele>340.0</ele><time>2026-04-07T15:18:08.288Z</time></trkpt><trkpt lat="43.6712917" lon="11.5342383"><ele>341.0</ele><time>2026-04-07T15:18:09.288Z</time></trkpt><trkpt lat="43.6712733" lon="11.5343767"><ele>342.0</ele><time>2026-04-07T15:18:10.291Z</time></trkpt><trkpt lat="43.6712567" lon="11.5345117"><ele>343.0</ele><time>2026-04-07T15:18:11.288Z</time></trkpt><trkpt lat="43.6712383" lon="11.5346467"><ele>343.0</ele><time>2026-04-07T15:18:12.289Z</time></trkpt><trkpt lat="43.6712183" lon="11.53478"><ele>343.0</ele><time>2026-04-07T15:18:13.288Z</time></trkpt><trkpt lat="43.6711883" lon="11.53491"><ele>343.0</ele><time>2026-04-07T15:18:14.289Z</time></trkpt><trkpt lat="43.6711433" lon="11.53503"><ele>343.0</ele><time>2026-04-07T15:18:15.289Z</time></trkpt><trkpt lat="43.6710817" lon="11.5351383"><ele>343.0</ele><time>2026-04-07T15:18:16.29Z</time></trkpt><trkpt lat="43.6710183" lon="11.5352417"><ele>340.59999999999997</ele><time>2026-04-07T15:18:17.286Z</time></trkpt><trkpt lat="43.6709567" lon="11.53535"><ele>338.2</ele><time>2026-04-07T15:18:18.287Z</time></trkpt><trkpt lat="43.6709117" lon="11.535465"><ele>335.8</ele><time>2026-04-07T15:18:19.288Z</time></trkpt><trkpt lat="43.6708817" lon="11.53559"><ele>333.4</ele><time>2026-04-07T15:18:20.289Z</time></trkpt><trkpt lat="43.6708717" lon="11.53572"><ele>331.0</ele><time>2026-04-07T15:18:21.286Z</time></trkpt><trkpt lat="43.67088" lon="11.5358517"><ele>331.0</ele><time>2026-04-07T15:18:22.286Z</time></trkpt><trkpt lat="43.6709017" lon="11.5359817"><ele>331.0</ele><time>2026-04-07T15:18:23.289Z</time></trkpt><trkpt lat="43.6709317" lon="11.5361083"><ele>331.0</ele><time>2026-04-07T15:18:24.287Z</time></trkpt><trkpt lat="43.6709683" lon="11.5362317"><ele>331.0</ele><time>2026-04-07T15:18:25.288Z</time></trkpt><trkpt lat="43.6710083" lon="11.5363533"><ele>331.0</ele><time>2026-04-07T15:18:26.288Z</time></trkpt><trkpt lat="43.6710533" lon="11.5364683"><ele>333.6</ele><time>2026-04-07T15:18:27.287Z</time></trkpt><trkpt lat="43.67111" lon="11.53658"><ele>336.20000000000005</ele><time>2026-04-07T15:18:28.288Z</time></trkpt><trkpt lat="43.6711817" lon="11.5366717"><ele>338.79999999999995</ele><time>2026-04-07T15:18:29.287Z</time></trkpt><trkpt lat="43.6712667" lon="11.53674"><ele>341.4</ele><time>2026-04-07T15:18:30.287Z</time></trkpt><trkpt lat="43.671355" lon="11.53679"><ele>344.0</ele><time>2026-04-07T15:18:31.288Z</time></trkpt><trkpt lat="43.6714267" lon="11.5368483"><ele>344.0</ele><time>2026-04-07T15:18:32.29Z</time></trkpt><trkpt lat="43.6714783" lon="11.53692"><ele>344.0</ele><time>2026-04-07T15:18:33.289Z</time></trkpt><trkpt lat="43.6715067" lon="11.5370233"><ele>344.0</ele><time>2026-04-07T15:18:34.288Z</time></trkpt><trkpt lat="43.6715017" lon="11.5371367"><ele>344.0</ele><time>2026-04-07T15:18:35.288Z</time></trkpt><trkpt lat="43.6714717" lon="11.5372467"><ele>344.0</ele><time>2026-04-07T15:18:36.289Z</time></trkpt><trkpt lat="43.6714133" lon="11.5373383"><ele>344.0</ele><time>2026-04-07T15:18:37.29Z</time></trkpt><trkpt lat="43.6713583" lon="11.5374367"><ele>343.6</ele><time>2026-04-07T15:18:38.289Z</time></trkpt><trkpt lat="43.671315" lon="11.5375517"><ele>343.2</ele><time>2026-04-07T15:18:39.289Z</time></trkpt><trkpt lat="43.67129" lon="11.5376783"><ele>342.8</ele><time>2026-04-07T15:18:40.287Z</time></trkpt><trkpt lat="43.67128" lon="11.5378133"><ele>342.40000000000003</ele><time>2026-04-07T15:18:41.289Z</time></trkpt><trkpt lat="43.671275" lon="11.53795"><ele>342.0</ele><time>2026-04-07T15:18:42.286Z</time></trkpt><trkpt lat="43.6712717" lon="11.5380833"><ele>342.0</ele><time>2026-04-07T15:18:43.288Z</time></trkpt><trkpt lat="43.6712767" lon="11.5382217"><ele>342.0</ele><time>2026-04-07T15:18:44.288Z</time></trkpt><trkpt lat="43.6712833" lon="11.538355"><ele>342.0</ele><time>2026-04-07T15:18:45.286Z</time></trkpt><trkpt lat="43.6712817" lon="11.5384883"><ele>342.0</ele><time>2026-04-07T15:18:46.289Z</time></trkpt><trkpt lat="43.6712633" lon="11.5386117"><ele>342.0</ele><time>2026-04-07T15:18:47.289Z</time></trkpt><trkpt lat="43.67123" lon="11.53872"><ele>341.8333333333333</ele><time>2026-04-07T15:18:48.288Z</time></trkpt><trkpt lat="43.6711817" lon="11.5388067"><ele>341.6666666666667</ele><time>2026-04-07T15:18:49.287Z</time></trkpt><trkpt lat="43.6711167" lon="11.5388617"><ele>341.5</ele><time>2026-04-07T15:18:50.29Z</time></trkpt><trkpt lat="43.6710383" lon="11.5388767"><ele>341.33333333333337</ele><time>2026-04-07T15:18:51.286Z</time></trkpt><trkpt lat="43.6709517" lon="11.5388333"><ele>341.1666666666667</ele><time>2026-04-07T15:18:52.288Z</time></trkpt><trkpt lat="43.670875" lon="11.538775"><ele>341.0</ele><time>2026-04-07T15:18:53.287Z</time></trkpt><trkpt lat="43.670805" lon="11.5387183"><ele>339.33333333333337</ele><time>2026-04-07T15:18:54.288Z</time></trkpt><trkpt lat="43.67074" lon="11.538655"><ele>337.6666666666667</ele><time>2026-04-07T15:18:55.288Z</time></trkpt><trkpt lat="43.6706767" lon="11.5385867"><ele>336.0</ele><time>2026-04-07T15:18:56.288Z</time></trkpt><trkpt lat="43.6706117" lon="11.53851"><ele>334.3333333333333</ele><time>2026-04-07T15:18:57.287Z</time></trkpt><trkpt lat="43.6705533" lon="11.5384267"><ele>332.66666666666663</ele><time>2026-04-07T15:18:58.288Z</time></trkpt><trkpt lat="43.6704883" lon="11.53835"><ele>331.0</ele><time>2026-04-07T15:18:59.288Z</time></trkpt><trkpt lat="43.6704267" lon="11.5382783"><ele>331.0</ele><time>2026-04-07T15:19:00.286Z</time></trkpt><trkpt lat="43.670365" lon="11.538205"><ele>331.0</ele><time>2026-04-07T15:19:01.288Z</time></trkpt><trkpt lat="43.670305" lon="11.53813"><ele>331.0</ele><time>2026-04-07T15:19:02.288Z</time></trkpt><trkpt lat="43.6702467" lon="11.5380483"><ele>331.0</ele><time>2026-04-07T15:19:03.289Z</time></trkpt><trkpt lat="43.6701917" lon="11.5379683"><ele>331.0</ele><time>2026-04-07T15:19:04.285Z</time></trkpt><trkpt lat="43.6701383" lon="11.537885"><ele>331.0</ele><time>2026-04-07T15:19:05.289Z</time></trkpt><trkpt lat="43.6700833" lon="11.5377967"><ele>331.0</ele><time>2026-04-07T15:19:06.288Z</time></trkpt><trkpt lat="43.6700317" lon="11.5377083"><ele>331.0</ele><time>2026-04-07T15:19:07.288Z</time></trkpt><trkpt lat="43.66998" lon="11.5376183"><ele>331.0</ele><time>2026-04-07T15:19:08.288Z</time></trkpt><trkpt lat="43.6699367" lon="11.53753"><ele>331.0</ele><time>2026-04-07T15:19:09.287Z</time></trkpt><trkpt lat="43.66991" lon="11.5374333"><ele>331.0</ele><time>2026-04-07T15:19:10.288Z</time></trkpt><trkpt lat="43.66989" lon="11.5373367"><ele>331.0</ele><time>2026-04-07T15:19:11.288Z</time></trkpt><trkpt lat="43.6698783" lon="11.5372367"><ele>331.0</ele><time>2026-04-07T15:19:12.287Z</time></trkpt><trkpt lat="43.6698583" lon="11.537135"><ele>331.0</ele><time>2026-04-07T15:19:13.289Z</time></trkpt><trkpt lat="43.6698333" lon="11.537035"><ele>331.0</ele><time>2026-04-07T15:19:14.289Z</time></trkpt><trkpt lat="43.6697983" lon="11.5369483"><ele>331.0</ele><time>2026-04-07T15:19:15.286Z</time></trkpt><trkpt lat="43.6697633" lon="11.53686"><ele>331.0</ele><time>2026-04-07T15:19:16.288Z</time></trkpt><trkpt lat="43.6697183" lon="11.5367817"><ele>331.0</ele><time>2026-04-07T15:19:17.289Z</time></trkpt><trkpt lat="43.6696583" lon="11.53671"><ele>331.0</ele><time>2026-04-07T15:19:18.286Z</time></trkpt><trkpt lat="43.6695983" lon="11.536645"><ele>331.8333333333333</ele><time>2026-04-07T15:19:19.289Z</time></trkpt><trkpt lat="43.669535" lon="11.5365833"><ele>332.66666666666663</ele><time>2026-04-07T15:19:20.288Z</time></trkpt><trkpt lat="43.6694733" lon="11.5365233"><ele>333.5</ele><time>2026-04-07T15:19:21.286Z</time></trkpt><trkpt lat="43.6694133" lon="11.5364667"><ele>334.3333333333333</ele><time>2026-04-07T15:19:22.287Z</time></trkpt><trkpt lat="43.6693483" lon="11.536415"><ele>335.1666666666667</ele><time>2026-04-07T15:19:23.287Z</time></trkpt><trkpt lat="43.6692817" lon="11.5363683"><ele>336.0</ele><time>2026-04-07T15:19:24.287Z</time></trkpt><trkpt lat="43.6692117" lon="11.53633"><ele>336.0</ele><time>2026-04-07T15:19:25.288Z</time></trkpt><trkpt lat="43.66914" lon="11.5363067"><ele>336.0</ele><time>2026-04-07T15:19:26.288Z</time></trkpt><trkpt lat="43.6690683" lon="11.5362917"><ele>336.0</ele><time>2026-04-07T15:19:27.286Z</time></trkpt><trkpt lat="43.668995" lon="11.5362883"><ele>336.0</ele><time>2026-04-07T15:19:28.286Z</time></trkpt><trkpt lat="43.668925" lon="11.5362983"><ele>336.0</ele><time>2026-04-07T15:19:29.287Z</time></trkpt><trkpt lat="43.6688533" lon="11.5363167"><ele>336.0</ele><time>2026-04-07T15:19:30.287Z</time></trkpt><trkpt lat="43.6687767" lon="11.53634"><ele>336.0</ele><time>2026-04-07T15:19:31.287Z</time></trkpt><trkpt lat="43.6686983" lon="11.5363383"><ele>336.0</ele><time>2026-04-07T15:19:32.287Z</time></trkpt><trkpt lat="43.6686267" lon="11.536305"><ele>336.0</ele><time>2026-04-07T15:19:33.287Z</time></trkpt><trkpt lat="43.6685633" lon="11.53626"><ele>336.0</ele><time>2026-04-07T15:19:34.287Z</time></trkpt><trkpt lat="43.66851" lon="11.53619"><ele>336.0</ele><time>2026-04-07T15:19:35.288Z</time></trkpt><trkpt lat="43.6684617" lon="11.536115"><ele>336.0</ele><time>2026-04-07T15:19:36.287Z</time></trkpt><trkpt lat="43.66842" lon="11.536045"><ele>336.0</ele><time>2026-04-07T15:19:37.287Z</time></trkpt><trkpt lat="43.6683733" lon="11.535975"><ele>336.0</ele><time>2026-04-07T15:19:38.287Z</time></trkpt><trkpt lat="43.6683217" lon="11.5359167"><ele>334.57142857142856</ele><time>2026-04-07T15:19:39.287Z</time></trkpt><trkpt lat="43.6682617" lon="11.5358683"><ele>333.1428571428571</ele><time>2026-04-07T15:19:40.287Z</time></trkpt><trkpt lat="43.6681983" lon="11.5358317"><ele>331.7142857142857</ele><time>2026-04-07T15:19:41.288Z</time></trkpt><trkpt lat="43.6681317" lon="11.5357983"><ele>330.2857142857143</ele><time>2026-04-07T15:19:42.286Z</time></trkpt><trkpt lat="43.6680633" lon="11.5357817"><ele>328.85714285714283</ele><time>2026-04-07T15:19:43.287Z</time></trkpt><trkpt lat="43.6679933" lon="11.53577"><ele>327.42857142857144</ele><time>2026-04-07T15:19:44.289Z</time></trkpt><trkpt lat="43.6679233" lon="11.5357583"><ele>326.0</ele><time>2026-04-07T15:19:45.288Z</time></trkpt><trkpt lat="43.6678583" lon="11.5357467"><ele>326.0</ele><time>2026-04-07T15:19:46.289Z</time></trkpt><trkpt lat="43.66779" lon="11.5357333"><ele>326.0</ele><time>2026-04-07T15:19:47.286Z</time></trkpt><trkpt lat="43.6677183" lon="11.535715"><ele>326.0</ele><time>2026-04-07T15:19:48.286Z</time></trkpt><trkpt lat="43.6676483" lon="11.5356967"><ele>326.0</ele><time>2026-04-07T15:19:49.288Z</time></trkpt><trkpt lat="43.6675817" lon="11.535675"><ele>326.0</ele><time>2026-04-07T15:19:50.287Z</time></trkpt><trkpt lat="43.667515" lon="11.53566"><ele>326.0</ele><time>2026-04-07T15:19:51.287Z</time></trkpt><trkpt lat="43.6674467" lon="11.5356567"><ele>326.0</ele><time>2026-04-07T15:19:52.287Z</time></trkpt><trkpt lat="43.6673783" lon="11.5356567"><ele>326.5</ele><time>2026-04-07T15:19:53.289Z</time></trkpt><trkpt lat="43.6672533" lon="11.535675"><ele>327.0</ele><time>2026-04-07T15:19:55.288Z</time></trkpt><trkpt lat="43.667185" lon="11.53569"><ele>327.5</ele><time>2026-04-07T15:19:56.288Z</time></trkpt><trkpt lat="43.66712" lon="11.5357067"><ele>328.0</ele><time>2026-04-07T15:19:57.286Z</time></trkpt><trkpt lat="43.6670417" lon="11.5357217"><ele>328.5</ele><time>2026-04-07T15:19:58.287Z</time></trkpt><trkpt lat="43.6669733" lon="11.5357433"><ele>329.0</ele><time>2026-04-07T15:19:59.288Z</time></trkpt><trkpt lat="43.6669083" lon="11.53577"><ele>329.0</ele><time>2026-04-07T15:20:00.286Z</time></trkpt><trkpt lat="43.6668517" lon="11.5358183"><ele>329.0</ele><time>2026-04-07T15:20:01.288Z</time></trkpt><trkpt lat="43.6667983" lon="11.5358767"><ele>329.0</ele><time>2026-04-07T15:20:02.288Z</time></trkpt><trkpt lat="43.666715" lon="11.5360133"><ele>329.0</ele><time>2026-04-07T15:20:04.288Z</time></trkpt><trkpt lat="43.6666767" lon="11.5360867"><ele>329.0</ele><time>2026-04-07T15:20:05.288Z</time></trkpt><trkpt lat="43.6666283" lon="11.5361617"><ele>329.0</ele><time>2026-04-07T15:20:06.287Z</time></trkpt><trkpt lat="43.6665767" lon="11.5362217"><ele>329.42857142857144</ele><time>2026-04-07T15:20:07.287Z</time></trkpt><trkpt lat="43.666515" lon="11.53626"><ele>329.8571428571429</ele><time>2026-04-07T15:20:08.287Z</time></trkpt><trkpt lat="43.6664383" lon="11.5362683"><ele>330.2857142857143</ele><time>2026-04-07T15:20:09.287Z</time></trkpt><trkpt lat="43.6663633" lon="11.5362633"><ele>330.7142857142857</ele><time>2026-04-07T15:20:10.288Z</time></trkpt><trkpt lat="43.6662933" lon="11.53626"><ele>331.14285714285717</ele><time>2026-04-07T15:20:11.287Z</time></trkpt><trkpt lat="43.6662217" lon="11.53626"><ele>331.57142857142856</ele><time>2026-04-07T15:20:12.286Z</time></trkpt><trkpt lat="43.66615" lon="11.536265"><ele>332.0</ele><time>2026-04-07T15:20:13.287Z</time></trkpt><trkpt lat="43.66608" lon="11.536285"><ele>332.0</ele><time>2026-04-07T15:20:14.287Z</time></trkpt><trkpt lat="43.666015" lon="11.5363233"><ele>332.0</ele><time>2026-04-07T15:20:15.286Z</time></trkpt><trkpt lat="43.6659567" lon="11.5363767"><ele>332.0</ele><time>2026-04-07T15:20:16.286Z</time></trkpt><trkpt lat="43.6659017" lon="11.536435"><ele>332.0</ele><time>2026-04-07T15:20:17.288Z</time></trkpt><trkpt lat="43.6658483" lon="11.5365033"><ele>332.0</ele><time>2026-04-07T15:20:18.286Z</time></trkpt><trkpt lat="43.665795" lon="11.536575"><ele>332.0</ele><time>2026-04-07T15:20:19.287Z</time></trkpt><trkpt lat="43.6657383" lon="11.536645"><ele>332.0</ele><time>2026-04-07T15:20:20.288Z</time></trkpt><trkpt lat="43.6656717" lon="11.536705"><ele>332.0</ele><time>2026-04-07T15:20:21.288Z</time></trkpt><trkpt lat="43.6656083" lon="11.5367533"><ele>332.0</ele><time>2026-04-07T15:20:22.287Z</time></trkpt><trkpt lat="43.6655433" lon="11.5367917"><ele>332.0</ele><time>2026-04-07T15:20:23.287Z</time></trkpt><trkpt lat="43.6654717" lon="11.5368267"><ele>332.0</ele><time>2026-04-07T15:20:24.286Z</time></trkpt><trkpt lat="43.66541" lon="11.5368617"><ele>332.0</ele><time>2026-04-07T15:20:25.289Z</time></trkpt><trkpt lat="43.6653433" lon="11.5368983"><ele>332.0</ele><time>2026-04-07T15:20:26.287Z</time></trkpt><trkpt lat="43.66528" lon="11.5369433"><ele>332.0</ele><time>2026-04-07T15:20:27.285Z</time></trkpt><trkpt lat="43.6652233" lon="11.5369917"><ele>331.57142857142856</ele><time>2026-04-07T15:20:28.286Z</time></trkpt><trkpt lat="43.66517" lon="11.537055"><ele>331.14285714285717</ele><time>2026-04-07T15:20:29.286Z</time></trkpt><trkpt lat="43.665125" lon="11.5371317"><ele>330.7142857142857</ele><time>2026-04-07T15:20:30.286Z</time></trkpt><trkpt lat="43.66509" lon="11.5372183"><ele>330.2857142857143</ele><time>2026-04-07T15:20:31.287Z</time></trkpt><trkpt lat="43.6650733" lon="11.5373083"><ele>329.8571428571429</ele><time>2026-04-07T15:20:32.288Z</time></trkpt><trkpt lat="43.6650683" lon="11.537405"><ele>329.42857142857144</ele><time>2026-04-07T15:20:33.285Z</time></trkpt><trkpt lat="43.66506" lon="11.53751"><ele>329.0</ele><time>2026-04-07T15:20:34.286Z</time></trkpt><trkpt lat="43.665055" lon="11.5376133"><ele>329.0</ele><time>2026-04-07T15:20:35.286Z</time></trkpt><trkpt lat="43.6650383" lon="11.5377183"><ele>329.0</ele><time>2026-04-07T15:20:36.284Z</time></trkpt><trkpt lat="43.6650083" lon="11.537815"><ele>329.0</ele><time>2026-04-07T15:20:37.287Z</time></trkpt><trkpt lat="43.66497" lon="11.5379033"><ele>329.0</ele><time>2026-04-07T15:20:38.286Z</time></trkpt><trkpt lat="43.6649233" lon="11.5379733"><ele>329.0</ele><time>2026-04-07T15:20:39.286Z</time></trkpt><trkpt lat="43.6648633" lon="11.53803"><ele>329.0</ele><time>2026-04-07T15:20:40.287Z</time></trkpt><trkpt lat="43.6648" lon="11.538085"><ele>329.0</ele><time>2026-04-07T15:20:41.287Z</time></trkpt><trkpt lat="43.6647383" lon="11.5381467"><ele>330.14285714285717</ele><time>2026-04-07T15:20:42.286Z</time></trkpt><trkpt lat="43.66469" lon="11.538225"><ele>331.2857142857143</ele><time>2026-04-07T15:20:43.286Z</time></trkpt><trkpt lat="43.6646533" lon="11.5383133"><ele>332.42857142857144</ele><time>2026-04-07T15:20:44.287Z</time></trkpt><trkpt lat="43.6646367" lon="11.53841"><ele>333.57142857142856</ele><time>2026-04-07T15:20:45.285Z</time></trkpt><trkpt lat="43.6646283" lon="11.5385117"><ele>334.7142857142857</ele><time>2026-04-07T15:20:46.288Z</time></trkpt><trkpt lat="43.6646217" lon="11.5386183"><ele>335.8571428571429</ele><time>2026-04-07T15:20:47.288Z</time></trkpt><trkpt lat="43.6646133" lon="11.5387233"><ele>337.0</ele><time>2026-04-07T15:20:48.286Z</time></trkpt><trkpt lat="43.6646" lon="11.53883"><ele>336.3333333333333</ele><time>2026-04-07T15:20:49.287Z</time></trkpt><trkpt lat="43.6645833" lon="11.538935"><ele>335.66666666666663</ele><time>2026-04-07T15:20:50.288Z</time></trkpt><trkpt lat="43.66456" lon="11.539035"><ele>335.0</ele><time>2026-04-07T15:20:51.286Z</time></trkpt><trkpt lat="43.6645333" lon="11.53913"><ele>334.3333333333333</ele><time>2026-04-07T15:20:52.285Z</time></trkpt><trkpt lat="43.6645033" lon="11.5392283"><ele>333.6666666666667</ele><time>2026-04-07T15:20:53.287Z</time></trkpt><trkpt lat="43.6644667" lon="11.5393167"><ele>333.0</ele><time>2026-04-07T15:20:54.286Z</time></trkpt><trkpt lat="43.6644183" lon="11.53939"><ele>333.0</ele><time>2026-04-07T15:20:55.286Z</time></trkpt><trkpt lat="43.664355" lon="11.5394467"><ele>333.0</ele><time>2026-04-07T15:20:56.287Z</time></trkpt><trkpt lat="43.66429" lon="11.5394833"><ele>333.0</ele><time>2026-04-07T15:20:57.286Z</time></trkpt><trkpt lat="43.66422" lon="11.5394917"><ele>333.0</ele><time>2026-04-07T15:20:58.287Z</time></trkpt><trkpt lat="43.6641483" lon="11.53948"><ele>333.0</ele><time>2026-04-07T15:20:59.286Z</time></trkpt><trkpt lat="43.66408" lon="11.539455"><ele>333.0</ele><time>2026-04-07T15:21:00.285Z</time></trkpt><trkpt lat="43.6640133" lon="11.5394233"><ele>333.0</ele><time>2026-04-07T15:21:01.287Z</time></trkpt><trkpt lat="43.6639483" lon="11.5393867"><ele>333.0</ele><time>2026-04-07T15:21:02.287Z</time></trkpt><trkpt lat="43.6638833" lon="11.5393517"><ele>333.0</ele><time>2026-04-07T15:21:03.286Z</time></trkpt><trkpt lat="43.6638167" lon="11.5393133"><ele>333.0</ele><time>2026-04-07T15:21:04.286Z</time></trkpt><trkpt lat="43.66375" lon="11.5392767"><ele>333.0</ele><time>2026-04-07T15:21:05.288Z</time></trkpt><trkpt lat="43.6636867" lon="11.5392333"><ele>333.0</ele><time>2026-04-07T15:21:06.285Z</time></trkpt><trkpt lat="43.66362" lon="11.5391867"><ele>333.0</ele><time>2026-04-07T15:21:07.288Z</time></trkpt><trkpt lat="43.6635533" lon="11.5391417"><ele>333.0</ele><time>2026-04-07T15:21:08.286Z</time></trkpt><trkpt lat="43.6634883" lon="11.5390983"><ele>333.7142857142857</ele><time>2026-04-07T15:21:09.287Z</time></trkpt><trkpt lat="43.6634183" lon="11.53906"><ele>334.4285714285714</ele><time>2026-04-07T15:21:10.286Z</time></trkpt><trkpt lat="43.66335" lon="11.5390367"><ele>335.1428571428571</ele><time>2026-04-07T15:21:11.286Z</time></trkpt><trkpt lat="43.66328" lon="11.53902"><ele>335.8571428571429</ele><time>2026-04-07T15:21:12.285Z</time></trkpt><trkpt lat="43.6632117" lon="11.5390183"><ele>336.57142857142856</ele><time>2026-04-07T15:21:13.286Z</time></trkpt><trkpt lat="43.6631467" lon="11.53903"><ele>337.2857142857143</ele><time>2026-04-07T15:21:14.287Z</time></trkpt><trkpt lat="43.6630817" lon="11.5390517"><ele>338.0</ele><time>2026-04-07T15:21:15.286Z</time></trkpt><trkpt lat="43.6630167" lon="11.5390883"><ele>338.0</ele><time>2026-04-07T15:21:16.287Z</time></trkpt><trkpt lat="43.6629583" lon="11.5391317"><ele>338.0</ele><time>2026-04-07T15:21:17.287Z</time></trkpt><trkpt lat="43.6628967" lon="11.539185"><ele>338.0</ele><time>2026-04-07T15:21:18.285Z</time></trkpt><trkpt lat="43.6628433" lon="11.539245"><ele>338.0</ele><time>2026-04-07T15:21:19.287Z</time></trkpt><trkpt lat="43.6627933" lon="11.53931"><ele>338.0</ele><time>2026-04-07T15:21:20.287Z</time></trkpt><trkpt lat="43.6627383" lon="11.53938"><ele>338.0</ele><time>2026-04-07T15:21:21.285Z</time></trkpt><trkpt lat="43.6626833" lon="11.5394483"><ele>338.0</ele><time>2026-04-07T15:21:22.287Z</time></trkpt><trkpt lat="43.6626267" lon="11.5395233"><ele>338.0</ele><time>2026-04-07T15:21:23.286Z</time></trkpt><trkpt lat="43.6625717" lon="11.5396017"><ele>338.0</ele><time>2026-04-07T15:21:24.287Z</time></trkpt><trkpt lat="43.6625283" lon="11.539675"><ele>338.0</ele><time>2026-04-07T15:21:25.286Z</time></trkpt><trkpt lat="43.6624833" lon="11.5397567"><ele>338.0</ele><time>2026-04-07T15:21:26.287Z</time></trkpt><trkpt lat="43.6624433" lon="11.5398417"><ele>338.0</ele><time>2026-04-07T15:21:27.286Z</time></trkpt><trkpt lat="43.6624117" lon="11.5399333"><ele>338.0</ele><time>2026-04-07T15:21:28.285Z</time></trkpt><trkpt lat="43.6623917" lon="11.54003"><ele>338.0</ele><time>2026-04-07T15:21:29.286Z</time></trkpt><trkpt lat="43.66238" lon="11.5401317"><ele>338.0</ele><time>2026-04-07T15:21:30.285Z</time></trkpt><trkpt lat="43.6623733" lon="11.540235"><ele>338.0</ele><time>2026-04-07T15:21:31.287Z</time></trkpt><trkpt lat="43.6623733" lon="11.5403383"><ele>338.0</ele><time>2026-04-07T15:21:32.286Z</time></trkpt><trkpt lat="43.6623817" lon="11.540435"><ele>338.0</ele><time>2026-04-07T15:21:33.285Z</time></trkpt><trkpt lat="43.6624017" lon="11.540535"><ele>338.0</ele><time>2026-04-07T15:21:34.288Z</time></trkpt><trkpt lat="43.66243" lon="11.5406317"><ele>338.0</ele><time>2026-04-07T15:21:35.287Z</time></trkpt><trkpt lat="43.6624617" lon="11.5407183"><ele>338.0</ele><time>2026-04-07T15:21:36.286Z</time></trkpt><trkpt lat="43.662495" lon="11.5408033"><ele>338.6666666666667</ele><time>2026-04-07T15:21:37.288Z</time></trkpt><trkpt lat="43.6625267" lon="11.5408933"><ele>339.33333333333337</ele><time>2026-04-07T15:21:38.288Z</time></trkpt><trkpt lat="43.6625467" lon="11.5409867"><ele>340.0</ele><time>2026-04-07T15:21:39.287Z</time></trkpt><trkpt lat="43.66255" lon="11.541085"><ele>340.6666666666667</ele><time>2026-04-07T15:21:40.287Z</time></trkpt><trkpt lat="43.6625367" lon="11.5411783"><ele>341.3333333333333</ele><time>2026-04-07T15:21:41.288Z</time></trkpt><trkpt lat="43.6625" lon="11.5412517"><ele>342.0</ele><time>2026-04-07T15:21:42.289Z</time></trkpt><trkpt lat="43.6624083" lon="11.5413433"><ele>342.0</ele><time>2026-04-07T15:21:44.288Z</time></trkpt><trkpt lat="43.662285" lon="11.5413017"><ele>342.0</ele><time>2026-04-07T15:21:46.287Z</time></trkpt><trkpt lat="43.6622117" lon="11.5412417"><ele>342.0</ele><time>2026-04-07T15:21:47.286Z</time></trkpt><trkpt lat="43.6621433" lon="11.541185"><ele>342.0</ele><time>2026-04-07T15:21:48.285Z</time></trkpt><trkpt lat="43.6620817" lon="11.54113"><ele>342.0</ele><time>2026-04-07T15:21:49.286Z</time></trkpt><trkpt lat="43.6620233" lon="11.54106"><ele>342.0</ele><time>2026-04-07T15:21:50.287Z</time></trkpt><trkpt lat="43.661965" lon="11.540985"><ele>342.1666666666667</ele><time>2026-04-07T15:21:51.286Z</time></trkpt><trkpt lat="43.6619083" lon="11.5409167"><ele>342.3333333333333</ele><time>2026-04-07T15:21:52.287Z</time></trkpt><trkpt lat="43.6618533" lon="11.5408433"><ele>342.5</ele><time>2026-04-07T15:21:53.286Z</time></trkpt><trkpt lat="43.661795" lon="11.5407633"><ele>342.66666666666663</ele><time>2026-04-07T15:21:54.286Z</time></trkpt><trkpt lat="43.661725" lon="11.5407017"><ele>342.8333333333333</ele><time>2026-04-07T15:21:55.286Z</time></trkpt><trkpt lat="43.66165" lon="11.54065"><ele>343.0</ele><time>2026-04-07T15:21:56.289Z</time></trkpt><trkpt lat="43.661575" lon="11.5405917"><ele>343.0</ele><time>2026-04-07T15:21:57.289Z</time></trkpt><trkpt lat="43.6615017" lon="11.5405667"><ele>343.0</ele><time>2026-04-07T15:21:58.287Z</time></trkpt><trkpt lat="43.66143" lon="11.5405483"><ele>343.0</ele><time>2026-04-07T15:21:59.289Z</time></trkpt><trkpt lat="43.6613567" lon="11.5405283"><ele>343.0</ele><time>2026-04-07T15:22:00.289Z</time></trkpt><trkpt lat="43.6612917" lon="11.5405183"><ele>343.0</ele><time>2026-04-07T15:22:01.289Z</time></trkpt><trkpt lat="43.6612233" lon="11.5405017"><ele>343.0</ele><time>2026-04-07T15:22:02.286Z</time></trkpt><trkpt lat="43.6611583" lon="11.5404883"><ele>343.0</ele><time>2026-04-07T15:22:03.286Z</time></trkpt><trkpt lat="43.6610933" lon="11.5404733"><ele>343.3333333333333</ele><time>2026-04-07T15:22:04.288Z</time></trkpt><trkpt lat="43.6609683" lon="11.5404433"><ele>343.66666666666663</ele><time>2026-04-07T15:22:06.285Z</time></trkpt><trkpt lat="43.660905" lon="11.5404317"><ele>344.0</ele><time>2026-04-07T15:22:07.286Z</time></trkpt><trkpt lat="43.6607817" lon="11.5404167"><ele>344.3333333333333</ele><time>2026-04-07T15:22:09.286Z</time></trkpt><trkpt lat="43.6607183" lon="11.5404267"><ele>344.6666666666667</ele><time>2026-04-07T15:22:10.286Z</time></trkpt><trkpt lat="43.6606567" lon="11.5404533"><ele>345.0</ele><time>2026-04-07T15:22:11.287Z</time></trkpt><trkpt lat="43.6605983" lon="11.5404967"><ele>345.0</ele><time>2026-04-07T15:22:12.287Z</time></trkpt><trkpt lat="43.6605433" lon="11.5405483"><ele>345.0</ele><time>2026-04-07T15:22:13.287Z</time></trkpt><trkpt lat="43.660485" lon="11.5406033"><ele>345.0</ele><time>2026-04-07T15:22:14.288Z</time></trkpt><trkpt lat="43.6604267" lon="11.540655"><ele>345.0</ele><time>2026-04-07T15:22:15.285Z</time></trkpt><trkpt lat="43.6603667" lon="11.5407067"><ele>345.0</ele><time>2026-04-07T15:22:16.287Z</time></trkpt><trkpt lat="43.6603083" lon="11.5407583"><ele>345.0</ele><time>2026-04-07T15:22:17.287Z</time></trkpt><trkpt lat="43.6602467" lon="11.5408083"><ele>345.0</ele><time>2026-04-07T15:22:18.286Z</time></trkpt><trkpt lat="43.6601867" lon="11.54086"><ele>345.14285714285717</ele><time>2026-04-07T15:22:19.289Z</time></trkpt><trkpt lat="43.6601317" lon="11.5409133"><ele>345.2857142857143</ele><time>2026-04-07T15:22:20.289Z</time></trkpt><trkpt lat="43.660075" lon="11.5409717"><ele>345.42857142857144</ele><time>2026-04-07T15:22:21.286Z</time></trkpt><trkpt lat="43.6600217" lon="11.5410317"><ele>345.57142857142856</ele><time>2026-04-07T15:22:22.287Z</time></trkpt><trkpt lat="43.6599733" lon="11.541095"><ele>345.7142857142857</ele><time>2026-04-07T15:22:23.286Z</time></trkpt><trkpt lat="43.6599333" lon="11.5411683"><ele>345.85714285714283</ele><time>2026-04-07T15:22:24.287Z</time></trkpt><trkpt lat="43.6599033" lon="11.5412517"><ele>346.0</ele><time>2026-04-07T15:22:25.288Z</time></trkpt><trkpt lat="43.6598833" lon="11.5413367"><ele>346.0</ele><time>2026-04-07T15:22:26.288Z</time></trkpt><trkpt lat="43.6598733" lon="11.5414267"><ele>346.0</ele><time>2026-04-07T15:22:27.286Z</time></trkpt><trkpt lat="43.6598683" lon="11.54152"><ele>346.0</ele><time>2026-04-07T15:22:28.287Z</time></trkpt><trkpt lat="43.6598633" lon="11.5416083"><ele>346.0</ele><time>2026-04-07T15:22:29.287Z</time></trkpt><trkpt lat="43.65986" lon="11.5417"><ele>346.0</ele><time>2026-04-07T15:22:30.286Z</time></trkpt><trkpt lat="43.659855" lon="11.5417883"><ele>346.0</ele><time>2026-04-07T15:22:31.286Z</time></trkpt><trkpt lat="43.65985" lon="11.541965"><ele>346.7142857142857</ele><time>2026-04-07T15:22:33.286Z</time></trkpt><trkpt lat="43.65985" lon="11.5420567"><ele>347.42857142857144</ele><time>2026-04-07T15:22:34.287Z</time></trkpt><trkpt lat="43.659855" lon="11.54215"><ele>348.14285714285717</ele><time>2026-04-07T15:22:35.286Z</time></trkpt><trkpt lat="43.6598633" lon="11.542245"><ele>348.8571428571429</ele><time>2026-04-07T15:22:36.286Z</time></trkpt><trkpt lat="43.6598717" lon="11.5423383"><ele>349.57142857142856</ele><time>2026-04-07T15:22:37.286Z</time></trkpt><trkpt lat="43.6598833" lon="11.54243"><ele>350.28571428571433</ele><time>2026-04-07T15:22:38.287Z</time></trkpt><trkpt lat="43.6598917" lon="11.542525"><ele>351.0</ele><time>2026-04-07T15:22:39.285Z</time></trkpt><trkpt lat="43.6599" lon="11.542615"><ele>351.0</ele><time>2026-04-07T15:22:40.288Z</time></trkpt><trkpt lat="43.659905" lon="11.5427033"><ele>351.0</ele><time>2026-04-07T15:22:41.287Z</time></trkpt><trkpt lat="43.6599033" lon="11.5427917"><ele>351.0</ele><time>2026-04-07T15:22:42.286Z</time></trkpt><trkpt lat="43.6598867" lon="11.54288"><ele>351.0</ele><time>2026-04-07T15:22:43.287Z</time></trkpt><trkpt lat="43.659855" lon="11.5429583"><ele>351.0</ele><time>2026-04-07T15:22:44.289Z</time></trkpt><trkpt lat="43.659755" lon="11.543045"><ele>351.0</ele><time>2026-04-07T15:22:46.289Z</time></trkpt><trkpt lat="43.6596383" lon="11.5430117"><ele>351.4</ele><time>2026-04-07T15:22:48.288Z</time></trkpt><trkpt lat="43.65954" lon="11.5429133"><ele>351.8</ele><time>2026-04-07T15:22:50.287Z</time></trkpt><trkpt lat="43.65945" lon="11.542795"><ele>352.2</ele><time>2026-04-07T15:22:52.286Z</time></trkpt><trkpt lat="43.6593617" lon="11.54268"><ele>352.59999999999997</ele><time>2026-04-07T15:22:54.289Z</time></trkpt><trkpt lat="43.6593033" lon="11.54263"><ele>353.0</ele><time>2026-04-07T15:22:55.286Z</time></trkpt><trkpt lat="43.659245" lon="11.54258"><ele>353.0</ele><time>2026-04-07T15:22:56.288Z</time></trkpt><trkpt lat="43.6591867" lon="11.5425267"><ele>353.0</ele><time>2026-04-07T15:22:57.287Z</time></trkpt><trkpt lat="43.6591333" lon="11.54247"><ele>353.0</ele><time>2026-04-07T15:22:58.287Z</time></trkpt><trkpt lat="43.6590833" lon="11.5424133"><ele>353.0</ele><time>2026-04-07T15:22:59.286Z</time></trkpt><trkpt lat="43.659035" lon="11.5423517"><ele>353.0</ele><time>2026-04-07T15:23:00.286Z</time></trkpt><trkpt lat="43.65899" lon="11.5422833"><ele>353.0</ele><time>2026-04-07T15:23:01.287Z</time></trkpt><trkpt lat="43.6589467" lon="11.5422117"><ele>353.0</ele><time>2026-04-07T15:23:02.287Z</time></trkpt><trkpt lat="43.6589" lon="11.54214"><ele>353.0</ele><time>2026-04-07T15:23:03.287Z</time></trkpt><trkpt lat="43.6588517" lon="11.542075"><ele>353.0</ele><time>2026-04-07T15:23:04.287Z</time></trkpt><trkpt lat="43.6588033" lon="11.542015"><ele>353.0</ele><time>2026-04-07T15:23:05.289Z</time></trkpt><trkpt lat="43.6587433" lon="11.5419633"><ele>353.0</ele><time>2026-04-07T15:23:06.287Z</time></trkpt><trkpt lat="43.6586783" lon="11.5419317"><ele>353.0</ele><time>2026-04-07T15:23:07.286Z</time></trkpt><trkpt lat="43.658615" lon="11.5419183"><ele>353.0</ele><time>2026-04-07T15:23:08.288Z</time></trkpt><trkpt lat="43.6585467" lon="11.5419167"><ele>353.0</ele><time>2026-04-07T15:23:09.287Z</time></trkpt><trkpt lat="43.6584783" lon="11.54192"><ele>351.4285714285714</ele><time>2026-04-07T15:23:10.288Z</time></trkpt><trkpt lat="43.65841" lon="11.5419233"><ele>349.8571428571429</ele><time>2026-04-07T15:23:11.287Z</time></trkpt><trkpt lat="43.6583417" lon="11.5419233"><ele>348.2857142857143</ele><time>2026-04-07T15:23:12.286Z</time></trkpt><trkpt lat="43.6582717" lon="11.5419283"><ele>346.71428571428567</ele><time>2026-04-07T15:23:13.286Z</time></trkpt><trkpt lat="43.6582017" lon="11.5419283"><ele>345.1428571428571</ele><time>2026-04-07T15:23:14.287Z</time></trkpt><trkpt lat="43.6581333" lon="11.5419283"><ele>343.57142857142856</ele><time>2026-04-07T15:23:15.287Z</time></trkpt><trkpt lat="43.6580633" lon="11.5419333"><ele>342.0</ele><time>2026-04-07T15:23:16.287Z</time></trkpt><trkpt lat="43.6579967" lon="11.54194"><ele>342.0</ele><time>2026-04-07T15:23:17.287Z</time></trkpt><trkpt lat="43.6579283" lon="11.5419467"><ele>342.0</ele><time>2026-04-07T15:23:18.286Z</time></trkpt><trkpt lat="43.6578583" lon="11.5419517"><ele>342.0</ele><time>2026-04-07T15:23:19.287Z</time></trkpt><trkpt lat="43.65779" lon="11.541955"><ele>342.0</ele><time>2026-04-07T15:23:20.286Z</time></trkpt><trkpt lat="43.657725" lon="11.541965"><ele>342.0</ele><time>2026-04-07T15:23:21.286Z</time></trkpt><trkpt lat="43.6576" lon="11.54202"><ele>342.0</ele><time>2026-04-07T15:23:23.287Z</time></trkpt><trkpt lat="43.65753" lon="11.542065"><ele>342.71428571428567</ele><time>2026-04-07T15:23:24.286Z</time></trkpt><trkpt lat="43.6574683" lon="11.5421367"><ele>343.42857142857144</ele><time>2026-04-07T15:23:25.286Z</time></trkpt><trkpt lat="43.6574233" lon="11.5422233"><ele>344.1428571428571</ele><time>2026-04-07T15:23:26.286Z</time></trkpt><trkpt lat="43.6573933" lon="11.54231"><ele>344.85714285714283</ele><time>2026-04-07T15:23:27.287Z</time></trkpt><trkpt lat="43.657375" lon="11.5424083"><ele>345.57142857142856</ele><time>2026-04-07T15:23:28.286Z</time></trkpt><trkpt lat="43.65736" lon="11.5425033"><ele>346.2857142857143</ele><time>2026-04-07T15:23:29.287Z</time></trkpt><trkpt lat="43.65735" lon="11.5426"><ele>347.0</ele><time>2026-04-07T15:23:30.286Z</time></trkpt><trkpt lat="43.6573467" lon="11.5426983"><ele>347.0</ele><time>2026-04-07T15:23:31.288Z</time></trkpt><trkpt lat="43.6573383" lon="11.542795"><ele>347.0</ele><time>2026-04-07T15:23:32.288Z</time></trkpt><trkpt lat="43.65733" lon="11.5428833"><ele>347.0</ele><time>2026-04-07T15:23:33.287Z</time></trkpt><trkpt lat="43.6573333" lon="11.5429767"><ele>347.0</ele><time>2026-04-07T15:23:34.286Z</time></trkpt><trkpt lat="43.6573333" lon="11.5430717"><ele>347.0</ele><time>2026-04-07T15:23:35.287Z</time></trkpt><trkpt lat="43.65734" lon="11.54317"><ele>347.0</ele><time>2026-04-07T15:23:36.286Z</time></trkpt><trkpt lat="43.657355" lon="11.5432667"><ele>347.0</ele><time>2026-04-07T15:23:37.286Z</time></trkpt><trkpt lat="43.657365" lon="11.5433567"><ele>347.8571428571429</ele><time>2026-04-07T15:23:38.286Z</time></trkpt><trkpt lat="43.6573783" lon="11.54345"><ele>348.71428571428567</ele><time>2026-04-07T15:23:39.287Z</time></trkpt><trkpt lat="43.65738" lon="11.5435433"><ele>349.57142857142856</ele><time>2026-04-07T15:23:40.287Z</time></trkpt><trkpt lat="43.6573767" lon="11.5436333"><ele>350.42857142857144</ele><time>2026-04-07T15:23:41.286Z</time></trkpt><trkpt lat="43.65737" lon="11.5437267"><ele>351.28571428571433</ele><time>2026-04-07T15:23:42.286Z</time></trkpt><trkpt lat="43.6573617" lon="11.54382"><ele>352.1428571428571</ele><time>2026-04-07T15:23:43.286Z</time></trkpt><trkpt lat="43.657345" lon="11.5439167"><ele>353.0</ele><time>2026-04-07T15:23:44.286Z</time></trkpt><trkpt lat="43.65733" lon="11.5440233"><ele>354.5</ele><time>2026-04-07T15:23:45.287Z</time></trkpt><trkpt lat="43.6573" lon="11.5441267"><ele>356.0</ele><time>2026-04-07T15:23:46.286Z</time></trkpt><trkpt lat="43.6572717" lon="11.5442167"><ele>357.5</ele><time>2026-04-07T15:23:47.286Z</time></trkpt><trkpt lat="43.6572517" lon="11.5443"><ele>359.0</ele><time>2026-04-07T15:23:48.287Z</time></trkpt><trkpt lat="43.657225" lon="11.5443817"><ele>360.5</ele><time>2026-04-07T15:23:49.287Z</time></trkpt><trkpt lat="43.6571517" lon="11.5445067"><ele>362.0</ele><time>2026-04-07T15:23:51.286Z</time></trkpt><trkpt lat="43.657045" lon="11.544545"><ele>360.6666666666667</ele><time>2026-04-07T15:23:53.287Z</time></trkpt><trkpt lat="43.6569383" lon="11.5444683"><ele>359.33333333333337</ele><time>2026-04-07T15:23:55.288Z</time></trkpt><trkpt lat="43.65683" lon="11.5444033"><ele>358.0</ele><time>2026-04-07T15:23:57.286Z</time></trkpt><trkpt lat="43.6567683" lon="11.544365"><ele>356.6666666666667</ele><time>2026-04-07T15:23:58.286Z</time></trkpt><trkpt lat="43.6567083" lon="11.5443283"><ele>355.3333333333333</ele><time>2026-04-07T15:23:59.287Z</time></trkpt><trkpt lat="43.6566517" lon="11.5442733"><ele>354.0</ele><time>2026-04-07T15:24:00.286Z</time></trkpt><trkpt lat="43.6565983" lon="11.5442183"><ele>354.0</ele><time>2026-04-07T15:24:01.287Z</time></trkpt><trkpt lat="43.6565467" lon="11.54416"><ele>354.0</ele><time>2026-04-07T15:24:02.288Z</time></trkpt><trkpt lat="43.6564933" lon="11.5440933"><ele>354.0</ele><time>2026-04-07T15:24:03.287Z</time></trkpt><trkpt lat="43.6564417" lon="11.5440283"><ele>354.0</ele><time>2026-04-07T15:24:04.285Z</time></trkpt><trkpt lat="43.656395" lon="11.5439617"><ele>354.0</ele><time>2026-04-07T15:24:05.286Z</time></trkpt><trkpt lat="43.6563483" lon="11.5438983"><ele>354.0</ele><time>2026-04-07T15:24:06.285Z</time></trkpt><trkpt lat="43.6563017" lon="11.5438267"><ele>354.0</ele><time>2026-04-07T15:24:07.288Z</time></trkpt><trkpt lat="43.6562567" lon="11.5437467"><ele>352.5714285714286</ele><time>2026-04-07T15:24:08.288Z</time></trkpt><trkpt lat="43.6562233" lon="11.54366"><ele>351.1428571428571</ele><time>2026-04-07T15:24:09.286Z</time></trkpt><trkpt lat="43.6561983" lon="11.5435683"><ele>349.7142857142857</ele><time>2026-04-07T15:24:10.286Z</time></trkpt><trkpt lat="43.65619" lon="11.543475"><ele>348.28571428571433</ele><time>2026-04-07T15:24:11.287Z</time></trkpt><trkpt lat="43.65619" lon="11.54338"><ele>346.8571428571429</ele><time>2026-04-07T15:24:12.286Z</time></trkpt><trkpt lat="43.6562033" lon="11.543285"><ele>345.42857142857144</ele><time>2026-04-07T15:24:13.286Z</time></trkpt><trkpt lat="43.6562167" lon="11.543195"><ele>344.0</ele><time>2026-04-07T15:24:14.287Z</time></trkpt><trkpt lat="43.6562283" lon="11.5431083"><ele>344.00000000000006</ele><time>2026-04-07T15:24:15.286Z</time></trkpt><trkpt lat="43.656235" lon="11.5430217"><ele>344.0</ele><time>2026-04-07T15:24:16.287Z</time></trkpt><trkpt lat="43.6562383" lon="11.5429233"><ele>344.0</ele><time>2026-04-07T15:24:17.286Z</time></trkpt><trkpt lat="43.656235" lon="11.5428267"><ele>344.0</ele><time>2026-04-07T15:24:18.285Z</time></trkpt><trkpt lat="43.6562233" lon="11.5427267"><ele>344.0</ele><time>2026-04-07T15:24:19.286Z</time></trkpt><trkpt lat="43.65621" lon="11.5426267"><ele>344.00000000000006</ele><time>2026-04-07T15:24:20.287Z</time></trkpt><trkpt lat="43.65619" lon="11.5425283"><ele>344.0</ele><time>2026-04-07T15:24:21.286Z</time></trkpt><trkpt lat="43.65617" lon="11.542435"><ele>343.5714285714286</ele><time>2026-04-07T15:24:22.286Z</time></trkpt><trkpt lat="43.6561467" lon="11.5423467"><ele>343.14285714285717</ele><time>2026-04-07T15:24:23.287Z</time></trkpt><trkpt lat="43.6561117" lon="11.542265"><ele>342.7142857142857</ele><time>2026-04-07T15:24:24.287Z</time></trkpt><trkpt lat="43.6560667" lon="11.5421917"><ele>342.28571428571433</ele><time>2026-04-07T15:24:25.286Z</time></trkpt><trkpt lat="43.65601" lon="11.5421417"><ele>341.8571428571429</ele><time>2026-04-07T15:24:26.288Z</time></trkpt><trkpt lat="43.655945" lon="11.5421183"><ele>341.42857142857144</ele><time>2026-04-07T15:24:27.287Z</time></trkpt><trkpt lat="43.6558783" lon="11.5421267"><ele>341.0</ele><time>2026-04-07T15:24:28.287Z</time></trkpt><trkpt lat="43.6558133" lon="11.5421517"><ele>342.83333333333337</ele><time>2026-04-07T15:24:29.287Z</time></trkpt><trkpt lat="43.655745" lon="11.5421917"><ele>344.6666666666667</ele><time>2026-04-07T15:24:30.287Z</time></trkpt><trkpt lat="43.6556817" lon="11.5422483"><ele>346.5</ele><time>2026-04-07T15:24:31.286Z</time></trkpt><trkpt lat="43.6556317" lon="11.5423217"><ele>348.3333333333333</ele><time>2026-04-07T15:24:32.286Z</time></trkpt><trkpt lat="43.6555783" lon="11.5424017"><ele>350.16666666666663</ele><time>2026-04-07T15:24:33.287Z</time></trkpt><trkpt lat="43.6555383" lon="11.5424883"><ele>352.0</ele><time>2026-04-07T15:24:34.286Z</time></trkpt><trkpt lat="43.6554933" lon="11.542575"><ele>352.0</ele><time>2026-04-07T15:24:35.287Z</time></trkpt><trkpt lat="43.6554467" lon="11.54266"><ele>352.0</ele><time>2026-04-07T15:24:36.287Z</time></trkpt><trkpt lat="43.6553967" lon="11.5427383"><ele>352.0</ele><time>2026-04-07T15:24:37.288Z</time></trkpt><trkpt lat="43.65534" lon="11.5428033"><ele>352.0</ele><time>2026-04-07T15:24:38.288Z</time></trkpt><trkpt lat="43.6552767" lon="11.542855"><ele>352.0</ele><time>2026-04-07T15:24:39.285Z</time></trkpt><trkpt lat="43.6552083" lon="11.5428817"><ele>352.0</ele><time>2026-04-07T15:24:40.287Z</time></trkpt><trkpt lat="43.65514" lon="11.5428883"><ele>352.0</ele><time>2026-04-07T15:24:41.287Z</time></trkpt><trkpt lat="43.6550683" lon="11.542885"><ele>353.16666666666663</ele><time>2026-04-07T15:24:42.287Z</time></trkpt><trkpt lat="43.6549933" lon="11.5428833"><ele>354.3333333333333</ele><time>2026-04-07T15:24:43.286Z</time></trkpt><trkpt lat="43.654915" lon="11.5428933"><ele>355.5</ele><time>2026-04-07T15:24:44.287Z</time></trkpt><trkpt lat="43.6548383" lon="11.5429167"><ele>356.6666666666667</ele><time>2026-04-07T15:24:45.286Z</time></trkpt><trkpt lat="43.6547683" lon="11.5429567"><ele>357.83333333333337</ele><time>2026-04-07T15:24:46.286Z</time></trkpt><trkpt lat="43.6547" lon="11.543005"><ele>359.0</ele><time>2026-04-07T15:24:47.286Z</time></trkpt><trkpt lat="43.6546283" lon="11.54306"><ele>359.0</ele><time>2026-04-07T15:24:48.285Z</time></trkpt><trkpt lat="43.6545667" lon="11.5431217"><ele>359.0</ele><time>2026-04-07T15:24:49.285Z</time></trkpt><trkpt lat="43.6545067" lon="11.5431867"><ele>359.0</ele><time>2026-04-07T15:24:50.287Z</time></trkpt><trkpt lat="43.6544517" lon="11.54326"><ele>359.0</ele><time>2026-04-07T15:24:51.286Z</time></trkpt><trkpt lat="43.6544017" lon="11.54334"><ele>359.0</ele><time>2026-04-07T15:24:52.285Z</time></trkpt><trkpt lat="43.65436" lon="11.5434267"><ele>359.0</ele><time>2026-04-07T15:24:53.285Z</time></trkpt><trkpt lat="43.6543217" lon="11.543515"><ele>358.14285714285717</ele><time>2026-04-07T15:24:54.285Z</time></trkpt><trkpt lat="43.654285" lon="11.5436033"><ele>357.28571428571433</ele><time>2026-04-07T15:24:55.285Z</time></trkpt><trkpt lat="43.6542533" lon="11.5436933"><ele>356.42857142857144</ele><time>2026-04-07T15:24:56.286Z</time></trkpt><trkpt lat="43.654225" lon="11.5437833"><ele>355.57142857142856</ele><time>2026-04-07T15:24:57.286Z</time></trkpt><trkpt lat="43.6542017" lon="11.54388"><ele>354.7142857142857</ele><time>2026-04-07T15:24:58.286Z</time></trkpt><trkpt lat="43.6541883" lon="11.5439767"><ele>353.85714285714283</ele><time>2026-04-07T15:24:59.287Z</time></trkpt><trkpt lat="43.654185" lon="11.5440717"><ele>353.0</ele><time>2026-04-07T15:25:00.286Z</time></trkpt><trkpt lat="43.6541883" lon="11.5441667"><ele>353.0</ele><time>2026-04-07T15:25:01.286Z</time></trkpt><trkpt lat="43.654195" lon="11.5442683"><ele>353.0</ele><time>2026-04-07T15:25:02.287Z</time></trkpt><trkpt lat="43.65419" lon="11.5443733"><ele>353.0</ele><time>2026-04-07T15:25:03.286Z</time></trkpt><trkpt lat="43.65417" lon="11.5444733"><ele>353.0</ele><time>2026-04-07T15:25:04.285Z</time></trkpt><trkpt lat="43.654135" lon="11.5445683"><ele>353.0</ele><time>2026-04-07T15:25:05.286Z</time></trkpt><trkpt lat="43.6540867" lon="11.54464"><ele>353.0</ele><time>2026-04-07T15:25:06.286Z</time></trkpt><trkpt lat="43.6540267" lon="11.5446783"><ele>353.0</ele><time>2026-04-07T15:25:07.286Z</time></trkpt><trkpt lat="43.65395" lon="11.544695"><ele>354.57142857142856</ele><time>2026-04-07T15:25:08.285Z</time></trkpt><trkpt lat="43.6538767" lon="11.5447167"><ele>356.14285714285717</ele><time>2026-04-07T15:25:09.286Z</time></trkpt><trkpt lat="43.6538083" lon="11.544755"><ele>357.7142857142857</ele><time>2026-04-07T15:25:10.286Z</time></trkpt><trkpt lat="43.653755" lon="11.5448183"><ele>359.2857142857143</ele><time>2026-04-07T15:25:11.287Z</time></trkpt><trkpt lat="43.653715" lon="11.5448933"><ele>360.8571428571429</ele><time>2026-04-07T15:25:12.285Z</time></trkpt><trkpt lat="43.653685" lon="11.5449783"><ele>362.42857142857144</ele><time>2026-04-07T15:25:13.285Z</time></trkpt><trkpt lat="43.6536717" lon="11.5450683"><ele>364.0</ele><time>2026-04-07T15:25:14.286Z</time></trkpt><trkpt lat="43.6536767" lon="11.5451633"><ele>364.0</ele><time>2026-04-07T15:25:15.284Z</time></trkpt><trkpt lat="43.6536767" lon="11.5452617"><ele>364.0</ele><time>2026-04-07T15:25:16.286Z</time></trkpt><trkpt lat="43.6536617" lon="11.5453533"><ele>364.0</ele><time>2026-04-07T15:25:17.285Z</time></trkpt><trkpt lat="43.65363" lon="11.5454417"><ele>364.0</ele><time>2026-04-07T15:25:18.286Z</time></trkpt><trkpt lat="43.6535817" lon="11.545505"><ele>364.0</ele><time>2026-04-07T15:25:19.287Z</time></trkpt><trkpt lat="43.6535167" lon="11.5455367"><ele>364.0</ele><time>2026-04-07T15:25:20.286Z</time></trkpt><trkpt lat="43.6534433" lon="11.545555"><ele>364.0</ele><time>2026-04-07T15:25:21.286Z</time></trkpt><trkpt lat="43.65337" lon="11.54557"><ele>363.85714285714283</ele><time>2026-04-07T15:25:22.287Z</time></trkpt><trkpt lat="43.6532967" lon="11.5455867"><ele>363.7142857142857</ele><time>2026-04-07T15:25:23.287Z</time></trkpt><trkpt lat="43.653225" lon="11.5456067"><ele>363.57142857142856</ele><time>2026-04-07T15:25:24.287Z</time></trkpt><trkpt lat="43.6531517" lon="11.5456283"><ele>363.42857142857144</ele><time>2026-04-07T15:25:25.287Z</time></trkpt><trkpt lat="43.65308" lon="11.54565"><ele>363.2857142857143</ele><time>2026-04-07T15:25:26.288Z</time></trkpt><trkpt lat="43.6530083" lon="11.54566"><ele>363.1428571428571</ele><time>2026-04-07T15:25:27.286Z</time></trkpt><trkpt lat="43.6529383" lon="11.5456533"><ele>363.0</ele><time>2026-04-07T15:25:28.285Z</time></trkpt><trkpt lat="43.6528717" lon="11.5456317"><ele>363.0</ele><time>2026-04-07T15:25:29.285Z</time></trkpt><trkpt lat="43.65281" lon="11.5455917"><ele>363.0</ele><time>2026-04-07T15:25:30.286Z</time></trkpt><trkpt lat="43.6527483" lon="11.54555"><ele>363.0</ele><time>2026-04-07T15:25:31.286Z</time></trkpt><trkpt lat="43.6526867" lon="11.5455133"><ele>363.0</ele><time>2026-04-07T15:25:32.287Z</time></trkpt><trkpt lat="43.6526233" lon="11.5454933"><ele>363.0</ele><time>2026-04-07T15:25:33.286Z</time></trkpt><trkpt lat="43.6525583" lon="11.5454983"><ele>363.0</ele><time>2026-04-07T15:25:34.286Z</time></trkpt><trkpt lat="43.6524333" lon="11.545545"><ele>362.3333333333333</ele><time>2026-04-07T15:25:36.286Z</time></trkpt><trkpt lat="43.6523167" lon="11.5456333"><ele>361.6666666666667</ele><time>2026-04-07T15:25:38.287Z</time></trkpt><trkpt lat="43.6522617" lon="11.5456883"><ele>361.0</ele><time>2026-04-07T15:25:39.286Z</time></trkpt><trkpt lat="43.6522033" lon="11.5457533"><ele>360.33333333333337</ele><time>2026-04-07T15:25:40.287Z</time></trkpt><trkpt lat="43.65216" lon="11.5458283"><ele>359.6666666666667</ele><time>2026-04-07T15:25:41.286Z</time></trkpt><trkpt lat="43.6521233" lon="11.54591"><ele>359.0</ele><time>2026-04-07T15:25:42.285Z</time></trkpt><trkpt lat="43.652095" lon="11.546"><ele>359.0</ele><time>2026-04-07T15:25:43.285Z</time></trkpt><trkpt lat="43.6520717" lon="11.5460933"><ele>359.0</ele><time>2026-04-07T15:25:44.287Z</time></trkpt><trkpt lat="43.6520583" lon="11.5461883"><ele>359.0</ele><time>2026-04-07T15:25:45.285Z</time></trkpt><trkpt lat="43.652045" lon="11.546285"><ele>359.0</ele><time>2026-04-07T15:25:46.287Z</time></trkpt><trkpt lat="43.6520417" lon="11.5463783"><ele>359.0</ele><time>2026-04-07T15:25:47.286Z</time></trkpt><trkpt lat="43.6520383" lon="11.5464683"><ele>359.0</ele><time>2026-04-07T15:25:48.286Z</time></trkpt><trkpt lat="43.6520367" lon="11.5465567"><ele>359.0</ele><time>2026-04-07T15:25:49.287Z</time></trkpt><trkpt lat="43.6520317" lon="11.5466483"><ele>358.42857142857144</ele><time>2026-04-07T15:25:50.286Z</time></trkpt><trkpt lat="43.652025" lon="11.5467433"><ele>357.8571428571429</ele><time>2026-04-07T15:25:51.286Z</time></trkpt><trkpt lat="43.6520067" lon="11.54683"><ele>357.2857142857143</ele><time>2026-04-07T15:25:52.287Z</time></trkpt><trkpt lat="43.6519817" lon="11.5469167"><ele>356.7142857142857</ele><time>2026-04-07T15:25:53.287Z</time></trkpt><trkpt lat="43.6519467" lon="11.5469917"><ele>356.14285714285717</ele><time>2026-04-07T15:25:54.286Z</time></trkpt><trkpt lat="43.6519117" lon="11.547065"><ele>355.57142857142856</ele><time>2026-04-07T15:25:55.287Z</time></trkpt><trkpt lat="43.65188" lon="11.547145"><ele>355.0</ele><time>2026-04-07T15:25:56.287Z</time></trkpt><trkpt lat="43.65183" lon="11.5473067"><ele>356.42857142857144</ele><time>2026-04-07T15:25:58.287Z</time></trkpt><trkpt lat="43.6518133" lon="11.5473933"><ele>357.8571428571429</ele><time>2026-04-07T15:25:59.285Z</time></trkpt><trkpt lat="43.651795" lon="11.5474817"><ele>359.28571428571433</ele><time>2026-04-07T15:26:00.286Z</time></trkpt><trkpt lat="43.65178" lon="11.5475717"><ele>360.7142857142857</ele><time>2026-04-07T15:26:01.288Z</time></trkpt><trkpt lat="43.6517633" lon="11.5476633"><ele>362.14285714285717</ele><time>2026-04-07T15:26:02.286Z</time></trkpt><trkpt lat="43.651745" lon="11.5477533"><ele>363.5714285714286</ele><time>2026-04-07T15:26:03.286Z</time></trkpt><trkpt lat="43.6517183" lon="11.5478483"><ele>365.0</ele><time>2026-04-07T15:26:04.285Z</time></trkpt><trkpt lat="43.651685" lon="11.5479417"><ele>365.5714285714286</ele><time>2026-04-07T15:26:05.286Z</time></trkpt><trkpt lat="43.6516417" lon="11.5480217"><ele>366.14285714285717</ele><time>2026-04-07T15:26:06.286Z</time></trkpt><trkpt lat="43.6515883" lon="11.5480933"><ele>366.7142857142857</ele><time>2026-04-07T15:26:07.287Z</time></trkpt><trkpt lat="43.651525" lon="11.5481517"><ele>367.28571428571433</ele><time>2026-04-07T15:26:08.288Z</time></trkpt><trkpt lat="43.651465" lon="11.5481983"><ele>367.85714285714283</ele><time>2026-04-07T15:26:09.286Z</time></trkpt><trkpt lat="43.6513967" lon="11.5482517"><ele>368.42857142857144</ele><time>2026-04-07T15:26:10.286Z</time></trkpt><trkpt lat="43.6513367" lon="11.548315"><ele>369.0</ele><time>2026-04-07T15:26:11.286Z</time></trkpt><trkpt lat="43.651295" lon="11.54839"><ele>369.0</ele><time>2026-04-07T15:26:12.288Z</time></trkpt><trkpt lat="43.65128" lon="11.5484783"><ele>369.0</ele><time>2026-04-07T15:26:13.287Z</time></trkpt><trkpt lat="43.6512867" lon="11.5485733"><ele>369.0</ele><time>2026-04-07T15:26:14.287Z</time></trkpt><trkpt lat="43.6513017" lon="11.548675"><ele>369.0</ele><time>2026-04-07T15:26:15.288Z</time></trkpt><trkpt lat="43.6513283" lon="11.5487733"><ele>369.0</ele><time>2026-04-07T15:26:16.286Z</time></trkpt><trkpt lat="43.6513583" lon="11.5488567"><ele>369.0</ele><time>2026-04-07T15:26:17.286Z</time></trkpt><trkpt lat="43.6513883" lon="11.5489367"><ele>369.0</ele><time>2026-04-07T15:26:18.286Z</time></trkpt><trkpt lat="43.6514183" lon="11.5490167"><ele>369.6</ele><time>2026-04-07T15:26:19.285Z</time></trkpt><trkpt lat="43.6514733" lon="11.5491783"><ele>370.2</ele><time>2026-04-07T15:26:21.285Z</time></trkpt><trkpt lat="43.6515" lon="11.5492633"><ele>370.8</ele><time>2026-04-07T15:26:22.285Z</time></trkpt><trkpt lat="43.6515233" lon="11.5493517"><ele>371.40000000000003</ele><time>2026-04-07T15:26:23.287Z</time></trkpt><trkpt lat="43.6515267" lon="11.5495167"><ele>372.0</ele><time>2026-04-07T15:26:25.289Z</time></trkpt><trkpt lat="43.6514633" lon="11.549645"><ele>373.0</ele><time>2026-04-07T15:26:27.286Z</time></trkpt><trkpt lat="43.6513633" lon="11.5496433"><ele>374.0</ele><time>2026-04-07T15:26:29.286Z</time></trkpt><trkpt lat="43.6512517" lon="11.5495817"><ele>375.0</ele><time>2026-04-07T15:26:31.287Z</time></trkpt><trkpt lat="43.6511267" lon="11.5495533"><ele>376.0</ele><time>2026-04-07T15:26:33.285Z</time></trkpt><trkpt lat="43.6510067" lon="11.5495717"><ele>376.0</ele><time>2026-04-07T15:26:35.287Z</time></trkpt><trkpt lat="43.650945" lon="11.54959"><ele>376.0</ele><time>2026-04-07T15:26:36.286Z</time></trkpt><trkpt lat="43.65088" lon="11.5496067"><ele>376.0</ele><time>2026-04-07T15:26:37.287Z</time></trkpt><trkpt lat="43.650815" lon="11.549615"><ele>376.0</ele><time>2026-04-07T15:26:38.286Z</time></trkpt><trkpt lat="43.650685" lon="11.5495767"><ele>376.0</ele><time>2026-04-07T15:26:40.287Z</time></trkpt><trkpt lat="43.650625" lon="11.54954"><ele>376.0</ele><time>2026-04-07T15:26:41.287Z</time></trkpt><trkpt lat="43.650565" lon="11.549495"><ele>373.75</ele><time>2026-04-07T15:26:42.287Z</time></trkpt><trkpt lat="43.6504617" lon="11.5494117"><ele>371.5</ele><time>2026-04-07T15:26:44.286Z</time></trkpt><trkpt lat="43.6503583" lon="11.5493217"><ele>369.25</ele><time>2026-04-07T15:26:46.286Z</time></trkpt><trkpt lat="43.65026" lon="11.549235"><ele>367.0</ele><time>2026-04-07T15:26:48.289Z</time></trkpt><trkpt lat="43.6501483" lon="11.549155"><ele>367.0</ele><time>2026-04-07T15:26:50.287Z</time></trkpt><trkpt lat="43.65009" lon="11.5491167"><ele>367.0</ele><time>2026-04-07T15:26:51.286Z</time></trkpt><trkpt lat="43.64998" lon="11.5490383"><ele>367.0</ele><time>2026-04-07T15:26:53.286Z</time></trkpt><trkpt lat="43.6498717" lon="11.54897"><ele>367.0</ele><time>2026-04-07T15:26:55.286Z</time></trkpt><trkpt lat="43.6497633" lon="11.5489033"><ele>367.0</ele><time>2026-04-07T15:26:57.287Z</time></trkpt><trkpt lat="43.649655" lon="11.5488417"><ele>367.0</ele><time>2026-04-07T15:26:59.286Z</time></trkpt><trkpt lat="43.6495467" lon="11.54879"><ele>367.0</ele><time>2026-04-07T15:27:01.286Z</time></trkpt><trkpt lat="43.6494367" lon="11.54874"><ele>367.0</ele><time>2026-04-07T15:27:03.287Z</time></trkpt><trkpt lat="43.6493283" lon="11.5486917"><ele>367.0</ele><time>2026-04-07T15:27:05.287Z</time></trkpt><trkpt lat="43.6492283" lon="11.5486567"><ele>367.0</ele><time>2026-04-07T15:27:07.289Z</time></trkpt><trkpt lat="43.649125" lon="11.548635"><ele>366.66666666666663</ele><time>2026-04-07T15:27:09.286Z</time></trkpt><trkpt lat="43.6490083" lon="11.548655"><ele>366.3333333333333</ele><time>2026-04-07T15:27:11.287Z</time></trkpt><trkpt lat="43.6488967" lon="11.5487267"><ele>366.0</ele><time>2026-04-07T15:27:13.287Z</time></trkpt><trkpt lat="43.6488483" lon="11.5487867"><ele>365.6666666666667</ele><time>2026-04-07T15:27:14.291Z</time></trkpt><trkpt lat="43.6488017" lon="11.5488567"><ele>365.33333333333337</ele><time>2026-04-07T15:27:15.288Z</time></trkpt><trkpt lat="43.6487667" lon="11.5489367"><ele>365.0</ele><time>2026-04-07T15:27:16.286Z</time></trkpt><trkpt lat="43.6487317" lon="11.549025"><ele>365.8571428571429</ele><time>2026-04-07T15:27:17.287Z</time></trkpt><trkpt lat="43.6487033" lon="11.549115"><ele>366.7142857142857</ele><time>2026-04-07T15:27:18.288Z</time></trkpt><trkpt lat="43.6486817" lon="11.54921"><ele>367.57142857142856</ele><time>2026-04-07T15:27:19.288Z</time></trkpt><trkpt lat="43.6486683" lon="11.5493083"><ele>368.42857142857144</ele><time>2026-04-07T15:27:20.287Z</time></trkpt><trkpt lat="43.6486533" lon="11.5494117"><ele>369.2857142857143</ele><time>2026-04-07T15:27:21.288Z</time></trkpt><trkpt lat="43.6486383" lon="11.54952"><ele>370.14285714285717</ele><time>2026-04-07T15:27:22.29Z</time></trkpt><trkpt lat="43.64863" lon="11.5496267"><ele>371.0</ele><time>2026-04-07T15:27:23.289Z</time></trkpt><trkpt lat="43.6486233" lon="11.5497383"><ele>371.1666666666667</ele><time>2026-04-07T15:27:24.288Z</time></trkpt><trkpt lat="43.6486183" lon="11.54985"><ele>371.33333333333337</ele><time>2026-04-07T15:27:25.289Z</time></trkpt><trkpt lat="43.64862" lon="11.5499683"><ele>371.5</ele><time>2026-04-07T15:27:26.288Z</time></trkpt><trkpt lat="43.64863" lon="11.550085"><ele>371.6666666666667</ele><time>2026-04-07T15:27:27.289Z</time></trkpt><trkpt lat="43.6486467" lon="11.5502033"><ele>371.8333333333333</ele><time>2026-04-07T15:27:28.287Z</time></trkpt><trkpt lat="43.6486667" lon="11.5503217"><ele>372.0</ele><time>2026-04-07T15:27:29.287Z</time></trkpt><trkpt lat="43.6486867" lon="11.55044"><ele>372.0</ele><time>2026-04-07T15:27:30.288Z</time></trkpt><trkpt lat="43.64871" lon="11.5505583"><ele>372.0</ele><time>2026-04-07T15:27:31.287Z</time></trkpt><trkpt lat="43.6487333" lon="11.5506783"><ele>372.0</ele><time>2026-04-07T15:27:32.288Z</time></trkpt><trkpt lat="43.6487567" lon="11.5508067"><ele>372.0</ele><time>2026-04-07T15:27:33.288Z</time></trkpt><trkpt lat="43.6487783" lon="11.550935"><ele>372.0</ele><time>2026-04-07T15:27:34.289Z</time></trkpt><trkpt lat="43.6488017" lon="11.5510683"><ele>372.0</ele><time>2026-04-07T15:27:35.289Z</time></trkpt><trkpt lat="43.64881" lon="11.5512033"><ele>372.0</ele><time>2026-04-07T15:27:36.287Z</time></trkpt><trkpt lat="43.6488217" lon="11.5513383"><ele>372.0</ele><time>2026-04-07T15:27:37.287Z</time></trkpt><trkpt lat="43.6488433" lon="11.5514683"><ele>372.0</ele><time>2026-04-07T15:27:38.29Z</time></trkpt><trkpt lat="43.6488733" lon="11.55159"><ele>372.0</ele><time>2026-04-07T15:27:39.289Z</time></trkpt><trkpt lat="43.6489167" lon="11.5517017"><ele>371.20000000000005</ele><time>2026-04-07T15:27:40.289Z</time></trkpt><trkpt lat="43.6489733" lon="11.5518083"><ele>370.4</ele><time>2026-04-07T15:27:41.288Z</time></trkpt><trkpt lat="43.649035" lon="11.551915"><ele>369.6</ele><time>2026-04-07T15:27:42.289Z</time></trkpt><trkpt lat="43.6490967" lon="11.5520267"><ele>368.79999999999995</ele><time>2026-04-07T15:27:43.291Z</time></trkpt><trkpt lat="43.649155" lon="11.5521367"><ele>368.0</ele><time>2026-04-07T15:27:44.289Z</time></trkpt><trkpt lat="43.6492067" lon="11.5522517"><ele>367.2</ele><time>2026-04-07T15:27:45.289Z</time></trkpt><trkpt lat="43.6492617" lon="11.55237"><ele>366.4</ele><time>2026-04-07T15:27:46.289Z</time></trkpt><trkpt lat="43.649315" lon="11.5524867"><ele>365.59999999999997</ele><time>2026-04-07T15:27:47.289Z</time></trkpt><trkpt lat="43.6493617" lon="11.5526033"><ele>364.79999999999995</ele><time>2026-04-07T15:27:48.289Z</time></trkpt><trkpt lat="43.6494033" lon="11.55272"><ele>364.0</ele><time>2026-04-07T15:27:49.288Z</time></trkpt><trkpt lat="43.6494233" lon="11.552845"><ele>364.8333333333333</ele><time>2026-04-07T15:27:50.289Z</time></trkpt><trkpt lat="43.6494217" lon="11.5529717"><ele>365.66666666666663</ele><time>2026-04-07T15:27:51.287Z</time></trkpt><trkpt lat="43.6494017" lon="11.5530917"><ele>366.5</ele><time>2026-04-07T15:27:52.286Z</time></trkpt><trkpt lat="43.6493633" lon="11.5532017"><ele>367.3333333333333</ele><time>2026-04-07T15:27:53.287Z</time></trkpt><trkpt lat="43.649315" lon="11.553305"><ele>368.1666666666667</ele><time>2026-04-07T15:27:54.286Z</time></trkpt><trkpt lat="43.64927" lon="11.5533983"><ele>369.0</ele><time>2026-04-07T15:27:55.287Z</time></trkpt><trkpt lat="43.6492183" lon="11.55348"><ele>369.0</ele><time>2026-04-07T15:27:56.287Z</time></trkpt><trkpt lat="43.6491583" lon="11.5535283"><ele>369.0</ele><time>2026-04-07T15:27:57.286Z</time></trkpt><trkpt lat="43.649085" lon="11.553545"><ele>369.0</ele><time>2026-04-07T15:27:58.286Z</time></trkpt><trkpt lat="43.6490017" lon="11.5535017"><ele>369.0</ele><time>2026-04-07T15:27:59.287Z</time></trkpt><trkpt lat="43.64893" lon="11.5534433"><ele>369.0</ele><time>2026-04-07T15:28:00.287Z</time></trkpt><trkpt lat="43.648865" lon="11.5533817"><ele>369.0</ele><time>2026-04-07T15:28:01.287Z</time></trkpt><trkpt lat="43.6487983" lon="11.553315"><ele>369.0</ele><time>2026-04-07T15:28:02.29Z</time></trkpt><trkpt lat="43.6487367" lon="11.5532483"><ele>369.0</ele><time>2026-04-07T15:28:03.291Z</time></trkpt><trkpt lat="43.6486733" lon="11.553185"><ele>369.0</ele><time>2026-04-07T15:28:04.288Z</time></trkpt><trkpt lat="43.648615" lon="11.5531283"><ele>369.0</ele><time>2026-04-07T15:28:05.288Z</time></trkpt><trkpt lat="43.6485533" lon="11.5530683"><ele>369.0</ele><time>2026-04-07T15:28:06.288Z</time></trkpt><trkpt lat="43.64849" lon="11.5530133"><ele>369.0</ele><time>2026-04-07T15:28:07.287Z</time></trkpt><trkpt lat="43.64843" lon="11.552955"><ele>367.6666666666667</ele><time>2026-04-07T15:28:08.287Z</time></trkpt><trkpt lat="43.648365" lon="11.5528933"><ele>366.3333333333333</ele><time>2026-04-07T15:28:09.286Z</time></trkpt><trkpt lat="43.6483" lon="11.5528317"><ele>365.0</ele><time>2026-04-07T15:28:10.289Z</time></trkpt><trkpt lat="43.648235" lon="11.5527717"><ele>363.66666666666663</ele><time>2026-04-07T15:28:11.287Z</time></trkpt><trkpt lat="43.64817" lon="11.5527083"><ele>362.3333333333333</ele><time>2026-04-07T15:28:12.287Z</time></trkpt><trkpt lat="43.6481033" lon="11.5526467"><ele>361.0</ele><time>2026-04-07T15:28:13.289Z</time></trkpt><trkpt lat="43.6480367" lon="11.5525833"><ele>361.0</ele><time>2026-04-07T15:28:14.288Z</time></trkpt><trkpt lat="43.6479717" lon="11.55252"><ele>361.0</ele><time>2026-04-07T15:28:15.288Z</time></trkpt><trkpt lat="43.6479067" lon="11.5524567"><ele>361.0</ele><time>2026-04-07T15:28:16.288Z</time></trkpt><trkpt lat="43.6478417" lon="11.5523983"><ele>361.0</ele><time>2026-04-07T15:28:17.287Z</time></trkpt><trkpt lat="43.6477767" lon="11.5523383"><ele>361.0</ele><time>2026-04-07T15:28:18.287Z</time></trkpt><trkpt lat="43.6477117" lon="11.552285"><ele>361.0</ele><time>2026-04-07T15:28:19.289Z</time></trkpt><trkpt lat="43.647645" lon="11.552235"><ele>360.2857142857143</ele><time>2026-04-07T15:28:20.289Z</time></trkpt><trkpt lat="43.647575" lon="11.552195"><ele>359.57142857142856</ele><time>2026-04-07T15:28:21.288Z</time></trkpt><trkpt lat="43.6475033" lon="11.5521517"><ele>358.85714285714283</ele><time>2026-04-07T15:28:22.287Z</time></trkpt><trkpt lat="43.6474367" lon="11.552105"><ele>358.1428571428571</ele><time>2026-04-07T15:28:23.287Z</time></trkpt><trkpt lat="43.6473717" lon="11.552055"><ele>357.42857142857144</ele><time>2026-04-07T15:28:24.287Z</time></trkpt><trkpt lat="43.6473117" lon="11.5519967"><ele>356.71428571428567</ele><time>2026-04-07T15:28:25.286Z</time></trkpt><trkpt lat="43.6472567" lon="11.551935"><ele>356.0</ele><time>2026-04-07T15:28:26.288Z</time></trkpt><trkpt lat="43.6472" lon="11.551865"><ele>356.0</ele><time>2026-04-07T15:28:27.288Z</time></trkpt><trkpt lat="43.6471417" lon="11.5517917"><ele>356.0</ele><time>2026-04-07T15:28:28.286Z</time></trkpt><trkpt lat="43.6470817" lon="11.55171"><ele>356.0</ele><time>2026-04-07T15:28:29.289Z</time></trkpt><trkpt lat="43.6470333" lon="11.55163"><ele>356.0</ele><time>2026-04-07T15:28:30.289Z</time></trkpt><trkpt lat="43.6469867" lon="11.5515433"><ele>356.0</ele><time>2026-04-07T15:28:31.287Z</time></trkpt><trkpt lat="43.6469383" lon="11.551455"><ele>356.0</ele><time>2026-04-07T15:28:32.288Z</time></trkpt><trkpt lat="43.6468933" lon="11.5513667"><ele>356.6666666666667</ele><time>2026-04-07T15:28:33.288Z</time></trkpt><trkpt lat="43.6468483" lon="11.5512817"><ele>357.33333333333337</ele><time>2026-04-07T15:28:34.288Z</time></trkpt><trkpt lat="43.6467983" lon="11.5511917"><ele>358.0</ele><time>2026-04-07T15:28:35.288Z</time></trkpt><trkpt lat="43.6467433" lon="11.5511"><ele>358.6666666666667</ele><time>2026-04-07T15:28:36.286Z</time></trkpt><trkpt lat="43.6466933" lon="11.5510017"><ele>359.3333333333333</ele><time>2026-04-07T15:28:37.288Z</time></trkpt><trkpt lat="43.6466383" lon="11.5509"><ele>360.0</ele><time>2026-04-07T15:28:38.287Z</time></trkpt><trkpt lat="43.64659" lon="11.5507967"><ele>360.0</ele><time>2026-04-07T15:28:39.287Z</time></trkpt><trkpt lat="43.6465383" lon="11.55069"><ele>360.0</ele><time>2026-04-07T15:28:40.288Z</time></trkpt><trkpt lat="43.646485" lon="11.550585"><ele>360.0</ele><time>2026-04-07T15:28:41.29Z</time></trkpt><trkpt lat="43.6464317" lon="11.5504733"><ele>360.0</ele><time>2026-04-07T15:28:42.289Z</time></trkpt><trkpt lat="43.6463733" lon="11.5503633"><ele>360.0</ele><time>2026-04-07T15:28:43.289Z</time></trkpt><trkpt lat="43.6463133" lon="11.5502517"><ele>360.0</ele><time>2026-04-07T15:28:44.289Z</time></trkpt><trkpt lat="43.6462567" lon="11.550135"><ele>360.0</ele><time>2026-04-07T15:28:45.288Z</time></trkpt><trkpt lat="43.6462033" lon="11.55002"><ele>360.0</ele><time>2026-04-07T15:28:46.286Z</time></trkpt><trkpt lat="43.646155" lon="11.5498883"><ele>360.0</ele><time>2026-04-07T15:28:47.287Z</time></trkpt><trkpt lat="43.6461217" lon="11.5497583"><ele>360.0</ele><time>2026-04-07T15:28:48.288Z</time></trkpt><trkpt lat="43.6461" lon="11.5496167"><ele>358.6</ele><time>2026-04-07T15:28:49.287Z</time></trkpt><trkpt lat="43.646085" lon="11.549475"><ele>357.2</ele><time>2026-04-07T15:28:50.29Z</time></trkpt><trkpt lat="43.64607" lon="11.54933"><ele>355.79999999999995</ele><time>2026-04-07T15:28:51.288Z</time></trkpt><trkpt lat="43.646035" lon="11.5491867"><ele>354.4</ele><time>2026-04-07T15:28:52.288Z</time></trkpt><trkpt lat="43.6459767" lon="11.5490583"><ele>353.0</ele><time>2026-04-07T15:28:53.288Z</time></trkpt><trkpt lat="43.6459033" lon="11.5489467"><ele>353.0</ele><time>2026-04-07T15:28:54.287Z</time></trkpt><trkpt lat="43.6458183" lon="11.5488467"><ele>353.0</ele><time>2026-04-07T15:28:55.288Z</time></trkpt><trkpt lat="43.6457283" lon="11.5487517"><ele>353.0</ele><time>2026-04-07T15:28:56.288Z</time></trkpt><trkpt lat="43.6456333" lon="11.5486583"><ele>353.0</ele><time>2026-04-07T15:28:57.288Z</time></trkpt><trkpt lat="43.6455383" lon="11.548565"><ele>352.0</ele><time>2026-04-07T15:28:58.286Z</time></trkpt><trkpt lat="43.6454433" lon="11.5484667"><ele>351.0</ele><time>2026-04-07T15:28:59.288Z</time></trkpt><trkpt lat="43.6453467" lon="11.548365"><ele>350.0</ele><time>2026-04-07T15:29:00.288Z</time></trkpt><trkpt lat="43.64525" lon="11.5482717"><ele>349.0</ele><time>2026-04-07T15:29:01.288Z</time></trkpt><trkpt lat="43.64515" lon="11.54818"><ele>349.0</ele><time>2026-04-07T15:29:02.288Z</time></trkpt><trkpt lat="43.6450533" lon="11.54809"><ele>349.0</ele><time>2026-04-07T15:29:03.288Z</time></trkpt><trkpt lat="43.64496" lon="11.5480033"><ele>349.0</ele><time>2026-04-07T15:29:04.288Z</time></trkpt><trkpt lat="43.6448717" lon="11.547925"><ele>349.0</ele><time>2026-04-07T15:29:05.288Z</time></trkpt><trkpt lat="43.64479" lon="11.5478533"><ele>349.0</ele><time>2026-04-07T15:29:06.287Z</time></trkpt><trkpt lat="43.6447183" lon="11.5477883"><ele>348.3333333333333</ele><time>2026-04-07T15:29:07.287Z</time></trkpt><trkpt lat="43.644655" lon="11.547725"><ele>347.66666666666663</ele><time>2026-04-07T15:29:08.288Z</time></trkpt><trkpt lat="43.6445933" lon="11.5476683"><ele>347.0</ele><time>2026-04-07T15:29:09.285Z</time></trkpt><trkpt lat="43.6445367" lon="11.5476217"><ele>346.3333333333333</ele><time>2026-04-07T15:29:10.287Z</time></trkpt><trkpt lat="43.6444383" lon="11.5475617"><ele>345.6666666666667</ele><time>2026-04-07T15:29:12.287Z</time></trkpt><trkpt lat="43.644345" lon="11.5475933"><ele>345.0</ele><time>2026-04-07T15:29:14.288Z</time></trkpt><trkpt lat="43.6442617" lon="11.5477267"><ele>345.0</ele><time>2026-04-07T15:29:16.288Z</time></trkpt><trkpt lat="43.6442183" lon="11.5478083"><ele>345.0</ele><time>2026-04-07T15:29:17.287Z</time></trkpt><trkpt lat="43.6441633" lon="11.5478933"><ele>345.0</ele><time>2026-04-07T15:29:18.287Z</time></trkpt><trkpt lat="43.6441167" lon="11.5479833"><ele>345.0</ele><time>2026-04-07T15:29:19.287Z</time></trkpt><trkpt lat="43.6440667" lon="11.5480767"><ele>345.0</ele><time>2026-04-07T15:29:20.288Z</time></trkpt><trkpt lat="43.6440133" lon="11.5481717"><ele>345.0</ele><time>2026-04-07T15:29:21.285Z</time></trkpt><trkpt lat="43.64396" lon="11.5482717"><ele>345.6</ele><time>2026-04-07T15:29:22.287Z</time></trkpt><trkpt lat="43.64391" lon="11.5483767"><ele>346.2</ele><time>2026-04-07T15:29:23.288Z</time></trkpt><trkpt lat="43.6438583" lon="11.5484833"><ele>346.79999999999995</ele><time>2026-04-07T15:29:24.286Z</time></trkpt><trkpt lat="43.6438" lon="11.5485883"><ele>347.4</ele><time>2026-04-07T15:29:25.288Z</time></trkpt><trkpt lat="43.6437433" lon="11.5486917"><ele>348.0</ele><time>2026-04-07T15:29:26.288Z</time></trkpt><trkpt lat="43.64369" lon="11.54881"><ele>348.0</ele><time>2026-04-07T15:29:27.286Z</time></trkpt><trkpt lat="43.6436367" lon="11.5489283"><ele>348.0</ele><time>2026-04-07T15:29:28.288Z</time></trkpt><trkpt lat="43.6435967" lon="11.5490533"><ele>348.0</ele><time>2026-04-07T15:29:29.288Z</time></trkpt><trkpt lat="43.6435583" lon="11.5491783"><ele>348.0</ele><time>2026-04-07T15:29:30.286Z</time></trkpt><trkpt lat="43.6435217" lon="11.5493067"><ele>348.0</ele><time>2026-04-07T15:29:31.288Z</time></trkpt><trkpt lat="43.6434867" lon="11.549435"><ele>346.79999999999995</ele><time>2026-04-07T15:29:32.287Z</time></trkpt><trkpt lat="43.6434417" lon="11.5495617"><ele>345.6</ele><time>2026-04-07T15:29:33.285Z</time></trkpt><trkpt lat="43.6434033" lon="11.5496967"><ele>344.4</ele><time>2026-04-07T15:29:34.288Z</time></trkpt><trkpt lat="43.6433667" lon="11.549835"><ele>343.20000000000005</ele><time>2026-04-07T15:29:35.288Z</time></trkpt><trkpt lat="43.6433217" lon="11.5499717"><ele>342.0</ele><time>2026-04-07T15:29:36.285Z</time></trkpt><trkpt lat="43.64327" lon="11.5501033"><ele>342.0</ele><time>2026-04-07T15:29:37.287Z</time></trkpt><trkpt lat="43.643225" lon="11.5502417"><ele>342.0</ele><time>2026-04-07T15:29:38.287Z</time></trkpt><trkpt lat="43.64319" lon="11.5503817"><ele>342.0</ele><time>2026-04-07T15:29:39.286Z</time></trkpt><trkpt lat="43.6431467" lon="11.550515"><ele>342.0</ele><time>2026-04-07T15:29:40.287Z</time></trkpt><trkpt lat="43.6430967" lon="11.550645"><ele>342.0</ele><time>2026-04-07T15:29:41.287Z</time></trkpt><trkpt lat="43.6430367" lon="11.5507617"><ele>342.0</ele><time>2026-04-07T15:29:42.287Z</time></trkpt><trkpt lat="43.6429683" lon="11.55087"><ele>342.0</ele><time>2026-04-07T15:29:43.288Z</time></trkpt><trkpt lat="43.6428967" lon="11.55097"><ele>342.0</ele><time>2026-04-07T15:29:44.288Z</time></trkpt><trkpt lat="43.6428283" lon="11.55107"><ele>342.0</ele><time>2026-04-07T15:29:45.287Z</time></trkpt><trkpt lat="43.6427667" lon="11.55117"><ele>342.0</ele><time>2026-04-07T15:29:46.288Z</time></trkpt><trkpt lat="43.6427017" lon="11.5512717"><ele>341.8</ele><time>2026-04-07T15:29:47.288Z</time></trkpt><trkpt lat="43.6426333" lon="11.5513667"><ele>341.6</ele><time>2026-04-07T15:29:48.287Z</time></trkpt><trkpt lat="43.6425667" lon="11.5514617"><ele>341.40000000000003</ele><time>2026-04-07T15:29:49.288Z</time></trkpt><trkpt lat="43.6425067" lon="11.55156"><ele>341.20000000000005</ele><time>2026-04-07T15:29:50.289Z</time></trkpt><trkpt lat="43.6424517" lon="11.5516683"><ele>341.0</ele><time>2026-04-07T15:29:51.286Z</time></trkpt><trkpt lat="43.6424067" lon="11.55178"><ele>341.0</ele><time>2026-04-07T15:29:52.288Z</time></trkpt><trkpt lat="43.6423717" lon="11.5519017"><ele>341.0</ele><time>2026-04-07T15:29:53.29Z</time></trkpt><trkpt lat="43.6423533" lon="11.552025"><ele>341.0</ele><time>2026-04-07T15:29:54.289Z</time></trkpt><trkpt lat="43.6423417" lon="11.5521567"><ele>341.0</ele><time>2026-04-07T15:29:55.288Z</time></trkpt><trkpt lat="43.6423333" lon="11.5522933"><ele>341.0</ele><time>2026-04-07T15:29:56.29Z</time></trkpt><trkpt lat="43.6423267" lon="11.5524283"><ele>340.6666666666667</ele><time>2026-04-07T15:29:57.288Z</time></trkpt><trkpt lat="43.6423183" lon="11.552565"><ele>340.33333333333337</ele><time>2026-04-07T15:29:58.287Z</time></trkpt><trkpt lat="43.6423033" lon="11.5526833"><ele>340.0</ele><time>2026-04-07T15:29:59.288Z</time></trkpt><trkpt lat="43.6422783" lon="11.5527883"><ele>339.6666666666667</ele><time>2026-04-07T15:30:00.286Z</time></trkpt><trkpt lat="43.6422467" lon="11.5528833"><ele>339.3333333333333</ele><time>2026-04-07T15:30:01.287Z</time></trkpt><trkpt lat="43.6422" lon="11.5529517"><ele>339.0</ele><time>2026-04-07T15:30:02.286Z</time></trkpt><trkpt lat="43.6421383" lon="11.5529783"><ele>338.3333333333333</ele><time>2026-04-07T15:30:03.286Z</time></trkpt><trkpt lat="43.6420583" lon="11.5529567"><ele>337.6666666666667</ele><time>2026-04-07T15:30:04.289Z</time></trkpt><trkpt lat="43.6419767" lon="11.5529217"><ele>337.0</ele><time>2026-04-07T15:30:05.286Z</time></trkpt><trkpt lat="43.6418883" lon="11.5528883"><ele>336.33333333333337</ele><time>2026-04-07T15:30:06.286Z</time></trkpt><trkpt lat="43.6418033" lon="11.552875"><ele>335.6666666666667</ele><time>2026-04-07T15:30:07.286Z</time></trkpt><trkpt lat="43.64171" lon="11.5528833"><ele>335.0</ele><time>2026-04-07T15:30:08.287Z</time></trkpt><trkpt lat="43.6416183" lon="11.5529133"><ele>335.0</ele><time>2026-04-07T15:30:09.286Z</time></trkpt><trkpt lat="43.6415267" lon="11.5529617"><ele>335.0</ele><time>2026-04-07T15:30:10.289Z</time></trkpt><trkpt lat="43.64144" lon="11.553025"><ele>335.0</ele><time>2026-04-07T15:30:11.288Z</time></trkpt><trkpt lat="43.64135" lon="11.5530917"><ele>335.0</ele><time>2026-04-07T15:30:12.286Z</time></trkpt><trkpt lat="43.641265" lon="11.5531583"><ele>335.0</ele><time>2026-04-07T15:30:13.288Z</time></trkpt><trkpt lat="43.6411933" lon="11.5532417"><ele>335.0</ele><time>2026-04-07T15:30:14.288Z</time></trkpt><trkpt lat="43.6411383" lon="11.553345"><ele>335.0</ele><time>2026-04-07T15:30:15.289Z</time></trkpt><trkpt lat="43.6411133" lon="11.5534633"><ele>335.0</ele><time>2026-04-07T15:30:16.289Z</time></trkpt><trkpt lat="43.6411083" lon="11.5535883"><ele>335.0</ele><time>2026-04-07T15:30:17.289Z</time></trkpt><trkpt lat="43.6411217" lon="11.5537183"><ele>335.0</ele><time>2026-04-07T15:30:18.286Z</time></trkpt><trkpt lat="43.64115" lon="11.553845"><ele>335.2</ele><time>2026-04-07T15:30:19.286Z</time></trkpt><trkpt lat="43.6411833" lon="11.55397"><ele>335.4</ele><time>2026-04-07T15:30:20.289Z</time></trkpt><trkpt lat="43.6412067" lon="11.5541"><ele>335.6</ele><time>2026-04-07T15:30:21.286Z</time></trkpt><trkpt lat="43.64121" lon="11.5542317"><ele>335.8</ele><time>2026-04-07T15:30:22.287Z</time></trkpt><trkpt lat="43.6411817" lon="11.5543533"><ele>336.0</ele><time>2026-04-07T15:30:23.288Z</time></trkpt><trkpt lat="43.64112" lon="11.5544417"><ele>335.0</ele><time>2026-04-07T15:30:24.286Z</time></trkpt><trkpt lat="43.6410433" lon="11.55449"><ele>334.0</ele><time>2026-04-07T15:30:25.288Z</time></trkpt><trkpt lat="43.6409533" lon="11.5545133"><ele>333.0</ele><time>2026-04-07T15:30:26.287Z</time></trkpt><trkpt lat="43.6408683" lon="11.5545367"><ele>332.0</ele><time>2026-04-07T15:30:27.286Z</time></trkpt><trkpt lat="43.6407817" lon="11.5545783"><ele>331.0</ele><time>2026-04-07T15:30:28.287Z</time></trkpt><trkpt lat="43.6407067" lon="11.554645"><ele>330.0</ele><time>2026-04-07T15:30:29.289Z</time></trkpt><trkpt lat="43.640645" lon="11.5547333"><ele>330.0</ele><time>2026-04-07T15:30:30.286Z</time></trkpt><trkpt lat="43.640605" lon="11.5548383"><ele>330.0</ele><time>2026-04-07T15:30:31.288Z</time></trkpt><trkpt lat="43.6405883" lon="11.5549567"><ele>330.0</ele><time>2026-04-07T15:30:32.287Z</time></trkpt><trkpt lat="43.6405933" lon="11.5550833"><ele>330.0</ele><time>2026-04-07T15:30:33.286Z</time></trkpt><trkpt lat="43.640605" lon="11.5552117"><ele>330.0</ele><time>2026-04-07T15:30:34.288Z</time></trkpt><trkpt lat="43.64062" lon="11.555345"><ele>329.6</ele><time>2026-04-07T15:30:35.287Z</time></trkpt><trkpt lat="43.6406367" lon="11.555485"><ele>329.2</ele><time>2026-04-07T15:30:36.286Z</time></trkpt><trkpt lat="43.6406383" lon="11.5556183"><ele>328.79999999999995</ele><time>2026-04-07T15:30:37.287Z</time></trkpt><trkpt lat="43.6406317" lon="11.555745"><ele>328.4</ele><time>2026-04-07T15:30:38.288Z</time></trkpt><trkpt lat="43.640615" lon="11.55586"><ele>328.0</ele><time>2026-04-07T15:30:39.286Z</time></trkpt><trkpt lat="43.6405817" lon="11.5559583"><ele>328.0</ele><time>2026-04-07T15:30:40.287Z</time></trkpt><trkpt lat="43.6405067" lon="11.5560067"><ele>328.0</ele><time>2026-04-07T15:30:41.287Z</time></trkpt><trkpt lat="43.64042" lon="11.556025"><ele>328.0</ele><time>2026-04-07T15:30:42.287Z</time></trkpt><trkpt lat="43.6403217" lon="11.5559967"><ele>328.0</ele><time>2026-04-07T15:30:43.286Z</time></trkpt><trkpt lat="43.64021" lon="11.5559433"><ele>328.0</ele><time>2026-04-07T15:30:44.286Z</time></trkpt><trkpt lat="43.6400983" lon="11.555895"><ele>327.0</ele><time>2026-04-07T15:30:45.287Z</time></trkpt><trkpt lat="43.6399833" lon="11.5558533"><ele>326.0</ele><time>2026-04-07T15:30:46.287Z</time></trkpt><trkpt lat="43.6398667" lon="11.5558183"><ele>325.0</ele><time>2026-04-07T15:30:47.287Z</time></trkpt><trkpt lat="43.63975" lon="11.5557833"><ele>324.0</ele><time>2026-04-07T15:30:48.287Z</time></trkpt><trkpt lat="43.6396317" lon="11.5557483"><ele>324.0</ele><time>2026-04-07T15:30:49.287Z</time></trkpt><trkpt lat="43.639515" lon="11.555715"><ele>324.0</ele><time>2026-04-07T15:30:50.288Z</time></trkpt><trkpt lat="43.6393983" lon="11.5556867"><ele>324.0</ele><time>2026-04-07T15:30:51.287Z</time></trkpt><trkpt lat="43.6392867" lon="11.55567"><ele>324.0</ele><time>2026-04-07T15:30:52.287Z</time></trkpt><trkpt lat="43.6391717" lon="11.555665"><ele>322.75</ele><time>2026-04-07T15:30:53.286Z</time></trkpt><trkpt lat="43.6390567" lon="11.5556817"><ele>321.5</ele><time>2026-04-07T15:30:54.286Z</time></trkpt><trkpt lat="43.638945" lon="11.5557183"><ele>320.25</ele><time>2026-04-07T15:30:55.287Z</time></trkpt><trkpt lat="43.6388317" lon="11.5557667"><ele>319.0</ele><time>2026-04-07T15:30:56.288Z</time></trkpt><trkpt lat="43.6387217" lon="11.5558217"><ele>318.2</ele><time>2026-04-07T15:30:57.286Z</time></trkpt><trkpt lat="43.6386133" lon="11.555875"><ele>317.4</ele><time>2026-04-07T15:30:58.286Z</time></trkpt><trkpt lat="43.6385117" lon="11.5559233"><ele>316.6</ele><time>2026-04-07T15:30:59.286Z</time></trkpt><trkpt lat="43.63842" lon="11.5559733"><ele>315.8</ele><time>2026-04-07T15:31:00.286Z</time></trkpt><trkpt lat="43.6383383" lon="11.5560367"><ele>315.0</ele><time>2026-04-07T15:31:01.289Z</time></trkpt><trkpt lat="43.6382717" lon="11.55612"><ele>314.8</ele><time>2026-04-07T15:31:02.288Z</time></trkpt><trkpt lat="43.6382217" lon="11.5562283"><ele>314.6</ele><time>2026-04-07T15:31:03.286Z</time></trkpt><trkpt lat="43.6381967" lon="11.5563567"><ele>314.4</ele><time>2026-04-07T15:31:04.288Z</time></trkpt><trkpt lat="43.6381933" lon="11.5564933"><ele>314.2</ele><time>2026-04-07T15:31:05.287Z</time></trkpt><trkpt lat="43.6381983" lon="11.55663"><ele>314.0</ele><time>2026-04-07T15:31:06.286Z</time></trkpt><trkpt lat="43.6381983" lon="11.5567633"><ele>314.0</ele><time>2026-04-07T15:31:07.287Z</time></trkpt><trkpt lat="43.6381817" lon="11.556885"><ele>314.0</ele><time>2026-04-07T15:31:08.286Z</time></trkpt><trkpt lat="43.6381467" lon="11.5569933"><ele>314.0</ele><time>2026-04-07T15:31:09.287Z</time></trkpt><trkpt lat="43.6380933" lon="11.5570833"><ele>314.0</ele><time>2026-04-07T15:31:10.287Z</time></trkpt><trkpt lat="43.6380183" lon="11.557125"><ele>314.0</ele><time>2026-04-07T15:31:11.288Z</time></trkpt><trkpt lat="43.6379283" lon="11.5571033"><ele>314.0</ele><time>2026-04-07T15:31:12.287Z</time></trkpt><trkpt lat="43.637845" lon="11.55705"><ele>313.6666666666667</ele><time>2026-04-07T15:31:13.287Z</time></trkpt><trkpt lat="43.63777" lon="11.5569817"><ele>313.33333333333337</ele><time>2026-04-07T15:31:14.286Z</time></trkpt><trkpt lat="43.6376983" lon="11.55691"><ele>313.0</ele><time>2026-04-07T15:31:15.286Z</time></trkpt><trkpt lat="43.6376233" lon="11.55684"><ele>312.6666666666667</ele><time>2026-04-07T15:31:16.286Z</time></trkpt><trkpt lat="43.6375467" lon="11.55678"><ele>312.3333333333333</ele><time>2026-04-07T15:31:17.287Z</time></trkpt><trkpt lat="43.6374717" lon="11.5567217"><ele>312.0</ele><time>2026-04-07T15:31:18.287Z</time></trkpt><trkpt lat="43.6373933" lon="11.556665"><ele>312.0</ele><time>2026-04-07T15:31:19.287Z</time></trkpt><trkpt lat="43.6373133" lon="11.5566083"><ele>312.0</ele><time>2026-04-07T15:31:20.289Z</time></trkpt><trkpt lat="43.637235" lon="11.5565567"><ele>312.0</ele><time>2026-04-07T15:31:21.287Z</time></trkpt><trkpt lat="43.6371533" lon="11.55651"><ele>312.0</ele><time>2026-04-07T15:31:22.29Z</time></trkpt><trkpt lat="43.63707" lon="11.5564833"><ele>312.0</ele><time>2026-04-07T15:31:23.288Z</time></trkpt><trkpt lat="43.6369833" lon="11.5564767"><ele>312.0</ele><time>2026-04-07T15:31:24.288Z</time></trkpt><trkpt lat="43.6368983" lon="11.5564867"><ele>311.4</ele><time>2026-04-07T15:31:25.287Z</time></trkpt><trkpt lat="43.6368133" lon="11.556515"><ele>310.79999999999995</ele><time>2026-04-07T15:31:26.287Z</time></trkpt><trkpt lat="43.6367333" lon="11.5565667"><ele>310.2</ele><time>2026-04-07T15:31:27.289Z</time></trkpt><trkpt lat="43.6366533" lon="11.5566383"><ele>309.59999999999997</ele><time>2026-04-07T15:31:28.289Z</time></trkpt><trkpt lat="43.63658" lon="11.5567183"><ele>309.0</ele><time>2026-04-07T15:31:29.288Z</time></trkpt><trkpt lat="43.6365067" lon="11.556805"><ele>309.0</ele><time>2026-04-07T15:31:30.287Z</time></trkpt><trkpt lat="43.6364383" lon="11.5568917"><ele>309.0</ele><time>2026-04-07T15:31:31.287Z</time></trkpt><trkpt lat="43.6363683" lon="11.5569767"><ele>309.0</ele><time>2026-04-07T15:31:32.287Z</time></trkpt><trkpt lat="43.6363033" lon="11.5570617"><ele>309.0</ele><time>2026-04-07T15:31:33.286Z</time></trkpt><trkpt lat="43.63624" lon="11.5571517"><ele>309.0</ele><time>2026-04-07T15:31:34.287Z</time></trkpt><trkpt lat="43.636175" lon="11.5572333"><ele>309.3333333333333</ele><time>2026-04-07T15:31:35.288Z</time></trkpt><trkpt lat="43.63611" lon="11.5573133"><ele>309.6666666666667</ele><time>2026-04-07T15:31:36.287Z</time></trkpt><trkpt lat="43.6360417" lon="11.5573933"><ele>310.0</ele><time>2026-04-07T15:31:37.29Z</time></trkpt><trkpt lat="43.6359783" lon="11.5574733"><ele>310.33333333333337</ele><time>2026-04-07T15:31:38.289Z</time></trkpt><trkpt lat="43.6359183" lon="11.5575517"><ele>310.6666666666667</ele><time>2026-04-07T15:31:39.29Z</time></trkpt><trkpt lat="43.6358667" lon="11.5576367"><ele>311.0</ele><time>2026-04-07T15:31:40.287Z</time></trkpt><trkpt lat="43.6358267" lon="11.55773"><ele>311.0</ele><time>2026-04-07T15:31:41.288Z</time></trkpt><trkpt lat="43.6358017" lon="11.5578317"><ele>311.0</ele><time>2026-04-07T15:31:42.29Z</time></trkpt><trkpt lat="43.6358033" lon="11.5579383"><ele>311.0</ele><time>2026-04-07T15:31:43.288Z</time></trkpt><trkpt lat="43.6358183" lon="11.5580467"><ele>311.0</ele><time>2026-04-07T15:31:44.287Z</time></trkpt><trkpt lat="43.635825" lon="11.5581533"><ele>311.0</ele><time>2026-04-07T15:31:45.29Z</time></trkpt><trkpt lat="43.6358267" lon="11.5582583"><ele>311.0</ele><time>2026-04-07T15:31:46.289Z</time></trkpt><trkpt lat="43.6358183" lon="11.5583583"><ele>311.5</ele><time>2026-04-07T15:31:47.289Z</time></trkpt><trkpt lat="43.6358" lon="11.5584567"><ele>312.0</ele><time>2026-04-07T15:31:48.29Z</time></trkpt><trkpt lat="43.63577" lon="11.55854"><ele>312.5</ele><time>2026-04-07T15:31:49.289Z</time></trkpt><trkpt lat="43.6356633" lon="11.5586067"><ele>313.0</ele><time>2026-04-07T15:31:51.289Z</time></trkpt><trkpt lat="43.6355983" lon="11.5585683"><ele>313.5</ele><time>2026-04-07T15:31:52.286Z</time></trkpt><trkpt lat="43.635545" lon="11.5585033"><ele>314.0</ele><time>2026-04-07T15:31:53.287Z</time></trkpt><trkpt lat="43.6354867" lon="11.5584283"><ele>314.0</ele><time>2026-04-07T15:31:54.285Z</time></trkpt><trkpt lat="43.6354233" lon="11.5583617"><ele>314.0</ele><time>2026-04-07T15:31:55.287Z</time></trkpt><trkpt lat="43.635355" lon="11.5583083"><ele>314.0</ele><time>2026-04-07T15:31:56.287Z</time></trkpt><trkpt lat="43.6352817" lon="11.5582717"><ele>314.0</ele><time>2026-04-07T15:31:57.287Z</time></trkpt><trkpt lat="43.6352067" lon="11.5582533"><ele>314.0</ele><time>2026-04-07T15:31:58.288Z</time></trkpt><trkpt lat="43.6351283" lon="11.5582583"><ele>314.0</ele><time>2026-04-07T15:31:59.288Z</time></trkpt><trkpt lat="43.6350533" lon="11.55829"><ele>313.6666666666667</ele><time>2026-04-07T15:32:00.288Z</time></trkpt><trkpt lat="43.634985" lon="11.5583433"><ele>313.33333333333337</ele><time>2026-04-07T15:32:01.288Z</time></trkpt><trkpt lat="43.6349267" lon="11.5584233"><ele>313.0</ele><time>2026-04-07T15:32:02.288Z</time></trkpt><trkpt lat="43.6348783" lon="11.55851"><ele>312.6666666666667</ele><time>2026-04-07T15:32:03.286Z</time></trkpt><trkpt lat="43.6348317" lon="11.558605"><ele>312.3333333333333</ele><time>2026-04-07T15:32:04.287Z</time></trkpt><trkpt lat="43.6347833" lon="11.5587"><ele>312.0</ele><time>2026-04-07T15:32:05.289Z</time></trkpt><trkpt lat="43.6347333" lon="11.5587967"><ele>311.3333333333333</ele><time>2026-04-07T15:32:06.286Z</time></trkpt><trkpt lat="43.634685" lon="11.5588967"><ele>310.6666666666667</ele><time>2026-04-07T15:32:07.287Z</time></trkpt><trkpt lat="43.6346383" lon="11.5589967"><ele>310.0</ele><time>2026-04-07T15:32:08.287Z</time></trkpt><trkpt lat="43.6345917" lon="11.5591"><ele>309.33333333333337</ele><time>2026-04-07T15:32:09.286Z</time></trkpt><trkpt lat="43.6345467" lon="11.5592017"><ele>308.6666666666667</ele><time>2026-04-07T15:32:10.286Z</time></trkpt><trkpt lat="43.6345033" lon="11.559305"><ele>308.0</ele><time>2026-04-07T15:32:11.287Z</time></trkpt><trkpt lat="43.63446" lon="11.559405"><ele>308.0</ele><time>2026-04-07T15:32:12.287Z</time></trkpt><trkpt lat="43.6344133" lon="11.5595033"><ele>308.0</ele><time>2026-04-07T15:32:13.286Z</time></trkpt><trkpt lat="43.6343667" lon="11.559605"><ele>308.0</ele><time>2026-04-07T15:32:14.287Z</time></trkpt><trkpt lat="43.6343133" lon="11.5597117"><ele>308.0</ele><time>2026-04-07T15:32:15.289Z</time></trkpt><trkpt lat="43.6342667" lon="11.55982"><ele>308.0</ele><time>2026-04-07T15:32:16.289Z</time></trkpt><trkpt lat="43.6342167" lon="11.5599267"><ele>308.0</ele><time>2026-04-07T15:32:17.289Z</time></trkpt><trkpt lat="43.6341617" lon="11.5600283"><ele>308.6666666666667</ele><time>2026-04-07T15:32:18.289Z</time></trkpt><trkpt lat="43.6341083" lon="11.56012"><ele>309.33333333333337</ele><time>2026-04-07T15:32:19.289Z</time></trkpt><trkpt lat="43.63405" lon="11.5602017"><ele>310.0</ele><time>2026-04-07T15:32:20.287Z</time></trkpt><trkpt lat="43.6339833" lon="11.5602633"><ele>310.6666666666667</ele><time>2026-04-07T15:32:21.286Z</time></trkpt><trkpt lat="43.6339117" lon="11.5603"><ele>311.3333333333333</ele><time>2026-04-07T15:32:22.288Z</time></trkpt><trkpt lat="43.6338367" lon="11.5603"><ele>312.0</ele><time>2026-04-07T15:32:23.287Z</time></trkpt><trkpt lat="43.6337633" lon="11.56026"><ele>312.0</ele><time>2026-04-07T15:32:24.287Z</time></trkpt><trkpt lat="43.6336983" lon="11.5601833"><ele>312.0</ele><time>2026-04-07T15:32:25.29Z</time></trkpt><trkpt lat="43.633645" lon="11.560095"><ele>312.0</ele><time>2026-04-07T15:32:26.286Z</time></trkpt><trkpt lat="43.6335933" lon="11.5599983"><ele>312.0</ele><time>2026-04-07T15:32:27.287Z</time></trkpt><trkpt lat="43.63354" lon="11.5598983"><ele>312.0</ele><time>2026-04-07T15:32:28.288Z</time></trkpt><trkpt lat="43.6334867" lon="11.5598033"><ele>312.0</ele><time>2026-04-07T15:32:29.287Z</time></trkpt><trkpt lat="43.6334333" lon="11.5597067"><ele>311.4</ele><time>2026-04-07T15:32:30.288Z</time></trkpt><trkpt lat="43.6333767" lon="11.5596067"><ele>310.79999999999995</ele><time>2026-04-07T15:32:31.286Z</time></trkpt><trkpt lat="43.633325" lon="11.559505"><ele>310.2</ele><time>2026-04-07T15:32:32.288Z</time></trkpt><trkpt lat="43.6332667" lon="11.5594033"><ele>309.59999999999997</ele><time>2026-04-07T15:32:33.287Z</time></trkpt><trkpt lat="43.63321" lon="11.5593083"><ele>309.0</ele><time>2026-04-07T15:32:34.287Z</time></trkpt><trkpt lat="43.63315" lon="11.5592017"><ele>309.0</ele><time>2026-04-07T15:32:35.288Z</time></trkpt><trkpt lat="43.6330917" lon="11.5590983"><ele>309.0</ele><time>2026-04-07T15:32:36.288Z</time></trkpt><trkpt lat="43.6330317" lon="11.5589967"><ele>309.0</ele><time>2026-04-07T15:32:37.288Z</time></trkpt><trkpt lat="43.632975" lon="11.5588867"><ele>309.0</ele><time>2026-04-07T15:32:38.288Z</time></trkpt><trkpt lat="43.6329167" lon="11.55878"><ele>309.0</ele><time>2026-04-07T15:32:39.288Z</time></trkpt><trkpt lat="43.6328583" lon="11.5586767"><ele>307.8</ele><time>2026-04-07T15:32:40.287Z</time></trkpt><trkpt lat="43.6327933" lon="11.558585"><ele>306.59999999999997</ele><time>2026-04-07T15:32:41.286Z</time></trkpt><trkpt lat="43.632715" lon="11.55852"><ele>305.4</ele><time>2026-04-07T15:32:42.288Z</time></trkpt><trkpt lat="43.632625" lon="11.55848"><ele>304.2</ele><time>2026-04-07T15:32:43.288Z</time></trkpt><trkpt lat="43.6325283" lon="11.55847"><ele>303.0</ele><time>2026-04-07T15:32:44.29Z</time></trkpt><trkpt lat="43.6324283" lon="11.5584717"><ele>303.0</ele><time>2026-04-07T15:32:45.29Z</time></trkpt><trkpt lat="43.632325" lon="11.5584867"><ele>303.0</ele><time>2026-04-07T15:32:46.29Z</time></trkpt><trkpt lat="43.63222" lon="11.5585067"><ele>303.0</ele><time>2026-04-07T15:32:47.289Z</time></trkpt><trkpt lat="43.632115" lon="11.5585367"><ele>303.0</ele><time>2026-04-07T15:32:48.288Z</time></trkpt><trkpt lat="43.632015" lon="11.55859"><ele>303.0</ele><time>2026-04-07T15:32:49.289Z</time></trkpt><trkpt lat="43.6319167" lon="11.5586617"><ele>304.0</ele><time>2026-04-07T15:32:50.289Z</time></trkpt><trkpt lat="43.6318267" lon="11.55875"><ele>305.0</ele><time>2026-04-07T15:32:51.287Z</time></trkpt><trkpt lat="43.6317433" lon="11.5588433"><ele>306.0</ele><time>2026-04-07T15:32:52.286Z</time></trkpt><trkpt lat="43.63166" lon="11.5589417"><ele>307.0</ele><time>2026-04-07T15:32:53.287Z</time></trkpt><trkpt lat="43.63157" lon="11.55904"><ele>308.0</ele><time>2026-04-07T15:32:54.288Z</time></trkpt><trkpt lat="43.6314867" lon="11.5591367"><ele>308.0</ele><time>2026-04-07T15:32:55.287Z</time></trkpt><trkpt lat="43.631405" lon="11.55923"><ele>308.0</ele><time>2026-04-07T15:32:56.286Z</time></trkpt><trkpt lat="43.63132" lon="11.5593217"><ele>308.0</ele><time>2026-04-07T15:32:57.287Z</time></trkpt><trkpt lat="43.631245" lon="11.55942"><ele>308.0</ele><time>2026-04-07T15:32:58.287Z</time></trkpt><trkpt lat="43.631175" lon="11.5595217"><ele>308.0</ele><time>2026-04-07T15:32:59.287Z</time></trkpt><trkpt lat="43.6311167" lon="11.5596317"><ele>306.0</ele><time>2026-04-07T15:33:00.287Z</time></trkpt><trkpt lat="43.6310733" lon="11.559755"><ele>304.0</ele><time>2026-04-07T15:33:01.287Z</time></trkpt><trkpt lat="43.6310367" lon="11.559885"><ele>302.0</ele><time>2026-04-07T15:33:02.288Z</time></trkpt><trkpt lat="43.631005" lon="11.560015"><ele>300.0</ele><time>2026-04-07T15:33:03.287Z</time></trkpt><trkpt lat="43.6309683" lon="11.56014"><ele>298.0</ele><time>2026-04-07T15:33:04.288Z</time></trkpt><trkpt lat="43.6309133" lon="11.5602467"><ele>298.0</ele><time>2026-04-07T15:33:05.29Z</time></trkpt><trkpt lat="43.63084" lon="11.5603217"><ele>298.0</ele><time>2026-04-07T15:33:06.289Z</time></trkpt><trkpt lat="43.6307533" lon="11.56036"><ele>298.0</ele><time>2026-04-07T15:33:07.289Z</time></trkpt><trkpt lat="43.6306633" lon="11.5603817"><ele>298.0</ele><time>2026-04-07T15:33:08.286Z</time></trkpt><trkpt lat="43.63058" lon="11.560415"><ele>298.0</ele><time>2026-04-07T15:33:09.286Z</time></trkpt><trkpt lat="43.6305" lon="11.5604683"><ele>298.0</ele><time>2026-04-07T15:33:10.286Z</time></trkpt><trkpt lat="43.6304333" lon="11.5605483"><ele>297.2</ele><time>2026-04-07T15:33:11.288Z</time></trkpt><trkpt lat="43.630375" lon="11.5606433"><ele>296.4</ele><time>2026-04-07T15:33:12.287Z</time></trkpt><trkpt lat="43.6303267" lon="11.56075"><ele>295.59999999999997</ele><time>2026-04-07T15:33:13.287Z</time></trkpt><trkpt lat="43.6302833" lon="11.5608683"><ele>294.8</ele><time>2026-04-07T15:33:14.288Z</time></trkpt><trkpt lat="43.6302417" lon="11.56099"><ele>294.0</ele><time>2026-04-07T15:33:15.288Z</time></trkpt><trkpt lat="43.630205" lon="11.5611117"><ele>295.4</ele><time>2026-04-07T15:33:16.288Z</time></trkpt><trkpt lat="43.63017" lon="11.5612383"><ele>296.79999999999995</ele><time>2026-04-07T15:33:17.287Z</time></trkpt><trkpt lat="43.63014" lon="11.5613717"><ele>298.20000000000005</ele><time>2026-04-07T15:33:18.287Z</time></trkpt><trkpt lat="43.6301133" lon="11.5615"><ele>299.6</ele><time>2026-04-07T15:33:19.288Z</time></trkpt><trkpt lat="43.6300867" lon="11.561635"><ele>301.0</ele><time>2026-04-07T15:33:20.287Z</time></trkpt><trkpt lat="43.6300567" lon="11.561765"><ele>301.0</ele><time>2026-04-07T15:33:21.287Z</time></trkpt><trkpt lat="43.63003" lon="11.5618917"><ele>301.0</ele><time>2026-04-07T15:33:22.287Z</time></trkpt><trkpt lat="43.63" lon="11.56202"><ele>301.0</ele><time>2026-04-07T15:33:23.289Z</time></trkpt><trkpt lat="43.62997" lon="11.5621483"><ele>301.0</ele><time>2026-04-07T15:33:24.286Z</time></trkpt><trkpt lat="43.6299417" lon="11.5622767"><ele>301.0</ele><time>2026-04-07T15:33:25.288Z</time></trkpt><trkpt lat="43.629915" lon="11.5624083"><ele>303.2</ele><time>2026-04-07T15:33:26.288Z</time></trkpt><trkpt lat="43.62989" lon="11.56254"><ele>305.40000000000003</ele><time>2026-04-07T15:33:27.287Z</time></trkpt><trkpt lat="43.62987" lon="11.5626717"><ele>307.6</ele><time>2026-04-07T15:33:28.288Z</time></trkpt><trkpt lat="43.6298483" lon="11.5628017"><ele>309.8</ele><time>2026-04-07T15:33:29.29Z</time></trkpt><trkpt lat="43.6298267" lon="11.5629367"><ele>312.0</ele><time>2026-04-07T15:33:30.289Z</time></trkpt><trkpt lat="43.6298033" lon="11.5630717"><ele>312.8333333333333</ele><time>2026-04-07T15:33:31.289Z</time></trkpt><trkpt lat="43.62978" lon="11.5632067"><ele>313.6666666666667</ele><time>2026-04-07T15:33:32.289Z</time></trkpt><trkpt lat="43.6297483" lon="11.563335"><ele>314.5</ele><time>2026-04-07T15:33:33.289Z</time></trkpt><trkpt lat="43.6297017" lon="11.56344"><ele>315.33333333333337</ele><time>2026-04-07T15:33:34.289Z</time></trkpt><trkpt lat="43.62964" lon="11.5635117"><ele>316.1666666666667</ele><time>2026-04-07T15:33:35.289Z</time></trkpt><trkpt lat="43.629565" lon="11.5635367"><ele>317.0</ele><time>2026-04-07T15:33:36.289Z</time></trkpt><trkpt lat="43.6294817" lon="11.5635067"><ele>317.2</ele><time>2026-04-07T15:33:37.291Z</time></trkpt><trkpt lat="43.6294033" lon="11.56344"><ele>317.4</ele><time>2026-04-07T15:33:38.293Z</time></trkpt><trkpt lat="43.6293483" lon="11.56334"><ele>317.6</ele><time>2026-04-07T15:33:39.288Z</time></trkpt><trkpt lat="43.6293183" lon="11.5632133"><ele>317.8</ele><time>2026-04-07T15:33:40.288Z</time></trkpt><trkpt lat="43.6293" lon="11.56308"><ele>318.0</ele><time>2026-04-07T15:33:41.287Z</time></trkpt><trkpt lat="43.6292967" lon="11.562945"><ele>316.6</ele><time>2026-04-07T15:33:42.29Z</time></trkpt><trkpt lat="43.6293" lon="11.562805"><ele>315.20000000000005</ele><time>2026-04-07T15:33:43.288Z</time></trkpt><trkpt lat="43.6292967" lon="11.5626683"><ele>313.8</ele><time>2026-04-07T15:33:44.29Z</time></trkpt><trkpt lat="43.6292783" lon="11.5625333"><ele>312.40000000000003</ele><time>2026-04-07T15:33:45.29Z</time></trkpt><trkpt lat="43.62925" lon="11.5624"><ele>311.0</ele><time>2026-04-07T15:33:46.289Z</time></trkpt><trkpt lat="43.6292133" lon="11.5622667"><ele>311.0</ele><time>2026-04-07T15:33:47.29Z</time></trkpt><trkpt lat="43.6291717" lon="11.5621433"><ele>311.0</ele><time>2026-04-07T15:33:48.288Z</time></trkpt><trkpt lat="43.6291283" lon="11.562015"><ele>311.0</ele><time>2026-04-07T15:33:49.291Z</time></trkpt><trkpt lat="43.6290833" lon="11.5618983"><ele>311.0</ele><time>2026-04-07T15:33:50.289Z</time></trkpt><trkpt lat="43.6290383" lon="11.5617867"><ele>311.0</ele><time>2026-04-07T15:33:51.286Z</time></trkpt><trkpt lat="43.6289983" lon="11.5616767"><ele>310.0</ele><time>2026-04-07T15:33:52.287Z</time></trkpt><trkpt lat="43.6289567" lon="11.5615733"><ele>309.0</ele><time>2026-04-07T15:33:53.287Z</time></trkpt><trkpt lat="43.6289133" lon="11.56147"><ele>308.0</ele><time>2026-04-07T15:33:54.287Z</time></trkpt><trkpt lat="43.6288717" lon="11.5613733"><ele>307.0</ele><time>2026-04-07T15:33:55.288Z</time></trkpt><trkpt lat="43.62883" lon="11.56128"><ele>306.0</ele><time>2026-04-07T15:33:56.287Z</time></trkpt><trkpt lat="43.6287833" lon="11.561195"><ele>305.0</ele><time>2026-04-07T15:33:57.288Z</time></trkpt><trkpt lat="43.6287317" lon="11.5611233"><ele>305.5</ele><time>2026-04-07T15:33:58.289Z</time></trkpt><trkpt lat="43.628675" lon="11.5610667"><ele>306.0</ele><time>2026-04-07T15:33:59.289Z</time></trkpt><trkpt lat="43.6286117" lon="11.5610183"><ele>306.5</ele><time>2026-04-07T15:34:00.287Z</time></trkpt><trkpt lat="43.628545" lon="11.56099"><ele>307.0</ele><time>2026-04-07T15:34:01.287Z</time></trkpt><trkpt lat="43.6284783" lon="11.560985"><ele>307.5</ele><time>2026-04-07T15:34:02.287Z</time></trkpt><trkpt lat="43.6283567" lon="11.561035"><ele>308.0</ele><time>2026-04-07T15:34:04.284Z</time></trkpt><trkpt lat="43.6283033" lon="11.561085"><ele>308.0</ele><time>2026-04-07T15:34:05.287Z</time></trkpt><trkpt lat="43.6282567" lon="11.5611517"><ele>308.0</ele><time>2026-04-07T15:34:06.291Z</time></trkpt><trkpt lat="43.6282133" lon="11.5612283"><ele>308.0</ele><time>2026-04-07T15:34:07.287Z</time></trkpt><trkpt lat="43.6281683" lon="11.5613083"><ele>308.0</ele><time>2026-04-07T15:34:08.287Z</time></trkpt><trkpt lat="43.6281283" lon="11.5613867"><ele>308.0</ele><time>2026-04-07T15:34:09.285Z</time></trkpt><trkpt lat="43.6280883" lon="11.5614667"><ele>308.0</ele><time>2026-04-07T15:34:10.288Z</time></trkpt><trkpt lat="43.628045" lon="11.5615467"><ele>308.0</ele><time>2026-04-07T15:34:11.288Z</time></trkpt><trkpt lat="43.6279967" lon="11.56162"><ele>308.2857142857143</ele><time>2026-04-07T15:34:12.287Z</time></trkpt><trkpt lat="43.62794" lon="11.5616833"><ele>308.57142857142856</ele><time>2026-04-07T15:34:13.287Z</time></trkpt><trkpt lat="43.6278767" lon="11.5617317"><ele>308.8571428571429</ele><time>2026-04-07T15:34:14.288Z</time></trkpt><trkpt lat="43.6278067" lon="11.561755"><ele>309.1428571428571</ele><time>2026-04-07T15:34:15.285Z</time></trkpt><trkpt lat="43.6277283" lon="11.561755"><ele>309.42857142857144</ele><time>2026-04-07T15:34:16.286Z</time></trkpt><trkpt lat="43.6276583" lon="11.561735"><ele>309.7142857142857</ele><time>2026-04-07T15:34:17.288Z</time></trkpt><trkpt lat="43.6275833" lon="11.5617"><ele>310.0</ele><time>2026-04-07T15:34:18.287Z</time></trkpt><trkpt lat="43.62751" lon="11.56166"><ele>310.0</ele><time>2026-04-07T15:34:19.288Z</time></trkpt><trkpt lat="43.6274383" lon="11.561625"><ele>310.0</ele><time>2026-04-07T15:34:20.287Z</time></trkpt><trkpt lat="43.62736" lon="11.5616"><ele>310.0</ele><time>2026-04-07T15:34:21.286Z</time></trkpt><trkpt lat="43.6272817" lon="11.56159"><ele>310.0</ele><time>2026-04-07T15:34:22.287Z</time></trkpt><trkpt lat="43.6271983" lon="11.561595"><ele>310.0</ele><time>2026-04-07T15:34:23.288Z</time></trkpt><trkpt lat="43.627115" lon="11.5616067"><ele>310.0</ele><time>2026-04-07T15:34:24.286Z</time></trkpt><trkpt lat="43.627025" lon="11.56162"><ele>309.6</ele><time>2026-04-07T15:34:25.287Z</time></trkpt><trkpt lat="43.626945" lon="11.5616317"><ele>309.2</ele><time>2026-04-07T15:34:26.288Z</time></trkpt><trkpt lat="43.626855" lon="11.5616467"><ele>308.8</ele><time>2026-04-07T15:34:27.285Z</time></trkpt><trkpt lat="43.6267617" lon="11.56166"><ele>308.4</ele><time>2026-04-07T15:34:28.287Z</time></trkpt><trkpt lat="43.626665" lon="11.561675"><ele>308.0</ele><time>2026-04-07T15:34:29.288Z</time></trkpt><trkpt lat="43.626565" lon="11.56169"><ele>308.0</ele><time>2026-04-07T15:34:30.288Z</time></trkpt><trkpt lat="43.62647" lon="11.5617067"><ele>308.0</ele><time>2026-04-07T15:34:31.287Z</time></trkpt><trkpt lat="43.626375" lon="11.5617217"><ele>308.0</ele><time>2026-04-07T15:34:32.287Z</time></trkpt><trkpt lat="43.6262833" lon="11.5617467"><ele>308.0</ele><time>2026-04-07T15:34:33.287Z</time></trkpt><trkpt lat="43.6262033" lon="11.5617883"><ele>308.0</ele><time>2026-04-07T15:34:34.287Z</time></trkpt><trkpt lat="43.6261283" lon="11.5618483"><ele>306.6666666666667</ele><time>2026-04-07T15:34:35.287Z</time></trkpt><trkpt lat="43.6260633" lon="11.5619317"><ele>305.33333333333337</ele><time>2026-04-07T15:34:36.287Z</time></trkpt><trkpt lat="43.6260067" lon="11.5620267"><ele>304.0</ele><time>2026-04-07T15:34:37.288Z</time></trkpt><trkpt lat="43.6259783" lon="11.562135"><ele>302.6666666666667</ele><time>2026-04-07T15:34:38.287Z</time></trkpt><trkpt lat="43.6259733" lon="11.5622517"><ele>301.3333333333333</ele><time>2026-04-07T15:34:39.285Z</time></trkpt><trkpt lat="43.6259783" lon="11.5623717"><ele>300.0</ele><time>2026-04-07T15:34:40.287Z</time></trkpt><trkpt lat="43.6259833" lon="11.5624883"><ele>300.0</ele><time>2026-04-07T15:34:41.286Z</time></trkpt><trkpt lat="43.6259733" lon="11.5626017"><ele>300.0</ele><time>2026-04-07T15:34:42.286Z</time></trkpt><trkpt lat="43.6259483" lon="11.56271"><ele>300.0</ele><time>2026-04-07T15:34:43.287Z</time></trkpt><trkpt lat="43.625905" lon="11.5628017"><ele>300.0</ele><time>2026-04-07T15:34:44.289Z</time></trkpt><trkpt lat="43.6258383" lon="11.56286"><ele>300.0</ele><time>2026-04-07T15:34:45.288Z</time></trkpt><trkpt lat="43.6257733" lon="11.5628967"><ele>300.0</ele><time>2026-04-07T15:34:46.286Z</time></trkpt><trkpt lat="43.625685" lon="11.5628917"><ele>300.1666666666667</ele><time>2026-04-07T15:34:47.286Z</time></trkpt><trkpt lat="43.6255983" lon="11.5628917"><ele>300.3333333333333</ele><time>2026-04-07T15:34:48.286Z</time></trkpt><trkpt lat="43.625515" lon="11.5628917"><ele>300.5</ele><time>2026-04-07T15:34:49.286Z</time></trkpt><trkpt lat="43.6254333" lon="11.5628933"><ele>300.66666666666663</ele><time>2026-04-07T15:34:50.287Z</time></trkpt><trkpt lat="43.6253533" lon="11.5628867"><ele>300.8333333333333</ele><time>2026-04-07T15:34:51.287Z</time></trkpt><trkpt lat="43.6252767" lon="11.5628583"><ele>301.0</ele><time>2026-04-07T15:34:52.287Z</time></trkpt><trkpt lat="43.6252117" lon="11.5628083"><ele>301.16666666666663</ele><time>2026-04-07T15:34:53.287Z</time></trkpt><trkpt lat="43.62515" lon="11.5627417"><ele>301.3333333333333</ele><time>2026-04-07T15:34:54.286Z</time></trkpt><trkpt lat="43.62509" lon="11.5626667"><ele>301.5</ele><time>2026-04-07T15:34:55.286Z</time></trkpt><trkpt lat="43.6250283" lon="11.56259"><ele>301.6666666666667</ele><time>2026-04-07T15:34:56.287Z</time></trkpt><trkpt lat="43.624965" lon="11.5625133"><ele>301.83333333333337</ele><time>2026-04-07T15:34:57.287Z</time></trkpt><trkpt lat="43.6249017" lon="11.56244"><ele>302.0</ele><time>2026-04-07T15:34:58.287Z</time></trkpt><trkpt lat="43.6248417" lon="11.562365"><ele>302.0</ele><time>2026-04-07T15:34:59.288Z</time></trkpt><trkpt lat="43.624775" lon="11.5622967"><ele>302.0</ele><time>2026-04-07T15:35:00.287Z</time></trkpt><trkpt lat="43.6247017" lon="11.5622367"><ele>302.0</ele><time>2026-04-07T15:35:01.286Z</time></trkpt><trkpt lat="43.624625" lon="11.56218"><ele>302.0</ele><time>2026-04-07T15:35:02.286Z</time></trkpt><trkpt lat="43.6245433" lon="11.56214"><ele>302.0</ele><time>2026-04-07T15:35:03.286Z</time></trkpt><trkpt lat="43.6244633" lon="11.5621033"><ele>302.0</ele><time>2026-04-07T15:35:04.287Z</time></trkpt><trkpt lat="43.62438" lon="11.562075"><ele>302.5</ele><time>2026-04-07T15:35:05.286Z</time></trkpt><trkpt lat="43.624295" lon="11.56205"><ele>303.0</ele><time>2026-04-07T15:35:06.286Z</time></trkpt><trkpt lat="43.6242067" lon="11.5620283"><ele>303.5</ele><time>2026-04-07T15:35:07.287Z</time></trkpt><trkpt lat="43.62412" lon="11.5620017"><ele>304.0</ele><time>2026-04-07T15:35:08.286Z</time></trkpt><trkpt lat="43.6240333" lon="11.5619683"><ele>304.5</ele><time>2026-04-07T15:35:09.286Z</time></trkpt><trkpt lat="43.6239517" lon="11.56192"><ele>305.0</ele><time>2026-04-07T15:35:10.287Z</time></trkpt><trkpt lat="43.62388" lon="11.5618583"><ele>303.8</ele><time>2026-04-07T15:35:11.289Z</time></trkpt><trkpt lat="43.6238067" lon="11.5617833"><ele>302.6</ele><time>2026-04-07T15:35:12.287Z</time></trkpt><trkpt lat="43.6237417" lon="11.561695"><ele>301.4</ele><time>2026-04-07T15:35:13.286Z</time></trkpt><trkpt lat="43.6236767" lon="11.5615983"><ele>300.2</ele><time>2026-04-07T15:35:14.287Z</time></trkpt><trkpt lat="43.623615" lon="11.5615"><ele>299.0</ele><time>2026-04-07T15:35:15.287Z</time></trkpt><trkpt lat="43.6235483" lon="11.5613983"><ele>299.0</ele><time>2026-04-07T15:35:16.287Z</time></trkpt><trkpt lat="43.623485" lon="11.5612917"><ele>299.0</ele><time>2026-04-07T15:35:17.286Z</time></trkpt><trkpt lat="43.6234217" lon="11.56118"><ele>299.0</ele><time>2026-04-07T15:35:18.287Z</time></trkpt><trkpt lat="43.6233583" lon="11.5610633"><ele>299.0</ele><time>2026-04-07T15:35:19.287Z</time></trkpt><trkpt lat="43.6232967" lon="11.5609467"><ele>299.0</ele><time>2026-04-07T15:35:20.287Z</time></trkpt><trkpt lat="43.6232433" lon="11.560825"><ele>298.2</ele><time>2026-04-07T15:35:21.286Z</time></trkpt><trkpt lat="43.6231917" lon="11.5607033"><ele>297.4</ele><time>2026-04-07T15:35:22.285Z</time></trkpt><trkpt lat="43.6231383" lon="11.5605767"><ele>296.6</ele><time>2026-04-07T15:35:23.286Z</time></trkpt><trkpt lat="43.62308" lon="11.5604483"><ele>295.8</ele><time>2026-04-07T15:35:24.289Z</time></trkpt><trkpt lat="43.623025" lon="11.5603183"><ele>295.0</ele><time>2026-04-07T15:35:25.288Z</time></trkpt><trkpt lat="43.6229733" lon="11.560185"><ele>294.2</ele><time>2026-04-07T15:35:26.289Z</time></trkpt><trkpt lat="43.6229217" lon="11.5600567"><ele>293.4</ele><time>2026-04-07T15:35:27.29Z</time></trkpt><trkpt lat="43.622865" lon="11.5599333"><ele>292.6</ele><time>2026-04-07T15:35:28.29Z</time></trkpt><trkpt lat="43.6228067" lon="11.5598233"><ele>291.8</ele><time>2026-04-07T15:35:29.289Z</time></trkpt><trkpt lat="43.622745" lon="11.5597267"><ele>291.0</ele><time>2026-04-07T15:35:30.289Z</time></trkpt><trkpt lat="43.6226783" lon="11.5596467"><ele>291.0</ele><time>2026-04-07T15:35:31.287Z</time></trkpt><trkpt lat="43.622615" lon="11.5595683"><ele>291.0</ele><time>2026-04-07T15:35:32.291Z</time></trkpt><trkpt lat="43.62256" lon="11.559495"><ele>291.0</ele><time>2026-04-07T15:35:33.287Z</time></trkpt><trkpt lat="43.6225183" lon="11.5594183"><ele>291.0</ele><time>2026-04-07T15:35:34.286Z</time></trkpt><trkpt lat="43.62249" lon="11.55933"><ele>291.0</ele><time>2026-04-07T15:35:35.288Z</time></trkpt><trkpt lat="43.62247" lon="11.5592417"><ele>291.0</ele><time>2026-04-07T15:35:36.288Z</time></trkpt><trkpt lat="43.622405" lon="11.559105"><ele>290.0</ele><time>2026-04-07T15:35:38.288Z</time></trkpt><trkpt lat="43.6222917" lon="11.5590733"><ele>289.0</ele><time>2026-04-07T15:35:40.289Z</time></trkpt><trkpt lat="43.6222267" lon="11.5591133"><ele>288.0</ele><time>2026-04-07T15:35:41.289Z</time></trkpt><trkpt lat="43.622175" lon="11.559175"><ele>287.0</ele><time>2026-04-07T15:35:42.29Z</time></trkpt><trkpt lat="43.62208" lon="11.55929"><ele>286.0</ele><time>2026-04-07T15:35:44.292Z</time></trkpt><trkpt lat="43.6219667" lon="11.5593633"><ele>285.99999999999994</ele><time>2026-04-07T15:35:46.287Z</time></trkpt><trkpt lat="43.6219017" lon="11.559395"><ele>286.0</ele><time>2026-04-07T15:35:47.286Z</time></trkpt><trkpt lat="43.621835" lon="11.55942"><ele>286.0</ele><time>2026-04-07T15:35:48.287Z</time></trkpt><trkpt lat="43.6217683" lon="11.5594417"><ele>286.0</ele><time>2026-04-07T15:35:49.287Z</time></trkpt><trkpt lat="43.6217067" lon="11.559465"><ele>286.0</ele><time>2026-04-07T15:35:50.287Z</time></trkpt><trkpt lat="43.6216433" lon="11.559495"><ele>285.99999999999994</ele><time>2026-04-07T15:35:51.287Z</time></trkpt><trkpt lat="43.62158" lon="11.5595317"><ele>286.0</ele><time>2026-04-07T15:35:52.286Z</time></trkpt><trkpt lat="43.6215167" lon="11.5595817"><ele>286.16666666666663</ele><time>2026-04-07T15:35:53.288Z</time></trkpt><trkpt lat="43.6214617" lon="11.5596467"><ele>286.3333333333333</ele><time>2026-04-07T15:35:54.287Z</time></trkpt><trkpt lat="43.6214067" lon="11.5597167"><ele>286.5</ele><time>2026-04-07T15:35:55.287Z</time></trkpt><trkpt lat="43.621355" lon="11.5597933"><ele>286.6666666666667</ele><time>2026-04-07T15:35:56.287Z</time></trkpt><trkpt lat="43.621295" lon="11.5598817"><ele>286.83333333333337</ele><time>2026-04-07T15:35:57.287Z</time></trkpt><trkpt lat="43.6212367" lon="11.5599683"><ele>287.0</ele><time>2026-04-07T15:35:58.287Z</time></trkpt><trkpt lat="43.62118" lon="11.5600583"><ele>287.0</ele><time>2026-04-07T15:35:59.286Z</time></trkpt><trkpt lat="43.621125" lon="11.5601483"><ele>287.0</ele><time>2026-04-07T15:36:00.288Z</time></trkpt><trkpt lat="43.6210667" lon="11.560245"><ele>287.0</ele><time>2026-04-07T15:36:01.287Z</time></trkpt><trkpt lat="43.6210167" lon="11.5603467"><ele>287.0</ele><time>2026-04-07T15:36:02.287Z</time></trkpt><trkpt lat="43.6209567" lon="11.5604533"><ele>287.0</ele><time>2026-04-07T15:36:03.288Z</time></trkpt><trkpt lat="43.620905" lon="11.560565"><ele>287.0</ele><time>2026-04-07T15:36:04.286Z</time></trkpt><trkpt lat="43.620855" lon="11.5606783"><ele>287.0</ele><time>2026-04-07T15:36:05.287Z</time></trkpt><trkpt lat="43.6207983" lon="11.5607917"><ele>287.0</ele><time>2026-04-07T15:36:06.287Z</time></trkpt><trkpt lat="43.6207417" lon="11.5609133"><ele>287.0</ele><time>2026-04-07T15:36:07.287Z</time></trkpt><trkpt lat="43.62069" lon="11.561035"><ele>287.0</ele><time>2026-04-07T15:36:08.288Z</time></trkpt><trkpt lat="43.6206333" lon="11.56116"><ele>287.2</ele><time>2026-04-07T15:36:09.286Z</time></trkpt><trkpt lat="43.62058" lon="11.5612867"><ele>287.4</ele><time>2026-04-07T15:36:10.286Z</time></trkpt><trkpt lat="43.6205133" lon="11.5614117"><ele>287.6</ele><time>2026-04-07T15:36:11.287Z</time></trkpt><trkpt lat="43.6204683" lon="11.5615433"><ele>287.8</ele><time>2026-04-07T15:36:12.289Z</time></trkpt><trkpt lat="43.6204183" lon="11.561675"><ele>288.0</ele><time>2026-04-07T15:36:13.289Z</time></trkpt><trkpt lat="43.620365" lon="11.561805"><ele>286.8</ele><time>2026-04-07T15:36:14.287Z</time></trkpt><trkpt lat="43.6203117" lon="11.5619367"><ele>285.6</ele><time>2026-04-07T15:36:15.286Z</time></trkpt><trkpt lat="43.6202567" lon="11.56207"><ele>284.4</ele><time>2026-04-07T15:36:16.286Z</time></trkpt><trkpt lat="43.6201983" lon="11.5622017"><ele>283.2</ele><time>2026-04-07T15:36:17.286Z</time></trkpt><trkpt lat="43.6201417" lon="11.5623333"><ele>282.0</ele><time>2026-04-07T15:36:18.288Z</time></trkpt><trkpt lat="43.6200833" lon="11.5624667"><ele>282.0</ele><time>2026-04-07T15:36:19.288Z</time></trkpt><trkpt lat="43.620025" lon="11.5626"><ele>282.0</ele><time>2026-04-07T15:36:20.291Z</time></trkpt><trkpt lat="43.6199583" lon="11.562735"><ele>282.0</ele><time>2026-04-07T15:36:21.288Z</time></trkpt><trkpt lat="43.6198917" lon="11.5628667"><ele>282.0</ele><time>2026-04-07T15:36:22.288Z</time></trkpt><trkpt lat="43.6198133" lon="11.5629817"><ele>282.0</ele><time>2026-04-07T15:36:23.287Z</time></trkpt><trkpt lat="43.6197283" lon="11.5630717"><ele>282.0</ele><time>2026-04-07T15:36:24.288Z</time></trkpt><trkpt lat="43.6196317" lon="11.5631383"><ele>282.0</ele><time>2026-04-07T15:36:25.287Z</time></trkpt><trkpt lat="43.6195333" lon="11.56319"><ele>282.0</ele><time>2026-04-07T15:36:26.29Z</time></trkpt><trkpt lat="43.6194333" lon="11.56323"><ele>282.0</ele><time>2026-04-07T15:36:27.288Z</time></trkpt><trkpt lat="43.6193367" lon="11.56326"><ele>281.0</ele><time>2026-04-07T15:36:28.29Z</time></trkpt><trkpt lat="43.6192367" lon="11.563285"><ele>280.0</ele><time>2026-04-07T15:36:29.289Z</time></trkpt><trkpt lat="43.6191383" lon="11.5633083"><ele>279.0</ele><time>2026-04-07T15:36:30.289Z</time></trkpt><trkpt lat="43.61905" lon="11.5633367"><ele>278.0</ele><time>2026-04-07T15:36:31.291Z</time></trkpt><trkpt lat="43.6189633" lon="11.5633717"><ele>277.0</ele><time>2026-04-07T15:36:32.289Z</time></trkpt><trkpt lat="43.6188917" lon="11.56342"><ele>277.0</ele><time>2026-04-07T15:36:33.288Z</time></trkpt><trkpt lat="43.6188183" lon="11.5634783"><ele>277.0</ele><time>2026-04-07T15:36:34.288Z</time></trkpt><trkpt lat="43.61876" lon="11.5635467"><ele>277.0</ele><time>2026-04-07T15:36:35.288Z</time></trkpt><trkpt lat="43.6187" lon="11.56362"><ele>277.0</ele><time>2026-04-07T15:36:36.288Z</time></trkpt><trkpt lat="43.61864" lon="11.5636933"><ele>277.0</ele><time>2026-04-07T15:36:37.286Z</time></trkpt><trkpt lat="43.618585" lon="11.5637533"><ele>277.0</ele><time>2026-04-07T15:36:38.287Z</time></trkpt><trkpt lat="43.6185267" lon="11.5638117"><ele>278.16666666666663</ele><time>2026-04-07T15:36:39.286Z</time></trkpt><trkpt lat="43.6184717" lon="11.5638617"><ele>279.3333333333333</ele><time>2026-04-07T15:36:40.287Z</time></trkpt><trkpt lat="43.61841" lon="11.5638983"><ele>280.5</ele><time>2026-04-07T15:36:41.289Z</time></trkpt><trkpt lat="43.6183483" lon="11.5639217"><ele>281.6666666666667</ele><time>2026-04-07T15:36:42.289Z</time></trkpt><trkpt lat="43.6182833" lon="11.56394"><ele>282.83333333333337</ele><time>2026-04-07T15:36:43.287Z</time></trkpt><trkpt lat="43.6181633" lon="11.5639617"><ele>284.0</ele><time>2026-04-07T15:36:45.286Z</time></trkpt><trkpt lat="43.6180433" lon="11.5639717"><ele>284.0</ele><time>2026-04-07T15:36:47.286Z</time></trkpt><trkpt lat="43.617925" lon="11.5639883"><ele>284.0</ele><time>2026-04-07T15:36:49.287Z</time></trkpt><trkpt lat="43.617815" lon="11.5640267"><ele>284.0</ele><time>2026-04-07T15:36:51.286Z</time></trkpt><trkpt lat="43.61771" lon="11.5640783"><ele>284.0</ele><time>2026-04-07T15:36:53.288Z</time></trkpt><trkpt lat="43.617605" lon="11.5641533"><ele>284.0</ele><time>2026-04-07T15:36:55.288Z</time></trkpt><trkpt lat="43.6175483" lon="11.5641983"><ele>284.0</ele><time>2026-04-07T15:36:56.287Z</time></trkpt><trkpt lat="43.61745" lon="11.5642983"><ele>284.0</ele><time>2026-04-07T15:36:58.286Z</time></trkpt><trkpt lat="43.6173633" lon="11.56441"><ele>284.0</ele><time>2026-04-07T15:37:00.287Z</time></trkpt><trkpt lat="43.6173183" lon="11.5644733"><ele>284.0</ele><time>2026-04-07T15:37:01.287Z</time></trkpt><trkpt lat="43.617245" lon="11.56461"><ele>284.42857142857144</ele><time>2026-04-07T15:37:03.287Z</time></trkpt><trkpt lat="43.61722" lon="11.56469"><ele>284.85714285714283</ele><time>2026-04-07T15:37:04.287Z</time></trkpt><trkpt lat="43.617195" lon="11.56478"><ele>285.2857142857143</ele><time>2026-04-07T15:37:05.289Z</time></trkpt><trkpt lat="43.61717" lon="11.5648717"><ele>285.7142857142857</ele><time>2026-04-07T15:37:06.286Z</time></trkpt><trkpt lat="43.6171467" lon="11.5649717"><ele>286.1428571428571</ele><time>2026-04-07T15:37:07.288Z</time></trkpt><trkpt lat="43.61712" lon="11.5650767"><ele>286.57142857142856</ele><time>2026-04-07T15:37:08.289Z</time></trkpt><trkpt lat="43.617095" lon="11.565185"><ele>287.0</ele><time>2026-04-07T15:37:09.287Z</time></trkpt><trkpt lat="43.6170617" lon="11.565295"><ele>286.6666666666667</ele><time>2026-04-07T15:37:10.287Z</time></trkpt><trkpt lat="43.61702" lon="11.5654017"><ele>286.33333333333337</ele><time>2026-04-07T15:37:11.287Z</time></trkpt><trkpt lat="43.6169633" lon="11.5654917"><ele>286.0</ele><time>2026-04-07T15:37:12.288Z</time></trkpt><trkpt lat="43.6168933" lon="11.5655633"><ele>285.6666666666667</ele><time>2026-04-07T15:37:13.287Z</time></trkpt><trkpt lat="43.616815" lon="11.5656133"><ele>285.3333333333333</ele><time>2026-04-07T15:37:14.287Z</time></trkpt><trkpt lat="43.616735" lon="11.5656433"><ele>285.0</ele><time>2026-04-07T15:37:15.287Z</time></trkpt><trkpt lat="43.616655" lon="11.5656567"><ele>285.0</ele><time>2026-04-07T15:37:16.289Z</time></trkpt><trkpt lat="43.616575" lon="11.5656617"><ele>285.0</ele><time>2026-04-07T15:37:17.289Z</time></trkpt><trkpt lat="43.6164967" lon="11.565665"><ele>285.0</ele><time>2026-04-07T15:37:18.288Z</time></trkpt><trkpt lat="43.6164183" lon="11.5656717"><ele>285.0</ele><time>2026-04-07T15:37:19.29Z</time></trkpt><trkpt lat="43.6163467" lon="11.5656817"><ele>285.0</ele><time>2026-04-07T15:37:20.289Z</time></trkpt><trkpt lat="43.616275" lon="11.56569"><ele>285.0</ele><time>2026-04-07T15:37:21.287Z</time></trkpt><trkpt lat="43.616205" lon="11.5657"><ele>284.6666666666667</ele><time>2026-04-07T15:37:22.288Z</time></trkpt><trkpt lat="43.61614" lon="11.5657083"><ele>284.3333333333333</ele><time>2026-04-07T15:37:23.287Z</time></trkpt><trkpt lat="43.61607" lon="11.565715"><ele>284.0</ele><time>2026-04-07T15:37:24.287Z</time></trkpt><trkpt lat="43.616005" lon="11.565725"><ele>283.66666666666663</ele><time>2026-04-07T15:37:25.287Z</time></trkpt><trkpt lat="43.6158883" lon="11.565755"><ele>283.3333333333333</ele><time>2026-04-07T15:37:27.287Z</time></trkpt><trkpt lat="43.6157733" lon="11.56581"><ele>283.0</ele><time>2026-04-07T15:37:29.287Z</time></trkpt><trkpt lat="43.615715" lon="11.56585"><ele>283.0</ele><time>2026-04-07T15:37:30.288Z</time></trkpt><trkpt lat="43.6156617" lon="11.5658967"><ele>283.0</ele><time>2026-04-07T15:37:31.289Z</time></trkpt><trkpt lat="43.615605" lon="11.5659533"><ele>283.0</ele><time>2026-04-07T15:37:32.287Z</time></trkpt><trkpt lat="43.6155583" lon="11.5660183"><ele>283.0</ele><time>2026-04-07T15:37:33.287Z</time></trkpt><trkpt lat="43.6155167" lon="11.5660917"><ele>283.0</ele><time>2026-04-07T15:37:34.287Z</time></trkpt><trkpt lat="43.6154817" lon="11.5661683"><ele>283.0</ele><time>2026-04-07T15:37:35.287Z</time></trkpt><trkpt lat="43.6154533" lon="11.5662467"><ele>283.0</ele><time>2026-04-07T15:37:36.287Z</time></trkpt><trkpt lat="43.6154267" lon="11.5663267"><ele>283.0</ele><time>2026-04-07T15:37:37.286Z</time></trkpt><trkpt lat="43.6154017" lon="11.5664067"><ele>283.0</ele><time>2026-04-07T15:37:38.289Z</time></trkpt><trkpt lat="43.6153783" lon="11.5664883"><ele>283.0</ele><time>2026-04-07T15:37:39.287Z</time></trkpt><trkpt lat="43.6153533" lon="11.5665733"><ele>283.0</ele><time>2026-04-07T15:37:40.286Z</time></trkpt><trkpt lat="43.61533" lon="11.56666"><ele>283.0</ele><time>2026-04-07T15:37:41.288Z</time></trkpt><trkpt lat="43.615305" lon="11.56674"><ele>283.0</ele><time>2026-04-07T15:37:42.287Z</time></trkpt><trkpt lat="43.6152767" lon="11.5668183"><ele>283.0</ele><time>2026-04-07T15:37:43.286Z</time></trkpt><trkpt lat="43.6152517" lon="11.5668983"><ele>283.0</ele><time>2026-04-07T15:37:44.288Z</time></trkpt><trkpt lat="43.61523" lon="11.5669817"><ele>283.0</ele><time>2026-04-07T15:37:45.286Z</time></trkpt><trkpt lat="43.6152067" lon="11.5670667"><ele>283.0</ele><time>2026-04-07T15:37:46.288Z</time></trkpt><trkpt lat="43.6151833" lon="11.5671483"><ele>283.0</ele><time>2026-04-07T15:37:47.288Z</time></trkpt><trkpt lat="43.6151633" lon="11.5672317"><ele>283.0</ele><time>2026-04-07T15:37:48.288Z</time></trkpt><trkpt lat="43.615145" lon="11.5673183"><ele>283.0</ele><time>2026-04-07T15:37:49.288Z</time></trkpt><trkpt lat="43.6151267" lon="11.5674033"><ele>283.0</ele><time>2026-04-07T15:37:50.288Z</time></trkpt><trkpt lat="43.61511" lon="11.5674883"><ele>284.2</ele><time>2026-04-07T15:37:51.288Z</time></trkpt><trkpt lat="43.6150917" lon="11.5676533"><ele>285.4</ele><time>2026-04-07T15:37:53.287Z</time></trkpt><trkpt lat="43.6150833" lon="11.567815"><ele>286.59999999999997</ele><time>2026-04-07T15:37:55.288Z</time></trkpt><trkpt lat="43.6150867" lon="11.5679867"><ele>287.8</ele><time>2026-04-07T15:37:57.286Z</time></trkpt><trkpt lat="43.6150917" lon="11.5680783"><ele>289.0</ele><time>2026-04-07T15:37:58.286Z</time></trkpt><trkpt lat="43.6150933" lon="11.5681683"><ele>290.0</ele><time>2026-04-07T15:37:59.288Z</time></trkpt><trkpt lat="43.6150933" lon="11.5682583"><ele>291.0</ele><time>2026-04-07T15:38:00.288Z</time></trkpt><trkpt lat="43.6150917" lon="11.568435"><ele>292.0</ele><time>2026-04-07T15:38:02.287Z</time></trkpt><trkpt lat="43.6150883" lon="11.56853"><ele>293.0</ele><time>2026-04-07T15:38:03.288Z</time></trkpt><trkpt lat="43.6150867" lon="11.5686217"><ele>294.0</ele><time>2026-04-07T15:38:04.288Z</time></trkpt><trkpt lat="43.61508" lon="11.5687183"><ele>295.0</ele><time>2026-04-07T15:38:05.286Z</time></trkpt><trkpt lat="43.61507" lon="11.568815"><ele>295.14285714285717</ele><time>2026-04-07T15:38:06.291Z</time></trkpt><trkpt lat="43.6150567" lon="11.5689133"><ele>295.2857142857143</ele><time>2026-04-07T15:38:07.289Z</time></trkpt><trkpt lat="43.6150467" lon="11.56901"><ele>295.42857142857144</ele><time>2026-04-07T15:38:08.287Z</time></trkpt><trkpt lat="43.61503" lon="11.5691083"><ele>295.57142857142856</ele><time>2026-04-07T15:38:09.288Z</time></trkpt><trkpt lat="43.615" lon="11.5692"><ele>295.7142857142857</ele><time>2026-04-07T15:38:10.289Z</time></trkpt><trkpt lat="43.614955" lon="11.5692733"><ele>295.8571428571429</ele><time>2026-04-07T15:38:11.288Z</time></trkpt><trkpt lat="43.6148983" lon="11.569325"><ele>296.0</ele><time>2026-04-07T15:38:12.288Z</time></trkpt><trkpt lat="43.6147733" lon="11.5692917"><ele>296.0</ele><time>2026-04-07T15:38:14.288Z</time></trkpt><trkpt lat="43.61473" lon="11.56922"><ele>296.0</ele><time>2026-04-07T15:38:15.288Z</time></trkpt><trkpt lat="43.6146883" lon="11.5691167"><ele>296.0</ele><time>2026-04-07T15:38:16.288Z</time></trkpt><trkpt lat="43.6146483" lon="11.569015"><ele>296.0</ele><time>2026-04-07T15:38:17.288Z</time></trkpt><trkpt lat="43.6146033" lon="11.56892"><ele>296.0</ele><time>2026-04-07T15:38:18.288Z</time></trkpt><trkpt lat="43.61455" lon="11.56885"><ele>296.0</ele><time>2026-04-07T15:38:19.287Z</time></trkpt><trkpt lat="43.6144867" lon="11.5688"><ele>296.42857142857144</ele><time>2026-04-07T15:38:20.287Z</time></trkpt><trkpt lat="43.6144167" lon="11.5687683"><ele>296.85714285714283</ele><time>2026-04-07T15:38:21.287Z</time></trkpt><trkpt lat="43.6143433" lon="11.56876"><ele>297.2857142857143</ele><time>2026-04-07T15:38:22.288Z</time></trkpt><trkpt lat="43.61427" lon="11.5687683"><ele>297.7142857142857</ele><time>2026-04-07T15:38:23.287Z</time></trkpt><trkpt lat="43.614195" lon="11.568785"><ele>298.14285714285717</ele><time>2026-04-07T15:38:24.288Z</time></trkpt><trkpt lat="43.6141267" lon="11.5688083"><ele>298.57142857142856</ele><time>2026-04-07T15:38:25.287Z</time></trkpt><trkpt lat="43.614055" lon="11.5688417"><ele>299.0</ele><time>2026-04-07T15:38:26.291Z</time></trkpt><trkpt lat="43.6139933" lon="11.5688817"><ele>299.0</ele><time>2026-04-07T15:38:27.29Z</time></trkpt><trkpt lat="43.613925" lon="11.5689267"><ele>299.0</ele><time>2026-04-07T15:38:28.289Z</time></trkpt><trkpt lat="43.6138633" lon="11.5689717"><ele>299.0</ele><time>2026-04-07T15:38:29.288Z</time></trkpt><trkpt lat="43.6138" lon="11.5690183"><ele>299.0</ele><time>2026-04-07T15:38:30.289Z</time></trkpt><trkpt lat="43.613735" lon="11.569065"><ele>299.0</ele><time>2026-04-07T15:38:31.291Z</time></trkpt><trkpt lat="43.6136717" lon="11.569115"><ele>299.0</ele><time>2026-04-07T15:38:32.29Z</time></trkpt><trkpt lat="43.6136083" lon="11.5691667"><ele>299.0</ele><time>2026-04-07T15:38:33.289Z</time></trkpt><trkpt lat="43.613545" lon="11.5692167"><ele>298.6666666666667</ele><time>2026-04-07T15:38:34.29Z</time></trkpt><trkpt lat="43.6134767" lon="11.5692667"><ele>298.33333333333337</ele><time>2026-04-07T15:38:35.288Z</time></trkpt><trkpt lat="43.6134117" lon="11.569315"><ele>298.0</ele><time>2026-04-07T15:38:36.291Z</time></trkpt><trkpt lat="43.61334" lon="11.5693683"><ele>297.6666666666667</ele><time>2026-04-07T15:38:37.289Z</time></trkpt><trkpt lat="43.61327" lon="11.5694167"><ele>297.3333333333333</ele><time>2026-04-07T15:38:38.289Z</time></trkpt><trkpt lat="43.6132" lon="11.5694667"><ele>297.0</ele><time>2026-04-07T15:38:39.286Z</time></trkpt><trkpt lat="43.61313" lon="11.5695167"><ele>296.6666666666667</ele><time>2026-04-07T15:38:40.289Z</time></trkpt><trkpt lat="43.6130633" lon="11.5695667"><ele>296.3333333333333</ele><time>2026-04-07T15:38:41.291Z</time></trkpt><trkpt lat="43.612995" lon="11.5696233"><ele>296.0</ele><time>2026-04-07T15:38:42.29Z</time></trkpt><trkpt lat="43.6129317" lon="11.569685"><ele>295.66666666666663</ele><time>2026-04-07T15:38:43.289Z</time></trkpt><trkpt lat="43.61287" lon="11.5697533"><ele>295.3333333333333</ele><time>2026-04-07T15:38:44.289Z</time></trkpt><trkpt lat="43.6128167" lon="11.5698333"><ele>295.0</ele><time>2026-04-07T15:38:45.289Z</time></trkpt><trkpt lat="43.612765" lon="11.5699167"><ele>295.0</ele><time>2026-04-07T15:38:46.287Z</time></trkpt><trkpt lat="43.61272" lon="11.570005"><ele>295.0</ele><time>2026-04-07T15:38:47.289Z</time></trkpt><trkpt lat="43.6126733" lon="11.570095"><ele>295.0</ele><time>2026-04-07T15:38:48.288Z</time></trkpt><trkpt lat="43.6126267" lon="11.57018"><ele>295.0</ele><time>2026-04-07T15:38:49.288Z</time></trkpt><trkpt lat="43.61258" lon="11.5702717"><ele>295.0</ele><time>2026-04-07T15:38:50.288Z</time></trkpt><trkpt lat="43.6125317" lon="11.5703533"><ele>295.0</ele><time>2026-04-07T15:38:51.288Z</time></trkpt><trkpt lat="43.61248" lon="11.570435"><ele>296.0</ele><time>2026-04-07T15:38:52.288Z</time></trkpt><trkpt lat="43.6124233" lon="11.5705033"><ele>297.0</ele><time>2026-04-07T15:38:53.289Z</time></trkpt><trkpt lat="43.6123567" lon="11.57056"><ele>298.0</ele><time>2026-04-07T15:38:54.29Z</time></trkpt><trkpt lat="43.61229" lon="11.570605"><ele>299.0</ele><time>2026-04-07T15:38:55.29Z</time></trkpt><trkpt lat="43.612225" lon="11.5706317"><ele>300.0</ele><time>2026-04-07T15:38:56.289Z</time></trkpt><trkpt lat="43.61215" lon="11.5706483"><ele>301.0</ele><time>2026-04-07T15:38:57.291Z</time></trkpt><trkpt lat="43.612065" lon="11.5706617"><ele>300.0</ele><time>2026-04-07T15:38:58.289Z</time></trkpt><trkpt lat="43.6119883" lon="11.5706783"><ele>299.0</ele><time>2026-04-07T15:38:59.289Z</time></trkpt><trkpt lat="43.6119117" lon="11.5707033"><ele>298.0</ele><time>2026-04-07T15:39:00.288Z</time></trkpt><trkpt lat="43.61184" lon="11.5707417"><ele>297.0</ele><time>2026-04-07T15:39:01.288Z</time></trkpt><trkpt lat="43.611775" lon="11.5707933"><ele>296.0</ele><time>2026-04-07T15:39:02.29Z</time></trkpt><trkpt lat="43.6117133" lon="11.570855"><ele>295.0</ele><time>2026-04-07T15:39:03.288Z</time></trkpt><trkpt lat="43.61166" lon="11.57093"><ele>295.0</ele><time>2026-04-07T15:39:04.288Z</time></trkpt><trkpt lat="43.6116167" lon="11.571015"><ele>295.0</ele><time>2026-04-07T15:39:05.292Z</time></trkpt><trkpt lat="43.611575" lon="11.5711083"><ele>295.0</ele><time>2026-04-07T15:39:06.289Z</time></trkpt><trkpt lat="43.6115467" lon="11.571215"><ele>295.0</ele><time>2026-04-07T15:39:07.29Z</time></trkpt><trkpt lat="43.6115367" lon="11.5713333"><ele>295.0</ele><time>2026-04-07T15:39:08.288Z</time></trkpt><trkpt lat="43.611535" lon="11.57145"><ele>295.0</ele><time>2026-04-07T15:39:09.291Z</time></trkpt><trkpt lat="43.6115317" lon="11.5715617"><ele>295.5</ele><time>2026-04-07T15:39:10.291Z</time></trkpt><trkpt lat="43.6115283" lon="11.571675"><ele>296.0</ele><time>2026-04-07T15:39:11.289Z</time></trkpt><trkpt lat="43.611525" lon="11.57179"><ele>296.5</ele><time>2026-04-07T15:39:12.288Z</time></trkpt><trkpt lat="43.6115183" lon="11.5719117"><ele>297.0</ele><time>2026-04-07T15:39:13.288Z</time></trkpt><trkpt lat="43.611515" lon="11.57203"><ele>297.5</ele><time>2026-04-07T15:39:14.288Z</time></trkpt><trkpt lat="43.6115117" lon="11.5721467"><ele>298.0</ele><time>2026-04-07T15:39:15.286Z</time></trkpt><trkpt lat="43.6115117" lon="11.5722683"><ele>298.3333333333333</ele><time>2026-04-07T15:39:16.286Z</time></trkpt><trkpt lat="43.61151" lon="11.5723917"><ele>298.66666666666663</ele><time>2026-04-07T15:39:17.287Z</time></trkpt><trkpt lat="43.6115167" lon="11.5725133"><ele>299.0</ele><time>2026-04-07T15:39:18.285Z</time></trkpt><trkpt lat="43.61151" lon="11.57263"><ele>299.3333333333333</ele><time>2026-04-07T15:39:19.29Z</time></trkpt><trkpt lat="43.6114917" lon="11.5727533"><ele>299.6666666666667</ele><time>2026-04-07T15:39:20.288Z</time></trkpt><trkpt lat="43.6114567" lon="11.5728667"><ele>300.0</ele><time>2026-04-07T15:39:21.288Z</time></trkpt><trkpt lat="43.6114133" lon="11.57297"><ele>300.1666666666667</ele><time>2026-04-07T15:39:22.286Z</time></trkpt><trkpt lat="43.6113633" lon="11.5730533"><ele>300.3333333333333</ele><time>2026-04-07T15:39:23.288Z</time></trkpt><trkpt lat="43.6113067" lon="11.57312"><ele>300.5</ele><time>2026-04-07T15:39:24.287Z</time></trkpt><trkpt lat="43.611185" lon="11.5731467"><ele>300.66666666666663</ele><time>2026-04-07T15:39:26.287Z</time></trkpt><trkpt lat="43.6111283" lon="11.573075"><ele>300.8333333333333</ele><time>2026-04-07T15:39:27.287Z</time></trkpt><trkpt lat="43.6110817" lon="11.573005"><ele>301.0</ele><time>2026-04-07T15:39:28.286Z</time></trkpt><trkpt lat="43.6110467" lon="11.5729167"><ele>300.66666666666663</ele><time>2026-04-07T15:39:29.286Z</time></trkpt><trkpt lat="43.6110183" lon="11.5728183"><ele>300.3333333333333</ele><time>2026-04-07T15:39:30.288Z</time></trkpt><trkpt lat="43.61099" lon="11.5727117"><ele>300.0</ele><time>2026-04-07T15:39:31.287Z</time></trkpt><trkpt lat="43.6109617" lon="11.572605"><ele>299.6666666666667</ele><time>2026-04-07T15:39:32.286Z</time></trkpt><trkpt lat="43.6109317" lon="11.5725"><ele>299.33333333333337</ele><time>2026-04-07T15:39:33.286Z</time></trkpt><trkpt lat="43.6109067" lon="11.572395"><ele>299.0</ele><time>2026-04-07T15:39:34.286Z</time></trkpt><trkpt lat="43.61088" lon="11.572285"><ele>299.0</ele><time>2026-04-07T15:39:35.288Z</time></trkpt><trkpt lat="43.6108533" lon="11.5721783"><ele>299.0</ele><time>2026-04-07T15:39:36.287Z</time></trkpt><trkpt lat="43.6108283" lon="11.5720717"><ele>299.0</ele><time>2026-04-07T15:39:37.286Z</time></trkpt><trkpt lat="43.6108033" lon="11.5719633"><ele>299.0</ele><time>2026-04-07T15:39:38.286Z</time></trkpt><trkpt lat="43.6107783" lon="11.5718617"><ele>299.0</ele><time>2026-04-07T15:39:39.286Z</time></trkpt><trkpt lat="43.6107483" lon="11.5717567"><ele>299.0</ele><time>2026-04-07T15:39:40.287Z</time></trkpt><trkpt lat="43.6107267" lon="11.5716583"><ele>298.0</ele><time>2026-04-07T15:39:41.286Z</time></trkpt><trkpt lat="43.6107017" lon="11.57156"><ele>297.0</ele><time>2026-04-07T15:39:42.287Z</time></trkpt><trkpt lat="43.6106717" lon="11.571465"><ele>296.0</ele><time>2026-04-07T15:39:43.286Z</time></trkpt><trkpt lat="43.6106417" lon="11.5713733"><ele>295.0</ele><time>2026-04-07T15:39:44.287Z</time></trkpt><trkpt lat="43.6106083" lon="11.5712767"><ele>294.0</ele><time>2026-04-07T15:39:45.286Z</time></trkpt><trkpt lat="43.6105633" lon="11.5711833"><ele>293.0</ele><time>2026-04-07T15:39:46.286Z</time></trkpt><trkpt lat="43.6105117" lon="11.5711083"><ele>292.83333333333337</ele><time>2026-04-07T15:39:47.286Z</time></trkpt><trkpt lat="43.61045" lon="11.5710517"><ele>292.6666666666667</ele><time>2026-04-07T15:39:48.287Z</time></trkpt><trkpt lat="43.6103783" lon="11.5710117"><ele>292.5</ele><time>2026-04-07T15:39:49.287Z</time></trkpt><trkpt lat="43.6103033" lon="11.5709883"><ele>292.3333333333333</ele><time>2026-04-07T15:39:50.287Z</time></trkpt><trkpt lat="43.6102217" lon="11.5709683"><ele>292.16666666666663</ele><time>2026-04-07T15:39:51.286Z</time></trkpt><trkpt lat="43.61014" lon="11.5709533"><ele>292.0</ele><time>2026-04-07T15:39:52.286Z</time></trkpt><trkpt lat="43.610055" lon="11.5709533"><ele>292.0</ele><time>2026-04-07T15:39:53.286Z</time></trkpt><trkpt lat="43.609965" lon="11.5709683"><ele>292.0</ele><time>2026-04-07T15:39:54.286Z</time></trkpt><trkpt lat="43.60987" lon="11.5709917"><ele>292.0</ele><time>2026-04-07T15:39:55.287Z</time></trkpt><trkpt lat="43.6097767" lon="11.5710133"><ele>292.0</ele><time>2026-04-07T15:39:56.288Z</time></trkpt><trkpt lat="43.6096767" lon="11.571035"><ele>292.0</ele><time>2026-04-07T15:39:57.288Z</time></trkpt><trkpt lat="43.6095817" lon="11.5710567"><ele>292.0</ele><time>2026-04-07T15:39:58.288Z</time></trkpt><trkpt lat="43.609495" lon="11.57108"><ele>292.0</ele><time>2026-04-07T15:39:59.287Z</time></trkpt><trkpt lat="43.6094017" lon="11.5711033"><ele>292.0</ele><time>2026-04-07T15:40:00.284Z</time></trkpt><trkpt lat="43.609305" lon="11.5711283"><ele>292.0</ele><time>2026-04-07T15:40:01.287Z</time></trkpt><trkpt lat="43.6092067" lon="11.57115"><ele>292.0</ele><time>2026-04-07T15:40:02.287Z</time></trkpt><trkpt lat="43.6091033" lon="11.5711717"><ele>291.6</ele><time>2026-04-07T15:40:03.285Z</time></trkpt><trkpt lat="43.6090033" lon="11.5711933"><ele>291.2</ele><time>2026-04-07T15:40:04.287Z</time></trkpt><trkpt lat="43.6089017" lon="11.57122"><ele>290.8</ele><time>2026-04-07T15:40:05.289Z</time></trkpt><trkpt lat="43.6087967" lon="11.571245"><ele>290.4</ele><time>2026-04-07T15:40:06.286Z</time></trkpt><trkpt lat="43.608695" lon="11.57127"><ele>290.0</ele><time>2026-04-07T15:40:07.286Z</time></trkpt><trkpt lat="43.608595" lon="11.5712917"><ele>290.0</ele><time>2026-04-07T15:40:08.287Z</time></trkpt><trkpt lat="43.6084983" lon="11.5713067"><ele>290.0</ele><time>2026-04-07T15:40:09.286Z</time></trkpt><trkpt lat="43.6084" lon="11.5713183"><ele>290.0</ele><time>2026-04-07T15:40:10.287Z</time></trkpt><trkpt lat="43.6083017" lon="11.5713283"><ele>290.0</ele><time>2026-04-07T15:40:11.287Z</time></trkpt><trkpt lat="43.6082033" lon="11.5713383"><ele>290.0</ele><time>2026-04-07T15:40:12.287Z</time></trkpt><trkpt lat="43.60811" lon="11.5713483"><ele>290.0</ele><time>2026-04-07T15:40:13.287Z</time></trkpt><trkpt lat="43.6080133" lon="11.5713633"><ele>290.0</ele><time>2026-04-07T15:40:14.286Z</time></trkpt><trkpt lat="43.607915" lon="11.5713867"><ele>290.0</ele><time>2026-04-07T15:40:15.288Z</time></trkpt><trkpt lat="43.607825" lon="11.5714233"><ele>290.0</ele><time>2026-04-07T15:40:16.286Z</time></trkpt><trkpt lat="43.60774" lon="11.5714733"><ele>290.0</ele><time>2026-04-07T15:40:17.287Z</time></trkpt><trkpt lat="43.6076567" lon="11.5715267"><ele>289.1666666666667</ele><time>2026-04-07T15:40:18.287Z</time></trkpt><trkpt lat="43.6075783" lon="11.5715817"><ele>288.33333333333337</ele><time>2026-04-07T15:40:19.286Z</time></trkpt><trkpt lat="43.607505" lon="11.5716417"><ele>287.5</ele><time>2026-04-07T15:40:20.287Z</time></trkpt><trkpt lat="43.6074367" lon="11.571715"><ele>286.6666666666667</ele><time>2026-04-07T15:40:21.286Z</time></trkpt><trkpt lat="43.6073767" lon="11.5717967"><ele>285.8333333333333</ele><time>2026-04-07T15:40:22.288Z</time></trkpt><trkpt lat="43.60732" lon="11.5718917"><ele>285.0</ele><time>2026-04-07T15:40:23.288Z</time></trkpt><trkpt lat="43.607275" lon="11.571995"><ele>285.6</ele><time>2026-04-07T15:40:24.288Z</time></trkpt><trkpt lat="43.6072383" lon="11.57211"><ele>286.2</ele><time>2026-04-07T15:40:25.288Z</time></trkpt><trkpt lat="43.607215" lon="11.572235"><ele>286.8</ele><time>2026-04-07T15:40:26.291Z</time></trkpt><trkpt lat="43.60721" lon="11.572365"><ele>287.4</ele><time>2026-04-07T15:40:27.288Z</time></trkpt><trkpt lat="43.60722" lon="11.5724967"><ele>288.0</ele><time>2026-04-07T15:40:28.287Z</time></trkpt><trkpt lat="43.60724" lon="11.5726283"><ele>288.0</ele><time>2026-04-07T15:40:29.289Z</time></trkpt><trkpt lat="43.607265" lon="11.5727683"><ele>288.0</ele><time>2026-04-07T15:40:30.29Z</time></trkpt><trkpt lat="43.6072933" lon="11.5729033"><ele>288.0</ele><time>2026-04-07T15:40:31.287Z</time></trkpt><trkpt lat="43.6073167" lon="11.5730333"><ele>288.0</ele><time>2026-04-07T15:40:32.287Z</time></trkpt><trkpt lat="43.6073383" lon="11.573155"><ele>288.0</ele><time>2026-04-07T15:40:33.287Z</time></trkpt><trkpt lat="43.6073517" lon="11.5732683"><ele>287.5</ele><time>2026-04-07T15:40:34.286Z</time></trkpt><trkpt lat="43.6073567" lon="11.5733783"><ele>287.0</ele><time>2026-04-07T15:40:35.287Z</time></trkpt><trkpt lat="43.6073417" lon="11.5734783"><ele>286.5</ele><time>2026-04-07T15:40:36.286Z</time></trkpt><trkpt lat="43.607295" lon="11.5735583"><ele>286.0</ele><time>2026-04-07T15:40:37.287Z</time></trkpt><trkpt lat="43.60724" lon="11.5736067"><ele>285.5</ele><time>2026-04-07T15:40:38.287Z</time></trkpt><trkpt lat="43.6071083" lon="11.573605"><ele>285.0</ele><time>2026-04-07T15:40:40.287Z</time></trkpt><trkpt lat="43.6070283" lon="11.573585"><ele>285.5</ele><time>2026-04-07T15:40:41.287Z</time></trkpt><trkpt lat="43.6069467" lon="11.5735717"><ele>286.0</ele><time>2026-04-07T15:40:42.287Z</time></trkpt><trkpt lat="43.606865" lon="11.5735717"><ele>286.5</ele><time>2026-04-07T15:40:43.286Z</time></trkpt><trkpt lat="43.6067717" lon="11.57358"><ele>287.0</ele><time>2026-04-07T15:40:44.287Z</time></trkpt><trkpt lat="43.6066867" lon="11.57361"><ele>287.5</ele><time>2026-04-07T15:40:45.288Z</time></trkpt><trkpt lat="43.60661" lon="11.57366"><ele>288.0</ele><time>2026-04-07T15:40:46.288Z</time></trkpt><trkpt lat="43.6065383" lon="11.5737217"><ele>288.0</ele><time>2026-04-07T15:40:47.287Z</time></trkpt><trkpt lat="43.6064733" lon="11.5737883"><ele>288.0</ele><time>2026-04-07T15:40:48.289Z</time></trkpt><trkpt lat="43.6064083" lon="11.5738583"><ele>288.0</ele><time>2026-04-07T15:40:49.29Z</time></trkpt><trkpt lat="43.6063383" lon="11.5739283"><ele>288.0</ele><time>2026-04-07T15:40:50.291Z</time></trkpt><trkpt lat="43.6062717" lon="11.5740067"><ele>288.0</ele><time>2026-04-07T15:40:51.287Z</time></trkpt><trkpt lat="43.6062017" lon="11.5740883"><ele>288.0</ele><time>2026-04-07T15:40:52.287Z</time></trkpt><trkpt lat="43.6061383" lon="11.5741783"><ele>287.4</ele><time>2026-04-07T15:40:53.29Z</time></trkpt><trkpt lat="43.6060767" lon="11.574275"><ele>286.8</ele><time>2026-04-07T15:40:54.287Z</time></trkpt><trkpt lat="43.6060233" lon="11.5743783"><ele>286.2</ele><time>2026-04-07T15:40:55.289Z</time></trkpt><trkpt lat="43.60597" lon="11.5744833"><ele>285.6</ele><time>2026-04-07T15:40:56.288Z</time></trkpt><trkpt lat="43.6059117" lon="11.5745817"><ele>285.0</ele><time>2026-04-07T15:40:57.288Z</time></trkpt><trkpt lat="43.6058483" lon="11.5746767"><ele>285.0</ele><time>2026-04-07T15:40:58.287Z</time></trkpt><trkpt lat="43.6057767" lon="11.57476"><ele>285.0</ele><time>2026-04-07T15:40:59.287Z</time></trkpt><trkpt lat="43.6057017" lon="11.574835"><ele>285.0</ele><time>2026-04-07T15:41:00.288Z</time></trkpt><trkpt lat="43.6056267" lon="11.5748983"><ele>285.0</ele><time>2026-04-07T15:41:01.289Z</time></trkpt><trkpt lat="43.6055533" lon="11.5749467"><ele>285.0</ele><time>2026-04-07T15:41:02.289Z</time></trkpt><trkpt lat="43.605475" lon="11.57499"><ele>285.0</ele><time>2026-04-07T15:41:03.288Z</time></trkpt><trkpt lat="43.6054033" lon="11.5750333"><ele>285.0</ele><time>2026-04-07T15:41:04.289Z</time></trkpt><trkpt lat="43.60533" lon="11.5750733"><ele>285.0</ele><time>2026-04-07T15:41:05.29Z</time></trkpt><trkpt lat="43.605265" lon="11.575115"><ele>285.0</ele><time>2026-04-07T15:41:06.29Z</time></trkpt><trkpt lat="43.6052" lon="11.5751633"><ele>285.0</ele><time>2026-04-07T15:41:07.288Z</time></trkpt><trkpt lat="43.60514" lon="11.5752233"><ele>285.0</ele><time>2026-04-07T15:41:08.289Z</time></trkpt><trkpt lat="43.6050917" lon="11.575295"><ele>285.0</ele><time>2026-04-07T15:41:09.289Z</time></trkpt><trkpt lat="43.6050567" lon="11.5753817"><ele>285.0</ele><time>2026-04-07T15:41:10.288Z</time></trkpt><trkpt lat="43.6050383" lon="11.5754783"><ele>284.7142857142857</ele><time>2026-04-07T15:41:11.289Z</time></trkpt><trkpt lat="43.6050317" lon="11.5755767"><ele>284.42857142857144</ele><time>2026-04-07T15:41:12.287Z</time></trkpt><trkpt lat="43.6050283" lon="11.5756667"><ele>284.14285714285717</ele><time>2026-04-07T15:41:13.289Z</time></trkpt><trkpt lat="43.605025" lon="11.5757617"><ele>283.8571428571429</ele><time>2026-04-07T15:41:14.29Z</time></trkpt><trkpt lat="43.60502" lon="11.575855"><ele>283.5714285714286</ele><time>2026-04-07T15:41:15.289Z</time></trkpt><trkpt lat="43.605015" lon="11.5759483"><ele>283.2857142857143</ele><time>2026-04-07T15:41:16.289Z</time></trkpt><trkpt lat="43.60501" lon="11.5760367"><ele>283.0</ele><time>2026-04-07T15:41:17.29Z</time></trkpt><trkpt lat="43.6049967" lon="11.576205"><ele>284.4</ele><time>2026-04-07T15:41:19.289Z</time></trkpt><trkpt lat="43.6049733" lon="11.5763733"><ele>285.8</ele><time>2026-04-07T15:41:21.288Z</time></trkpt><trkpt lat="43.6049517" lon="11.576455"><ele>287.2</ele><time>2026-04-07T15:41:22.287Z</time></trkpt><trkpt lat="43.6048967" lon="11.5765767"><ele>288.6</ele><time>2026-04-07T15:41:24.289Z</time></trkpt><trkpt lat="43.60482" lon="11.5766683"><ele>290.0</ele><time>2026-04-07T15:41:26.288Z</time></trkpt><trkpt lat="43.60472" lon="11.57672"><ele>290.0</ele><time>2026-04-07T15:41:28.288Z</time></trkpt><trkpt lat="43.60462" lon="11.5767333"><ele>290.0</ele><time>2026-04-07T15:41:30.288Z</time></trkpt><trkpt lat="43.60451" lon="11.57672"><ele>290.0</ele><time>2026-04-07T15:41:32.288Z</time></trkpt><trkpt lat="43.6044" lon="11.5767"><ele>290.0</ele><time>2026-04-07T15:41:34.286Z</time></trkpt><trkpt lat="43.604285" lon="11.5766717"><ele>290.0</ele><time>2026-04-07T15:41:36.289Z</time></trkpt><trkpt lat="43.604175" lon="11.5766383"><ele>290.2</ele><time>2026-04-07T15:41:38.29Z</time></trkpt><trkpt lat="43.6040633" lon="11.5765917"><ele>290.4</ele><time>2026-04-07T15:41:40.288Z</time></trkpt><trkpt lat="43.6040017" lon="11.5765633"><ele>290.6</ele><time>2026-04-07T15:41:41.289Z</time></trkpt><trkpt lat="43.6038967" lon="11.5765217"><ele>290.8</ele><time>2026-04-07T15:41:43.288Z</time></trkpt><trkpt lat="43.603785" lon="11.5765183"><ele>291.0</ele><time>2026-04-07T15:41:45.288Z</time></trkpt><trkpt lat="43.6036733" lon="11.5765667"><ele>290.40000000000003</ele><time>2026-04-07T15:41:47.291Z</time></trkpt><trkpt lat="43.6035717" lon="11.576635"><ele>289.8</ele><time>2026-04-07T15:41:49.288Z</time></trkpt><trkpt lat="43.603485" lon="11.5767183"><ele>289.20000000000005</ele><time>2026-04-07T15:41:51.291Z</time></trkpt><trkpt lat="43.603395" lon="11.5768017"><ele>288.6</ele><time>2026-04-07T15:41:53.288Z</time></trkpt><trkpt lat="43.6033183" lon="11.5769083"><ele>288.0</ele><time>2026-04-07T15:41:55.288Z</time></trkpt><trkpt lat="43.603245" lon="11.57702"><ele>289.8</ele><time>2026-04-07T15:41:57.288Z</time></trkpt><trkpt lat="43.6031833" lon="11.5771417"><ele>291.6</ele><time>2026-04-07T15:41:59.289Z</time></trkpt><trkpt lat="43.6031417" lon="11.5772817"><ele>293.4</ele><time>2026-04-07T15:42:01.288Z</time></trkpt><trkpt lat="43.6031233" lon="11.5774283"><ele>295.2</ele><time>2026-04-07T15:42:03.287Z</time></trkpt><trkpt lat="43.6031283" lon="11.577575"><ele>297.0</ele><time>2026-04-07T15:42:05.287Z</time></trkpt><trkpt lat="43.603135" lon="11.57774"><ele>298.5</ele><time>2026-04-07T15:42:07.29Z</time></trkpt><trkpt lat="43.60314" lon="11.577895"><ele>300.0</ele><time>2026-04-07T15:42:09.29Z</time></trkpt><trkpt lat="43.6031367" lon="11.578055"><ele>301.5</ele><time>2026-04-07T15:42:11.289Z</time></trkpt><trkpt lat="43.6030967" lon="11.578205"><ele>303.0</ele><time>2026-04-07T15:42:13.287Z</time></trkpt><trkpt lat="43.60301" lon="11.5783067"><ele>303.0</ele><time>2026-04-07T15:42:15.288Z</time></trkpt><trkpt lat="43.6028967" lon="11.5783633"><ele>303.0</ele><time>2026-04-07T15:42:17.288Z</time></trkpt><trkpt lat="43.6027883" lon="11.5784267"><ele>303.0</ele><time>2026-04-07T15:42:19.289Z</time></trkpt><trkpt lat="43.6026933" lon="11.57853"><ele>303.0</ele><time>2026-04-07T15:42:21.288Z</time></trkpt><trkpt lat="43.602625" lon="11.5786733"><ele>303.0</ele><time>2026-04-07T15:42:23.288Z</time></trkpt><trkpt lat="43.60259" lon="11.5787467"><ele>303.0</ele><time>2026-04-07T15:42:24.288Z</time></trkpt><trkpt lat="43.60255" lon="11.5788217"><ele>303.0</ele><time>2026-04-07T15:42:25.289Z</time></trkpt><trkpt lat="43.6025083" lon="11.5788917"><ele>303.0</ele><time>2026-04-07T15:42:26.288Z</time></trkpt><trkpt lat="43.6024617" lon="11.5789517"><ele>303.0</ele><time>2026-04-07T15:42:27.291Z</time></trkpt><trkpt lat="43.602355" lon="11.57903"><ele>303.0</ele><time>2026-04-07T15:42:29.29Z</time></trkpt><trkpt lat="43.6022917" lon="11.5790483"><ele>303.0</ele><time>2026-04-07T15:42:30.288Z</time></trkpt><trkpt lat="43.6021717" lon="11.5790733"><ele>303.0</ele><time>2026-04-07T15:42:32.287Z</time></trkpt><trkpt lat="43.6020517" lon="11.5791017"><ele>303.0</ele><time>2026-04-07T15:42:34.289Z</time></trkpt><trkpt lat="43.6019333" lon="11.57914"><ele>303.0</ele><time>2026-04-07T15:42:36.289Z</time></trkpt><trkpt lat="43.6018183" lon="11.5791767"><ele>303.0</ele><time>2026-04-07T15:42:38.29Z</time></trkpt><trkpt lat="43.6017517" lon="11.5791917"><ele>303.0</ele><time>2026-04-07T15:42:39.288Z</time></trkpt><trkpt lat="43.6016883" lon="11.5791967"><ele>301.8</ele><time>2026-04-07T15:42:40.289Z</time></trkpt><trkpt lat="43.6016233" lon="11.579195"><ele>300.6</ele><time>2026-04-07T15:42:41.287Z</time></trkpt><trkpt lat="43.6015" lon="11.579165"><ele>299.4</ele><time>2026-04-07T15:42:43.288Z</time></trkpt><trkpt lat="43.6014367" lon="11.5791417"><ele>298.2</ele><time>2026-04-07T15:42:44.291Z</time></trkpt><trkpt lat="43.6013167" lon="11.5791033"><ele>297.0</ele><time>2026-04-07T15:42:46.289Z</time></trkpt><trkpt lat="43.60122" lon="11.5791017"><ele>296.6666666666667</ele><time>2026-04-07T15:42:48.291Z</time></trkpt><trkpt lat="43.6011317" lon="11.5791283"><ele>296.3333333333333</ele><time>2026-04-07T15:42:50.289Z</time></trkpt><trkpt lat="43.6010417" lon="11.579175"><ele>296.0</ele><time>2026-04-07T15:42:52.29Z</time></trkpt><trkpt lat="43.60098" lon="11.579195"><ele>295.66666666666663</ele><time>2026-04-07T15:42:53.289Z</time></trkpt><trkpt lat="43.6008867" lon="11.5792467"><ele>295.3333333333333</ele><time>2026-04-07T15:42:55.288Z</time></trkpt><trkpt lat="43.6008033" lon="11.579285"><ele>295.0</ele><time>2026-04-07T15:42:57.289Z</time></trkpt><trkpt lat="43.600735" lon="11.5793217"><ele>295.0</ele><time>2026-04-07T15:43:00.289Z</time></trkpt><trkpt lat="43.6007833" lon="11.5793867"><ele>295.0</ele><time>2026-04-07T15:43:19.287Z</time></trkpt><trkpt lat="43.6008533" lon="11.5792967"><ele>295.0</ele><time>2026-04-07T15:43:41.286Z</time></trkpt><trkpt lat="43.6009183" lon="11.5792467"><ele>295.0</ele><time>2026-04-07T15:43:44.287Z</time></trkpt><trkpt lat="43.6009933" lon="11.579225"><ele>295.0</ele><time>2026-04-07T15:43:46.287Z</time></trkpt><trkpt lat="43.6010617" lon="11.5791983"><ele>295.0</ele><time>2026-04-07T15:43:48.288Z</time></trkpt><trkpt lat="43.60115" lon="11.579175"><ele>295.4</ele><time>2026-04-07T15:43:50.288Z</time></trkpt><trkpt lat="43.6012483" lon="11.5791483"><ele>295.8</ele><time>2026-04-07T15:43:52.286Z</time></trkpt><trkpt lat="43.6013383" lon="11.5791633"><ele>296.2</ele><time>2026-04-07T15:43:54.288Z</time></trkpt><trkpt lat="43.60143" lon="11.5791983"><ele>296.6</ele><time>2026-04-07T15:43:56.287Z</time></trkpt><trkpt lat="43.6015283" lon="11.57923"><ele>297.0</ele><time>2026-04-07T15:43:58.29Z</time></trkpt><trkpt lat="43.60163" lon="11.5792367"><ele>297.0</ele><time>2026-04-07T15:44:00.288Z</time></trkpt><trkpt lat="43.60173" lon="11.5792217"><ele>297.0</ele><time>2026-04-07T15:44:02.288Z</time></trkpt><trkpt lat="43.6018383" lon="11.5791917"><ele>297.0</ele><time>2026-04-07T15:44:04.288Z</time></trkpt><trkpt lat="43.6019483" lon="11.579145"><ele>297.0</ele><time>2026-04-07T15:44:06.29Z</time></trkpt><trkpt lat="43.6020583" lon="11.5791133"><ele>297.0</ele><time>2026-04-07T15:44:08.29Z</time></trkpt><trkpt lat="43.6021767" lon="11.5790917"><ele>298.2</ele><time>2026-04-07T15:44:10.289Z</time></trkpt><trkpt lat="43.6022883" lon="11.5790717"><ele>299.4</ele><time>2026-04-07T15:44:12.287Z</time></trkpt><trkpt lat="43.6024067" lon="11.57903"><ele>300.6</ele><time>2026-04-07T15:44:14.287Z</time></trkpt><trkpt lat="43.6025117" lon="11.578935"><ele>301.8</ele><time>2026-04-07T15:44:16.286Z</time></trkpt><trkpt lat="43.6025567" lon="11.5788683"><ele>303.0</ele><time>2026-04-07T15:44:17.287Z</time></trkpt><trkpt lat="43.6025967" lon="11.5787967"><ele>303.0</ele><time>2026-04-07T15:44:18.287Z</time></trkpt><trkpt lat="43.60263" lon="11.57872"><ele>303.0</ele><time>2026-04-07T15:44:19.286Z</time></trkpt><trkpt lat="43.6026633" lon="11.5786433"><ele>303.0</ele><time>2026-04-07T15:44:20.287Z</time></trkpt><trkpt lat="43.6027017" lon="11.57857"><ele>303.0</ele><time>2026-04-07T15:44:21.287Z</time></trkpt><trkpt lat="43.6027467" lon="11.5785033"><ele>303.0</ele><time>2026-04-07T15:44:22.287Z</time></trkpt><trkpt lat="43.6028067" lon="11.5784517"><ele>303.0</ele><time>2026-04-07T15:44:23.286Z</time></trkpt><trkpt lat="43.6028733" lon="11.5784167"><ele>303.0</ele><time>2026-04-07T15:44:24.287Z</time></trkpt><trkpt lat="43.6029417" lon="11.5783833"><ele>303.0</ele><time>2026-04-07T15:44:25.287Z</time></trkpt><trkpt lat="43.60301" lon="11.578345"><ele>303.0</ele><time>2026-04-07T15:44:26.286Z</time></trkpt><trkpt lat="43.60307" lon="11.5782867"><ele>303.0</ele><time>2026-04-07T15:44:27.287Z</time></trkpt><trkpt lat="43.60312" lon="11.5782133"><ele>303.0</ele><time>2026-04-07T15:44:28.289Z</time></trkpt><trkpt lat="43.6031567" lon="11.57812"><ele>303.0</ele><time>2026-04-07T15:44:29.29Z</time></trkpt><trkpt lat="43.603175" lon="11.5780217"><ele>303.0</ele><time>2026-04-07T15:44:30.288Z</time></trkpt><trkpt lat="43.6031767" lon="11.5779167"><ele>303.0</ele><time>2026-04-07T15:44:31.288Z</time></trkpt><trkpt lat="43.60317" lon="11.5778083"><ele>302.0</ele><time>2026-04-07T15:44:32.286Z</time></trkpt><trkpt lat="43.6031667" lon="11.577695"><ele>301.0</ele><time>2026-04-07T15:44:33.286Z</time></trkpt><trkpt lat="43.6031633" lon="11.5775833"><ele>300.0</ele><time>2026-04-07T15:44:34.286Z</time></trkpt><trkpt lat="43.6031617" lon="11.577475"><ele>299.0</ele><time>2026-04-07T15:44:35.287Z</time></trkpt><trkpt lat="43.6031633" lon="11.5773667"><ele>298.0</ele><time>2026-04-07T15:44:36.289Z</time></trkpt><trkpt lat="43.60318" lon="11.5772583"><ele>297.0</ele><time>2026-04-07T15:44:37.288Z</time></trkpt><trkpt lat="43.6032117" lon="11.5771517"><ele>297.0</ele><time>2026-04-07T15:44:38.289Z</time></trkpt><trkpt lat="43.603255" lon="11.5770517"><ele>297.0</ele><time>2026-04-07T15:44:39.287Z</time></trkpt><trkpt lat="43.6033083" lon="11.5769583"><ele>297.0</ele><time>2026-04-07T15:44:40.289Z</time></trkpt><trkpt lat="43.6033717" lon="11.5768667"><ele>297.0</ele><time>2026-04-07T15:44:41.29Z</time></trkpt><trkpt lat="43.6034383" lon="11.5767817"><ele>297.0</ele><time>2026-04-07T15:44:42.289Z</time></trkpt><trkpt lat="43.60351" lon="11.576705"><ele>297.0</ele><time>2026-04-07T15:44:43.287Z</time></trkpt><trkpt lat="43.6035883" lon="11.5766367"><ele>295.8</ele><time>2026-04-07T15:44:44.287Z</time></trkpt><trkpt lat="43.60367" lon="11.5765833"><ele>294.6</ele><time>2026-04-07T15:44:45.287Z</time></trkpt><trkpt lat="43.603755" lon="11.5765467"><ele>293.40000000000003</ele><time>2026-04-07T15:44:46.287Z</time></trkpt><trkpt lat="43.6038467" lon="11.5765317"><ele>292.2</ele><time>2026-04-07T15:44:47.287Z</time></trkpt><trkpt lat="43.6039383" lon="11.5765417"><ele>291.0</ele><time>2026-04-07T15:44:48.289Z</time></trkpt><trkpt lat="43.60403" lon="11.5765733"><ele>291.0</ele><time>2026-04-07T15:44:49.289Z</time></trkpt><trkpt lat="43.6041217" lon="11.5766183"><ele>291.0</ele><time>2026-04-07T15:44:50.288Z</time></trkpt><trkpt lat="43.6042133" lon="11.5766617"><ele>291.0</ele><time>2026-04-07T15:44:51.288Z</time></trkpt><trkpt lat="43.604305" lon="11.5766967"><ele>291.0</ele><time>2026-04-07T15:44:52.287Z</time></trkpt><trkpt lat="43.6043967" lon="11.57672"><ele>291.0</ele><time>2026-04-07T15:44:53.287Z</time></trkpt><trkpt lat="43.6044867" lon="11.5767383"><ele>290.8333333333333</ele><time>2026-04-07T15:44:54.29Z</time></trkpt><trkpt lat="43.604575" lon="11.57675"><ele>290.6666666666667</ele><time>2026-04-07T15:44:55.286Z</time></trkpt><trkpt lat="43.60466" lon="11.5767533"><ele>290.5</ele><time>2026-04-07T15:44:56.288Z</time></trkpt><trkpt lat="43.6047383" lon="11.5767383"><ele>290.33333333333337</ele><time>2026-04-07T15:44:57.288Z</time></trkpt><trkpt lat="43.6048117" lon="11.5767"><ele>290.1666666666667</ele><time>2026-04-07T15:44:58.288Z</time></trkpt><trkpt lat="43.6048767" lon="11.576635"><ele>290.0</ele><time>2026-04-07T15:44:59.286Z</time></trkpt><trkpt lat="43.6049367" lon="11.576555"><ele>290.0</ele><time>2026-04-07T15:45:00.287Z</time></trkpt><trkpt lat="43.604985" lon="11.57646"><ele>290.0</ele><time>2026-04-07T15:45:01.288Z</time></trkpt><trkpt lat="43.6050167" lon="11.5763517"><ele>290.0</ele><time>2026-04-07T15:45:02.286Z</time></trkpt><trkpt lat="43.6050383" lon="11.5762333"><ele>290.0</ele><time>2026-04-07T15:45:03.287Z</time></trkpt><trkpt lat="43.60505" lon="11.5761133"><ele>290.0</ele><time>2026-04-07T15:45:04.287Z</time></trkpt><trkpt lat="43.60506" lon="11.5759883"><ele>290.0</ele><time>2026-04-07T15:45:05.288Z</time></trkpt><trkpt lat="43.6050667" lon="11.5758583"><ele>288.6</ele><time>2026-04-07T15:45:06.288Z</time></trkpt><trkpt lat="43.60507" lon="11.5757267"><ele>287.2</ele><time>2026-04-07T15:45:07.287Z</time></trkpt><trkpt lat="43.6050767" lon="11.5756"><ele>285.8</ele><time>2026-04-07T15:45:08.287Z</time></trkpt><trkpt lat="43.60509" lon="11.5754783"><ele>284.4</ele><time>2026-04-07T15:45:09.287Z</time></trkpt><trkpt lat="43.6051183" lon="11.5753583"><ele>283.0</ele><time>2026-04-07T15:45:10.286Z</time></trkpt><trkpt lat="43.6051617" lon="11.5752533"><ele>283.3333333333333</ele><time>2026-04-07T15:45:11.288Z</time></trkpt><trkpt lat="43.605225" lon="11.5751733"><ele>283.66666666666663</ele><time>2026-04-07T15:45:12.287Z</time></trkpt><trkpt lat="43.6052983" lon="11.5751133"><ele>284.0</ele><time>2026-04-07T15:45:13.288Z</time></trkpt><trkpt lat="43.6053717" lon="11.57507"><ele>284.3333333333333</ele><time>2026-04-07T15:45:14.288Z</time></trkpt><trkpt lat="43.6054467" lon="11.5750317"><ele>284.6666666666667</ele><time>2026-04-07T15:45:15.287Z</time></trkpt><trkpt lat="43.605525" lon="11.5749917"><ele>285.0</ele><time>2026-04-07T15:45:16.288Z</time></trkpt><trkpt lat="43.6056033" lon="11.5749517"><ele>285.0</ele><time>2026-04-07T15:45:17.288Z</time></trkpt><trkpt lat="43.6056817" lon="11.5749017"><ele>285.0</ele><time>2026-04-07T15:45:18.287Z</time></trkpt><trkpt lat="43.60575" lon="11.5748467"><ele>285.0</ele><time>2026-04-07T15:45:19.285Z</time></trkpt><trkpt lat="43.605815" lon="11.5748017"><ele>285.0</ele><time>2026-04-07T15:45:20.286Z</time></trkpt><trkpt lat="43.605875" lon="11.5747417"><ele>285.0</ele><time>2026-04-07T15:45:21.287Z</time></trkpt><trkpt lat="43.605925" lon="11.5746667"><ele>285.0</ele><time>2026-04-07T15:45:22.287Z</time></trkpt><trkpt lat="43.605975" lon="11.574585"><ele>285.5</ele><time>2026-04-07T15:45:23.288Z</time></trkpt><trkpt lat="43.60602" lon="11.5744917"><ele>286.0</ele><time>2026-04-07T15:45:24.287Z</time></trkpt><trkpt lat="43.60606" lon="11.5743917"><ele>286.5</ele><time>2026-04-07T15:45:25.287Z</time></trkpt><trkpt lat="43.6061" lon="11.5743067"><ele>287.0</ele><time>2026-04-07T15:45:26.287Z</time></trkpt><trkpt lat="43.6061467" lon="11.5742267"><ele>287.5</ele><time>2026-04-07T15:45:27.287Z</time></trkpt><trkpt lat="43.6061933" lon="11.574155"><ele>288.0</ele><time>2026-04-07T15:45:28.287Z</time></trkpt><trkpt lat="43.606245" lon="11.5740883"><ele>288.00000000000006</ele><time>2026-04-07T15:45:29.288Z</time></trkpt><trkpt lat="43.6063033" lon="11.5740283"><ele>288.0</ele><time>2026-04-07T15:45:30.287Z</time></trkpt><trkpt lat="43.606355" lon="11.5739667"><ele>288.0</ele><time>2026-04-07T15:45:31.286Z</time></trkpt><trkpt lat="43.6064167" lon="11.5739083"><ele>288.0</ele><time>2026-04-07T15:45:32.288Z</time></trkpt><trkpt lat="43.60647" lon="11.5738483"><ele>288.0</ele><time>2026-04-07T15:45:33.287Z</time></trkpt><trkpt lat="43.6065267" lon="11.573785"><ele>288.00000000000006</ele><time>2026-04-07T15:45:34.287Z</time></trkpt><trkpt lat="43.6065867" lon="11.5737283"><ele>288.0</ele><time>2026-04-07T15:45:35.289Z</time></trkpt><trkpt lat="43.6066533" lon="11.5736717"><ele>287.5714285714286</ele><time>2026-04-07T15:45:36.288Z</time></trkpt><trkpt lat="43.60672" lon="11.5736217"><ele>287.14285714285717</ele><time>2026-04-07T15:45:37.288Z</time></trkpt><trkpt lat="43.60679" lon="11.5735967"><ele>286.7142857142857</ele><time>2026-04-07T15:45:38.287Z</time></trkpt><trkpt lat="43.6068617" lon="11.5735667"><ele>286.28571428571433</ele><time>2026-04-07T15:45:39.288Z</time></trkpt><trkpt lat="43.60693" lon="11.5735617"><ele>285.8571428571429</ele><time>2026-04-07T15:45:40.287Z</time></trkpt><trkpt lat="43.607" lon="11.5735783"><ele>285.42857142857144</ele><time>2026-04-07T15:45:41.286Z</time></trkpt><trkpt lat="43.6070683" lon="11.5736033"><ele>285.0</ele><time>2026-04-07T15:45:42.287Z</time></trkpt><trkpt lat="43.6071317" lon="11.5736283"><ele>285.0</ele><time>2026-04-07T15:45:43.287Z</time></trkpt><trkpt lat="43.6072" lon="11.5736367"><ele>285.0</ele><time>2026-04-07T15:45:44.289Z</time></trkpt><trkpt lat="43.6072717" lon="11.5736233"><ele>285.0</ele><time>2026-04-07T15:45:45.286Z</time></trkpt><trkpt lat="43.6073267" lon="11.5735783"><ele>285.0</ele><time>2026-04-07T15:45:46.288Z</time></trkpt><trkpt lat="43.60737" lon="11.57351"><ele>285.0</ele><time>2026-04-07T15:45:47.288Z</time></trkpt><trkpt lat="43.6073917" lon="11.57342"><ele>285.0</ele><time>2026-04-07T15:45:48.286Z</time></trkpt><trkpt lat="43.6073933" lon="11.5733183"><ele>285.0</ele><time>2026-04-07T15:45:49.287Z</time></trkpt><trkpt lat="43.6073817" lon="11.5732283"><ele>285.0</ele><time>2026-04-07T15:45:50.288Z</time></trkpt><trkpt lat="43.607365" lon="11.5731367"><ele>285.0</ele><time>2026-04-07T15:45:51.289Z</time></trkpt><trkpt lat="43.6073467" lon="11.5730467"><ele>285.0</ele><time>2026-04-07T15:45:52.287Z</time></trkpt><trkpt lat="43.6073333" lon="11.5729617"><ele>285.0</ele><time>2026-04-07T15:45:53.286Z</time></trkpt><trkpt lat="43.6073067" lon="11.5727967"><ele>285.0</ele><time>2026-04-07T15:45:55.288Z</time></trkpt><trkpt lat="43.60728" lon="11.5726383"><ele>285.0</ele><time>2026-04-07T15:45:57.289Z</time></trkpt><trkpt lat="43.6072617" lon="11.5724883"><ele>285.0</ele><time>2026-04-07T15:45:59.286Z</time></trkpt><trkpt lat="43.6072467" lon="11.5723283"><ele>285.0</ele><time>2026-04-07T15:46:01.287Z</time></trkpt><trkpt lat="43.6072517" lon="11.572185"><ele>285.0</ele><time>2026-04-07T15:46:03.286Z</time></trkpt><trkpt lat="43.607285" lon="11.572055"><ele>285.0</ele><time>2026-04-07T15:46:05.287Z</time></trkpt><trkpt lat="43.6073333" lon="11.5719367"><ele>285.0</ele><time>2026-04-07T15:46:07.286Z</time></trkpt><trkpt lat="43.6074017" lon="11.57182"><ele>285.0</ele><time>2026-04-07T15:46:09.287Z</time></trkpt><trkpt lat="43.6074833" lon="11.5717133"><ele>285.0</ele><time>2026-04-07T15:46:11.288Z</time></trkpt><trkpt lat="43.607575" lon="11.571635"><ele>285.0</ele><time>2026-04-07T15:46:13.286Z</time></trkpt><trkpt lat="43.6076783" lon="11.571565"><ele>285.0</ele><time>2026-04-07T15:46:15.287Z</time></trkpt><trkpt lat="43.60779" lon="11.57149"><ele>286.0</ele><time>2026-04-07T15:46:17.289Z</time></trkpt><trkpt lat="43.6079017" lon="11.57142"><ele>287.0</ele><time>2026-04-07T15:46:19.286Z</time></trkpt><trkpt lat="43.60802" lon="11.5713767"><ele>288.0</ele><time>2026-04-07T15:46:21.288Z</time></trkpt><trkpt lat="43.60814" lon="11.5713533"><ele>289.0</ele><time>2026-04-07T15:46:23.289Z</time></trkpt><trkpt lat="43.6082033" lon="11.5713533"><ele>290.0</ele><time>2026-04-07T15:46:24.289Z</time></trkpt><trkpt lat="43.6083267" lon="11.5713467"><ele>290.0</ele><time>2026-04-07T15:46:26.288Z</time></trkpt><trkpt lat="43.6084467" lon="11.57135"><ele>290.0</ele><time>2026-04-07T15:46:28.286Z</time></trkpt><trkpt lat="43.6085633" lon="11.5713417"><ele>290.0</ele><time>2026-04-07T15:46:30.287Z</time></trkpt><trkpt lat="43.6086867" lon="11.5713233"><ele>290.0</ele><time>2026-04-07T15:46:32.287Z</time></trkpt><trkpt lat="43.6087533" lon="11.57131"><ele>290.0</ele><time>2026-04-07T15:46:33.286Z</time></trkpt><trkpt lat="43.60888" lon="11.5712733"><ele>289.5</ele><time>2026-04-07T15:46:35.29Z</time></trkpt><trkpt lat="43.609" lon="11.5712417"><ele>289.0</ele><time>2026-04-07T15:46:37.289Z</time></trkpt><trkpt lat="43.6091133" lon="11.5712217"><ele>288.5</ele><time>2026-04-07T15:46:39.288Z</time></trkpt><trkpt lat="43.60922" lon="11.5711983"><ele>288.0</ele><time>2026-04-07T15:46:41.288Z</time></trkpt><trkpt lat="43.6093267" lon="11.57117"><ele>288.0</ele><time>2026-04-07T15:46:43.287Z</time></trkpt><trkpt lat="43.609435" lon="11.57115"><ele>288.0</ele><time>2026-04-07T15:46:45.287Z</time></trkpt><trkpt lat="43.60954" lon="11.5711267"><ele>288.0</ele><time>2026-04-07T15:46:47.286Z</time></trkpt><trkpt lat="43.609635" lon="11.5710983"><ele>288.0</ele><time>2026-04-07T15:46:49.288Z</time></trkpt><trkpt lat="43.6097367" lon="11.571075"><ele>288.0</ele><time>2026-04-07T15:46:51.288Z</time></trkpt><trkpt lat="43.60984" lon="11.57105"><ele>288.0</ele><time>2026-04-07T15:46:53.287Z</time></trkpt><trkpt lat="43.6099417" lon="11.57103"><ele>288.0</ele><time>2026-04-07T15:46:55.288Z</time></trkpt><trkpt lat="43.61005" lon="11.57101"><ele>288.0</ele><time>2026-04-07T15:46:57.287Z</time></trkpt><trkpt lat="43.61016" lon="11.5710117"><ele>288.0</ele><time>2026-04-07T15:46:59.287Z</time></trkpt><trkpt lat="43.6102683" lon="11.5710233"><ele>288.0</ele><time>2026-04-07T15:47:01.287Z</time></trkpt><trkpt lat="43.6103617" lon="11.5710483"><ele>288.0</ele><time>2026-04-07T15:47:03.287Z</time></trkpt><trkpt lat="43.610455" lon="11.5711033"><ele>288.0</ele><time>2026-04-07T15:47:05.29Z</time></trkpt><trkpt lat="43.610535" lon="11.5711933"><ele>288.0</ele><time>2026-04-07T15:47:07.289Z</time></trkpt><trkpt lat="43.6105983" lon="11.5713217"><ele>288.0</ele><time>2026-04-07T15:47:09.286Z</time></trkpt><trkpt lat="43.610645" lon="11.5714667"><ele>288.0</ele><time>2026-04-07T15:47:11.288Z</time></trkpt><trkpt lat="43.6106783" lon="11.5716167"><ele>289.25</ele><time>2026-04-07T15:47:13.288Z</time></trkpt><trkpt lat="43.6107133" lon="11.571775"><ele>290.5</ele><time>2026-04-07T15:47:15.287Z</time></trkpt><trkpt lat="43.6107667" lon="11.5719233"><ele>291.75</ele><time>2026-04-07T15:47:17.288Z</time></trkpt><trkpt lat="43.6108233" lon="11.5720733"><ele>293.0</ele><time>2026-04-07T15:47:19.288Z</time></trkpt><trkpt lat="43.610865" lon="11.572235"><ele>293.85714285714283</ele><time>2026-04-07T15:47:21.286Z</time></trkpt><trkpt lat="43.6108917" lon="11.572315"><ele>294.7142857142857</ele><time>2026-04-07T15:47:22.286Z</time></trkpt><trkpt lat="43.61091" lon="11.5724033"><ele>295.57142857142856</ele><time>2026-04-07T15:47:23.287Z</time></trkpt><trkpt lat="43.6109267" lon="11.57249"><ele>296.42857142857144</ele><time>2026-04-07T15:47:24.286Z</time></trkpt><trkpt lat="43.6109467" lon="11.572575"><ele>297.2857142857143</ele><time>2026-04-07T15:47:25.287Z</time></trkpt><trkpt lat="43.6109667" lon="11.572665"><ele>298.1428571428571</ele><time>2026-04-07T15:47:26.29Z</time></trkpt><trkpt lat="43.61099" lon="11.5727517"><ele>299.0</ele><time>2026-04-07T15:47:27.285Z</time></trkpt><trkpt lat="43.6110167" lon="11.5728367"><ele>299.33333333333337</ele><time>2026-04-07T15:47:28.289Z</time></trkpt><trkpt lat="43.6110433" lon="11.5729183"><ele>299.6666666666667</ele><time>2026-04-07T15:47:29.289Z</time></trkpt><trkpt lat="43.6110767" lon="11.5729983"><ele>300.0</ele><time>2026-04-07T15:47:30.286Z</time></trkpt><trkpt lat="43.61112" lon="11.5730667"><ele>300.3333333333333</ele><time>2026-04-07T15:47:31.289Z</time></trkpt><trkpt lat="43.611225" lon="11.57314"><ele>300.66666666666663</ele><time>2026-04-07T15:47:33.287Z</time></trkpt><trkpt lat="43.6113417" lon="11.5730883"><ele>301.0</ele><time>2026-04-07T15:47:35.289Z</time></trkpt><trkpt lat="43.6113983" lon="11.5730333"><ele>301.0</ele><time>2026-04-07T15:47:36.287Z</time></trkpt><trkpt lat="43.61144" lon="11.5729567"><ele>301.0</ele><time>2026-04-07T15:47:37.288Z</time></trkpt><trkpt lat="43.6114683" lon="11.57286"><ele>301.0</ele><time>2026-04-07T15:47:38.29Z</time></trkpt><trkpt lat="43.611495" lon="11.57276"><ele>301.0</ele><time>2026-04-07T15:47:39.288Z</time></trkpt><trkpt lat="43.6115117" lon="11.5726583"><ele>301.0</ele><time>2026-04-07T15:47:40.29Z</time></trkpt><trkpt lat="43.61152" lon="11.57256"><ele>301.0</ele><time>2026-04-07T15:47:41.29Z</time></trkpt><trkpt lat="43.6115267" lon="11.5724617"><ele>301.0</ele><time>2026-04-07T15:47:42.288Z</time></trkpt><trkpt lat="43.6115317" lon="11.5723733"><ele>300.8333333333333</ele><time>2026-04-07T15:47:43.289Z</time></trkpt><trkpt lat="43.611535" lon="11.57228"><ele>300.66666666666663</ele><time>2026-04-07T15:47:44.289Z</time></trkpt><trkpt lat="43.6115367" lon="11.5721917"><ele>300.5</ele><time>2026-04-07T15:47:45.291Z</time></trkpt><trkpt lat="43.6115433" lon="11.5720183"><ele>300.3333333333333</ele><time>2026-04-07T15:47:47.288Z</time></trkpt><trkpt lat="43.6115417" lon="11.57193"><ele>300.1666666666667</ele><time>2026-04-07T15:47:48.288Z</time></trkpt><trkpt lat="43.6115483" lon="11.5717583"><ele>300.0</ele><time>2026-04-07T15:47:50.289Z</time></trkpt><trkpt lat="43.6115633" lon="11.5716717"><ele>299.71428571428567</ele><time>2026-04-07T15:47:51.289Z</time></trkpt><trkpt lat="43.611575" lon="11.5715833"><ele>299.42857142857144</ele><time>2026-04-07T15:47:52.287Z</time></trkpt><trkpt lat="43.6115867" lon="11.5714967"><ele>299.1428571428571</ele><time>2026-04-07T15:47:53.289Z</time></trkpt><trkpt lat="43.6116" lon="11.5713267"><ele>298.85714285714283</ele><time>2026-04-07T15:47:55.288Z</time></trkpt><trkpt lat="43.6115983" lon="11.571235"><ele>298.57142857142856</ele><time>2026-04-07T15:47:56.289Z</time></trkpt><trkpt lat="43.6116033" lon="11.5711483"><ele>298.2857142857143</ele><time>2026-04-07T15:47:57.29Z</time></trkpt><trkpt lat="43.6116217" lon="11.571065"><ele>298.0</ele><time>2026-04-07T15:47:58.289Z</time></trkpt><trkpt lat="43.6116817" lon="11.5709267"><ele>297.5</ele><time>2026-04-07T15:48:00.291Z</time></trkpt><trkpt lat="43.611765" lon="11.5708117"><ele>297.0</ele><time>2026-04-07T15:48:02.29Z</time></trkpt><trkpt lat="43.611815" lon="11.570755"><ele>296.5</ele><time>2026-04-07T15:48:03.288Z</time></trkpt><trkpt lat="43.6118717" lon="11.5707117"><ele>296.0</ele><time>2026-04-07T15:48:04.289Z</time></trkpt><trkpt lat="43.6119333" lon="11.5706833"><ele>295.5</ele><time>2026-04-07T15:48:05.289Z</time></trkpt><trkpt lat="43.6120017" lon="11.57067"><ele>295.0</ele><time>2026-04-07T15:48:06.291Z</time></trkpt><trkpt lat="43.61207" lon="11.5706633"><ele>295.8571428571429</ele><time>2026-04-07T15:48:07.288Z</time></trkpt><trkpt lat="43.6121367" lon="11.57066"><ele>296.7142857142857</ele><time>2026-04-07T15:48:08.29Z</time></trkpt><trkpt lat="43.612205" lon="11.5706533"><ele>297.57142857142856</ele><time>2026-04-07T15:48:09.288Z</time></trkpt><trkpt lat="43.61227" lon="11.57064"><ele>298.42857142857144</ele><time>2026-04-07T15:48:10.29Z</time></trkpt><trkpt lat="43.6123367" lon="11.570615"><ele>299.2857142857143</ele><time>2026-04-07T15:48:11.289Z</time></trkpt><trkpt lat="43.6123967" lon="11.5705767"><ele>300.14285714285717</ele><time>2026-04-07T15:48:12.289Z</time></trkpt><trkpt lat="43.6124533" lon="11.5705233"><ele>301.0</ele><time>2026-04-07T15:48:13.289Z</time></trkpt><trkpt lat="43.6125033" lon="11.5704617"><ele>301.0</ele><time>2026-04-07T15:48:14.291Z</time></trkpt><trkpt lat="43.61255" lon="11.57039"><ele>301.0</ele><time>2026-04-07T15:48:15.29Z</time></trkpt><trkpt lat="43.6125883" lon="11.570315"><ele>301.0</ele><time>2026-04-07T15:48:16.29Z</time></trkpt><trkpt lat="43.6126317" lon="11.570235"><ele>301.0</ele><time>2026-04-07T15:48:17.288Z</time></trkpt><trkpt lat="43.6126767" lon="11.5701583"><ele>301.0</ele><time>2026-04-07T15:48:18.29Z</time></trkpt><trkpt lat="43.6127183" lon="11.5700767"><ele>301.0</ele><time>2026-04-07T15:48:19.288Z</time></trkpt><trkpt lat="43.6127567" lon="11.5699983"><ele>301.0</ele><time>2026-04-07T15:48:20.29Z</time></trkpt><trkpt lat="43.6128017" lon="11.569915"><ele>301.66666666666663</ele><time>2026-04-07T15:48:21.288Z</time></trkpt><trkpt lat="43.6128467" lon="11.5698367"><ele>302.3333333333333</ele><time>2026-04-07T15:48:22.29Z</time></trkpt><trkpt lat="43.6129" lon="11.5697633"><ele>303.0</ele><time>2026-04-07T15:48:23.293Z</time></trkpt><trkpt lat="43.6129583" lon="11.5697"><ele>303.6666666666667</ele><time>2026-04-07T15:48:24.288Z</time></trkpt><trkpt lat="43.6130233" lon="11.5696417"><ele>304.33333333333337</ele><time>2026-04-07T15:48:25.288Z</time></trkpt><trkpt lat="43.61309" lon="11.5695867"><ele>305.0</ele><time>2026-04-07T15:48:26.291Z</time></trkpt><trkpt lat="43.6131633" lon="11.5695367"><ele>303.6666666666667</ele><time>2026-04-07T15:48:27.291Z</time></trkpt><trkpt lat="43.6132333" lon="11.56949"><ele>302.33333333333337</ele><time>2026-04-07T15:48:28.288Z</time></trkpt><trkpt lat="43.613305" lon="11.5694383"><ele>301.0</ele><time>2026-04-07T15:48:29.289Z</time></trkpt><trkpt lat="43.6133767" lon="11.5693883"><ele>299.6666666666667</ele><time>2026-04-07T15:48:30.289Z</time></trkpt><trkpt lat="43.6134483" lon="11.5693383"><ele>298.3333333333333</ele><time>2026-04-07T15:48:31.289Z</time></trkpt><trkpt lat="43.6135167" lon="11.5692883"><ele>297.0</ele><time>2026-04-07T15:48:32.288Z</time></trkpt><trkpt lat="43.6135883" lon="11.56924"><ele>297.3333333333333</ele><time>2026-04-07T15:48:33.288Z</time></trkpt><trkpt lat="43.6136567" lon="11.5691933"><ele>297.6666666666667</ele><time>2026-04-07T15:48:34.289Z</time></trkpt><trkpt lat="43.6137267" lon="11.5691417"><ele>298.0</ele><time>2026-04-07T15:48:35.289Z</time></trkpt><trkpt lat="43.6137967" lon="11.5690883"><ele>298.33333333333337</ele><time>2026-04-07T15:48:36.289Z</time></trkpt><trkpt lat="43.613865" lon="11.5690333"><ele>298.6666666666667</ele><time>2026-04-07T15:48:37.289Z</time></trkpt><trkpt lat="43.61393" lon="11.5689817"><ele>299.0</ele><time>2026-04-07T15:48:38.291Z</time></trkpt><trkpt lat="43.6139983" lon="11.5689333"><ele>299.0</ele><time>2026-04-07T15:48:39.291Z</time></trkpt><trkpt lat="43.6140683" lon="11.568885"><ele>299.0</ele><time>2026-04-07T15:48:40.291Z</time></trkpt><trkpt lat="43.61414" lon="11.568845"><ele>299.0</ele><time>2026-04-07T15:48:41.289Z</time></trkpt><trkpt lat="43.6142117" lon="11.5688133"><ele>299.0</ele><time>2026-04-07T15:48:42.29Z</time></trkpt><trkpt lat="43.614285" lon="11.568795"><ele>299.0</ele><time>2026-04-07T15:48:43.288Z</time></trkpt><trkpt lat="43.6143583" lon="11.5687933"><ele>299.0</ele><time>2026-04-07T15:48:44.288Z</time></trkpt><trkpt lat="43.6144317" lon="11.56881"><ele>298.57142857142856</ele><time>2026-04-07T15:48:45.289Z</time></trkpt><trkpt lat="43.6144983" lon="11.5688467"><ele>298.14285714285717</ele><time>2026-04-07T15:48:46.291Z</time></trkpt><trkpt lat="43.6145583" lon="11.5689067"><ele>297.7142857142857</ele><time>2026-04-07T15:48:47.288Z</time></trkpt><trkpt lat="43.6146067" lon="11.5689833"><ele>297.2857142857143</ele><time>2026-04-07T15:48:48.289Z</time></trkpt><trkpt lat="43.6146467" lon="11.5690733"><ele>296.85714285714283</ele><time>2026-04-07T15:48:49.29Z</time></trkpt><trkpt lat="43.614685" lon="11.5691617"><ele>296.42857142857144</ele><time>2026-04-07T15:48:50.289Z</time></trkpt><trkpt lat="43.6147233" lon="11.5692417"><ele>296.0</ele><time>2026-04-07T15:48:51.289Z</time></trkpt><trkpt lat="43.614775" lon="11.5693017"><ele>296.0</ele><time>2026-04-07T15:48:52.288Z</time></trkpt><trkpt lat="43.614835" lon="11.5693367"><ele>296.0</ele><time>2026-04-07T15:48:53.29Z</time></trkpt><trkpt lat="43.61496" lon="11.569305"><ele>296.0</ele><time>2026-04-07T15:48:55.292Z</time></trkpt><trkpt lat="43.61501" lon="11.5692367"><ele>296.0</ele><time>2026-04-07T15:48:56.288Z</time></trkpt><trkpt lat="43.61505" lon="11.5691583"><ele>296.0</ele><time>2026-04-07T15:48:57.286Z</time></trkpt><trkpt lat="43.6150817" lon="11.5690667"><ele>296.0</ele><time>2026-04-07T15:48:58.287Z</time></trkpt><trkpt lat="43.6150967" lon="11.568965"><ele>296.0</ele><time>2026-04-07T15:48:59.287Z</time></trkpt><trkpt lat="43.6151083" lon="11.568855"><ele>296.0</ele><time>2026-04-07T15:49:00.286Z</time></trkpt><trkpt lat="43.6151183" lon="11.5687433"><ele>296.0</ele><time>2026-04-07T15:49:01.288Z</time></trkpt><trkpt lat="43.61513" lon="11.5686283"><ele>296.0</ele><time>2026-04-07T15:49:02.286Z</time></trkpt><trkpt lat="43.6151383" lon="11.5685183"><ele>296.0</ele><time>2026-04-07T15:49:03.289Z</time></trkpt><trkpt lat="43.6151433" lon="11.5684033"><ele>296.0</ele><time>2026-04-07T15:49:04.289Z</time></trkpt><trkpt lat="43.615145" lon="11.5682867"><ele>295.83333333333337</ele><time>2026-04-07T15:49:05.291Z</time></trkpt><trkpt lat="43.615145" lon="11.5681733"><ele>295.6666666666667</ele><time>2026-04-07T15:49:06.29Z</time></trkpt><trkpt lat="43.615145" lon="11.56806"><ele>295.5</ele><time>2026-04-07T15:49:07.287Z</time></trkpt><trkpt lat="43.6151467" lon="11.5679467"><ele>295.3333333333333</ele><time>2026-04-07T15:49:08.29Z</time></trkpt><trkpt lat="43.615145" lon="11.5678317"><ele>295.16666666666663</ele><time>2026-04-07T15:49:09.29Z</time></trkpt><trkpt lat="43.615145" lon="11.56772"><ele>295.0</ele><time>2026-04-07T15:49:10.287Z</time></trkpt><trkpt lat="43.6151533" lon="11.5676033"><ele>294.0</ele><time>2026-04-07T15:49:11.289Z</time></trkpt><trkpt lat="43.6151683" lon="11.5674883"><ele>293.0</ele><time>2026-04-07T15:49:12.289Z</time></trkpt><trkpt lat="43.6151867" lon="11.5673783"><ele>292.0</ele><time>2026-04-07T15:49:13.289Z</time></trkpt><trkpt lat="43.61521" lon="11.5672633"><ele>291.0</ele><time>2026-04-07T15:49:14.289Z</time></trkpt><trkpt lat="43.6152383" lon="11.5671483"><ele>290.0</ele><time>2026-04-07T15:49:15.288Z</time></trkpt><trkpt lat="43.6152667" lon="11.5670317"><ele>289.0</ele><time>2026-04-07T15:49:16.288Z</time></trkpt><trkpt lat="43.6153033" lon="11.56691"><ele>290.4</ele><time>2026-04-07T15:49:17.291Z</time></trkpt><trkpt lat="43.6153383" lon="11.5667867"><ele>291.79999999999995</ele><time>2026-04-07T15:49:18.289Z</time></trkpt><trkpt lat="43.615375" lon="11.5666617"><ele>293.20000000000005</ele><time>2026-04-07T15:49:19.288Z</time></trkpt><trkpt lat="43.6154033" lon="11.566545"><ele>294.6</ele><time>2026-04-07T15:49:20.289Z</time></trkpt><trkpt lat="43.615435" lon="11.5664267"><ele>296.0</ele><time>2026-04-07T15:49:21.288Z</time></trkpt><trkpt lat="43.6154717" lon="11.56631"><ele>296.0</ele><time>2026-04-07T15:49:22.288Z</time></trkpt><trkpt lat="43.6155133" lon="11.5661967"><ele>296.0</ele><time>2026-04-07T15:49:23.286Z</time></trkpt><trkpt lat="43.615565" lon="11.5660933"><ele>296.0</ele><time>2026-04-07T15:49:24.288Z</time></trkpt><trkpt lat="43.6156283" lon="11.5660033"><ele>296.0</ele><time>2026-04-07T15:49:25.289Z</time></trkpt><trkpt lat="43.6156983" lon="11.5659267"><ele>296.0</ele><time>2026-04-07T15:49:26.289Z</time></trkpt><trkpt lat="43.615775" lon="11.5658683"><ele>294.1666666666667</ele><time>2026-04-07T15:49:27.288Z</time></trkpt><trkpt lat="43.61586" lon="11.5658217"><ele>292.33333333333337</ele><time>2026-04-07T15:49:28.289Z</time></trkpt><trkpt lat="43.6159433" lon="11.5657883"><ele>290.5</ele><time>2026-04-07T15:49:29.287Z</time></trkpt><trkpt lat="43.6160283" lon="11.56576"><ele>288.6666666666667</ele><time>2026-04-07T15:49:30.287Z</time></trkpt><trkpt lat="43.6161167" lon="11.5657383"><ele>286.8333333333333</ele><time>2026-04-07T15:49:31.286Z</time></trkpt><trkpt lat="43.616205" lon="11.5657233"><ele>285.0</ele><time>2026-04-07T15:49:32.287Z</time></trkpt><trkpt lat="43.6162917" lon="11.5657133"><ele>285.0</ele><time>2026-04-07T15:49:33.286Z</time></trkpt><trkpt lat="43.6163817" lon="11.5657067"><ele>285.0</ele><time>2026-04-07T15:49:34.287Z</time></trkpt><trkpt lat="43.61647" lon="11.5657017"><ele>285.0</ele><time>2026-04-07T15:49:35.288Z</time></trkpt><trkpt lat="43.6165617" lon="11.5656933"><ele>285.0</ele><time>2026-04-07T15:49:36.286Z</time></trkpt><trkpt lat="43.6166517" lon="11.5656867"><ele>285.0</ele><time>2026-04-07T15:49:37.289Z</time></trkpt><trkpt lat="43.6167433" lon="11.565675"><ele>285.0</ele><time>2026-04-07T15:49:38.286Z</time></trkpt><trkpt lat="43.6168333" lon="11.5656533"><ele>285.0</ele><time>2026-04-07T15:49:39.287Z</time></trkpt><trkpt lat="43.6169233" lon="11.5656117"><ele>285.0</ele><time>2026-04-07T15:49:40.287Z</time></trkpt><trkpt lat="43.6169967" lon="11.565545"><ele>285.0</ele><time>2026-04-07T15:49:41.288Z</time></trkpt><trkpt lat="43.61706" lon="11.565465"><ele>285.0</ele><time>2026-04-07T15:49:42.289Z</time></trkpt><trkpt lat="43.6171067" lon="11.56537"><ele>285.0</ele><time>2026-04-07T15:49:43.286Z</time></trkpt><trkpt lat="43.61714" lon="11.565265"><ele>285.3333333333333</ele><time>2026-04-07T15:49:44.287Z</time></trkpt><trkpt lat="43.6171683" lon="11.5651583"><ele>285.6666666666667</ele><time>2026-04-07T15:49:45.288Z</time></trkpt><trkpt lat="43.6171883" lon="11.56505"><ele>286.0</ele><time>2026-04-07T15:49:46.29Z</time></trkpt><trkpt lat="43.6172067" lon="11.564945"><ele>286.33333333333337</ele><time>2026-04-07T15:49:47.287Z</time></trkpt><trkpt lat="43.61723" lon="11.5648383"><ele>286.6666666666667</ele><time>2026-04-07T15:49:48.287Z</time></trkpt><trkpt lat="43.6172533" lon="11.5647367"><ele>287.0</ele><time>2026-04-07T15:49:49.289Z</time></trkpt><trkpt lat="43.6172833" lon="11.5646433"><ele>287.0</ele><time>2026-04-07T15:49:50.288Z</time></trkpt><trkpt lat="43.6173233" lon="11.5645533"><ele>287.0</ele><time>2026-04-07T15:49:51.287Z</time></trkpt><trkpt lat="43.6173717" lon="11.56447"><ele>287.0</ele><time>2026-04-07T15:49:52.287Z</time></trkpt><trkpt lat="43.617425" lon="11.5643967"><ele>287.0</ele><time>2026-04-07T15:49:53.287Z</time></trkpt><trkpt lat="43.6174867" lon="11.5643233"><ele>287.0</ele><time>2026-04-07T15:49:54.286Z</time></trkpt><trkpt lat="43.6175483" lon="11.5642567"><ele>287.0</ele><time>2026-04-07T15:49:55.287Z</time></trkpt><trkpt lat="43.6176183" lon="11.5641933"><ele>286.5</ele><time>2026-04-07T15:49:56.289Z</time></trkpt><trkpt lat="43.6176883" lon="11.5641367"><ele>286.0</ele><time>2026-04-07T15:49:57.288Z</time></trkpt><trkpt lat="43.6177633" lon="11.5640867"><ele>285.5</ele><time>2026-04-07T15:49:58.289Z</time></trkpt><trkpt lat="43.6178417" lon="11.5640433"><ele>285.0</ele><time>2026-04-07T15:49:59.288Z</time></trkpt><trkpt lat="43.617925" lon="11.5640183"><ele>284.5</ele><time>2026-04-07T15:50:00.288Z</time></trkpt><trkpt lat="43.6180133" lon="11.5640017"><ele>284.0</ele><time>2026-04-07T15:50:01.288Z</time></trkpt><trkpt lat="43.6181033" lon="11.56399"><ele>284.0</ele><time>2026-04-07T15:50:02.289Z</time></trkpt><trkpt lat="43.6181983" lon="11.5639783"><ele>284.0</ele><time>2026-04-07T15:50:03.288Z</time></trkpt><trkpt lat="43.6182933" lon="11.5639633"><ele>284.0</ele><time>2026-04-07T15:50:04.288Z</time></trkpt><trkpt lat="43.6183867" lon="11.5639417"><ele>284.0</ele><time>2026-04-07T15:50:05.29Z</time></trkpt><trkpt lat="43.61847" lon="11.5639017"><ele>284.0</ele><time>2026-04-07T15:50:06.287Z</time></trkpt><trkpt lat="43.618545" lon="11.5638367"><ele>284.0</ele><time>2026-04-07T15:50:07.288Z</time></trkpt><trkpt lat="43.6186167" lon="11.563765"><ele>284.0</ele><time>2026-04-07T15:50:08.289Z</time></trkpt><trkpt lat="43.6186917" lon="11.5636833"><ele>284.0</ele><time>2026-04-07T15:50:09.287Z</time></trkpt><trkpt lat="43.618765" lon="11.5636"><ele>284.0</ele><time>2026-04-07T15:50:10.289Z</time></trkpt><trkpt lat="43.6188417" lon="11.5635183"><ele>284.0</ele><time>2026-04-07T15:50:11.288Z</time></trkpt><trkpt lat="43.6189217" lon="11.5634467"><ele>282.59999999999997</ele><time>2026-04-07T15:50:12.29Z</time></trkpt><trkpt lat="43.61901" lon="11.56339"><ele>281.2</ele><time>2026-04-07T15:50:13.286Z</time></trkpt><trkpt lat="43.6191033" lon="11.56335"><ele>279.79999999999995</ele><time>2026-04-07T15:50:14.29Z</time></trkpt><trkpt lat="43.6191967" lon="11.5633233"><ele>278.4</ele><time>2026-04-07T15:50:15.287Z</time></trkpt><trkpt lat="43.61929" lon="11.563295"><ele>277.0</ele><time>2026-04-07T15:50:16.287Z</time></trkpt><trkpt lat="43.6193833" lon="11.5632667"><ele>277.0</ele><time>2026-04-07T15:50:17.287Z</time></trkpt><trkpt lat="43.6194733" lon="11.5632367"><ele>277.0</ele><time>2026-04-07T15:50:18.286Z</time></trkpt><trkpt lat="43.61956" lon="11.5632"><ele>277.0</ele><time>2026-04-07T15:50:19.286Z</time></trkpt><trkpt lat="43.6196483" lon="11.5631583"><ele>277.0</ele><time>2026-04-07T15:50:20.289Z</time></trkpt><trkpt lat="43.6197317" lon="11.5631033"><ele>277.0</ele><time>2026-04-07T15:50:21.288Z</time></trkpt><trkpt lat="43.6198067" lon="11.5630417"><ele>277.3333333333333</ele><time>2026-04-07T15:50:22.288Z</time></trkpt><trkpt lat="43.61988" lon="11.562965"><ele>277.66666666666663</ele><time>2026-04-07T15:50:23.288Z</time></trkpt><trkpt lat="43.6199383" lon="11.5628817"><ele>278.0</ele><time>2026-04-07T15:50:24.291Z</time></trkpt><trkpt lat="43.61999" lon="11.56279"><ele>278.3333333333333</ele><time>2026-04-07T15:50:25.286Z</time></trkpt><trkpt lat="43.6200333" lon="11.5626983"><ele>278.6666666666667</ele><time>2026-04-07T15:50:26.288Z</time></trkpt><trkpt lat="43.6200783" lon="11.5626"><ele>279.0</ele><time>2026-04-07T15:50:27.285Z</time></trkpt><trkpt lat="43.62012" lon="11.56251"><ele>279.0</ele><time>2026-04-07T15:50:28.288Z</time></trkpt><trkpt lat="43.620155" lon="11.5624233"><ele>279.0</ele><time>2026-04-07T15:50:29.286Z</time></trkpt><trkpt lat="43.620185" lon="11.5623383"><ele>279.0</ele><time>2026-04-07T15:50:30.286Z</time></trkpt><trkpt lat="43.6202167" lon="11.5622533"><ele>279.0</ele><time>2026-04-07T15:50:31.289Z</time></trkpt><trkpt lat="43.62028" lon="11.562105"><ele>279.0</ele><time>2026-04-07T15:50:33.288Z</time></trkpt><trkpt lat="43.6203417" lon="11.561965"><ele>281.25</ele><time>2026-04-07T15:50:35.287Z</time></trkpt><trkpt lat="43.6204033" lon="11.561825"><ele>283.5</ele><time>2026-04-07T15:50:37.287Z</time></trkpt><trkpt lat="43.6204683" lon="11.5616933"><ele>285.75</ele><time>2026-04-07T15:50:39.286Z</time></trkpt><trkpt lat="43.6205267" lon="11.56155"><ele>288.0</ele><time>2026-04-07T15:50:41.289Z</time></trkpt><trkpt lat="43.6205917" lon="11.5614117"><ele>288.0</ele><time>2026-04-07T15:50:43.288Z</time></trkpt><trkpt lat="43.6206567" lon="11.56127"><ele>288.0</ele><time>2026-04-07T15:50:45.287Z</time></trkpt><trkpt lat="43.6207067" lon="11.5611367"><ele>288.0</ele><time>2026-04-07T15:50:47.287Z</time></trkpt><trkpt lat="43.6207433" lon="11.5610567"><ele>288.0</ele><time>2026-04-07T15:50:48.286Z</time></trkpt><trkpt lat="43.62078" lon="11.5609833"><ele>288.0</ele><time>2026-04-07T15:50:49.287Z</time></trkpt><trkpt lat="43.6208433" lon="11.5608433"><ele>287.75</ele><time>2026-04-07T15:50:51.287Z</time></trkpt><trkpt lat="43.620905" lon="11.5607033"><ele>287.5</ele><time>2026-04-07T15:50:53.288Z</time></trkpt><trkpt lat="43.620975" lon="11.5605617"><ele>287.25</ele><time>2026-04-07T15:50:55.286Z</time></trkpt><trkpt lat="43.6210467" lon="11.5604283"><ele>287.0</ele><time>2026-04-07T15:50:57.286Z</time></trkpt><trkpt lat="43.6211217" lon="11.5602917"><ele>287.0</ele><time>2026-04-07T15:50:59.287Z</time></trkpt><trkpt lat="43.621195" lon="11.560165"><ele>287.0</ele><time>2026-04-07T15:51:01.288Z</time></trkpt><trkpt lat="43.6212717" lon="11.56003"><ele>287.0</ele><time>2026-04-07T15:51:03.287Z</time></trkpt><trkpt lat="43.6213433" lon="11.559905"><ele>287.0</ele><time>2026-04-07T15:51:05.288Z</time></trkpt><trkpt lat="43.6214167" lon="11.5597833"><ele>287.0</ele><time>2026-04-07T15:51:07.287Z</time></trkpt><trkpt lat="43.6214983" lon="11.5596817"><ele>287.0</ele><time>2026-04-07T15:51:09.287Z</time></trkpt><trkpt lat="43.6215867" lon="11.55959"><ele>287.0</ele><time>2026-04-07T15:51:11.288Z</time></trkpt><trkpt lat="43.62169" lon="11.559515"><ele>287.0</ele><time>2026-04-07T15:51:13.286Z</time></trkpt><trkpt lat="43.6218067" lon="11.55947"><ele>286.8</ele><time>2026-04-07T15:51:15.286Z</time></trkpt><trkpt lat="43.6219217" lon="11.5594417"><ele>286.6</ele><time>2026-04-07T15:51:17.287Z</time></trkpt><trkpt lat="43.6220333" lon="11.5594033"><ele>286.40000000000003</ele><time>2026-04-07T15:51:19.286Z</time></trkpt><trkpt lat="43.62212" lon="11.5593733"><ele>286.2</ele><time>2026-04-07T15:51:21.285Z</time></trkpt><trkpt lat="43.6221883" lon="11.5593783"><ele>286.0</ele><time>2026-04-07T15:51:24.285Z</time></trkpt><trkpt lat="43.6222517" lon="11.5594067"><ele>286.0</ele><time>2026-04-07T15:51:27.29Z</time></trkpt><trkpt lat="43.6223383" lon="11.5594183"><ele>286.0</ele><time>2026-04-07T15:51:29.289Z</time></trkpt><trkpt lat="43.6224317" lon="11.5593733"><ele>286.0</ele><time>2026-04-07T15:51:31.287Z</time></trkpt><trkpt lat="43.6224633" lon="11.5592333"><ele>286.0</ele><time>2026-04-07T15:51:33.286Z</time></trkpt><trkpt lat="43.62242" lon="11.559075"><ele>286.0</ele><time>2026-04-07T15:51:35.286Z</time></trkpt><trkpt lat="43.6223783" lon="11.5589867"><ele>285.99999999999994</ele><time>2026-04-07T15:51:36.287Z</time></trkpt><trkpt lat="43.62234" lon="11.5588967"><ele>286.0</ele><time>2026-04-07T15:51:37.288Z</time></trkpt><trkpt lat="43.622315" lon="11.5587967"><ele>286.0</ele><time>2026-04-07T15:51:38.287Z</time></trkpt><trkpt lat="43.6222983" lon="11.5587"><ele>286.0</ele><time>2026-04-07T15:51:39.286Z</time></trkpt><trkpt lat="43.6222817" lon="11.5586"><ele>286.0</ele><time>2026-04-07T15:51:40.287Z</time></trkpt><trkpt lat="43.6222583" lon="11.5585083"><ele>285.99999999999994</ele><time>2026-04-07T15:51:41.287Z</time></trkpt><trkpt lat="43.6222283" lon="11.558415"><ele>286.0</ele><time>2026-04-07T15:51:42.287Z</time></trkpt><trkpt lat="43.62219" lon="11.5583333"><ele>285.8333333333333</ele><time>2026-04-07T15:51:43.289Z</time></trkpt><trkpt lat="43.6221433" lon="11.558255"><ele>285.66666666666663</ele><time>2026-04-07T15:51:44.288Z</time></trkpt><trkpt lat="43.6220933" lon="11.5581867"><ele>285.5</ele><time>2026-04-07T15:51:45.287Z</time></trkpt><trkpt lat="43.6220333" lon="11.5581217"><ele>285.3333333333333</ele><time>2026-04-07T15:51:46.286Z</time></trkpt><trkpt lat="43.6219667" lon="11.5580583"><ele>285.1666666666667</ele><time>2026-04-07T15:51:47.288Z</time></trkpt><trkpt lat="43.6218983" lon="11.5579967"><ele>285.0</ele><time>2026-04-07T15:51:48.289Z</time></trkpt><trkpt lat="43.6218283" lon="11.557935"><ele>285.0</ele><time>2026-04-07T15:51:49.289Z</time></trkpt><trkpt lat="43.6217583" lon="11.5578717"><ele>285.0</ele><time>2026-04-07T15:51:50.289Z</time></trkpt><trkpt lat="43.6216867" lon="11.55781"><ele>285.0</ele><time>2026-04-07T15:51:51.288Z</time></trkpt><trkpt lat="43.6216133" lon="11.5577467"><ele>285.0</ele><time>2026-04-07T15:51:52.287Z</time></trkpt><trkpt lat="43.62154" lon="11.5576767"><ele>285.0</ele><time>2026-04-07T15:51:53.288Z</time></trkpt><trkpt lat="43.6214667" lon="11.5576083"><ele>285.0</ele><time>2026-04-07T15:51:54.288Z</time></trkpt><trkpt lat="43.62139" lon="11.5575367"><ele>285.0</ele><time>2026-04-07T15:51:55.288Z</time></trkpt><trkpt lat="43.62132" lon="11.557465"><ele>285.0</ele><time>2026-04-07T15:51:56.287Z</time></trkpt><trkpt lat="43.62126" lon="11.5573767"><ele>285.0</ele><time>2026-04-07T15:51:57.289Z</time></trkpt><trkpt lat="43.6212233" lon="11.5572733"><ele>285.0</ele><time>2026-04-07T15:51:58.29Z</time></trkpt><trkpt lat="43.62121" lon="11.55716"><ele>285.0</ele><time>2026-04-07T15:51:59.29Z</time></trkpt><trkpt lat="43.6212183" lon="11.5570533"><ele>285.0</ele><time>2026-04-07T15:52:00.288Z</time></trkpt><trkpt lat="43.6212483" lon="11.5569533"><ele>284.8333333333333</ele><time>2026-04-07T15:52:01.289Z</time></trkpt><trkpt lat="43.6212967" lon="11.55686"><ele>284.6666666666667</ele><time>2026-04-07T15:52:02.289Z</time></trkpt><trkpt lat="43.6213583" lon="11.5567833"><ele>284.5</ele><time>2026-04-07T15:52:03.287Z</time></trkpt><trkpt lat="43.6214233" lon="11.5567167"><ele>284.33333333333337</ele><time>2026-04-07T15:52:04.289Z</time></trkpt><trkpt lat="43.6214883" lon="11.5566517"><ele>284.1666666666667</ele><time>2026-04-07T15:52:05.289Z</time></trkpt><trkpt lat="43.621555" lon="11.55659"><ele>284.0</ele><time>2026-04-07T15:52:06.291Z</time></trkpt><trkpt lat="43.6216217" lon="11.556535"><ele>284.0</ele><time>2026-04-07T15:52:07.289Z</time></trkpt><trkpt lat="43.6216867" lon="11.5564783"><ele>284.0</ele><time>2026-04-07T15:52:08.29Z</time></trkpt><trkpt lat="43.6217483" lon="11.5564167"><ele>284.0</ele><time>2026-04-07T15:52:09.29Z</time></trkpt><trkpt lat="43.62181" lon="11.5563633"><ele>284.0</ele><time>2026-04-07T15:52:10.289Z</time></trkpt><trkpt lat="43.6218717" lon="11.5563083"><ele>284.0</ele><time>2026-04-07T15:52:11.29Z</time></trkpt><trkpt lat="43.6219317" lon="11.5562567"><ele>284.0</ele><time>2026-04-07T15:52:12.289Z</time></trkpt><trkpt lat="43.62199" lon="11.5561983"><ele>284.0</ele><time>2026-04-07T15:52:13.289Z</time></trkpt><trkpt lat="43.6220467" lon="11.55614"><ele>284.0</ele><time>2026-04-07T15:52:14.288Z</time></trkpt><trkpt lat="43.6220983" lon="11.5560833"><ele>284.0</ele><time>2026-04-07T15:52:15.289Z</time></trkpt><trkpt lat="43.6221517" lon="11.5560267"><ele>284.0</ele><time>2026-04-07T15:52:16.289Z</time></trkpt><trkpt lat="43.6222033" lon="11.55597"><ele>284.0</ele><time>2026-04-07T15:52:17.288Z</time></trkpt><trkpt lat="43.6222567" lon="11.5559083"><ele>284.0</ele><time>2026-04-07T15:52:18.287Z</time></trkpt><trkpt lat="43.6223133" lon="11.55585"><ele>284.0</ele><time>2026-04-07T15:52:19.286Z</time></trkpt><trkpt lat="43.6223733" lon="11.5557833"><ele>284.0</ele><time>2026-04-07T15:52:20.291Z</time></trkpt><trkpt lat="43.622425" lon="11.5557133"><ele>284.0</ele><time>2026-04-07T15:52:21.287Z</time></trkpt><trkpt lat="43.6224717" lon="11.5556383"><ele>284.0</ele><time>2026-04-07T15:52:22.288Z</time></trkpt><trkpt lat="43.62252" lon="11.55555"><ele>284.0</ele><time>2026-04-07T15:52:23.288Z</time></trkpt><trkpt lat="43.6225583" lon="11.5554567"><ele>284.0</ele><time>2026-04-07T15:52:24.291Z</time></trkpt><trkpt lat="43.62259" lon="11.555355"><ele>284.0</ele><time>2026-04-07T15:52:25.291Z</time></trkpt><trkpt lat="43.622615" lon="11.55525"><ele>284.0</ele><time>2026-04-07T15:52:26.289Z</time></trkpt><trkpt lat="43.6226333" lon="11.5551383"><ele>283.5</ele><time>2026-04-07T15:52:27.29Z</time></trkpt><trkpt lat="43.6226433" lon="11.5550267"><ele>283.0</ele><time>2026-04-07T15:52:28.289Z</time></trkpt><trkpt lat="43.6226483" lon="11.5549133"><ele>282.5</ele><time>2026-04-07T15:52:29.289Z</time></trkpt><trkpt lat="43.6226483" lon="11.55479"><ele>282.0</ele><time>2026-04-07T15:52:30.289Z</time></trkpt><trkpt lat="43.6226483" lon="11.55467"><ele>281.5</ele><time>2026-04-07T15:52:31.29Z</time></trkpt><trkpt lat="43.6226433" lon="11.5545467"><ele>281.0</ele><time>2026-04-07T15:52:32.288Z</time></trkpt><trkpt lat="43.6226383" lon="11.554425"><ele>280.6666666666667</ele><time>2026-04-07T15:52:33.289Z</time></trkpt><trkpt lat="43.6226317" lon="11.5542983"><ele>280.33333333333337</ele><time>2026-04-07T15:52:34.288Z</time></trkpt><trkpt lat="43.6226217" lon="11.55418"><ele>280.0</ele><time>2026-04-07T15:52:35.289Z</time></trkpt><trkpt lat="43.6226117" lon="11.55406"><ele>279.6666666666667</ele><time>2026-04-07T15:52:36.288Z</time></trkpt><trkpt lat="43.6225967" lon="11.55394"><ele>279.3333333333333</ele><time>2026-04-07T15:52:37.29Z</time></trkpt><trkpt lat="43.6225733" lon="11.5538183"><ele>279.0</ele><time>2026-04-07T15:52:38.288Z</time></trkpt><trkpt lat="43.6225383" lon="11.553705"><ele>278.8</ele><time>2026-04-07T15:52:39.289Z</time></trkpt><trkpt lat="43.6224983" lon="11.5535917"><ele>278.59999999999997</ele><time>2026-04-07T15:52:40.287Z</time></trkpt><trkpt lat="43.62245" lon="11.5534867"><ele>278.4</ele><time>2026-04-07T15:52:41.29Z</time></trkpt><trkpt lat="43.6223967" lon="11.5533833"><ele>278.2</ele><time>2026-04-07T15:52:42.289Z</time></trkpt><trkpt lat="43.6223433" lon="11.5532867"><ele>278.0</ele><time>2026-04-07T15:52:43.29Z</time></trkpt><trkpt lat="43.6222833" lon="11.5531933"><ele>278.0</ele><time>2026-04-07T15:52:44.288Z</time></trkpt><trkpt lat="43.62222" lon="11.5531033"><ele>278.0</ele><time>2026-04-07T15:52:45.289Z</time></trkpt><trkpt lat="43.62215" lon="11.553025"><ele>278.0</ele><time>2026-04-07T15:52:46.289Z</time></trkpt><trkpt lat="43.6220767" lon="11.5529483"><ele>278.0</ele><time>2026-04-07T15:52:47.288Z</time></trkpt><trkpt lat="43.622" lon="11.552885"><ele>278.0</ele><time>2026-04-07T15:52:48.288Z</time></trkpt><trkpt lat="43.6219183" lon="11.5528333"><ele>277.0</ele><time>2026-04-07T15:52:49.29Z</time></trkpt><trkpt lat="43.621835" lon="11.5527867"><ele>276.0</ele><time>2026-04-07T15:52:50.289Z</time></trkpt><trkpt lat="43.6217483" lon="11.55275"><ele>275.0</ele><time>2026-04-07T15:52:51.287Z</time></trkpt><trkpt lat="43.6216617" lon="11.5527283"><ele>274.0</ele><time>2026-04-07T15:52:52.287Z</time></trkpt><trkpt lat="43.6215767" lon="11.5527117"><ele>273.0</ele><time>2026-04-07T15:52:53.288Z</time></trkpt><trkpt lat="43.6214883" lon="11.552705"><ele>272.0</ele><time>2026-04-07T15:52:54.288Z</time></trkpt><trkpt lat="43.621405" lon="11.5527033"><ele>272.0</ele><time>2026-04-07T15:52:55.287Z</time></trkpt><trkpt lat="43.6213217" lon="11.5527083"><ele>272.0</ele><time>2026-04-07T15:52:56.289Z</time></trkpt><trkpt lat="43.621235" lon="11.5527133"><ele>272.0</ele><time>2026-04-07T15:52:57.289Z</time></trkpt><trkpt lat="43.62115" lon="11.5527183"><ele>272.0</ele><time>2026-04-07T15:52:58.286Z</time></trkpt><trkpt lat="43.621065" lon="11.5527267"><ele>272.0</ele><time>2026-04-07T15:52:59.288Z</time></trkpt><trkpt lat="43.6209833" lon="11.552735"><ele>272.0</ele><time>2026-04-07T15:53:00.288Z</time></trkpt><trkpt lat="43.6209" lon="11.552745"><ele>272.1666666666667</ele><time>2026-04-07T15:53:01.288Z</time></trkpt><trkpt lat="43.6208233" lon="11.5527483"><ele>272.33333333333337</ele><time>2026-04-07T15:53:02.289Z</time></trkpt><trkpt lat="43.6207517" lon="11.5527517"><ele>272.5</ele><time>2026-04-07T15:53:03.291Z</time></trkpt><trkpt lat="43.6206883" lon="11.5527433"><ele>272.6666666666667</ele><time>2026-04-07T15:53:04.289Z</time></trkpt><trkpt lat="43.6206283" lon="11.5527117"><ele>272.8333333333333</ele><time>2026-04-07T15:53:05.289Z</time></trkpt><trkpt lat="43.62057" lon="11.5525667"><ele>273.0</ele><time>2026-04-07T15:53:07.289Z</time></trkpt><trkpt lat="43.6205683" lon="11.5524733"><ele>273.0</ele><time>2026-04-07T15:53:08.288Z</time></trkpt><trkpt lat="43.620575" lon="11.55237"><ele>273.0</ele><time>2026-04-07T15:53:09.287Z</time></trkpt><trkpt lat="43.6205833" lon="11.5522633"><ele>273.0</ele><time>2026-04-07T15:53:10.287Z</time></trkpt><trkpt lat="43.6205917" lon="11.5521533"><ele>273.0</ele><time>2026-04-07T15:53:11.288Z</time></trkpt><trkpt lat="43.6206017" lon="11.55204"><ele>273.0</ele><time>2026-04-07T15:53:12.287Z</time></trkpt><trkpt lat="43.6206133" lon="11.551915"><ele>273.0</ele><time>2026-04-07T15:53:13.289Z</time></trkpt><trkpt lat="43.62062" lon="11.5517883"><ele>272.2</ele><time>2026-04-07T15:53:14.288Z</time></trkpt><trkpt lat="43.6206283" lon="11.5516583"><ele>271.4</ele><time>2026-04-07T15:53:15.288Z</time></trkpt><trkpt lat="43.6206367" lon="11.5515267"><ele>270.59999999999997</ele><time>2026-04-07T15:53:16.288Z</time></trkpt><trkpt lat="43.6206467" lon="11.55139"><ele>269.8</ele><time>2026-04-07T15:53:17.288Z</time></trkpt><trkpt lat="43.6206533" lon="11.5512533"><ele>269.0</ele><time>2026-04-07T15:53:18.287Z</time></trkpt><trkpt lat="43.62066" lon="11.5511167"><ele>268.59999999999997</ele><time>2026-04-07T15:53:19.287Z</time></trkpt><trkpt lat="43.6206633" lon="11.55098"><ele>268.2</ele><time>2026-04-07T15:53:20.287Z</time></trkpt><trkpt lat="43.620665" lon="11.5508467"><ele>267.79999999999995</ele><time>2026-04-07T15:53:21.286Z</time></trkpt><trkpt lat="43.62067" lon="11.55071"><ele>267.4</ele><time>2026-04-07T15:53:22.286Z</time></trkpt><trkpt lat="43.6206717" lon="11.5505617"><ele>267.0</ele><time>2026-04-07T15:53:23.287Z</time></trkpt><trkpt lat="43.6206733" lon="11.550415"><ele>266.25</ele><time>2026-04-07T15:53:24.287Z</time></trkpt><trkpt lat="43.6206767" lon="11.55026"><ele>265.5</ele><time>2026-04-07T15:53:25.287Z</time></trkpt><trkpt lat="43.6206783" lon="11.5501"><ele>264.75</ele><time>2026-04-07T15:53:26.288Z</time></trkpt><trkpt lat="43.62068" lon="11.5499417"><ele>264.0</ele><time>2026-04-07T15:53:27.287Z</time></trkpt><trkpt lat="43.6206833" lon="11.549785"><ele>264.0</ele><time>2026-04-07T15:53:28.287Z</time></trkpt><trkpt lat="43.62068" lon="11.54963"><ele>264.0</ele><time>2026-04-07T15:53:29.287Z</time></trkpt><trkpt lat="43.62067" lon="11.5494717"><ele>264.0</ele><time>2026-04-07T15:53:30.288Z</time></trkpt><trkpt lat="43.620655" lon="11.5493117"><ele>264.0</ele><time>2026-04-07T15:53:31.288Z</time></trkpt><trkpt lat="43.62064" lon="11.5491467"><ele>262.5</ele><time>2026-04-07T15:53:32.289Z</time></trkpt><trkpt lat="43.6206317" lon="11.54897"><ele>261.0</ele><time>2026-04-07T15:53:33.288Z</time></trkpt><trkpt lat="43.6206233" lon="11.54879"><ele>259.5</ele><time>2026-04-07T15:53:34.288Z</time></trkpt><trkpt lat="43.620625" lon="11.5486033"><ele>258.0</ele><time>2026-04-07T15:53:35.288Z</time></trkpt><trkpt lat="43.6206267" lon="11.5484117"><ele>256.0</ele><time>2026-04-07T15:53:36.289Z</time></trkpt><trkpt lat="43.6206333" lon="11.5482133"><ele>254.0</ele><time>2026-04-07T15:53:37.289Z</time></trkpt><trkpt lat="43.6206433" lon="11.5480167"><ele>252.0</ele><time>2026-04-07T15:53:38.29Z</time></trkpt><trkpt lat="43.6206567" lon="11.5478233"><ele>250.0</ele><time>2026-04-07T15:53:39.29Z</time></trkpt><trkpt lat="43.6206833" lon="11.547635"><ele>249.25</ele><time>2026-04-07T15:53:40.289Z</time></trkpt><trkpt lat="43.6207117" lon="11.54745"><ele>248.5</ele><time>2026-04-07T15:53:41.29Z</time></trkpt><trkpt lat="43.62074" lon="11.547265"><ele>247.75</ele><time>2026-04-07T15:53:42.291Z</time></trkpt><trkpt lat="43.6207683" lon="11.5470767"><ele>247.0</ele><time>2026-04-07T15:53:43.289Z</time></trkpt><trkpt lat="43.6207983" lon="11.546895"><ele>245.25</ele><time>2026-04-07T15:53:44.289Z</time></trkpt><trkpt lat="43.62083" lon="11.546715"><ele>243.5</ele><time>2026-04-07T15:53:45.291Z</time></trkpt><trkpt lat="43.6208617" lon="11.54654"><ele>241.75</ele><time>2026-04-07T15:53:46.289Z</time></trkpt><trkpt lat="43.6208967" lon="11.54637"><ele>240.0</ele><time>2026-04-07T15:53:47.289Z</time></trkpt><trkpt lat="43.620925" lon="11.54621"><ele>238.5</ele><time>2026-04-07T15:53:48.289Z</time></trkpt><trkpt lat="43.620945" lon="11.5460517"><ele>237.0</ele><time>2026-04-07T15:53:49.289Z</time></trkpt><trkpt lat="43.6209617" lon="11.5458917"><ele>235.5</ele><time>2026-04-07T15:53:50.289Z</time></trkpt><trkpt lat="43.620965" lon="11.54573"><ele>234.0</ele><time>2026-04-07T15:53:51.29Z</time></trkpt><trkpt lat="43.6209467" lon="11.5455767"><ele>234.0</ele><time>2026-04-07T15:53:52.29Z</time></trkpt><trkpt lat="43.6209117" lon="11.545425"><ele>234.0</ele><time>2026-04-07T15:53:53.291Z</time></trkpt><trkpt lat="43.6208617" lon="11.5452833"><ele>234.0</ele><time>2026-04-07T15:53:54.291Z</time></trkpt><trkpt lat="43.62079" lon="11.54515"><ele>234.0</ele><time>2026-04-07T15:53:55.289Z</time></trkpt><trkpt lat="43.6207" lon="11.5450417"><ele>235.25</ele><time>2026-04-07T15:53:56.288Z</time></trkpt><trkpt lat="43.6205967" lon="11.5449483"><ele>236.5</ele><time>2026-04-07T15:53:57.291Z</time></trkpt><trkpt lat="43.6204833" lon="11.5448667"><ele>237.75</ele><time>2026-04-07T15:53:58.287Z</time></trkpt><trkpt lat="43.6203633" lon="11.5447967"><ele>239.0</ele><time>2026-04-07T15:53:59.287Z</time></trkpt><trkpt lat="43.6202417" lon="11.544735"><ele>237.75</ele><time>2026-04-07T15:54:00.287Z</time></trkpt><trkpt lat="43.6201217" lon="11.5446817"><ele>236.5</ele><time>2026-04-07T15:54:01.287Z</time></trkpt><trkpt lat="43.6200067" lon="11.54463"><ele>235.25</ele><time>2026-04-07T15:54:02.288Z</time></trkpt><trkpt lat="43.6199017" lon="11.5445833"><ele>234.0</ele><time>2026-04-07T15:54:03.287Z</time></trkpt><trkpt lat="43.6198033" lon="11.5445167"><ele>234.0</ele><time>2026-04-07T15:54:04.286Z</time></trkpt><trkpt lat="43.6197167" lon="11.5444267"><ele>234.0</ele><time>2026-04-07T15:54:05.289Z</time></trkpt><trkpt lat="43.619645" lon="11.5443083"><ele>234.0</ele><time>2026-04-07T15:54:06.286Z</time></trkpt><trkpt lat="43.619595" lon="11.544165"><ele>234.0</ele><time>2026-04-07T15:54:07.287Z</time></trkpt><trkpt lat="43.6195667" lon="11.5440067"><ele>234.0</ele><time>2026-04-07T15:54:08.287Z</time></trkpt><trkpt lat="43.619555" lon="11.543845"><ele>234.0</ele><time>2026-04-07T15:54:09.289Z</time></trkpt><trkpt lat="43.6195583" lon="11.543675"><ele>234.0</ele><time>2026-04-07T15:54:10.287Z</time></trkpt><trkpt lat="43.61957" lon="11.5435017"><ele>234.0</ele><time>2026-04-07T15:54:11.289Z</time></trkpt><trkpt lat="43.6195817" lon="11.5433233"><ele>234.0</ele><time>2026-04-07T15:54:12.288Z</time></trkpt><trkpt lat="43.6195883" lon="11.5431417"><ele>234.0</ele><time>2026-04-07T15:54:13.288Z</time></trkpt><trkpt lat="43.6195967" lon="11.5429617"><ele>234.0</ele><time>2026-04-07T15:54:14.289Z</time></trkpt><trkpt lat="43.619605" lon="11.5427883"><ele>234.0</ele><time>2026-04-07T15:54:15.29Z</time></trkpt><trkpt lat="43.619615" lon="11.5426233"><ele>233.0</ele><time>2026-04-07T15:54:16.289Z</time></trkpt><trkpt lat="43.6196217" lon="11.5424683"><ele>231.99999999999997</ele><time>2026-04-07T15:54:17.29Z</time></trkpt><trkpt lat="43.61963" lon="11.5423267"><ele>230.99999999999997</ele><time>2026-04-07T15:54:18.291Z</time></trkpt><trkpt lat="43.6196333" lon="11.542195"><ele>230.0</ele><time>2026-04-07T15:54:19.287Z</time></trkpt><trkpt lat="43.6196383" lon="11.54207"><ele>229.0</ele><time>2026-04-07T15:54:20.288Z</time></trkpt><trkpt lat="43.61965" lon="11.5419433"><ele>229.0</ele><time>2026-04-07T15:54:21.287Z</time></trkpt><trkpt lat="43.619675" lon="11.54182"><ele>228.99999999999997</ele><time>2026-04-07T15:54:22.287Z</time></trkpt><trkpt lat="43.6197183" lon="11.5417017"><ele>228.99999999999997</ele><time>2026-04-07T15:54:23.286Z</time></trkpt><trkpt lat="43.6197767" lon="11.541605"><ele>229.0</ele><time>2026-04-07T15:54:24.288Z</time></trkpt><trkpt lat="43.61984" lon="11.5415167"><ele>229.0</ele><time>2026-04-07T15:54:25.289Z</time></trkpt><trkpt lat="43.6199083" lon="11.5414283"><ele>229.0</ele><time>2026-04-07T15:54:26.288Z</time></trkpt><trkpt lat="43.6199667" lon="11.541355"><ele>229.0</ele><time>2026-04-07T15:54:27.287Z</time></trkpt><trkpt lat="43.6200267" lon="11.5412783"><ele>229.0</ele><time>2026-04-07T15:54:28.287Z</time></trkpt><trkpt lat="43.6200817" lon="11.5412083"><ele>229.0</ele><time>2026-04-07T15:54:29.286Z</time></trkpt><trkpt lat="43.6205417" lon="11.5407283"><ele>224.66666666666666</ele><time>2026-04-07T15:54:33.292Z</time></trkpt><trkpt lat="43.6207667" lon="11.54073"><ele>220.33333333333331</ele><time>2026-04-07T15:54:34.287Z</time></trkpt><trkpt lat="43.620965" lon="11.5406483"><ele>216.0</ele><time>2026-04-07T15:54:35.289Z</time></trkpt><trkpt lat="43.6211333" lon="11.5405133"><ele>213.0</ele><time>2026-04-07T15:54:36.287Z</time></trkpt><trkpt lat="43.6212783" lon="11.5403933"><ele>210.0</ele><time>2026-04-07T15:54:37.289Z</time></trkpt><trkpt lat="43.6214083" lon="11.540295"><ele>207.0</ele><time>2026-04-07T15:54:38.291Z</time></trkpt><trkpt lat="43.6215333" lon="11.5401733"><ele>201.0</ele><time>2026-04-07T15:54:39.286Z</time></trkpt><trkpt lat="43.6216567" lon="11.54005"><ele>195.0</ele><time>2026-04-07T15:54:40.287Z</time></trkpt><trkpt lat="43.6217783" lon="11.5399217"><ele>189.0</ele><time>2026-04-07T15:54:41.287Z</time></trkpt><trkpt lat="43.6219017" lon="11.5397917"><ele>188.66666666666666</ele><time>2026-04-07T15:54:42.286Z</time></trkpt><trkpt lat="43.62202" lon="11.5396517"><ele>188.33333333333331</ele><time>2026-04-07T15:54:43.287Z</time></trkpt><trkpt lat="43.62214" lon="11.539505"><ele>188.0</ele><time>2026-04-07T15:54:44.285Z</time></trkpt><trkpt lat="43.622255" lon="11.5393533"><ele>185.0</ele><time>2026-04-07T15:54:45.287Z</time></trkpt><trkpt lat="43.6223717" lon="11.539195"><ele>182.0</ele><time>2026-04-07T15:54:46.286Z</time></trkpt><trkpt lat="43.6224833" lon="11.5390317"><ele>179.0</ele><time>2026-04-07T15:54:47.286Z</time></trkpt><trkpt lat="43.6225933" lon="11.538865"><ele>177.66666666666666</ele><time>2026-04-07T15:54:48.286Z</time></trkpt><trkpt lat="43.6227" lon="11.53869"><ele>176.33333333333334</ele><time>2026-04-07T15:54:49.286Z</time></trkpt><trkpt lat="43.6228" lon="11.5385117"><ele>175.0</ele><time>2026-04-07T15:54:50.286Z</time></trkpt><trkpt lat="43.6229" lon="11.53833"><ele>172.33333333333334</ele><time>2026-04-07T15:54:51.284Z</time></trkpt><trkpt lat="43.623" lon="11.5381467"><ele>169.66666666666666</ele><time>2026-04-07T15:54:52.285Z</time></trkpt><trkpt lat="43.623095" lon="11.5379567"><ele>167.0</ele><time>2026-04-07T15:54:53.286Z</time></trkpt><trkpt lat="43.6231867" lon="11.5377617"><ele>166.0</ele><time>2026-04-07T15:54:54.286Z</time></trkpt><trkpt lat="43.6232817" lon="11.5375733"><ele>165.0</ele><time>2026-04-07T15:54:55.287Z</time></trkpt><trkpt lat="43.6233733" lon="11.537385"><ele>164.0</ele><time>2026-04-07T15:54:56.286Z</time></trkpt><trkpt lat="43.62346" lon="11.5371933"><ele>164.33333333333331</ele><time>2026-04-07T15:54:57.285Z</time></trkpt><trkpt lat="43.6235483" lon="11.5370083"><ele>164.66666666666666</ele><time>2026-04-07T15:54:58.287Z</time></trkpt><trkpt lat="43.6236417" lon="11.5368233"><ele>165.0</ele><time>2026-04-07T15:54:59.286Z</time></trkpt><trkpt lat="43.62373" lon="11.53664"><ele>164.0</ele><time>2026-04-07T15:55:00.287Z</time></trkpt><trkpt lat="43.62382" lon="11.5364483"><ele>163.0</ele><time>2026-04-07T15:55:01.286Z</time></trkpt><trkpt lat="43.623905" lon="11.5362667"><ele>162.0</ele><time>2026-04-07T15:55:02.286Z</time></trkpt><trkpt lat="43.6239883" lon="11.5360867"><ele>161.75</ele><time>2026-04-07T15:55:03.287Z</time></trkpt><trkpt lat="43.6240633" lon="11.5359133"><ele>161.5</ele><time>2026-04-07T15:55:04.287Z</time></trkpt><trkpt lat="43.6241383" lon="11.5357433"><ele>161.25</ele><time>2026-04-07T15:55:05.288Z</time></trkpt><trkpt lat="43.6242167" lon="11.53558"><ele>161.0</ele><time>2026-04-07T15:55:06.286Z</time></trkpt><trkpt lat="43.6242933" lon="11.5354167"><ele>160.5</ele><time>2026-04-07T15:55:07.287Z</time></trkpt><trkpt lat="43.624365" lon="11.535245"><ele>160.0</ele><time>2026-04-07T15:55:08.287Z</time></trkpt><trkpt lat="43.6244333" lon="11.5350817"><ele>159.5</ele><time>2026-04-07T15:55:09.287Z</time></trkpt><trkpt lat="43.6244917" lon="11.5349167"><ele>159.0</ele><time>2026-04-07T15:55:10.287Z</time></trkpt><trkpt lat="43.6245483" lon="11.5347633"><ele>160.25</ele><time>2026-04-07T15:55:11.287Z</time></trkpt><trkpt lat="43.6246" lon="11.5346067"><ele>161.5</ele><time>2026-04-07T15:55:12.286Z</time></trkpt><trkpt lat="43.624645" lon="11.5344433"><ele>162.75</ele><time>2026-04-07T15:55:13.286Z</time></trkpt><trkpt lat="43.6246883" lon="11.5342933"><ele>164.0</ele><time>2026-04-07T15:55:14.286Z</time></trkpt><trkpt lat="43.624725" lon="11.534145"><ele>164.2</ele><time>2026-04-07T15:55:15.285Z</time></trkpt><trkpt lat="43.6247567" lon="11.5339983"><ele>164.39999999999998</ele><time>2026-04-07T15:55:16.286Z</time></trkpt><trkpt lat="43.624795" lon="11.5338567"><ele>164.6</ele><time>2026-04-07T15:55:17.286Z</time></trkpt><trkpt lat="43.6248283" lon="11.5337167"><ele>164.8</ele><time>2026-04-07T15:55:18.287Z</time></trkpt><trkpt lat="43.6248617" lon="11.533575"><ele>165.0</ele><time>2026-04-07T15:55:19.286Z</time></trkpt><trkpt lat="43.6248967" lon="11.5334367"><ele>164.2</ele><time>2026-04-07T15:55:20.286Z</time></trkpt><trkpt lat="43.6249317" lon="11.5333"><ele>163.4</ele><time>2026-04-07T15:55:21.286Z</time></trkpt><trkpt lat="43.6249633" lon="11.5331633"><ele>162.60000000000002</ele><time>2026-04-07T15:55:22.287Z</time></trkpt><trkpt lat="43.624995" lon="11.5330233"><ele>161.8</ele><time>2026-04-07T15:55:23.287Z</time></trkpt><trkpt lat="43.6250267" lon="11.5328883"><ele>161.0</ele><time>2026-04-07T15:55:24.287Z</time></trkpt><trkpt lat="43.6250617" lon="11.5327483"><ele>160.20000000000002</ele><time>2026-04-07T15:55:25.287Z</time></trkpt><trkpt lat="43.625095" lon="11.53261"><ele>159.4</ele><time>2026-04-07T15:55:26.287Z</time></trkpt><trkpt lat="43.62513" lon="11.532475"><ele>158.6</ele><time>2026-04-07T15:55:27.287Z</time></trkpt><trkpt lat="43.6251633" lon="11.5323433"><ele>157.8</ele><time>2026-04-07T15:55:28.289Z</time></trkpt><trkpt lat="43.625195" lon="11.5322133"><ele>157.0</ele><time>2026-04-07T15:55:29.289Z</time></trkpt><trkpt lat="43.625225" lon="11.5320833"><ele>156.79999999999998</ele><time>2026-04-07T15:55:30.288Z</time></trkpt><trkpt lat="43.6252583" lon="11.5319483"><ele>156.6</ele><time>2026-04-07T15:55:31.286Z</time></trkpt><trkpt lat="43.6252917" lon="11.5318167"><ele>156.39999999999998</ele><time>2026-04-07T15:55:32.286Z</time></trkpt><trkpt lat="43.6253267" lon="11.531675"><ele>156.2</ele><time>2026-04-07T15:55:33.287Z</time></trkpt><trkpt lat="43.6253583" lon="11.5315467"><ele>156.0</ele><time>2026-04-07T15:55:34.287Z</time></trkpt><trkpt lat="43.62539" lon="11.5314183"><ele>156.4</ele><time>2026-04-07T15:55:35.287Z</time></trkpt><trkpt lat="43.6254233" lon="11.531295"><ele>156.8</ele><time>2026-04-07T15:55:36.286Z</time></trkpt><trkpt lat="43.6254533" lon="11.5311733"><ele>157.20000000000002</ele><time>2026-04-07T15:55:37.289Z</time></trkpt><trkpt lat="43.6254867" lon="11.5310467"><ele>157.6</ele><time>2026-04-07T15:55:38.288Z</time></trkpt><trkpt lat="43.6255133" lon="11.5309217"><ele>158.0</ele><time>2026-04-07T15:55:39.287Z</time></trkpt><trkpt lat="43.625535" lon="11.5307933"><ele>158.0</ele><time>2026-04-07T15:55:40.29Z</time></trkpt><trkpt lat="43.6255517" lon="11.5306633"><ele>158.0</ele><time>2026-04-07T15:55:41.288Z</time></trkpt><trkpt lat="43.625565" lon="11.5305317"><ele>158.0</ele><time>2026-04-07T15:55:42.289Z</time></trkpt><trkpt lat="43.6255767" lon="11.530405"><ele>158.0</ele><time>2026-04-07T15:55:43.288Z</time></trkpt><trkpt lat="43.6255817" lon="11.53028"><ele>158.0</ele><time>2026-04-07T15:55:44.289Z</time></trkpt><trkpt lat="43.6255867" lon="11.5301533"><ele>157.8</ele><time>2026-04-07T15:55:45.289Z</time></trkpt><trkpt lat="43.625585" lon="11.5300267"><ele>157.60000000000002</ele><time>2026-04-07T15:55:46.288Z</time></trkpt><trkpt lat="43.6255833" lon="11.5298983"><ele>157.39999999999998</ele><time>2026-04-07T15:55:47.288Z</time></trkpt><trkpt lat="43.625575" lon="11.5297767"><ele>157.2</ele><time>2026-04-07T15:55:48.289Z</time></trkpt><trkpt lat="43.62557" lon="11.5296483"><ele>157.0</ele><time>2026-04-07T15:55:49.288Z</time></trkpt><trkpt lat="43.6255617" lon="11.5295183"><ele>156.4</ele><time>2026-04-07T15:55:50.289Z</time></trkpt><trkpt lat="43.62555" lon="11.5293867"><ele>155.79999999999998</ele><time>2026-04-07T15:55:51.289Z</time></trkpt><trkpt lat="43.6255333" lon="11.5292533"><ele>155.2</ele><time>2026-04-07T15:55:52.288Z</time></trkpt><trkpt lat="43.6255117" lon="11.529125"><ele>154.6</ele><time>2026-04-07T15:55:53.287Z</time></trkpt><trkpt lat="43.6254883" lon="11.5290033"><ele>154.0</ele><time>2026-04-07T15:55:54.287Z</time></trkpt><trkpt lat="43.625465" lon="11.5288767"><ele>154.0</ele><time>2026-04-07T15:55:55.288Z</time></trkpt><trkpt lat="43.6254433" lon="11.5287533"><ele>154.0</ele><time>2026-04-07T15:55:56.289Z</time></trkpt><trkpt lat="43.6254217" lon="11.52863"><ele>154.0</ele><time>2026-04-07T15:55:57.287Z</time></trkpt><trkpt lat="43.6253967" lon="11.5285083"><ele>154.0</ele><time>2026-04-07T15:55:58.287Z</time></trkpt><trkpt lat="43.62537" lon="11.5283867"><ele>154.0</ele><time>2026-04-07T15:55:59.287Z</time></trkpt><trkpt lat="43.6253433" lon="11.528265"><ele>153.5</ele><time>2026-04-07T15:56:00.288Z</time></trkpt><trkpt lat="43.62532" lon="11.5281467"><ele>153.0</ele><time>2026-04-07T15:56:01.287Z</time></trkpt><trkpt lat="43.625295" lon="11.5280283"><ele>152.5</ele><time>2026-04-07T15:56:02.29Z</time></trkpt><trkpt lat="43.6252683" lon="11.52791"><ele>152.0</ele><time>2026-04-07T15:56:03.287Z</time></trkpt><trkpt lat="43.625245" lon="11.5277933"><ele>151.5</ele><time>2026-04-07T15:56:04.288Z</time></trkpt><trkpt lat="43.6252233" lon="11.527675"><ele>151.0</ele><time>2026-04-07T15:56:05.288Z</time></trkpt><trkpt lat="43.6252033" lon="11.527555"><ele>150.8</ele><time>2026-04-07T15:56:06.287Z</time></trkpt><trkpt lat="43.6251833" lon="11.5274333"><ele>150.6</ele><time>2026-04-07T15:56:07.288Z</time></trkpt><trkpt lat="43.625165" lon="11.5273083"><ele>150.4</ele><time>2026-04-07T15:56:08.288Z</time></trkpt><trkpt lat="43.6251467" lon="11.527185"><ele>150.2</ele><time>2026-04-07T15:56:09.29Z</time></trkpt><trkpt lat="43.6251283" lon="11.5270617"><ele>150.0</ele><time>2026-04-07T15:56:10.29Z</time></trkpt><trkpt lat="43.6251117" lon="11.5269367"><ele>150.0</ele><time>2026-04-07T15:56:11.287Z</time></trkpt><trkpt lat="43.625095" lon="11.5268117"><ele>150.0</ele><time>2026-04-07T15:56:12.287Z</time></trkpt><trkpt lat="43.6250817" lon="11.5266883"><ele>150.0</ele><time>2026-04-07T15:56:13.287Z</time></trkpt><trkpt lat="43.6250667" lon="11.5265583"><ele>150.0</ele><time>2026-04-07T15:56:14.29Z</time></trkpt><trkpt lat="43.6250517" lon="11.5264233"><ele>150.0</ele><time>2026-04-07T15:56:15.288Z</time></trkpt><trkpt lat="43.62504" lon="11.5262933"><ele>149.4</ele><time>2026-04-07T15:56:16.287Z</time></trkpt><trkpt lat="43.625035" lon="11.5261567"><ele>148.8</ele><time>2026-04-07T15:56:17.291Z</time></trkpt><trkpt lat="43.62503" lon="11.5260183"><ele>148.2</ele><time>2026-04-07T15:56:18.289Z</time></trkpt><trkpt lat="43.62503" lon="11.525875"><ele>147.6</ele><time>2026-04-07T15:56:19.289Z</time></trkpt><trkpt lat="43.6250267" lon="11.5257317"><ele>147.0</ele><time>2026-04-07T15:56:20.29Z</time></trkpt><trkpt lat="43.6250283" lon="11.52559"><ele>147.0</ele><time>2026-04-07T15:56:21.289Z</time></trkpt><trkpt lat="43.6250317" lon="11.5254467"><ele>147.0</ele><time>2026-04-07T15:56:22.29Z</time></trkpt><trkpt lat="43.6250367" lon="11.5252983"><ele>147.0</ele><time>2026-04-07T15:56:23.289Z</time></trkpt><trkpt lat="43.6250417" lon="11.5251483"><ele>147.0</ele><time>2026-04-07T15:56:24.289Z</time></trkpt><trkpt lat="43.6250467" lon="11.5249983"><ele>147.0</ele><time>2026-04-07T15:56:25.29Z</time></trkpt><trkpt lat="43.6250517" lon="11.5248533"><ele>147.2</ele><time>2026-04-07T15:56:26.289Z</time></trkpt><trkpt lat="43.6250567" lon="11.5247083"><ele>147.39999999999998</ele><time>2026-04-07T15:56:27.288Z</time></trkpt><trkpt lat="43.6250617" lon="11.5245617"><ele>147.60000000000002</ele><time>2026-04-07T15:56:28.289Z</time></trkpt><trkpt lat="43.6250667" lon="11.52442"><ele>147.8</ele><time>2026-04-07T15:56:29.289Z</time></trkpt><trkpt lat="43.62507" lon="11.5242833"><ele>148.0</ele><time>2026-04-07T15:56:30.289Z</time></trkpt><trkpt lat="43.625075" lon="11.5241583"><ele>148.16666666666669</ele><time>2026-04-07T15:56:31.288Z</time></trkpt><trkpt lat="43.62508" lon="11.5240267"><ele>148.33333333333334</ele><time>2026-04-07T15:56:32.288Z</time></trkpt><trkpt lat="43.6250817" lon="11.5239017"><ele>148.5</ele><time>2026-04-07T15:56:33.29Z</time></trkpt><trkpt lat="43.625085" lon="11.52378"><ele>148.66666666666666</ele><time>2026-04-07T15:56:34.287Z</time></trkpt><trkpt lat="43.6250933" lon="11.5236617"><ele>148.83333333333331</ele><time>2026-04-07T15:56:35.289Z</time></trkpt><trkpt lat="43.6251033" lon="11.5235483"><ele>149.0</ele><time>2026-04-07T15:56:36.289Z</time></trkpt><trkpt lat="43.6251183" lon="11.5234383"><ele>149.0</ele><time>2026-04-07T15:56:37.29Z</time></trkpt><trkpt lat="43.6251367" lon="11.52333"><ele>149.0</ele><time>2026-04-07T15:56:38.288Z</time></trkpt><trkpt lat="43.6251617" lon="11.523235"><ele>149.0</ele><time>2026-04-07T15:56:39.288Z</time></trkpt><trkpt lat="43.6252" lon="11.523155"><ele>149.0</ele><time>2026-04-07T15:56:40.287Z</time></trkpt><trkpt lat="43.625255" lon="11.5230917"><ele>149.0</ele><time>2026-04-07T15:56:41.289Z</time></trkpt><trkpt lat="43.62532" lon="11.5230517"><ele>149.0</ele><time>2026-04-07T15:56:42.288Z</time></trkpt><trkpt lat="43.62539" lon="11.523035"><ele>149.0</ele><time>2026-04-07T15:56:43.286Z</time></trkpt><trkpt lat="43.6254567" lon="11.523035"><ele>149.0</ele><time>2026-04-07T15:56:44.29Z</time></trkpt><trkpt lat="43.6255217" lon="11.5230317"><ele>149.0</ele><time>2026-04-07T15:56:45.288Z</time></trkpt><trkpt lat="43.6255867" lon="11.5230183"><ele>149.0</ele><time>2026-04-07T15:56:46.288Z</time></trkpt><trkpt lat="43.6256517" lon="11.5230033"><ele>149.0</ele><time>2026-04-07T15:56:47.288Z</time></trkpt><trkpt lat="43.6257617" lon="11.5229667"><ele>149.0</ele><time>2026-04-07T15:56:49.289Z</time></trkpt><trkpt lat="43.6258633" lon="11.5229333"><ele>149.0</ele><time>2026-04-07T15:56:51.29Z</time></trkpt><trkpt lat="43.625965" lon="11.5228867"><ele>149.0</ele><time>2026-04-07T15:56:53.291Z</time></trkpt><trkpt lat="43.6260667" lon="11.5228067"><ele>149.0</ele><time>2026-04-07T15:56:55.289Z</time></trkpt><trkpt lat="43.626155" lon="11.5227033"><ele>149.0</ele><time>2026-04-07T15:56:57.288Z</time></trkpt><trkpt lat="43.6262367" lon="11.5226067"><ele>149.0</ele><time>2026-04-07T15:56:59.289Z</time></trkpt><trkpt lat="43.6263117" lon="11.522495"><ele>149.0</ele><time>2026-04-07T15:57:01.29Z</time></trkpt><trkpt lat="43.6263967" lon="11.5223817"><ele>149.0</ele><time>2026-04-07T15:57:03.288Z</time></trkpt><trkpt lat="43.6264783" lon="11.522265"><ele>149.0</ele><time>2026-04-07T15:57:05.288Z</time></trkpt><trkpt lat="43.62655" lon="11.5221333"><ele>149.0</ele><time>2026-04-07T15:57:07.289Z</time></trkpt><trkpt lat="43.6266217" lon="11.5219983"><ele>149.0</ele><time>2026-04-07T15:57:09.289Z</time></trkpt><trkpt lat="43.6266883" lon="11.5218567"><ele>149.0</ele><time>2026-04-07T15:57:11.289Z</time></trkpt><trkpt lat="43.626725" lon="11.52178"><ele>149.0</ele><time>2026-04-07T15:57:12.289Z</time></trkpt><trkpt lat="43.6267633" lon="11.521705"><ele>149.0</ele><time>2026-04-07T15:57:13.29Z</time></trkpt><trkpt lat="43.6268067" lon="11.52163"><ele>149.0</ele><time>2026-04-07T15:57:14.29Z</time></trkpt><trkpt lat="43.6268483" lon="11.52156"><ele>149.0</ele><time>2026-04-07T15:57:15.289Z</time></trkpt><trkpt lat="43.62689" lon="11.5214883"><ele>149.0</ele><time>2026-04-07T15:57:16.287Z</time></trkpt><trkpt lat="43.6269317" lon="11.521415"><ele>149.0</ele><time>2026-04-07T15:57:17.288Z</time></trkpt><trkpt lat="43.62697" lon="11.5213367"><ele>149.0</ele><time>2026-04-07T15:57:18.29Z</time></trkpt><trkpt lat="43.6270117" lon="11.52126"><ele>149.0</ele><time>2026-04-07T15:57:19.29Z</time></trkpt><trkpt lat="43.6270483" lon="11.5211883"><ele>149.0</ele><time>2026-04-07T15:57:20.288Z</time></trkpt><trkpt lat="43.6270817" lon="11.52111"><ele>149.0</ele><time>2026-04-07T15:57:21.291Z</time></trkpt><trkpt lat="43.6271383" lon="11.5209567"><ele>149.16666666666666</ele><time>2026-04-07T15:57:23.288Z</time></trkpt><trkpt lat="43.627165" lon="11.520875"><ele>149.33333333333331</ele><time>2026-04-07T15:57:24.287Z</time></trkpt><trkpt lat="43.6271967" lon="11.5207933"><ele>149.5</ele><time>2026-04-07T15:57:25.289Z</time></trkpt><trkpt lat="43.62723" lon="11.52071"><ele>149.66666666666666</ele><time>2026-04-07T15:57:26.289Z</time></trkpt><trkpt lat="43.627265" lon="11.5206267"><ele>149.83333333333334</ele><time>2026-04-07T15:57:27.287Z</time></trkpt><trkpt lat="43.6272967" lon="11.5205467"><ele>150.0</ele><time>2026-04-07T15:57:28.289Z</time></trkpt><trkpt lat="43.6273417" lon="11.5204017"><ele>150.6</ele><time>2026-04-07T15:57:30.289Z</time></trkpt><trkpt lat="43.6273817" lon="11.52026"><ele>151.2</ele><time>2026-04-07T15:57:32.29Z</time></trkpt><trkpt lat="43.627425" lon="11.5201183"><ele>151.8</ele><time>2026-04-07T15:57:34.289Z</time></trkpt><trkpt lat="43.6274617" lon="11.5199817"><ele>152.4</ele><time>2026-04-07T15:57:36.287Z</time></trkpt><trkpt lat="43.627485" lon="11.5198433"><ele>153.0</ele><time>2026-04-07T15:57:38.287Z</time></trkpt><trkpt lat="43.627525" lon="11.5196933"><ele>153.4</ele><time>2026-04-07T15:57:40.287Z</time></trkpt><trkpt lat="43.6275483" lon="11.5195433"><ele>153.8</ele><time>2026-04-07T15:57:42.289Z</time></trkpt><trkpt lat="43.6275633" lon="11.5194583"><ele>154.2</ele><time>2026-04-07T15:57:43.289Z</time></trkpt><trkpt lat="43.6275933" lon="11.51929"><ele>154.6</ele><time>2026-04-07T15:57:45.286Z</time></trkpt><trkpt lat="43.6276083" lon="11.519205"><ele>155.0</ele><time>2026-04-07T15:57:46.285Z</time></trkpt><trkpt lat="43.627635" lon="11.519045"><ele>155.0</ele><time>2026-04-07T15:57:48.286Z</time></trkpt><trkpt lat="43.6276717" lon="11.5188883"><ele>155.0</ele><time>2026-04-07T15:57:50.288Z</time></trkpt><trkpt lat="43.6277083" lon="11.51874"><ele>155.0</ele><time>2026-04-07T15:57:52.288Z</time></trkpt><trkpt lat="43.62774" lon="11.5185883"><ele>155.0</ele><time>2026-04-07T15:57:54.285Z</time></trkpt><trkpt lat="43.6277717" lon="11.5184417"><ele>154.75</ele><time>2026-04-07T15:57:56.288Z</time></trkpt><trkpt lat="43.6277967" lon="11.5182933"><ele>154.5</ele><time>2026-04-07T15:57:58.287Z</time></trkpt><trkpt lat="43.6278133" lon="11.5181417"><ele>154.25</ele><time>2026-04-07T15:58:00.286Z</time></trkpt><trkpt lat="43.62783" lon="11.5179767"><ele>154.0</ele><time>2026-04-07T15:58:02.288Z</time></trkpt><trkpt lat="43.6278383" lon="11.5177967"><ele>154.5</ele><time>2026-04-07T15:58:04.285Z</time></trkpt><trkpt lat="43.6278433" lon="11.5176983"><ele>155.0</ele><time>2026-04-07T15:58:05.286Z</time></trkpt><trkpt lat="43.6278467" lon="11.5175967"><ele>155.5</ele><time>2026-04-07T15:58:06.286Z</time></trkpt><trkpt lat="43.6278483" lon="11.5175033"><ele>156.0</ele><time>2026-04-07T15:58:07.288Z</time></trkpt><trkpt lat="43.6278417" lon="11.5173417"><ele>156.5</ele><time>2026-04-07T15:58:09.286Z</time></trkpt><trkpt lat="43.6277933" lon="11.5172583"><ele>157.0</ele><time>2026-04-07T15:58:11.29Z</time></trkpt><trkpt lat="43.6277117" lon="11.5172583"><ele>155.6</ele><time>2026-04-07T15:58:13.291Z</time></trkpt><trkpt lat="43.6276433" lon="11.5173167"><ele>154.2</ele><time>2026-04-07T15:58:15.286Z</time></trkpt><trkpt lat="43.6275567" lon="11.51734"><ele>152.8</ele><time>2026-04-07T15:58:17.287Z</time></trkpt><trkpt lat="43.6274617" lon="11.5172883"><ele>151.4</ele><time>2026-04-07T15:58:19.287Z</time></trkpt><trkpt lat="43.62741" lon="11.51717"><ele>150.0</ele><time>2026-04-07T15:58:21.287Z</time></trkpt><trkpt lat="43.6274267" lon="11.517025"><ele>149.4</ele><time>2026-04-07T15:58:23.288Z</time></trkpt><trkpt lat="43.62744" lon="11.5168583"><ele>148.8</ele><time>2026-04-07T15:58:25.286Z</time></trkpt><trkpt lat="43.627435" lon="11.516705"><ele>148.2</ele><time>2026-04-07T15:58:27.286Z</time></trkpt><trkpt lat="43.6274317" lon="11.5165917"><ele>147.6</ele><time>2026-04-07T15:58:30.29Z</time></trkpt><trkpt lat="43.6274383" lon="11.516485"><ele>147.0</ele><time>2026-04-07T15:58:33.29Z</time></trkpt><trkpt lat="43.6274083" lon="11.5164033"><ele>147.0</ele><time>2026-04-07T15:59:38.618Z</time></trkpt><trkpt lat="43.6273762" lon="11.516216"><ele>145.0</ele><time>2026-04-07T15:59:47.196Z</time></trkpt></trkseg></trk></gpx>